<?xml version="1.0" encoding="UTF-8" standalone="no" ?>
<gpx xmlns="http://www.topografix.com/GPX/1/1" xmlns:xsi="http://www.w3.org/2001/XMLSchema-instance" xsi:schemaLocation="http://www.topografix.com/GPX/1/1 http://www.topografix.com/GPX/1/1/gpx.xsd" version="1.1" creator="VisuGPX - https://www.visugpx.com">
  <metadata>
    <name>MB. Sortie du 04/07/2019</name>
    <desc><![CDATA[Sortie VTT du jeudi 04 juillet 2019]]></desc>
  </metadata>
  <trk>
    <name><![CDATA[Pornichet Cyclisme]]></name>
    <trkseg>
      <trkpt lat="47.26411" lon="-2.31575">
        <ele>3.4000000953674</ele>
        <time>2019-07-04T07:27:51.000Z</time>
      </trkpt>
      <trkpt lat="47.2641" lon="-2.31603">
        <ele>3.2000000476837</ele>
        <time>2019-07-04T07:27:54.000Z</time>
      </trkpt>
      <trkpt lat="47.2641" lon="-2.31618">
        <ele>3.2000000476837</ele>
        <time>2019-07-04T07:27:59.000Z</time>
      </trkpt>
      <trkpt lat="47.2641" lon="-2.31647">
        <ele>3.2000000476837</ele>
        <time>2019-07-04T07:28:05.000Z</time>
      </trkpt>
      <trkpt lat="47.26409" lon="-2.3166">
        <ele>3.2000000476837</ele>
        <time>2019-07-04T07:28:08.000Z</time>
      </trkpt>
      <trkpt lat="47.26408" lon="-2.31664">
        <ele>3.2000000476837</ele>
        <time>2019-07-04T07:28:09.000Z</time>
      </trkpt>
      <trkpt lat="47.26397" lon="-2.31672">
        <ele>3.2000000476837</ele>
        <time>2019-07-04T07:28:13.000Z</time>
      </trkpt>
      <trkpt lat="47.26393" lon="-2.31674">
        <ele>3.2000000476837</ele>
        <time>2019-07-04T07:28:14.000Z</time>
      </trkpt>
      <trkpt lat="47.26366" lon="-2.31689">
        <ele>3.2000000476837</ele>
        <time>2019-07-04T07:28:20.000Z</time>
      </trkpt>
      <trkpt lat="47.26334" lon="-2.31706">
        <ele>3.2000000476837</ele>
        <time>2019-07-04T07:28:26.000Z</time>
      </trkpt>
      <trkpt lat="47.26328" lon="-2.31709">
        <ele>2.7999999523163</ele>
        <time>2019-07-04T07:28:27.000Z</time>
      </trkpt>
      <trkpt lat="47.26323" lon="-2.31713">
        <ele>2.4000000953674</ele>
        <time>2019-07-04T07:28:28.000Z</time>
      </trkpt>
      <trkpt lat="47.26317" lon="-2.31715">
        <ele>2</ele>
        <time>2019-07-04T07:28:29.000Z</time>
      </trkpt>
      <trkpt lat="47.26312" lon="-2.31717">
        <ele>1.6000000238419</ele>
        <time>2019-07-04T07:28:30.000Z</time>
      </trkpt>
      <trkpt lat="47.26307" lon="-2.31718">
        <ele>1.2000000476837</ele>
        <time>2019-07-04T07:28:31.000Z</time>
      </trkpt>
      <trkpt lat="47.263" lon="-2.31713">
        <ele>1.2000000476837</ele>
        <time>2019-07-04T07:28:33.000Z</time>
      </trkpt>
      <trkpt lat="47.26292" lon="-2.317">
        <ele>1.2000000476837</ele>
        <time>2019-07-04T07:28:36.000Z</time>
      </trkpt>
      <trkpt lat="47.26286" lon="-2.31689">
        <ele>1.2000000476837</ele>
        <time>2019-07-04T07:28:38.000Z</time>
      </trkpt>
      <trkpt lat="47.26278" lon="-2.31674">
        <ele>1.2000000476837</ele>
        <time>2019-07-04T07:28:41.000Z</time>
      </trkpt>
      <trkpt lat="47.2627" lon="-2.31661">
        <ele>1.2000000476837</ele>
        <time>2019-07-04T07:28:44.000Z</time>
      </trkpt>
      <trkpt lat="47.2626" lon="-2.31639">
        <ele>1.2000000476837</ele>
        <time>2019-07-04T07:28:49.000Z</time>
      </trkpt>
      <trkpt lat="47.26247" lon="-2.31625">
        <ele>1.2000000476837</ele>
        <time>2019-07-04T07:28:53.000Z</time>
      </trkpt>
      <trkpt lat="47.26233" lon="-2.31611">
        <ele>1.2000000476837</ele>
        <time>2019-07-04T07:28:57.000Z</time>
      </trkpt>
      <trkpt lat="47.26229" lon="-2.31608">
        <ele>1.2000000476837</ele>
        <time>2019-07-04T07:28:58.000Z</time>
      </trkpt>
      <trkpt lat="47.26216" lon="-2.31603">
        <ele>0.80000001192093</ele>
        <time>2019-07-04T07:29:01.000Z</time>
      </trkpt>
      <trkpt lat="47.26211" lon="-2.31603">
        <ele>0.40000000596046</ele>
        <time>2019-07-04T07:29:02.000Z</time>
      </trkpt>
      <trkpt lat="47.26207" lon="-2.31603">
        <ele>4.7</ele>
        <time>2019-07-04T07:29:03.000Z</time>
      </trkpt>
      <trkpt lat="47.26202" lon="-2.31603">
        <ele>-0.40000000596046</ele>
        <time>2019-07-04T07:29:04.000Z</time>
      </trkpt>
      <trkpt lat="47.26197" lon="-2.31603">
        <ele>-0.80000001192093</ele>
        <time>2019-07-04T07:29:05.000Z</time>
      </trkpt>
      <trkpt lat="47.26174" lon="-2.31608">
        <ele>-0.80000001192093</ele>
        <time>2019-07-04T07:29:10.000Z</time>
      </trkpt>
      <trkpt lat="47.26143" lon="-2.31618">
        <ele>-0.80000001192093</ele>
        <time>2019-07-04T07:29:17.000Z</time>
      </trkpt>
      <trkpt lat="47.26113" lon="-2.31619">
        <ele>-0.80000001192093</ele>
        <time>2019-07-04T07:29:24.000Z</time>
      </trkpt>
      <trkpt lat="47.26099" lon="-2.31605">
        <ele>-0.80000001192093</ele>
        <time>2019-07-04T07:29:28.000Z</time>
      </trkpt>
      <trkpt lat="47.26094" lon="-2.31597">
        <ele>-0.80000001192093</ele>
        <time>2019-07-04T07:29:30.000Z</time>
      </trkpt>
      <trkpt lat="47.26088" lon="-2.31588">
        <ele>-0.80000001192093</ele>
        <time>2019-07-04T07:29:34.000Z</time>
      </trkpt>
      <trkpt lat="47.26078" lon="-2.31578">
        <ele>-0.80000001192093</ele>
        <time>2019-07-04T07:29:39.000Z</time>
      </trkpt>
      <trkpt lat="47.26072" lon="-2.31567">
        <ele>-0.80000001192093</ele>
        <time>2019-07-04T07:29:42.000Z</time>
      </trkpt>
      <trkpt lat="47.2607" lon="-2.31558">
        <ele>-0.80000001192093</ele>
        <time>2019-07-04T07:29:44.000Z</time>
      </trkpt>
      <trkpt lat="47.26055" lon="-2.31531">
        <ele>-0.80000001192093</ele>
        <time>2019-07-04T07:29:50.000Z</time>
      </trkpt>
      <trkpt lat="47.2604" lon="-2.31515">
        <ele>-0.40000000596046</ele>
        <time>2019-07-04T07:29:56.000Z</time>
      </trkpt>
      <trkpt lat="47.26037" lon="-2.31517">
        <ele>0.20000000298023</ele>
        <time>2019-07-04T07:29:57.000Z</time>
      </trkpt>
      <trkpt lat="47.26036" lon="-2.31522">
        <ele>0.60000002384186</ele>
        <time>2019-07-04T07:29:58.000Z</time>
      </trkpt>
      <trkpt lat="47.26035" lon="-2.31526">
        <ele>1.2000000476837</ele>
        <time>2019-07-04T07:29:59.000Z</time>
      </trkpt>
      <trkpt lat="47.26033" lon="-2.31531">
        <ele>1.6000000238419</ele>
        <time>2019-07-04T07:30:00.000Z</time>
      </trkpt>
      <trkpt lat="47.26022" lon="-2.31555">
        <ele>1.6000000238419</ele>
        <time>2019-07-04T07:30:05.000Z</time>
      </trkpt>
      <trkpt lat="47.26014" lon="-2.31564">
        <ele>1.6000000238419</ele>
        <time>2019-07-04T07:30:08.000Z</time>
      </trkpt>
      <trkpt lat="47.2601" lon="-2.31562">
        <ele>1.6000000238419</ele>
        <time>2019-07-04T07:30:09.000Z</time>
      </trkpt>
      <trkpt lat="47.26003" lon="-2.3155">
        <ele>1.6000000238419</ele>
        <time>2019-07-04T07:30:12.000Z</time>
      </trkpt>
      <trkpt lat="47.25989" lon="-2.31527">
        <ele>1.6000000238419</ele>
        <time>2019-07-04T07:30:17.000Z</time>
      </trkpt>
      <trkpt lat="47.25983" lon="-2.31517">
        <ele>1.6000000238419</ele>
        <time>2019-07-04T07:30:19.000Z</time>
      </trkpt>
      <trkpt lat="47.25976" lon="-2.31501">
        <ele>1.6000000238419</ele>
        <time>2019-07-04T07:30:22.000Z</time>
      </trkpt>
      <trkpt lat="47.25968" lon="-2.31487">
        <ele>1.6000000238419</ele>
        <time>2019-07-04T07:30:25.000Z</time>
      </trkpt>
      <trkpt lat="47.25948" lon="-2.31466">
        <ele>1.6000000238419</ele>
        <time>2019-07-04T07:30:31.000Z</time>
      </trkpt>
      <trkpt lat="47.25932" lon="-2.31462">
        <ele>1.6000000238419</ele>
        <time>2019-07-04T07:30:36.000Z</time>
      </trkpt>
      <trkpt lat="47.25927" lon="-2.3147">
        <ele>1.6000000238419</ele>
        <time>2019-07-04T07:30:38.000Z</time>
      </trkpt>
      <trkpt lat="47.25926" lon="-2.31474">
        <ele>1.6000000238419</ele>
        <time>2019-07-04T07:30:39.000Z</time>
      </trkpt>
      <trkpt lat="47.25913" lon="-2.31506">
        <ele>2</ele>
        <time>2019-07-04T07:30:48.000Z</time>
      </trkpt>
      <trkpt lat="47.25913" lon="-2.31507">
        <ele>2.4000000953674</ele>
        <time>2019-07-04T07:30:49.000Z</time>
      </trkpt>
      <trkpt lat="47.25914" lon="-2.31508">
        <ele>2.7999999523163</ele>
        <time>2019-07-04T07:30:50.000Z</time>
      </trkpt>
      <trkpt lat="47.25914" lon="-2.31508">
        <ele>3.2000000476837</ele>
        <time>2019-07-04T07:30:51.000Z</time>
      </trkpt>
      <trkpt lat="47.25913" lon="-2.31511">
        <ele>3.5999999046326</ele>
        <time>2019-07-04T07:30:52.000Z</time>
      </trkpt>
      <trkpt lat="47.25911" lon="-2.31512">
        <ele>3.5999999046326</ele>
        <time>2019-07-04T07:30:53.000Z</time>
      </trkpt>
      <trkpt lat="47.25904" lon="-2.31521">
        <ele>3.5999999046326</ele>
        <time>2019-07-04T07:30:57.000Z</time>
      </trkpt>
      <trkpt lat="47.25898" lon="-2.31541">
        <ele>3.5999999046326</ele>
        <time>2019-07-04T07:31:01.000Z</time>
      </trkpt>
      <trkpt lat="47.2589" lon="-2.31563">
        <ele>3.5999999046326</ele>
        <time>2019-07-04T07:31:05.000Z</time>
      </trkpt>
      <trkpt lat="47.25885" lon="-2.31572">
        <ele>3.5999999046326</ele>
        <time>2019-07-04T07:31:07.000Z</time>
      </trkpt>
      <trkpt lat="47.25879" lon="-2.3158">
        <ele>3.5999999046326</ele>
        <time>2019-07-04T07:31:09.000Z</time>
      </trkpt>
      <trkpt lat="47.25866" lon="-2.31592">
        <ele>3.5999999046326</ele>
        <time>2019-07-04T07:31:13.000Z</time>
      </trkpt>
      <trkpt lat="47.25848" lon="-2.31611">
        <ele>4.4000000953674</ele>
        <time>2019-07-04T07:31:19.000Z</time>
      </trkpt>
      <trkpt lat="47.25844" lon="-2.31614">
        <ele>4.8000001907349</ele>
        <time>2019-07-04T07:31:20.000Z</time>
      </trkpt>
      <trkpt lat="47.25841" lon="-2.31616">
        <ele>5.4000000953674</ele>
        <time>2019-07-04T07:31:21.000Z</time>
      </trkpt>
      <trkpt lat="47.25838" lon="-2.31619">
        <ele>5.8000001907349</ele>
        <time>2019-07-04T07:31:22.000Z</time>
      </trkpt>
      <trkpt lat="47.25817" lon="-2.31633">
        <ele>5.8000001907349</ele>
        <time>2019-07-04T07:31:28.000Z</time>
      </trkpt>
      <trkpt lat="47.25778" lon="-2.31665">
        <ele>5.8000001907349</ele>
        <time>2019-07-04T07:31:38.000Z</time>
      </trkpt>
      <trkpt lat="47.25744" lon="-2.31694">
        <ele>5.8000001907349</ele>
        <time>2019-07-04T07:31:45.000Z</time>
      </trkpt>
      <trkpt lat="47.25733" lon="-2.317">
        <ele>5.8000001907349</ele>
        <time>2019-07-04T07:31:47.000Z</time>
      </trkpt>
      <trkpt lat="47.25723" lon="-2.31701">
        <ele>5.8000001907349</ele>
        <time>2019-07-04T07:31:49.000Z</time>
      </trkpt>
      <trkpt lat="47.25714" lon="-2.31697">
        <ele>5.8000001907349</ele>
        <time>2019-07-04T07:31:51.000Z</time>
      </trkpt>
      <trkpt lat="47.25706" lon="-2.31691">
        <ele>5.8000001907349</ele>
        <time>2019-07-04T07:31:53.000Z</time>
      </trkpt>
      <trkpt lat="47.25698" lon="-2.31687">
        <ele>5.8000001907349</ele>
        <time>2019-07-04T07:31:55.000Z</time>
      </trkpt>
      <trkpt lat="47.2569" lon="-2.31681">
        <ele>5.8000001907349</ele>
        <time>2019-07-04T07:31:57.000Z</time>
      </trkpt>
      <trkpt lat="47.25672" lon="-2.31684">
        <ele>5.8000001907349</ele>
        <time>2019-07-04T07:32:02.000Z</time>
      </trkpt>
      <trkpt lat="47.25669" lon="-2.31687">
        <ele>5.8000001907349</ele>
        <time>2019-07-04T07:32:03.000Z</time>
      </trkpt>
      <trkpt lat="47.25655" lon="-2.31697">
        <ele>5.8000001907349</ele>
        <time>2019-07-04T07:32:07.000Z</time>
      </trkpt>
      <trkpt lat="47.25644" lon="-2.31711">
        <ele>6.1999998092651</ele>
        <time>2019-07-04T07:32:11.000Z</time>
      </trkpt>
      <trkpt lat="47.25641" lon="-2.31715">
        <ele>6.5999999046326</ele>
        <time>2019-07-04T07:32:12.000Z</time>
      </trkpt>
      <trkpt lat="47.25638" lon="-2.31718">
        <ele>7.1999998092651</ele>
        <time>2019-07-04T07:32:13.000Z</time>
      </trkpt>
      <trkpt lat="47.25635" lon="-2.31721">
        <ele>7.5999999046326</ele>
        <time>2019-07-04T07:32:14.000Z</time>
      </trkpt>
      <trkpt lat="47.25633" lon="-2.31726">
        <ele>8</ele>
        <time>2019-07-04T07:32:15.000Z</time>
      </trkpt>
      <trkpt lat="47.2563" lon="-2.31736">
        <ele>8</ele>
        <time>2019-07-04T07:32:17.000Z</time>
      </trkpt>
      <trkpt lat="47.25627" lon="-2.31748">
        <ele>8</ele>
        <time>2019-07-04T07:32:19.000Z</time>
      </trkpt>
      <trkpt lat="47.25619" lon="-2.31763">
        <ele>8</ele>
        <time>2019-07-04T07:32:22.000Z</time>
      </trkpt>
      <trkpt lat="47.25606" lon="-2.3177">
        <ele>8.3999996185303</ele>
        <time>2019-07-04T07:32:25.000Z</time>
      </trkpt>
      <trkpt lat="47.25601" lon="-2.3177">
        <ele>8.8000001907349</ele>
        <time>2019-07-04T07:32:26.000Z</time>
      </trkpt>
      <trkpt lat="47.25596" lon="-2.3177">
        <ele>9.1999998092651</ele>
        <time>2019-07-04T07:32:27.000Z</time>
      </trkpt>
      <trkpt lat="47.25591" lon="-2.31771">
        <ele>9.6000003814697</ele>
        <time>2019-07-04T07:32:28.000Z</time>
      </trkpt>
      <trkpt lat="47.25587" lon="-2.31773">
        <ele>10</ele>
        <time>2019-07-04T07:32:29.000Z</time>
      </trkpt>
      <trkpt lat="47.25582" lon="-2.31775">
        <ele>10</ele>
        <time>2019-07-04T07:32:30.000Z</time>
      </trkpt>
      <trkpt lat="47.2557" lon="-2.31788">
        <ele>10</ele>
        <time>2019-07-04T07:32:34.000Z</time>
      </trkpt>
      <trkpt lat="47.25561" lon="-2.31804">
        <ele>10</ele>
        <time>2019-07-04T07:32:38.000Z</time>
      </trkpt>
      <trkpt lat="47.25554" lon="-2.31807">
        <ele>10.39999961853</ele>
        <time>2019-07-04T07:32:40.000Z</time>
      </trkpt>
      <trkpt lat="47.25551" lon="-2.31807">
        <ele>11</ele>
        <time>2019-07-04T07:32:41.000Z</time>
      </trkpt>
      <trkpt lat="47.25547" lon="-2.31808">
        <ele>11.39999961853</ele>
        <time>2019-07-04T07:32:42.000Z</time>
      </trkpt>
      <trkpt lat="47.25544" lon="-2.31808">
        <ele>11.800000190735</ele>
        <time>2019-07-04T07:32:43.000Z</time>
      </trkpt>
      <trkpt lat="47.25541" lon="-2.31809">
        <ele>12.199999809265</ele>
        <time>2019-07-04T07:32:44.000Z</time>
      </trkpt>
      <trkpt lat="47.25527" lon="-2.31816">
        <ele>12.199999809265</ele>
        <time>2019-07-04T07:32:49.000Z</time>
      </trkpt>
      <trkpt lat="47.25524" lon="-2.31828">
        <ele>12.199999809265</ele>
        <time>2019-07-04T07:32:53.000Z</time>
      </trkpt>
      <trkpt lat="47.25523" lon="-2.31833">
        <ele>12.199999809265</ele>
        <time>2019-07-04T07:32:58.000Z</time>
      </trkpt>
      <trkpt lat="47.2552" lon="-2.31837">
        <ele>14.199999809265</ele>
        <time>2019-07-04T07:40:25.000Z</time>
      </trkpt>
      <trkpt lat="47.25513" lon="-2.31841">
        <ele>14.199999809265</ele>
        <time>2019-07-04T07:40:29.000Z</time>
      </trkpt>
      <trkpt lat="47.25511" lon="-2.31841">
        <ele>14.199999809265</ele>
        <time>2019-07-04T07:40:30.000Z</time>
      </trkpt>
      <trkpt lat="47.25509" lon="-2.31839">
        <ele>14.199999809265</ele>
        <time>2019-07-04T07:40:31.000Z</time>
      </trkpt>
      <trkpt lat="47.25507" lon="-2.31832">
        <ele>14.199999809265</ele>
        <time>2019-07-04T07:40:34.000Z</time>
      </trkpt>
      <trkpt lat="47.25506" lon="-2.3183">
        <ele>14.199999809265</ele>
        <time>2019-07-04T07:40:35.000Z</time>
      </trkpt>
      <trkpt lat="47.25508" lon="-2.31817">
        <ele>14.199999809265</ele>
        <time>2019-07-04T07:40:40.000Z</time>
      </trkpt>
      <trkpt lat="47.25519" lon="-2.31809">
        <ele>14.199999809265</ele>
        <time>2019-07-04T07:40:45.000Z</time>
      </trkpt>
      <trkpt lat="47.25537" lon="-2.31806">
        <ele>14.199999809265</ele>
        <time>2019-07-04T07:40:51.000Z</time>
      </trkpt>
      <trkpt lat="47.25556" lon="-2.31797">
        <ele>14.199999809265</ele>
        <time>2019-07-04T07:40:57.000Z</time>
      </trkpt>
      <trkpt lat="47.25569" lon="-2.31779">
        <ele>14.199999809265</ele>
        <time>2019-07-04T07:41:02.000Z</time>
      </trkpt>
      <trkpt lat="47.25587" lon="-2.31752">
        <ele>13.800000190735</ele>
        <time>2019-07-04T07:41:08.000Z</time>
      </trkpt>
      <trkpt lat="47.25589" lon="-2.31749">
        <ele>13.39999961853</ele>
        <time>2019-07-04T07:41:09.000Z</time>
      </trkpt>
      <trkpt lat="47.2559" lon="-2.31746">
        <ele>12.800000190735</ele>
        <time>2019-07-04T07:41:10.000Z</time>
      </trkpt>
      <trkpt lat="47.25591" lon="-2.31742">
        <ele>12.39999961853</ele>
        <time>2019-07-04T07:41:11.000Z</time>
      </trkpt>
      <trkpt lat="47.25593" lon="-2.31737">
        <ele>11.800000190735</ele>
        <time>2019-07-04T07:41:12.000Z</time>
      </trkpt>
      <trkpt lat="47.25598" lon="-2.31725">
        <ele>11.800000190735</ele>
        <time>2019-07-04T07:41:14.000Z</time>
      </trkpt>
      <trkpt lat="47.25609" lon="-2.31714">
        <ele>11.800000190735</ele>
        <time>2019-07-04T07:41:17.000Z</time>
      </trkpt>
      <trkpt lat="47.25617" lon="-2.31711">
        <ele>11.800000190735</ele>
        <time>2019-07-04T07:41:19.000Z</time>
      </trkpt>
      <trkpt lat="47.25632" lon="-2.31708">
        <ele>11.800000190735</ele>
        <time>2019-07-04T07:41:22.000Z</time>
      </trkpt>
      <trkpt lat="47.25637" lon="-2.31705">
        <ele>11.800000190735</ele>
        <time>2019-07-04T07:41:23.000Z</time>
      </trkpt>
      <trkpt lat="47.25651" lon="-2.3169">
        <ele>11.39999961853</ele>
        <time>2019-07-04T07:41:26.000Z</time>
      </trkpt>
      <trkpt lat="47.25655" lon="-2.31684">
        <ele>11</ele>
        <time>2019-07-04T07:41:27.000Z</time>
      </trkpt>
      <trkpt lat="47.25658" lon="-2.31676">
        <ele>10.60000038147</ele>
        <time>2019-07-04T07:41:28.000Z</time>
      </trkpt>
      <trkpt lat="47.2566" lon="-2.31668">
        <ele>10.199999809265</ele>
        <time>2019-07-04T07:41:29.000Z</time>
      </trkpt>
      <trkpt lat="47.25664" lon="-2.31664">
        <ele>9.8000001907349</ele>
        <time>2019-07-04T07:41:30.000Z</time>
      </trkpt>
      <trkpt lat="47.25668" lon="-2.31663">
        <ele>9.8000001907349</ele>
        <time>2019-07-04T07:41:31.000Z</time>
      </trkpt>
      <trkpt lat="47.25681" lon="-2.31672">
        <ele>9.3999996185303</ele>
        <time>2019-07-04T07:41:34.000Z</time>
      </trkpt>
      <trkpt lat="47.25686" lon="-2.31675">
        <ele>9</ele>
        <time>2019-07-04T07:41:35.000Z</time>
      </trkpt>
      <trkpt lat="47.25692" lon="-2.31677">
        <ele>8.6000003814697</ele>
        <time>2019-07-04T07:41:36.000Z</time>
      </trkpt>
      <trkpt lat="47.25697" lon="-2.31679">
        <ele>7.5999999046326</ele>
        <time>2019-07-04T07:41:37.000Z</time>
      </trkpt>
      <trkpt lat="47.25708" lon="-2.31684">
        <ele>7.5999999046326</ele>
        <time>2019-07-04T07:41:39.000Z</time>
      </trkpt>
      <trkpt lat="47.25717" lon="-2.31691">
        <ele>7.5999999046326</ele>
        <time>2019-07-04T07:41:41.000Z</time>
      </trkpt>
      <trkpt lat="47.25727" lon="-2.31696">
        <ele>7.5999999046326</ele>
        <time>2019-07-04T07:41:43.000Z</time>
      </trkpt>
      <trkpt lat="47.25732" lon="-2.31696">
        <ele>7.1999998092651</ele>
        <time>2019-07-04T07:41:44.000Z</time>
      </trkpt>
      <trkpt lat="47.25737" lon="-2.31693">
        <ele>6.8000001907349</ele>
        <time>2019-07-04T07:41:45.000Z</time>
      </trkpt>
      <trkpt lat="47.25742" lon="-2.3169">
        <ele>6.4000000953674</ele>
        <time>2019-07-04T07:41:46.000Z</time>
      </trkpt>
      <trkpt lat="47.25747" lon="-2.31686">
        <ele>6</ele>
        <time>2019-07-04T07:41:47.000Z</time>
      </trkpt>
      <trkpt lat="47.25751" lon="-2.31683">
        <ele>5.5999999046326</ele>
        <time>2019-07-04T07:41:48.000Z</time>
      </trkpt>
      <trkpt lat="47.25777" lon="-2.31664">
        <ele>5.5999999046326</ele>
        <time>2019-07-04T07:41:54.000Z</time>
      </trkpt>
      <trkpt lat="47.25788" lon="-2.31656">
        <ele>6</ele>
        <time>2019-07-04T07:41:57.000Z</time>
      </trkpt>
      <trkpt lat="47.25791" lon="-2.31653">
        <ele>6.4000000953674</ele>
        <time>2019-07-04T07:41:58.000Z</time>
      </trkpt>
      <trkpt lat="47.25795" lon="-2.3165">
        <ele>6.8000001907349</ele>
        <time>2019-07-04T07:41:59.000Z</time>
      </trkpt>
      <trkpt lat="47.25799" lon="-2.31648">
        <ele>7.1999998092651</ele>
        <time>2019-07-04T07:42:00.000Z</time>
      </trkpt>
      <trkpt lat="47.25803" lon="-2.31645">
        <ele>7.5999999046326</ele>
        <time>2019-07-04T07:42:01.000Z</time>
      </trkpt>
      <trkpt lat="47.25806" lon="-2.31643">
        <ele>7.5999999046326</ele>
        <time>2019-07-04T07:42:02.000Z</time>
      </trkpt>
      <trkpt lat="47.2583" lon="-2.31623">
        <ele>7.5999999046326</ele>
        <time>2019-07-04T07:42:10.000Z</time>
      </trkpt>
      <trkpt lat="47.25839" lon="-2.31615">
        <ele>7.5999999046326</ele>
        <time>2019-07-04T07:42:13.000Z</time>
      </trkpt>
      <trkpt lat="47.25846" lon="-2.31607">
        <ele>7.5999999046326</ele>
        <time>2019-07-04T07:42:15.000Z</time>
      </trkpt>
      <trkpt lat="47.25858" lon="-2.31595">
        <ele>7.5999999046326</ele>
        <time>2019-07-04T07:42:18.000Z</time>
      </trkpt>
      <trkpt lat="47.25867" lon="-2.31587">
        <ele>7.5999999046326</ele>
        <time>2019-07-04T07:42:20.000Z</time>
      </trkpt>
      <trkpt lat="47.25889" lon="-2.31559">
        <ele>7.5999999046326</ele>
        <time>2019-07-04T07:42:25.000Z</time>
      </trkpt>
      <trkpt lat="47.25899" lon="-2.31534">
        <ele>7.1999998092651</ele>
        <time>2019-07-04T07:42:29.000Z</time>
      </trkpt>
      <trkpt lat="47.25901" lon="-2.31531">
        <ele>6.8000001907349</ele>
        <time>2019-07-04T07:42:30.000Z</time>
      </trkpt>
      <trkpt lat="47.25902" lon="-2.31529">
        <ele>6.1999998092651</ele>
        <time>2019-07-04T07:42:31.000Z</time>
      </trkpt>
      <trkpt lat="47.25903" lon="-2.31527">
        <ele>5.8000001907349</ele>
        <time>2019-07-04T07:42:32.000Z</time>
      </trkpt>
      <trkpt lat="47.25903" lon="-2.31525">
        <ele>5.4000000953674</ele>
        <time>2019-07-04T07:42:33.000Z</time>
      </trkpt>
      <trkpt lat="47.25904" lon="-2.31524">
        <ele>5.4000000953674</ele>
        <time>2019-07-04T07:42:34.000Z</time>
      </trkpt>
      <trkpt lat="47.25908" lon="-2.31517">
        <ele>5.4000000953674</ele>
        <time>2019-07-04T07:42:40.000Z</time>
      </trkpt>
      <trkpt lat="47.25912" lon="-2.31515">
        <ele>4.8000001907349</ele>
        <time>2019-07-04T07:42:45.000Z</time>
      </trkpt>
      <trkpt lat="47.25912" lon="-2.31515">
        <ele>4.4000000953674</ele>
        <time>2019-07-04T07:42:46.000Z</time>
      </trkpt>
      <trkpt lat="47.25913" lon="-2.31506">
        <ele>2.7999999523163</ele>
        <time>2019-07-04T07:42:56.000Z</time>
      </trkpt>
      <trkpt lat="47.25915" lon="-2.31498">
        <ele>2.7999999523163</ele>
        <time>2019-07-04T07:42:59.000Z</time>
      </trkpt>
      <trkpt lat="47.25924" lon="-2.31473">
        <ele>2.7999999523163</ele>
        <time>2019-07-04T07:43:04.000Z</time>
      </trkpt>
      <trkpt lat="47.25931" lon="-2.31459">
        <ele>2.7999999523163</ele>
        <time>2019-07-04T07:43:07.000Z</time>
      </trkpt>
      <trkpt lat="47.25933" lon="-2.31458">
        <ele>2.7999999523163</ele>
        <time>2019-07-04T07:43:08.000Z</time>
      </trkpt>
      <trkpt lat="47.25948" lon="-2.31465">
        <ele>2.7999999523163</ele>
        <time>2019-07-04T07:43:12.000Z</time>
      </trkpt>
      <trkpt lat="47.25967" lon="-2.31489">
        <ele>2.7999999523163</ele>
        <time>2019-07-04T07:43:17.000Z</time>
      </trkpt>
      <trkpt lat="47.25986" lon="-2.31528">
        <ele>2.7999999523163</ele>
        <time>2019-07-04T07:43:23.000Z</time>
      </trkpt>
      <trkpt lat="47.2599" lon="-2.31533">
        <ele>2.7999999523163</ele>
        <time>2019-07-04T07:43:24.000Z</time>
      </trkpt>
      <trkpt lat="47.26003" lon="-2.31553">
        <ele>2.7999999523163</ele>
        <time>2019-07-04T07:43:28.000Z</time>
      </trkpt>
      <trkpt lat="47.2601" lon="-2.31561">
        <ele>2.7999999523163</ele>
        <time>2019-07-04T07:43:30.000Z</time>
      </trkpt>
      <trkpt lat="47.26017" lon="-2.3156">
        <ele>2.7999999523163</ele>
        <time>2019-07-04T07:43:32.000Z</time>
      </trkpt>
      <trkpt lat="47.26025" lon="-2.31546">
        <ele>2.7999999523163</ele>
        <time>2019-07-04T07:43:35.000Z</time>
      </trkpt>
      <trkpt lat="47.26028" lon="-2.3154">
        <ele>2.7999999523163</ele>
        <time>2019-07-04T07:43:36.000Z</time>
      </trkpt>
      <trkpt lat="47.26031" lon="-2.31528">
        <ele>2.7999999523163</ele>
        <time>2019-07-04T07:43:38.000Z</time>
      </trkpt>
      <trkpt lat="47.26037" lon="-2.31516">
        <ele>2.7999999523163</ele>
        <time>2019-07-04T07:43:41.000Z</time>
      </trkpt>
      <trkpt lat="47.26047" lon="-2.31524">
        <ele>2.7999999523163</ele>
        <time>2019-07-04T07:43:44.000Z</time>
      </trkpt>
      <trkpt lat="47.26054" lon="-2.31536">
        <ele>2.7999999523163</ele>
        <time>2019-07-04T07:43:46.000Z</time>
      </trkpt>
      <trkpt lat="47.2607" lon="-2.31569">
        <ele>2.7999999523163</ele>
        <time>2019-07-04T07:43:51.000Z</time>
      </trkpt>
      <trkpt lat="47.26074" lon="-2.31574">
        <ele>2.7999999523163</ele>
        <time>2019-07-04T07:43:52.000Z</time>
      </trkpt>
      <trkpt lat="47.26079" lon="-2.3158">
        <ele>2.7999999523163</ele>
        <time>2019-07-04T07:43:54.000Z</time>
      </trkpt>
      <trkpt lat="47.26082" lon="-2.31583">
        <ele>2.4000000953674</ele>
        <time>2019-07-04T07:43:55.000Z</time>
      </trkpt>
      <trkpt lat="47.26086" lon="-2.31586">
        <ele>2</ele>
        <time>2019-07-04T07:43:56.000Z</time>
      </trkpt>
      <trkpt lat="47.26089" lon="-2.3159">
        <ele>1.6000000238419</ele>
        <time>2019-07-04T07:43:57.000Z</time>
      </trkpt>
      <trkpt lat="47.26092" lon="-2.31594">
        <ele>1.2000000476837</ele>
        <time>2019-07-04T07:43:58.000Z</time>
      </trkpt>
      <trkpt lat="47.26095" lon="-2.31599">
        <ele>0.80000001192093</ele>
        <time>2019-07-04T07:43:59.000Z</time>
      </trkpt>
      <trkpt lat="47.26112" lon="-2.31636">
        <ele>0.80000001192093</ele>
        <time>2019-07-04T07:44:05.000Z</time>
      </trkpt>
      <trkpt lat="47.26115" lon="-2.31643">
        <ele>0.80000001192093</ele>
        <time>2019-07-04T07:44:06.000Z</time>
      </trkpt>
      <trkpt lat="47.26122" lon="-2.31674">
        <ele>0.80000001192093</ele>
        <time>2019-07-04T07:44:10.000Z</time>
      </trkpt>
      <trkpt lat="47.26128" lon="-2.31718">
        <ele>0.80000001192093</ele>
        <time>2019-07-04T07:44:16.000Z</time>
      </trkpt>
      <trkpt lat="47.26132" lon="-2.31765">
        <ele>0.80000001192093</ele>
        <time>2019-07-04T07:44:22.000Z</time>
      </trkpt>
      <trkpt lat="47.26137" lon="-2.31823">
        <ele>0.80000001192093</ele>
        <time>2019-07-04T07:44:29.000Z</time>
      </trkpt>
      <trkpt lat="47.26144" lon="-2.31866">
        <ele>0.80000001192093</ele>
        <time>2019-07-04T07:44:35.000Z</time>
      </trkpt>
      <trkpt lat="47.26148" lon="-2.31894">
        <ele>0.80000001192093</ele>
        <time>2019-07-04T07:44:39.000Z</time>
      </trkpt>
      <trkpt lat="47.26155" lon="-2.31945">
        <ele>0.80000001192093</ele>
        <time>2019-07-04T07:44:46.000Z</time>
      </trkpt>
      <trkpt lat="47.26157" lon="-2.31959">
        <ele>0.80000001192093</ele>
        <time>2019-07-04T07:44:48.000Z</time>
      </trkpt>
      <trkpt lat="47.2616" lon="-2.31978">
        <ele>0.80000001192093</ele>
        <time>2019-07-04T07:44:51.000Z</time>
      </trkpt>
      <trkpt lat="47.26163" lon="-2.31991">
        <ele>0.80000001192093</ele>
        <time>2019-07-04T07:44:53.000Z</time>
      </trkpt>
      <trkpt lat="47.26166" lon="-2.32012">
        <ele>0.80000001192093</ele>
        <time>2019-07-04T07:44:57.000Z</time>
      </trkpt>
      <trkpt lat="47.26173" lon="-2.32018">
        <ele>0.80000001192093</ele>
        <time>2019-07-04T07:45:01.000Z</time>
      </trkpt>
      <trkpt lat="47.26179" lon="-2.3202">
        <ele>0.40000000596046</ele>
        <time>2019-07-04T07:45:05.000Z</time>
      </trkpt>
      <trkpt lat="47.26181" lon="-2.32021">
        <ele>3</ele>
        <time>2019-07-04T07:45:06.000Z</time>
      </trkpt>
      <trkpt lat="47.26183" lon="-2.32021">
        <ele>-0.40000000596046</ele>
        <time>2019-07-04T07:45:07.000Z</time>
      </trkpt>
      <trkpt lat="47.26183" lon="-2.32021">
        <ele>-1</ele>
        <time>2019-07-04T07:45:08.000Z</time>
      </trkpt>
      <trkpt lat="47.26184" lon="-2.32021">
        <ele>-1.3999999761581</ele>
        <time>2019-07-04T07:45:09.000Z</time>
      </trkpt>
      <trkpt lat="47.26184" lon="-2.32021">
        <ele>-1.3999999761581</ele>
        <time>2019-07-04T07:45:11.000Z</time>
      </trkpt>
      <trkpt lat="47.26184" lon="-2.32021">
        <ele>-1.3999999761581</ele>
        <time>2019-07-04T07:45:12.000Z</time>
      </trkpt>
      <trkpt lat="47.26187" lon="-2.32022">
        <ele>-1.3999999761581</ele>
        <time>2019-07-04T07:45:16.000Z</time>
      </trkpt>
      <trkpt lat="47.26191" lon="-2.32021">
        <ele>-1.3999999761581</ele>
        <time>2019-07-04T07:45:18.000Z</time>
      </trkpt>
      <trkpt lat="47.26195" lon="-2.3201">
        <ele>-1.3999999761581</ele>
        <time>2019-07-04T07:45:22.000Z</time>
      </trkpt>
      <trkpt lat="47.26198" lon="-2.32005">
        <ele>-1.3999999761581</ele>
        <time>2019-07-04T07:45:24.000Z</time>
      </trkpt>
      <trkpt lat="47.262" lon="-2.32004">
        <ele>-1.3999999761581</ele>
        <time>2019-07-04T07:45:25.000Z</time>
      </trkpt>
      <trkpt lat="47.26214" lon="-2.31989">
        <ele>-1.3999999761581</ele>
        <time>2019-07-04T07:45:30.000Z</time>
      </trkpt>
      <trkpt lat="47.26223" lon="-2.31982">
        <ele>-1.3999999761581</ele>
        <time>2019-07-04T07:45:33.000Z</time>
      </trkpt>
      <trkpt lat="47.26228" lon="-2.31982">
        <ele>-1.3999999761581</ele>
        <time>2019-07-04T07:45:34.000Z</time>
      </trkpt>
      <trkpt lat="47.26232" lon="-2.31979">
        <ele>-1.3999999761581</ele>
        <time>2019-07-04T07:45:35.000Z</time>
      </trkpt>
      <trkpt lat="47.26238" lon="-2.31968">
        <ele>-1.3999999761581</ele>
        <time>2019-07-04T07:45:37.000Z</time>
      </trkpt>
      <trkpt lat="47.26255" lon="-2.31934">
        <ele>-1.3999999761581</ele>
        <time>2019-07-04T07:45:43.000Z</time>
      </trkpt>
      <trkpt lat="47.26261" lon="-2.31923">
        <ele>-1.3999999761581</ele>
        <time>2019-07-04T07:45:45.000Z</time>
      </trkpt>
      <trkpt lat="47.26278" lon="-2.319">
        <ele>-1.3999999761581</ele>
        <time>2019-07-04T07:45:50.000Z</time>
      </trkpt>
      <trkpt lat="47.26291" lon="-2.31895">
        <ele>-1.3999999761581</ele>
        <time>2019-07-04T07:45:53.000Z</time>
      </trkpt>
      <trkpt lat="47.26293" lon="-2.31898">
        <ele>-1.3999999761581</ele>
        <time>2019-07-04T07:45:54.000Z</time>
      </trkpt>
      <trkpt lat="47.26296" lon="-2.31911">
        <ele>-1.3999999761581</ele>
        <time>2019-07-04T07:45:57.000Z</time>
      </trkpt>
      <trkpt lat="47.26298" lon="-2.31922">
        <ele>-1.3999999761581</ele>
        <time>2019-07-04T07:45:59.000Z</time>
      </trkpt>
      <trkpt lat="47.263" lon="-2.31927">
        <ele>-1.3999999761581</ele>
        <time>2019-07-04T07:46:00.000Z</time>
      </trkpt>
      <trkpt lat="47.26307" lon="-2.3193">
        <ele>-1.3999999761581</ele>
        <time>2019-07-04T07:46:02.000Z</time>
      </trkpt>
      <trkpt lat="47.26314" lon="-2.31931">
        <ele>-1.3999999761581</ele>
        <time>2019-07-04T07:46:04.000Z</time>
      </trkpt>
      <trkpt lat="47.26322" lon="-2.3193">
        <ele>-1.3999999761581</ele>
        <time>2019-07-04T07:46:06.000Z</time>
      </trkpt>
      <trkpt lat="47.26342" lon="-2.31937">
        <ele>-1.3999999761581</ele>
        <time>2019-07-04T07:46:11.000Z</time>
      </trkpt>
      <trkpt lat="47.26346" lon="-2.31946">
        <ele>-1.3999999761581</ele>
        <time>2019-07-04T07:46:13.000Z</time>
      </trkpt>
      <trkpt lat="47.26356" lon="-2.31966">
        <ele>-1.3999999761581</ele>
        <time>2019-07-04T07:46:17.000Z</time>
      </trkpt>
      <trkpt lat="47.26359" lon="-2.31971">
        <ele>-1</ele>
        <time>2019-07-04T07:46:18.000Z</time>
      </trkpt>
      <trkpt lat="47.26362" lon="-2.31975">
        <ele>-0.60000002384186</ele>
        <time>2019-07-04T07:46:19.000Z</time>
      </trkpt>
      <trkpt lat="47.26366" lon="-2.31978">
        <ele>-0.20000000298023</ele>
        <time>2019-07-04T07:46:20.000Z</time>
      </trkpt>
      <trkpt lat="47.26369" lon="-2.31981">
        <ele>0.40000000596046</ele>
        <time>2019-07-04T07:46:21.000Z</time>
      </trkpt>
      <trkpt lat="47.26373" lon="-2.31983">
        <ele>0.80000001192093</ele>
        <time>2019-07-04T07:46:22.000Z</time>
      </trkpt>
      <trkpt lat="47.26383" lon="-2.31982">
        <ele>0.80000001192093</ele>
        <time>2019-07-04T07:46:25.000Z</time>
      </trkpt>
      <trkpt lat="47.26393" lon="-2.31985">
        <ele>1.2000000476837</ele>
        <time>2019-07-04T07:46:28.000Z</time>
      </trkpt>
      <trkpt lat="47.26396" lon="-2.31986">
        <ele>1.6000000238419</ele>
        <time>2019-07-04T07:46:29.000Z</time>
      </trkpt>
      <trkpt lat="47.264" lon="-2.31988">
        <ele>2</ele>
        <time>2019-07-04T07:46:30.000Z</time>
      </trkpt>
      <trkpt lat="47.26403" lon="-2.31989">
        <ele>2.4000000953674</ele>
        <time>2019-07-04T07:46:31.000Z</time>
      </trkpt>
      <trkpt lat="47.26407" lon="-2.31991">
        <ele>3</ele>
        <time>2019-07-04T07:46:32.000Z</time>
      </trkpt>
      <trkpt lat="47.26417" lon="-2.31993">
        <ele>3.4000000953674</ele>
        <time>2019-07-04T07:46:34.000Z</time>
      </trkpt>
      <trkpt lat="47.26421" lon="-2.31994">
        <ele>3.7999999523163</ele>
        <time>2019-07-04T07:46:35.000Z</time>
      </trkpt>
      <trkpt lat="47.26425" lon="-2.31994">
        <ele>4.1999998092651</ele>
        <time>2019-07-04T07:46:36.000Z</time>
      </trkpt>
      <trkpt lat="47.2643" lon="-2.31995">
        <ele>4.5999999046326</ele>
        <time>2019-07-04T07:46:37.000Z</time>
      </trkpt>
      <trkpt lat="47.26434" lon="-2.31995">
        <ele>5</ele>
        <time>2019-07-04T07:46:38.000Z</time>
      </trkpt>
      <trkpt lat="47.26441" lon="-2.31995">
        <ele>5</ele>
        <time>2019-07-04T07:46:40.000Z</time>
      </trkpt>
      <trkpt lat="47.26457" lon="-2.31996">
        <ele>5.4000000953674</ele>
        <time>2019-07-04T07:46:44.000Z</time>
      </trkpt>
      <trkpt lat="47.26461" lon="-2.31996">
        <ele>5.8000001907349</ele>
        <time>2019-07-04T07:46:45.000Z</time>
      </trkpt>
      <trkpt lat="47.26465" lon="-2.31995">
        <ele>6.1999998092651</ele>
        <time>2019-07-04T07:46:46.000Z</time>
      </trkpt>
      <trkpt lat="47.26469" lon="-2.31995">
        <ele>6.5999999046326</ele>
        <time>2019-07-04T07:46:47.000Z</time>
      </trkpt>
      <trkpt lat="47.26473" lon="-2.31995">
        <ele>7</ele>
        <time>2019-07-04T07:46:48.000Z</time>
      </trkpt>
      <trkpt lat="47.26482" lon="-2.31996">
        <ele>7</ele>
        <time>2019-07-04T07:46:50.000Z</time>
      </trkpt>
      <trkpt lat="47.26495" lon="-2.31996">
        <ele>7</ele>
        <time>2019-07-04T07:46:53.000Z</time>
      </trkpt>
      <trkpt lat="47.26504" lon="-2.31997">
        <ele>7.4000000953674</ele>
        <time>2019-07-04T07:46:55.000Z</time>
      </trkpt>
      <trkpt lat="47.26508" lon="-2.31997">
        <ele>8.1999998092651</ele>
        <time>2019-07-04T07:46:56.000Z</time>
      </trkpt>
      <trkpt lat="47.26511" lon="-2.31996">
        <ele>8.6000003814697</ele>
        <time>2019-07-04T07:46:57.000Z</time>
      </trkpt>
      <trkpt lat="47.26512" lon="-2.31996">
        <ele>9</ele>
        <time>2019-07-04T07:46:58.000Z</time>
      </trkpt>
      <trkpt lat="47.26514" lon="-2.31996">
        <ele>9</ele>
        <time>2019-07-04T07:46:59.000Z</time>
      </trkpt>
      <trkpt lat="47.26517" lon="-2.31996">
        <ele>9.6000003814697</ele>
        <time>2019-07-04T07:47:00.000Z</time>
      </trkpt>
      <trkpt lat="47.26519" lon="-2.31997">
        <ele>10</ele>
        <time>2019-07-04T07:47:01.000Z</time>
      </trkpt>
      <trkpt lat="47.26521" lon="-2.31998">
        <ele>10.39999961853</ele>
        <time>2019-07-04T07:47:02.000Z</time>
      </trkpt>
      <trkpt lat="47.26524" lon="-2.31999">
        <ele>10.800000190735</ele>
        <time>2019-07-04T07:47:03.000Z</time>
      </trkpt>
      <trkpt lat="47.26527" lon="-2.32">
        <ele>11.199999809265</ele>
        <time>2019-07-04T07:47:04.000Z</time>
      </trkpt>
      <trkpt lat="47.26538" lon="-2.32014">
        <ele>11.199999809265</ele>
        <time>2019-07-04T07:47:09.000Z</time>
      </trkpt>
      <trkpt lat="47.26542" lon="-2.32027">
        <ele>11.800000190735</ele>
        <time>2019-07-04T07:47:13.000Z</time>
      </trkpt>
      <trkpt lat="47.26543" lon="-2.32031">
        <ele>12.199999809265</ele>
        <time>2019-07-04T07:47:14.000Z</time>
      </trkpt>
      <trkpt lat="47.26545" lon="-2.32034">
        <ele>12.60000038147</ele>
        <time>2019-07-04T07:47:15.000Z</time>
      </trkpt>
      <trkpt lat="47.26548" lon="-2.32036">
        <ele>13</ele>
        <time>2019-07-04T07:47:16.000Z</time>
      </trkpt>
      <trkpt lat="47.2655" lon="-2.32036">
        <ele>13.60000038147</ele>
        <time>2019-07-04T07:47:17.000Z</time>
      </trkpt>
      <trkpt lat="47.26556" lon="-2.32035">
        <ele>13.60000038147</ele>
        <time>2019-07-04T07:47:19.000Z</time>
      </trkpt>
      <trkpt lat="47.26563" lon="-2.32033">
        <ele>14</ele>
        <time>2019-07-04T07:47:21.000Z</time>
      </trkpt>
      <trkpt lat="47.26566" lon="-2.32031">
        <ele>14.39999961853</ele>
        <time>2019-07-04T07:47:22.000Z</time>
      </trkpt>
      <trkpt lat="47.2657" lon="-2.3203">
        <ele>14.800000190735</ele>
        <time>2019-07-04T07:47:23.000Z</time>
      </trkpt>
      <trkpt lat="47.26573" lon="-2.32028">
        <ele>15.199999809265</ele>
        <time>2019-07-04T07:47:24.000Z</time>
      </trkpt>
      <trkpt lat="47.26576" lon="-2.32027">
        <ele>15.60000038147</ele>
        <time>2019-07-04T07:47:25.000Z</time>
      </trkpt>
      <trkpt lat="47.2659" lon="-2.32021">
        <ele>15.60000038147</ele>
        <time>2019-07-04T07:47:29.000Z</time>
      </trkpt>
      <trkpt lat="47.26609" lon="-2.32015">
        <ele>15.60000038147</ele>
        <time>2019-07-04T07:47:35.000Z</time>
      </trkpt>
      <trkpt lat="47.26612" lon="-2.32014">
        <ele>15.60000038147</ele>
        <time>2019-07-04T07:47:36.000Z</time>
      </trkpt>
      <trkpt lat="47.26622" lon="-2.32012">
        <ele>16</ele>
        <time>2019-07-04T07:47:39.000Z</time>
      </trkpt>
      <trkpt lat="47.26625" lon="-2.32011">
        <ele>16.60000038147</ele>
        <time>2019-07-04T07:47:40.000Z</time>
      </trkpt>
      <trkpt lat="47.26627" lon="-2.32009">
        <ele>17</ele>
        <time>2019-07-04T07:47:41.000Z</time>
      </trkpt>
      <trkpt lat="47.2663" lon="-2.32008">
        <ele>17.60000038147</ele>
        <time>2019-07-04T07:47:42.000Z</time>
      </trkpt>
      <trkpt lat="47.26632" lon="-2.32008">
        <ele>18</ele>
        <time>2019-07-04T07:47:43.000Z</time>
      </trkpt>
      <trkpt lat="47.26639" lon="-2.32006">
        <ele>18</ele>
        <time>2019-07-04T07:47:48.000Z</time>
      </trkpt>
      <trkpt lat="47.26639" lon="-2.32006">
        <ele>18</ele>
        <time>2019-07-04T07:47:49.000Z</time>
      </trkpt>
      <trkpt lat="47.26643" lon="-2.32007">
        <ele>18</ele>
        <time>2019-07-04T07:48:32.000Z</time>
      </trkpt>
      <trkpt lat="47.26647" lon="-2.3201">
        <ele>18</ele>
        <time>2019-07-04T07:48:34.000Z</time>
      </trkpt>
      <trkpt lat="47.26651" lon="-2.32018">
        <ele>18</ele>
        <time>2019-07-04T07:48:36.000Z</time>
      </trkpt>
      <trkpt lat="47.26653" lon="-2.32027">
        <ele>18</ele>
        <time>2019-07-04T07:48:38.000Z</time>
      </trkpt>
      <trkpt lat="47.26661" lon="-2.32061">
        <ele>18</ele>
        <time>2019-07-04T07:48:44.000Z</time>
      </trkpt>
      <trkpt lat="47.26671" lon="-2.32102">
        <ele>18</ele>
        <time>2019-07-04T07:48:51.000Z</time>
      </trkpt>
      <trkpt lat="47.26676" lon="-2.32122">
        <ele>18</ele>
        <time>2019-07-04T07:48:55.000Z</time>
      </trkpt>
      <trkpt lat="47.26678" lon="-2.32123">
        <ele>18</ele>
        <time>2019-07-04T07:48:56.000Z</time>
      </trkpt>
      <trkpt lat="47.26684" lon="-2.32116">
        <ele>18</ele>
        <time>2019-07-04T07:48:59.000Z</time>
      </trkpt>
      <trkpt lat="47.26685" lon="-2.32101">
        <ele>18</ele>
        <time>2019-07-04T07:49:02.000Z</time>
      </trkpt>
      <trkpt lat="47.26686" lon="-2.32096">
        <ele>18</ele>
        <time>2019-07-04T07:49:03.000Z</time>
      </trkpt>
      <trkpt lat="47.26686" lon="-2.3209">
        <ele>18</ele>
        <time>2019-07-04T07:49:04.000Z</time>
      </trkpt>
      <trkpt lat="47.26686" lon="-2.32058">
        <ele>18</ele>
        <time>2019-07-04T07:49:09.000Z</time>
      </trkpt>
      <trkpt lat="47.26689" lon="-2.32033">
        <ele>18</ele>
        <time>2019-07-04T07:49:14.000Z</time>
      </trkpt>
      <trkpt lat="47.26699" lon="-2.32011">
        <ele>18</ele>
        <time>2019-07-04T07:49:20.000Z</time>
      </trkpt>
      <trkpt lat="47.26708" lon="-2.32">
        <ele>18</ele>
        <time>2019-07-04T07:49:23.000Z</time>
      </trkpt>
      <trkpt lat="47.26713" lon="-2.31997">
        <ele>17.60000038147</ele>
        <time>2019-07-04T07:49:24.000Z</time>
      </trkpt>
      <trkpt lat="47.26717" lon="-2.31995">
        <ele>17</ele>
        <time>2019-07-04T07:49:25.000Z</time>
      </trkpt>
      <trkpt lat="47.26722" lon="-2.31992">
        <ele>16.60000038147</ele>
        <time>2019-07-04T07:49:26.000Z</time>
      </trkpt>
      <trkpt lat="47.26727" lon="-2.31988">
        <ele>16.200000762939</ele>
        <time>2019-07-04T07:49:27.000Z</time>
      </trkpt>
      <trkpt lat="47.26732" lon="-2.31985">
        <ele>15.60000038147</ele>
        <time>2019-07-04T07:49:28.000Z</time>
      </trkpt>
      <trkpt lat="47.26738" lon="-2.31981">
        <ele>15.60000038147</ele>
        <time>2019-07-04T07:49:29.000Z</time>
      </trkpt>
      <trkpt lat="47.26747" lon="-2.31974">
        <ele>15.60000038147</ele>
        <time>2019-07-04T07:49:31.000Z</time>
      </trkpt>
      <trkpt lat="47.26755" lon="-2.3196">
        <ele>15.60000038147</ele>
        <time>2019-07-04T07:49:34.000Z</time>
      </trkpt>
      <trkpt lat="47.26758" lon="-2.31954">
        <ele>15.60000038147</ele>
        <time>2019-07-04T07:49:35.000Z</time>
      </trkpt>
      <trkpt lat="47.26761" lon="-2.31949">
        <ele>15.60000038147</ele>
        <time>2019-07-04T07:49:36.000Z</time>
      </trkpt>
      <trkpt lat="47.26768" lon="-2.3195">
        <ele>15.199999809265</ele>
        <time>2019-07-04T07:49:38.000Z</time>
      </trkpt>
      <trkpt lat="47.26772" lon="-2.31954">
        <ele>14.800000190735</ele>
        <time>2019-07-04T07:49:39.000Z</time>
      </trkpt>
      <trkpt lat="47.26774" lon="-2.31959">
        <ele>14.199999809265</ele>
        <time>2019-07-04T07:49:40.000Z</time>
      </trkpt>
      <trkpt lat="47.26777" lon="-2.31966">
        <ele>13.800000190735</ele>
        <time>2019-07-04T07:49:41.000Z</time>
      </trkpt>
      <trkpt lat="47.2678" lon="-2.31973">
        <ele>13.39999961853</ele>
        <time>2019-07-04T07:49:42.000Z</time>
      </trkpt>
      <trkpt lat="47.26784" lon="-2.3198">
        <ele>13.39999961853</ele>
        <time>2019-07-04T07:49:43.000Z</time>
      </trkpt>
      <trkpt lat="47.26797" lon="-2.32001">
        <ele>13.39999961853</ele>
        <time>2019-07-04T07:49:46.000Z</time>
      </trkpt>
      <trkpt lat="47.26801" lon="-2.32009">
        <ele>13.39999961853</ele>
        <time>2019-07-04T07:49:47.000Z</time>
      </trkpt>
      <trkpt lat="47.26805" lon="-2.32017">
        <ele>12.800000190735</ele>
        <time>2019-07-04T07:49:48.000Z</time>
      </trkpt>
      <trkpt lat="47.26808" lon="-2.32025">
        <ele>12</ele>
        <time>2019-07-04T07:49:49.000Z</time>
      </trkpt>
      <trkpt lat="47.26812" lon="-2.32033">
        <ele>11.60000038147</ele>
        <time>2019-07-04T07:49:50.000Z</time>
      </trkpt>
      <trkpt lat="47.26815" lon="-2.32043">
        <ele>11.199999809265</ele>
        <time>2019-07-04T07:49:51.000Z</time>
      </trkpt>
      <trkpt lat="47.26817" lon="-2.32052">
        <ele>11.199999809265</ele>
        <time>2019-07-04T07:49:52.000Z</time>
      </trkpt>
      <trkpt lat="47.26822" lon="-2.32071">
        <ele>11.199999809265</ele>
        <time>2019-07-04T07:49:54.000Z</time>
      </trkpt>
      <trkpt lat="47.26827" lon="-2.32088">
        <ele>11.199999809265</ele>
        <time>2019-07-04T07:49:56.000Z</time>
      </trkpt>
      <trkpt lat="47.26833" lon="-2.32106">
        <ele>11.199999809265</ele>
        <time>2019-07-04T07:49:58.000Z</time>
      </trkpt>
      <trkpt lat="47.26838" lon="-2.32122">
        <ele>11.199999809265</ele>
        <time>2019-07-04T07:50:00.000Z</time>
      </trkpt>
      <trkpt lat="47.26844" lon="-2.32146">
        <ele>10.800000190735</ele>
        <time>2019-07-04T07:50:03.000Z</time>
      </trkpt>
      <trkpt lat="47.26846" lon="-2.32154">
        <ele>10.199999809265</ele>
        <time>2019-07-04T07:50:04.000Z</time>
      </trkpt>
      <trkpt lat="47.26848" lon="-2.32161">
        <ele>9.8000001907349</ele>
        <time>2019-07-04T07:50:05.000Z</time>
      </trkpt>
      <trkpt lat="47.26851" lon="-2.32168">
        <ele>9.3999996185303</ele>
        <time>2019-07-04T07:50:06.000Z</time>
      </trkpt>
      <trkpt lat="47.26853" lon="-2.32176">
        <ele>9</ele>
        <time>2019-07-04T07:50:07.000Z</time>
      </trkpt>
      <trkpt lat="47.26856" lon="-2.32183">
        <ele>9</ele>
        <time>2019-07-04T07:50:08.000Z</time>
      </trkpt>
      <trkpt lat="47.26862" lon="-2.32196">
        <ele>9</ele>
        <time>2019-07-04T07:50:10.000Z</time>
      </trkpt>
      <trkpt lat="47.26866" lon="-2.32204">
        <ele>9</ele>
        <time>2019-07-04T07:50:11.000Z</time>
      </trkpt>
      <trkpt lat="47.26873" lon="-2.32218">
        <ele>8.6000003814697</ele>
        <time>2019-07-04T07:50:13.000Z</time>
      </trkpt>
      <trkpt lat="47.26877" lon="-2.32226">
        <ele>8.1999998092651</ele>
        <time>2019-07-04T07:50:14.000Z</time>
      </trkpt>
      <trkpt lat="47.26881" lon="-2.32232">
        <ele>7.8000001907349</ele>
        <time>2019-07-04T07:50:15.000Z</time>
      </trkpt>
      <trkpt lat="47.26884" lon="-2.32239">
        <ele>7.1999998092651</ele>
        <time>2019-07-04T07:50:16.000Z</time>
      </trkpt>
      <trkpt lat="47.26888" lon="-2.32246">
        <ele>6.8000001907349</ele>
        <time>2019-07-04T07:50:17.000Z</time>
      </trkpt>
      <trkpt lat="47.26903" lon="-2.32273">
        <ele>6.8000001907349</ele>
        <time>2019-07-04T07:50:21.000Z</time>
      </trkpt>
      <trkpt lat="47.26905" lon="-2.32281">
        <ele>6.4000000953674</ele>
        <time>2019-07-04T07:50:22.000Z</time>
      </trkpt>
      <trkpt lat="47.26909" lon="-2.32291">
        <ele>6</ele>
        <time>2019-07-04T07:50:23.000Z</time>
      </trkpt>
      <trkpt lat="47.26912" lon="-2.323">
        <ele>5.5999999046326</ele>
        <time>2019-07-04T07:50:24.000Z</time>
      </trkpt>
      <trkpt lat="47.26915" lon="-2.3231">
        <ele>5.1999998092651</ele>
        <time>2019-07-04T07:50:25.000Z</time>
      </trkpt>
      <trkpt lat="47.26917" lon="-2.32319">
        <ele>4.8000001907349</ele>
        <time>2019-07-04T07:50:26.000Z</time>
      </trkpt>
      <trkpt lat="47.26925" lon="-2.32338">
        <ele>4.8000001907349</ele>
        <time>2019-07-04T07:50:29.000Z</time>
      </trkpt>
      <trkpt lat="47.26929" lon="-2.32343">
        <ele>4.4000000953674</ele>
        <time>2019-07-04T07:50:30.000Z</time>
      </trkpt>
      <trkpt lat="47.26932" lon="-2.32348">
        <ele>4</ele>
        <time>2019-07-04T07:50:31.000Z</time>
      </trkpt>
      <trkpt lat="47.26935" lon="-2.32354">
        <ele>3.5999999046326</ele>
        <time>2019-07-04T07:50:32.000Z</time>
      </trkpt>
      <trkpt lat="47.26937" lon="-2.32361">
        <ele>3</ele>
        <time>2019-07-04T07:50:33.000Z</time>
      </trkpt>
      <trkpt lat="47.26939" lon="-2.32368">
        <ele>2.5999999046326</ele>
        <time>2019-07-04T07:50:34.000Z</time>
      </trkpt>
      <trkpt lat="47.26941" lon="-2.32377">
        <ele>2.5999999046326</ele>
        <time>2019-07-04T07:50:35.000Z</time>
      </trkpt>
      <trkpt lat="47.26951" lon="-2.32408">
        <ele>2.5999999046326</ele>
        <time>2019-07-04T07:50:39.000Z</time>
      </trkpt>
      <trkpt lat="47.26954" lon="-2.32415">
        <ele>2.5999999046326</ele>
        <time>2019-07-04T07:50:40.000Z</time>
      </trkpt>
      <trkpt lat="47.26962" lon="-2.32429">
        <ele>2.5999999046326</ele>
        <time>2019-07-04T07:50:42.000Z</time>
      </trkpt>
      <trkpt lat="47.26971" lon="-2.32442">
        <ele>2.5999999046326</ele>
        <time>2019-07-04T07:50:44.000Z</time>
      </trkpt>
      <trkpt lat="47.26985" lon="-2.32462">
        <ele>2.5999999046326</ele>
        <time>2019-07-04T07:50:47.000Z</time>
      </trkpt>
      <trkpt lat="47.26992" lon="-2.32477">
        <ele>2.5999999046326</ele>
        <time>2019-07-04T07:50:49.000Z</time>
      </trkpt>
      <trkpt lat="47.26999" lon="-2.32492">
        <ele>2.5999999046326</ele>
        <time>2019-07-04T07:50:51.000Z</time>
      </trkpt>
      <trkpt lat="47.27013" lon="-2.32504">
        <ele>2.5999999046326</ele>
        <time>2019-07-04T07:50:54.000Z</time>
      </trkpt>
      <trkpt lat="47.27019" lon="-2.32503">
        <ele>2.2000000476837</ele>
        <time>2019-07-04T07:50:55.000Z</time>
      </trkpt>
      <trkpt lat="47.27025" lon="-2.32501">
        <ele>1.7999999523163</ele>
        <time>2019-07-04T07:50:56.000Z</time>
      </trkpt>
      <trkpt lat="47.2703" lon="-2.32497">
        <ele>1.2000000476837</ele>
        <time>2019-07-04T07:50:57.000Z</time>
      </trkpt>
      <trkpt lat="47.27033" lon="-2.32491">
        <ele>0.80000001192093</ele>
        <time>2019-07-04T07:50:58.000Z</time>
      </trkpt>
      <trkpt lat="47.27036" lon="-2.32484">
        <ele>0.40000000596046</ele>
        <time>2019-07-04T07:50:59.000Z</time>
      </trkpt>
      <trkpt lat="47.27037" lon="-2.32475">
        <ele>0.40000000596046</ele>
        <time>2019-07-04T07:51:00.000Z</time>
      </trkpt>
      <trkpt lat="47.27037" lon="-2.32435">
        <ele>0.40000000596046</ele>
        <time>2019-07-04T07:51:04.000Z</time>
      </trkpt>
      <trkpt lat="47.27034" lon="-2.32415">
        <ele>0.40000000596046</ele>
        <time>2019-07-04T07:51:06.000Z</time>
      </trkpt>
      <trkpt lat="47.27031" lon="-2.32389">
        <ele>0.40000000596046</ele>
        <time>2019-07-04T07:51:09.000Z</time>
      </trkpt>
      <trkpt lat="47.27026" lon="-2.32345">
        <ele>0.40000000596046</ele>
        <time>2019-07-04T07:51:15.000Z</time>
      </trkpt>
      <trkpt lat="47.27023" lon="-2.32299">
        <ele>0.40000000596046</ele>
        <time>2019-07-04T07:51:20.000Z</time>
      </trkpt>
      <trkpt lat="47.27024" lon="-2.32273">
        <ele>0.40000000596046</ele>
        <time>2019-07-04T07:51:23.000Z</time>
      </trkpt>
      <trkpt lat="47.27023" lon="-2.32257">
        <ele>0.40000000596046</ele>
        <time>2019-07-04T07:51:25.000Z</time>
      </trkpt>
      <trkpt lat="47.27023" lon="-2.3224">
        <ele>0.40000000596046</ele>
        <time>2019-07-04T07:51:27.000Z</time>
      </trkpt>
      <trkpt lat="47.2702" lon="-2.32224">
        <ele>0.40000000596046</ele>
        <time>2019-07-04T07:51:29.000Z</time>
      </trkpt>
      <trkpt lat="47.27012" lon="-2.32195">
        <ele>0.40000000596046</ele>
        <time>2019-07-04T07:51:33.000Z</time>
      </trkpt>
      <trkpt lat="47.27004" lon="-2.32181">
        <ele>0.40000000596046</ele>
        <time>2019-07-04T07:51:35.000Z</time>
      </trkpt>
      <trkpt lat="47.26996" lon="-2.32169">
        <ele>0.40000000596046</ele>
        <time>2019-07-04T07:51:37.000Z</time>
      </trkpt>
      <trkpt lat="47.26993" lon="-2.32162">
        <ele>0.40000000596046</ele>
        <time>2019-07-04T07:51:38.000Z</time>
      </trkpt>
      <trkpt lat="47.26993" lon="-2.32146">
        <ele>0.40000000596046</ele>
        <time>2019-07-04T07:51:40.000Z</time>
      </trkpt>
      <trkpt lat="47.27001" lon="-2.3213">
        <ele>0.40000000596046</ele>
        <time>2019-07-04T07:51:43.000Z</time>
      </trkpt>
      <trkpt lat="47.2701" lon="-2.32109">
        <ele>0.40000000596046</ele>
        <time>2019-07-04T07:51:47.000Z</time>
      </trkpt>
      <trkpt lat="47.27011" lon="-2.32103">
        <ele>0.40000000596046</ele>
        <time>2019-07-04T07:51:48.000Z</time>
      </trkpt>
      <trkpt lat="47.27013" lon="-2.32087">
        <ele>0.40000000596046</ele>
        <time>2019-07-04T07:51:50.000Z</time>
      </trkpt>
      <trkpt lat="47.27014" lon="-2.32072">
        <ele>0.40000000596046</ele>
        <time>2019-07-04T07:51:52.000Z</time>
      </trkpt>
      <trkpt lat="47.27014" lon="-2.32064">
        <ele>0.40000000596046</ele>
        <time>2019-07-04T07:51:53.000Z</time>
      </trkpt>
      <trkpt lat="47.27014" lon="-2.32044">
        <ele>0.40000000596046</ele>
        <time>2019-07-04T07:51:56.000Z</time>
      </trkpt>
      <trkpt lat="47.27013" lon="-2.32038">
        <ele>0.40000000596046</ele>
        <time>2019-07-04T07:51:57.000Z</time>
      </trkpt>
      <trkpt lat="47.27012" lon="-2.32025">
        <ele>0.80000001192093</ele>
        <time>2019-07-04T07:51:59.000Z</time>
      </trkpt>
      <trkpt lat="47.27011" lon="-2.32019">
        <ele>1.2000000476837</ele>
        <time>2019-07-04T07:52:00.000Z</time>
      </trkpt>
      <trkpt lat="47.2701" lon="-2.32014">
        <ele>1.7999999523163</ele>
        <time>2019-07-04T07:52:01.000Z</time>
      </trkpt>
      <trkpt lat="47.27009" lon="-2.32008">
        <ele>2.2000000476837</ele>
        <time>2019-07-04T07:52:02.000Z</time>
      </trkpt>
      <trkpt lat="47.27007" lon="-2.32002">
        <ele>2.5999999046326</ele>
        <time>2019-07-04T07:52:03.000Z</time>
      </trkpt>
      <trkpt lat="47.27011" lon="-2.31985">
        <ele>2.5999999046326</ele>
        <time>2019-07-04T07:52:06.000Z</time>
      </trkpt>
      <trkpt lat="47.27027" lon="-2.31973">
        <ele>2.5999999046326</ele>
        <time>2019-07-04T07:52:10.000Z</time>
      </trkpt>
      <trkpt lat="47.27031" lon="-2.31971">
        <ele>2.5999999046326</ele>
        <time>2019-07-04T07:52:11.000Z</time>
      </trkpt>
      <trkpt lat="47.27057" lon="-2.31963">
        <ele>2.5999999046326</ele>
        <time>2019-07-04T07:52:17.000Z</time>
      </trkpt>
      <trkpt lat="47.27067" lon="-2.31961">
        <ele>2.5999999046326</ele>
        <time>2019-07-04T07:52:19.000Z</time>
      </trkpt>
      <trkpt lat="47.27085" lon="-2.3196">
        <ele>2.5999999046326</ele>
        <time>2019-07-04T07:52:22.000Z</time>
      </trkpt>
      <trkpt lat="47.27097" lon="-2.31962">
        <ele>2.5999999046326</ele>
        <time>2019-07-04T07:52:24.000Z</time>
      </trkpt>
      <trkpt lat="47.27115" lon="-2.31968">
        <ele>2.5999999046326</ele>
        <time>2019-07-04T07:52:27.000Z</time>
      </trkpt>
      <trkpt lat="47.27131" lon="-2.31977">
        <ele>2.5999999046326</ele>
        <time>2019-07-04T07:52:30.000Z</time>
      </trkpt>
      <trkpt lat="47.27138" lon="-2.31984">
        <ele>2.5999999046326</ele>
        <time>2019-07-04T07:52:32.000Z</time>
      </trkpt>
      <trkpt lat="47.27148" lon="-2.31993">
        <ele>2.2000000476837</ele>
        <time>2019-07-04T07:52:35.000Z</time>
      </trkpt>
      <trkpt lat="47.27152" lon="-2.31995">
        <ele>1.7999999523163</ele>
        <time>2019-07-04T07:52:36.000Z</time>
      </trkpt>
      <trkpt lat="47.27157" lon="-2.31995">
        <ele>1.3999999761581</ele>
        <time>2019-07-04T07:52:37.000Z</time>
      </trkpt>
      <trkpt lat="47.2716" lon="-2.31993">
        <ele>1</ele>
        <time>2019-07-04T07:52:38.000Z</time>
      </trkpt>
      <trkpt lat="47.27164" lon="-2.3199">
        <ele>0.60000002384186</ele>
        <time>2019-07-04T07:52:39.000Z</time>
      </trkpt>
      <trkpt lat="47.27176" lon="-2.31971">
        <ele>0.60000002384186</ele>
        <time>2019-07-04T07:52:43.000Z</time>
      </trkpt>
      <trkpt lat="47.27187" lon="-2.31961">
        <ele>0.60000002384186</ele>
        <time>2019-07-04T07:52:46.000Z</time>
      </trkpt>
      <trkpt lat="47.2719" lon="-2.31957">
        <ele>0.60000002384186</ele>
        <time>2019-07-04T07:52:47.000Z</time>
      </trkpt>
      <trkpt lat="47.27203" lon="-2.31944">
        <ele>0.60000002384186</ele>
        <time>2019-07-04T07:52:52.000Z</time>
      </trkpt>
      <trkpt lat="47.27209" lon="-2.31932">
        <ele>0.60000002384186</ele>
        <time>2019-07-04T07:52:57.000Z</time>
      </trkpt>
      <trkpt lat="47.27211" lon="-2.31929">
        <ele>0.60000002384186</ele>
        <time>2019-07-04T07:52:58.000Z</time>
      </trkpt>
      <trkpt lat="47.2722" lon="-2.31924">
        <ele>0.60000002384186</ele>
        <time>2019-07-04T07:53:01.000Z</time>
      </trkpt>
      <trkpt lat="47.27235" lon="-2.31929">
        <ele>0.60000002384186</ele>
        <time>2019-07-04T07:53:05.000Z</time>
      </trkpt>
      <trkpt lat="47.27254" lon="-2.31932">
        <ele>0.60000002384186</ele>
        <time>2019-07-04T07:53:08.000Z</time>
      </trkpt>
      <trkpt lat="47.2726" lon="-2.31932">
        <ele>0.60000002384186</ele>
        <time>2019-07-04T07:53:09.000Z</time>
      </trkpt>
      <trkpt lat="47.27281" lon="-2.31938">
        <ele>0.60000002384186</ele>
        <time>2019-07-04T07:53:13.000Z</time>
      </trkpt>
      <trkpt lat="47.27286" lon="-2.3194">
        <ele>0.60000002384186</ele>
        <time>2019-07-04T07:53:14.000Z</time>
      </trkpt>
      <trkpt lat="47.273" lon="-2.3195">
        <ele>0.60000002384186</ele>
        <time>2019-07-04T07:53:17.000Z</time>
      </trkpt>
      <trkpt lat="47.27311" lon="-2.31959">
        <ele>0.60000002384186</ele>
        <time>2019-07-04T07:53:19.000Z</time>
      </trkpt>
      <trkpt lat="47.27316" lon="-2.31964">
        <ele>0.60000002384186</ele>
        <time>2019-07-04T07:53:20.000Z</time>
      </trkpt>
      <trkpt lat="47.27324" lon="-2.31972">
        <ele>0.60000002384186</ele>
        <time>2019-07-04T07:53:22.000Z</time>
      </trkpt>
      <trkpt lat="47.27328" lon="-2.31975">
        <ele>0.60000002384186</ele>
        <time>2019-07-04T07:53:23.000Z</time>
      </trkpt>
      <trkpt lat="47.27361" lon="-2.31998">
        <ele>0.60000002384186</ele>
        <time>2019-07-04T07:53:31.000Z</time>
      </trkpt>
      <trkpt lat="47.27372" lon="-2.32008">
        <ele>0.60000002384186</ele>
        <time>2019-07-04T07:53:35.000Z</time>
      </trkpt>
      <trkpt lat="47.27386" lon="-2.32018">
        <ele>0.60000002384186</ele>
        <time>2019-07-04T07:53:40.000Z</time>
      </trkpt>
      <trkpt lat="47.27391" lon="-2.32022">
        <ele>0.60000002384186</ele>
        <time>2019-07-04T07:53:41.000Z</time>
      </trkpt>
      <trkpt lat="47.27401" lon="-2.3203">
        <ele>0.60000002384186</ele>
        <time>2019-07-04T07:53:43.000Z</time>
      </trkpt>
      <trkpt lat="47.27406" lon="-2.32034">
        <ele>0.60000002384186</ele>
        <time>2019-07-04T07:53:44.000Z</time>
      </trkpt>
      <trkpt lat="47.27416" lon="-2.32039">
        <ele>0.60000002384186</ele>
        <time>2019-07-04T07:53:46.000Z</time>
      </trkpt>
      <trkpt lat="47.27427" lon="-2.32038">
        <ele>0.60000002384186</ele>
        <time>2019-07-04T07:53:48.000Z</time>
      </trkpt>
      <trkpt lat="47.27439" lon="-2.3202">
        <ele>0.60000002384186</ele>
        <time>2019-07-04T07:53:51.000Z</time>
      </trkpt>
      <trkpt lat="47.27443" lon="-2.32012">
        <ele>0.60000002384186</ele>
        <time>2019-07-04T07:53:52.000Z</time>
      </trkpt>
      <trkpt lat="47.27458" lon="-2.31974">
        <ele>0.60000002384186</ele>
        <time>2019-07-04T07:53:57.000Z</time>
      </trkpt>
      <trkpt lat="47.27468" lon="-2.31952">
        <ele>0.60000002384186</ele>
        <time>2019-07-04T07:54:00.000Z</time>
      </trkpt>
      <trkpt lat="47.27481" lon="-2.31922">
        <ele>0.60000002384186</ele>
        <time>2019-07-04T07:54:04.000Z</time>
      </trkpt>
      <trkpt lat="47.27499" lon="-2.31877">
        <ele>0.60000002384186</ele>
        <time>2019-07-04T07:54:10.000Z</time>
      </trkpt>
      <trkpt lat="47.27518" lon="-2.31822">
        <ele>0.60000002384186</ele>
        <time>2019-07-04T07:54:17.000Z</time>
      </trkpt>
      <trkpt lat="47.27524" lon="-2.318">
        <ele>1</ele>
        <time>2019-07-04T07:54:20.000Z</time>
      </trkpt>
      <trkpt lat="47.27526" lon="-2.31792">
        <ele>1.3999999761581</ele>
        <time>2019-07-04T07:54:21.000Z</time>
      </trkpt>
      <trkpt lat="47.27527" lon="-2.31785">
        <ele>1.7999999523163</ele>
        <time>2019-07-04T07:54:22.000Z</time>
      </trkpt>
      <trkpt lat="47.27529" lon="-2.31777">
        <ele>2.2000000476837</ele>
        <time>2019-07-04T07:54:23.000Z</time>
      </trkpt>
      <trkpt lat="47.27531" lon="-2.3177">
        <ele>2.5999999046326</ele>
        <time>2019-07-04T07:54:24.000Z</time>
      </trkpt>
      <trkpt lat="47.27542" lon="-2.31714">
        <ele>2.5999999046326</ele>
        <time>2019-07-04T07:54:32.000Z</time>
      </trkpt>
      <trkpt lat="47.27548" lon="-2.31687">
        <ele>2.5999999046326</ele>
        <time>2019-07-04T07:54:36.000Z</time>
      </trkpt>
      <trkpt lat="47.27552" lon="-2.3167">
        <ele>2.5999999046326</ele>
        <time>2019-07-04T07:54:39.000Z</time>
      </trkpt>
      <trkpt lat="47.27553" lon="-2.31665">
        <ele>3</ele>
        <time>2019-07-04T07:54:40.000Z</time>
      </trkpt>
      <trkpt lat="47.27554" lon="-2.3166">
        <ele>3.4000000953674</ele>
        <time>2019-07-04T07:54:41.000Z</time>
      </trkpt>
      <trkpt lat="47.27556" lon="-2.31655">
        <ele>4</ele>
        <time>2019-07-04T07:54:42.000Z</time>
      </trkpt>
      <trkpt lat="47.27557" lon="-2.3165">
        <ele>4.4000000953674</ele>
        <time>2019-07-04T07:54:43.000Z</time>
      </trkpt>
      <trkpt lat="47.27558" lon="-2.31644">
        <ele>4.8000001907349</ele>
        <time>2019-07-04T07:54:44.000Z</time>
      </trkpt>
      <trkpt lat="47.27568" lon="-2.31604">
        <ele>4.8000001907349</ele>
        <time>2019-07-04T07:54:50.000Z</time>
      </trkpt>
      <trkpt lat="47.27584" lon="-2.31563">
        <ele>4.8000001907349</ele>
        <time>2019-07-04T07:54:56.000Z</time>
      </trkpt>
      <trkpt lat="47.27589" lon="-2.31549">
        <ele>4.8000001907349</ele>
        <time>2019-07-04T07:54:58.000Z</time>
      </trkpt>
      <trkpt lat="47.27598" lon="-2.31521">
        <ele>4.8000001907349</ele>
        <time>2019-07-04T07:55:02.000Z</time>
      </trkpt>
      <trkpt lat="47.27608" lon="-2.31483">
        <ele>4.8000001907349</ele>
        <time>2019-07-04T07:55:07.000Z</time>
      </trkpt>
      <trkpt lat="47.27612" lon="-2.31468">
        <ele>4.8000001907349</ele>
        <time>2019-07-04T07:55:09.000Z</time>
      </trkpt>
      <trkpt lat="47.27616" lon="-2.31453">
        <ele>4.8000001907349</ele>
        <time>2019-07-04T07:55:11.000Z</time>
      </trkpt>
      <trkpt lat="47.27621" lon="-2.31429">
        <ele>4.8000001907349</ele>
        <time>2019-07-04T07:55:14.000Z</time>
      </trkpt>
      <trkpt lat="47.27625" lon="-2.31401">
        <ele>4.8000001907349</ele>
        <time>2019-07-04T07:55:18.000Z</time>
      </trkpt>
      <trkpt lat="47.27626" lon="-2.31395">
        <ele>5.1999998092651</ele>
        <time>2019-07-04T07:55:19.000Z</time>
      </trkpt>
      <trkpt lat="47.27627" lon="-2.31388">
        <ele>5.5999999046326</ele>
        <time>2019-07-04T07:55:20.000Z</time>
      </trkpt>
      <trkpt lat="47.27629" lon="-2.31382">
        <ele>6</ele>
        <time>2019-07-04T07:55:21.000Z</time>
      </trkpt>
      <trkpt lat="47.27631" lon="-2.31375">
        <ele>6.5999999046326</ele>
        <time>2019-07-04T07:55:22.000Z</time>
      </trkpt>
      <trkpt lat="47.27633" lon="-2.31369">
        <ele>7</ele>
        <time>2019-07-04T07:55:23.000Z</time>
      </trkpt>
      <trkpt lat="47.27637" lon="-2.31354">
        <ele>7.4000000953674</ele>
        <time>2019-07-04T07:55:25.000Z</time>
      </trkpt>
      <trkpt lat="47.2764" lon="-2.31347">
        <ele>7.8000001907349</ele>
        <time>2019-07-04T07:55:26.000Z</time>
      </trkpt>
      <trkpt lat="47.27643" lon="-2.3134">
        <ele>8.1999998092651</ele>
        <time>2019-07-04T07:55:27.000Z</time>
      </trkpt>
      <trkpt lat="47.27646" lon="-2.31333">
        <ele>8.6000003814697</ele>
        <time>2019-07-04T07:55:28.000Z</time>
      </trkpt>
      <trkpt lat="47.27648" lon="-2.31326">
        <ele>9</ele>
        <time>2019-07-04T07:55:29.000Z</time>
      </trkpt>
      <trkpt lat="47.27651" lon="-2.3132">
        <ele>9</ele>
        <time>2019-07-04T07:55:30.000Z</time>
      </trkpt>
      <trkpt lat="47.27655" lon="-2.31308">
        <ele>9</ele>
        <time>2019-07-04T07:55:32.000Z</time>
      </trkpt>
      <trkpt lat="47.27664" lon="-2.31277">
        <ele>9</ele>
        <time>2019-07-04T07:55:37.000Z</time>
      </trkpt>
      <trkpt lat="47.27676" lon="-2.31234">
        <ele>9.3999996185303</ele>
        <time>2019-07-04T07:55:44.000Z</time>
      </trkpt>
      <trkpt lat="47.27677" lon="-2.31227">
        <ele>9.8000001907349</ele>
        <time>2019-07-04T07:55:45.000Z</time>
      </trkpt>
      <trkpt lat="47.27679" lon="-2.3122">
        <ele>10.199999809265</ele>
        <time>2019-07-04T07:55:46.000Z</time>
      </trkpt>
      <trkpt lat="47.2768" lon="-2.31214">
        <ele>10.60000038147</ele>
        <time>2019-07-04T07:55:47.000Z</time>
      </trkpt>
      <trkpt lat="47.27682" lon="-2.31207">
        <ele>11</ele>
        <time>2019-07-04T07:55:48.000Z</time>
      </trkpt>
      <trkpt lat="47.27685" lon="-2.31194">
        <ele>11</ele>
        <time>2019-07-04T07:55:50.000Z</time>
      </trkpt>
      <trkpt lat="47.27692" lon="-2.31169">
        <ele>11</ele>
        <time>2019-07-04T07:55:54.000Z</time>
      </trkpt>
      <trkpt lat="47.27694" lon="-2.31157">
        <ele>11</ele>
        <time>2019-07-04T07:55:56.000Z</time>
      </trkpt>
      <trkpt lat="47.27699" lon="-2.31138">
        <ele>11</ele>
        <time>2019-07-04T07:55:59.000Z</time>
      </trkpt>
      <trkpt lat="47.27702" lon="-2.31126">
        <ele>11.39999961853</ele>
        <time>2019-07-04T07:56:01.000Z</time>
      </trkpt>
      <trkpt lat="47.27704" lon="-2.3112">
        <ele>12</ele>
        <time>2019-07-04T07:56:02.000Z</time>
      </trkpt>
      <trkpt lat="47.27707" lon="-2.31115">
        <ele>12.39999961853</ele>
        <time>2019-07-04T07:56:03.000Z</time>
      </trkpt>
      <trkpt lat="47.2771" lon="-2.31108">
        <ele>12.800000190735</ele>
        <time>2019-07-04T07:56:04.000Z</time>
      </trkpt>
      <trkpt lat="47.27712" lon="-2.31101">
        <ele>13.199999809265</ele>
        <time>2019-07-04T07:56:05.000Z</time>
      </trkpt>
      <trkpt lat="47.27713" lon="-2.31072">
        <ele>13.199999809265</ele>
        <time>2019-07-04T07:56:09.000Z</time>
      </trkpt>
      <trkpt lat="47.27706" lon="-2.31055">
        <ele>13.199999809265</ele>
        <time>2019-07-04T07:56:12.000Z</time>
      </trkpt>
      <trkpt lat="47.2769" lon="-2.31012">
        <ele>13.199999809265</ele>
        <time>2019-07-04T07:56:18.000Z</time>
      </trkpt>
      <trkpt lat="47.27676" lon="-2.30979">
        <ele>13.199999809265</ele>
        <time>2019-07-04T07:56:23.000Z</time>
      </trkpt>
      <trkpt lat="47.27663" lon="-2.30938">
        <ele>13.199999809265</ele>
        <time>2019-07-04T07:56:29.000Z</time>
      </trkpt>
      <trkpt lat="47.27659" lon="-2.30931">
        <ele>13.199999809265</ele>
        <time>2019-07-04T07:56:30.000Z</time>
      </trkpt>
      <trkpt lat="47.27648" lon="-2.30909">
        <ele>13.199999809265</ele>
        <time>2019-07-04T07:56:33.000Z</time>
      </trkpt>
      <trkpt lat="47.27645" lon="-2.30901">
        <ele>13.199999809265</ele>
        <time>2019-07-04T07:56:34.000Z</time>
      </trkpt>
      <trkpt lat="47.27634" lon="-2.30877">
        <ele>13.199999809265</ele>
        <time>2019-07-04T07:56:37.000Z</time>
      </trkpt>
      <trkpt lat="47.27622" lon="-2.30848">
        <ele>13.199999809265</ele>
        <time>2019-07-04T07:56:41.000Z</time>
      </trkpt>
      <trkpt lat="47.27619" lon="-2.3084">
        <ele>13.199999809265</ele>
        <time>2019-07-04T07:56:42.000Z</time>
      </trkpt>
      <trkpt lat="47.27613" lon="-2.30825">
        <ele>13.199999809265</ele>
        <time>2019-07-04T07:56:44.000Z</time>
      </trkpt>
      <trkpt lat="47.27604" lon="-2.30804">
        <ele>13.199999809265</ele>
        <time>2019-07-04T07:56:47.000Z</time>
      </trkpt>
      <trkpt lat="47.27582" lon="-2.3075">
        <ele>13.199999809265</ele>
        <time>2019-07-04T07:56:54.000Z</time>
      </trkpt>
      <trkpt lat="47.27575" lon="-2.3072">
        <ele>13.199999809265</ele>
        <time>2019-07-04T07:56:58.000Z</time>
      </trkpt>
      <trkpt lat="47.27574" lon="-2.30702">
        <ele>13.199999809265</ele>
        <time>2019-07-04T07:57:00.000Z</time>
      </trkpt>
      <trkpt lat="47.27571" lon="-2.30685">
        <ele>13.199999809265</ele>
        <time>2019-07-04T07:57:02.000Z</time>
      </trkpt>
      <trkpt lat="47.27566" lon="-2.30668">
        <ele>13.199999809265</ele>
        <time>2019-07-04T07:57:04.000Z</time>
      </trkpt>
      <trkpt lat="47.27562" lon="-2.30652">
        <ele>13.199999809265</ele>
        <time>2019-07-04T07:57:06.000Z</time>
      </trkpt>
      <trkpt lat="47.27558" lon="-2.30631">
        <ele>13.199999809265</ele>
        <time>2019-07-04T07:57:09.000Z</time>
      </trkpt>
      <trkpt lat="47.27556" lon="-2.30625">
        <ele>13.199999809265</ele>
        <time>2019-07-04T07:57:10.000Z</time>
      </trkpt>
      <trkpt lat="47.27549" lon="-2.30595">
        <ele>13.199999809265</ele>
        <time>2019-07-04T07:57:15.000Z</time>
      </trkpt>
      <trkpt lat="47.27544" lon="-2.30578">
        <ele>13.199999809265</ele>
        <time>2019-07-04T07:57:17.000Z</time>
      </trkpt>
      <trkpt lat="47.27538" lon="-2.3056">
        <ele>13.199999809265</ele>
        <time>2019-07-04T07:57:19.000Z</time>
      </trkpt>
      <trkpt lat="47.27524" lon="-2.30515">
        <ele>13.199999809265</ele>
        <time>2019-07-04T07:57:25.000Z</time>
      </trkpt>
      <trkpt lat="47.2752" lon="-2.30493">
        <ele>13.199999809265</ele>
        <time>2019-07-04T07:57:29.000Z</time>
      </trkpt>
      <trkpt lat="47.27514" lon="-2.3046">
        <ele>13.199999809265</ele>
        <time>2019-07-04T07:57:35.000Z</time>
      </trkpt>
      <trkpt lat="47.27508" lon="-2.30445">
        <ele>13.199999809265</ele>
        <time>2019-07-04T07:57:38.000Z</time>
      </trkpt>
      <trkpt lat="47.27504" lon="-2.30442">
        <ele>13.199999809265</ele>
        <time>2019-07-04T07:57:39.000Z</time>
      </trkpt>
      <trkpt lat="47.27492" lon="-2.30443">
        <ele>13.199999809265</ele>
        <time>2019-07-04T07:57:42.000Z</time>
      </trkpt>
      <trkpt lat="47.27488" lon="-2.30444">
        <ele>13.199999809265</ele>
        <time>2019-07-04T07:57:43.000Z</time>
      </trkpt>
      <trkpt lat="47.27483" lon="-2.30445">
        <ele>13.199999809265</ele>
        <time>2019-07-04T07:57:44.000Z</time>
      </trkpt>
      <trkpt lat="47.27469" lon="-2.30448">
        <ele>13.199999809265</ele>
        <time>2019-07-04T07:57:47.000Z</time>
      </trkpt>
      <trkpt lat="47.27466" lon="-2.30449">
        <ele>13.199999809265</ele>
        <time>2019-07-04T07:57:48.000Z</time>
      </trkpt>
      <trkpt lat="47.27448" lon="-2.30452">
        <ele>13.199999809265</ele>
        <time>2019-07-04T07:57:53.000Z</time>
      </trkpt>
      <trkpt lat="47.27433" lon="-2.30453">
        <ele>13.199999809265</ele>
        <time>2019-07-04T07:57:58.000Z</time>
      </trkpt>
      <trkpt lat="47.27427" lon="-2.30454">
        <ele>13.199999809265</ele>
        <time>2019-07-04T07:58:03.000Z</time>
      </trkpt>
      <trkpt lat="47.27424" lon="-2.30456">
        <ele>13.199999809265</ele>
        <time>2019-07-04T07:58:08.000Z</time>
      </trkpt>
      <trkpt lat="47.27412" lon="-2.30464">
        <ele>13.199999809265</ele>
        <time>2019-07-04T07:58:26.000Z</time>
      </trkpt>
      <trkpt lat="47.274" lon="-2.30478">
        <ele>13.199999809265</ele>
        <time>2019-07-04T07:58:30.000Z</time>
      </trkpt>
      <trkpt lat="47.27395" lon="-2.30481">
        <ele>13.199999809265</ele>
        <time>2019-07-04T07:58:31.000Z</time>
      </trkpt>
      <trkpt lat="47.27387" lon="-2.30488">
        <ele>13.199999809265</ele>
        <time>2019-07-04T07:58:33.000Z</time>
      </trkpt>
      <trkpt lat="47.2737" lon="-2.30499">
        <ele>13.199999809265</ele>
        <time>2019-07-04T07:58:37.000Z</time>
      </trkpt>
      <trkpt lat="47.27353" lon="-2.30511">
        <ele>13.199999809265</ele>
        <time>2019-07-04T07:58:42.000Z</time>
      </trkpt>
      <trkpt lat="47.27339" lon="-2.30517">
        <ele>13.199999809265</ele>
        <time>2019-07-04T07:58:47.000Z</time>
      </trkpt>
      <trkpt lat="47.27313" lon="-2.30528">
        <ele>13.199999809265</ele>
        <time>2019-07-04T07:58:54.000Z</time>
      </trkpt>
      <trkpt lat="47.27294" lon="-2.30539">
        <ele>13.199999809265</ele>
        <time>2019-07-04T07:58:59.000Z</time>
      </trkpt>
      <trkpt lat="47.27278" lon="-2.30549">
        <ele>13.199999809265</ele>
        <time>2019-07-04T07:59:03.000Z</time>
      </trkpt>
      <trkpt lat="47.27268" lon="-2.30545">
        <ele>13.199999809265</ele>
        <time>2019-07-04T07:59:06.000Z</time>
      </trkpt>
      <trkpt lat="47.27253" lon="-2.30546">
        <ele>13.199999809265</ele>
        <time>2019-07-04T07:59:11.000Z</time>
      </trkpt>
      <trkpt lat="47.27249" lon="-2.30546">
        <ele>13.199999809265</ele>
        <time>2019-07-04T07:59:12.000Z</time>
      </trkpt>
      <trkpt lat="47.27229" lon="-2.30547">
        <ele>13.199999809265</ele>
        <time>2019-07-04T07:59:18.000Z</time>
      </trkpt>
      <trkpt lat="47.27212" lon="-2.3055">
        <ele>13.199999809265</ele>
        <time>2019-07-04T07:59:24.000Z</time>
      </trkpt>
      <trkpt lat="47.27196" lon="-2.30548">
        <ele>13.199999809265</ele>
        <time>2019-07-04T07:59:30.000Z</time>
      </trkpt>
      <trkpt lat="47.27184" lon="-2.30545">
        <ele>13.60000038147</ele>
        <time>2019-07-04T07:59:34.000Z</time>
      </trkpt>
      <trkpt lat="47.2718" lon="-2.30543">
        <ele>14</ele>
        <time>2019-07-04T07:59:35.000Z</time>
      </trkpt>
      <trkpt lat="47.27177" lon="-2.30542">
        <ele>14.39999961853</ele>
        <time>2019-07-04T07:59:36.000Z</time>
      </trkpt>
      <trkpt lat="47.27174" lon="-2.30541">
        <ele>14.800000190735</ele>
        <time>2019-07-04T07:59:37.000Z</time>
      </trkpt>
      <trkpt lat="47.2717" lon="-2.30539">
        <ele>15.39999961853</ele>
        <time>2019-07-04T07:59:38.000Z</time>
      </trkpt>
      <trkpt lat="47.2716" lon="-2.30528">
        <ele>15.39999961853</ele>
        <time>2019-07-04T07:59:41.000Z</time>
      </trkpt>
      <trkpt lat="47.27146" lon="-2.30518">
        <ele>15.39999961853</ele>
        <time>2019-07-04T07:59:44.000Z</time>
      </trkpt>
      <trkpt lat="47.27136" lon="-2.30513">
        <ele>15.39999961853</ele>
        <time>2019-07-04T07:59:46.000Z</time>
      </trkpt>
      <trkpt lat="47.27126" lon="-2.30509">
        <ele>15.800000190735</ele>
        <time>2019-07-04T07:59:48.000Z</time>
      </trkpt>
      <trkpt lat="47.27121" lon="-2.30506">
        <ele>16.200000762939</ele>
        <time>2019-07-04T07:59:49.000Z</time>
      </trkpt>
      <trkpt lat="47.27116" lon="-2.30503">
        <ele>16.60000038147</ele>
        <time>2019-07-04T07:59:50.000Z</time>
      </trkpt>
      <trkpt lat="47.27111" lon="-2.30502">
        <ele>17</ele>
        <time>2019-07-04T07:59:51.000Z</time>
      </trkpt>
      <trkpt lat="47.27107" lon="-2.305">
        <ele>17.39999961853</ele>
        <time>2019-07-04T07:59:52.000Z</time>
      </trkpt>
      <trkpt lat="47.27097" lon="-2.30496">
        <ele>17.39999961853</ele>
        <time>2019-07-04T07:59:55.000Z</time>
      </trkpt>
      <trkpt lat="47.27075" lon="-2.30488">
        <ele>17.799999237061</ele>
        <time>2019-07-04T08:00:01.000Z</time>
      </trkpt>
      <trkpt lat="47.2707" lon="-2.30487">
        <ele>18.200000762939</ele>
        <time>2019-07-04T08:00:02.000Z</time>
      </trkpt>
      <trkpt lat="47.27065" lon="-2.30486">
        <ele>18.60000038147</ele>
        <time>2019-07-04T08:00:03.000Z</time>
      </trkpt>
      <trkpt lat="47.27061" lon="-2.30484">
        <ele>19</ele>
        <time>2019-07-04T08:00:04.000Z</time>
      </trkpt>
      <trkpt lat="47.27057" lon="-2.30481">
        <ele>19.39999961853</ele>
        <time>2019-07-04T08:00:05.000Z</time>
      </trkpt>
      <trkpt lat="47.27055" lon="-2.30478">
        <ele>19.39999961853</ele>
        <time>2019-07-04T08:00:06.000Z</time>
      </trkpt>
      <trkpt lat="47.27046" lon="-2.30467">
        <ele>19.39999961853</ele>
        <time>2019-07-04T08:00:11.000Z</time>
      </trkpt>
      <trkpt lat="47.27045" lon="-2.30465">
        <ele>19.39999961853</ele>
        <time>2019-07-04T08:00:13.000Z</time>
      </trkpt>
      <trkpt lat="47.27045" lon="-2.30457">
        <ele>19.39999961853</ele>
        <time>2019-07-04T08:00:39.000Z</time>
      </trkpt>
      <trkpt lat="47.27046" lon="-2.30455">
        <ele>19.39999961853</ele>
        <time>2019-07-04T08:00:40.000Z</time>
      </trkpt>
      <trkpt lat="47.27046" lon="-2.30444">
        <ele>19.39999961853</ele>
        <time>2019-07-04T08:00:43.000Z</time>
      </trkpt>
      <trkpt lat="47.27048" lon="-2.30435">
        <ele>19.39999961853</ele>
        <time>2019-07-04T08:00:45.000Z</time>
      </trkpt>
      <trkpt lat="47.27052" lon="-2.30398">
        <ele>19.39999961853</ele>
        <time>2019-07-04T08:00:51.000Z</time>
      </trkpt>
      <trkpt lat="47.27054" lon="-2.30378">
        <ele>19.799999237061</ele>
        <time>2019-07-04T08:00:54.000Z</time>
      </trkpt>
      <trkpt lat="47.27055" lon="-2.30372">
        <ele>20.200000762939</ele>
        <time>2019-07-04T08:00:55.000Z</time>
      </trkpt>
      <trkpt lat="47.27057" lon="-2.30365">
        <ele>21</ele>
        <time>2019-07-04T08:00:56.000Z</time>
      </trkpt>
      <trkpt lat="47.27058" lon="-2.30359">
        <ele>21.39999961853</ele>
        <time>2019-07-04T08:00:57.000Z</time>
      </trkpt>
      <trkpt lat="47.27059" lon="-2.30352">
        <ele>21.39999961853</ele>
        <time>2019-07-04T08:00:58.000Z</time>
      </trkpt>
      <trkpt lat="47.27062" lon="-2.30325">
        <ele>21.39999961853</ele>
        <time>2019-07-04T08:01:02.000Z</time>
      </trkpt>
      <trkpt lat="47.27069" lon="-2.30281">
        <ele>21.39999961853</ele>
        <time>2019-07-04T08:01:09.000Z</time>
      </trkpt>
      <trkpt lat="47.27072" lon="-2.30277">
        <ele>21.39999961853</ele>
        <time>2019-07-04T08:01:10.000Z</time>
      </trkpt>
      <trkpt lat="47.27085" lon="-2.30264">
        <ele>21.39999961853</ele>
        <time>2019-07-04T08:01:13.000Z</time>
      </trkpt>
      <trkpt lat="47.2709" lon="-2.30261">
        <ele>21.39999961853</ele>
        <time>2019-07-04T08:01:14.000Z</time>
      </trkpt>
      <trkpt lat="47.27095" lon="-2.30258">
        <ele>21</ele>
        <time>2019-07-04T08:01:15.000Z</time>
      </trkpt>
      <trkpt lat="47.27098" lon="-2.30258">
        <ele>20.60000038147</ele>
        <time>2019-07-04T08:01:16.000Z</time>
      </trkpt>
      <trkpt lat="47.27101" lon="-2.30258">
        <ele>20.200000762939</ele>
        <time>2019-07-04T08:01:17.000Z</time>
      </trkpt>
      <trkpt lat="47.27104" lon="-2.30257">
        <ele>19.799999237061</ele>
        <time>2019-07-04T08:01:18.000Z</time>
      </trkpt>
      <trkpt lat="47.27107" lon="-2.30256">
        <ele>19.39999961853</ele>
        <time>2019-07-04T08:01:19.000Z</time>
      </trkpt>
      <trkpt lat="47.27109" lon="-2.30254">
        <ele>19.39999961853</ele>
        <time>2019-07-04T08:01:20.000Z</time>
      </trkpt>
      <trkpt lat="47.27118" lon="-2.30249">
        <ele>19.39999961853</ele>
        <time>2019-07-04T08:01:23.000Z</time>
      </trkpt>
      <trkpt lat="47.27137" lon="-2.30241">
        <ele>19.39999961853</ele>
        <time>2019-07-04T08:01:28.000Z</time>
      </trkpt>
      <trkpt lat="47.27147" lon="-2.30239">
        <ele>19.39999961853</ele>
        <time>2019-07-04T08:01:30.000Z</time>
      </trkpt>
      <trkpt lat="47.27153" lon="-2.30242">
        <ele>19.39999961853</ele>
        <time>2019-07-04T08:01:32.000Z</time>
      </trkpt>
      <trkpt lat="47.27163" lon="-2.3025">
        <ele>19.39999961853</ele>
        <time>2019-07-04T08:01:36.000Z</time>
      </trkpt>
      <trkpt lat="47.27164" lon="-2.30254">
        <ele>19.39999961853</ele>
        <time>2019-07-04T08:01:37.000Z</time>
      </trkpt>
      <trkpt lat="47.27173" lon="-2.30256">
        <ele>19.39999961853</ele>
        <time>2019-07-04T08:01:40.000Z</time>
      </trkpt>
      <trkpt lat="47.27192" lon="-2.30251">
        <ele>19.39999961853</ele>
        <time>2019-07-04T08:01:44.000Z</time>
      </trkpt>
      <trkpt lat="47.27202" lon="-2.30253">
        <ele>19.39999961853</ele>
        <time>2019-07-04T08:01:46.000Z</time>
      </trkpt>
      <trkpt lat="47.2721" lon="-2.30257">
        <ele>19.39999961853</ele>
        <time>2019-07-04T08:01:48.000Z</time>
      </trkpt>
      <trkpt lat="47.27222" lon="-2.30259">
        <ele>19.39999961853</ele>
        <time>2019-07-04T08:01:52.000Z</time>
      </trkpt>
      <trkpt lat="47.27244" lon="-2.30261">
        <ele>19.39999961853</ele>
        <time>2019-07-04T08:01:57.000Z</time>
      </trkpt>
      <trkpt lat="47.27255" lon="-2.3026">
        <ele>19.39999961853</ele>
        <time>2019-07-04T08:01:59.000Z</time>
      </trkpt>
      <trkpt lat="47.27269" lon="-2.30259">
        <ele>19.39999961853</ele>
        <time>2019-07-04T08:02:02.000Z</time>
      </trkpt>
      <trkpt lat="47.2729" lon="-2.30257">
        <ele>19.39999961853</ele>
        <time>2019-07-04T08:02:06.000Z</time>
      </trkpt>
      <trkpt lat="47.273" lon="-2.30256">
        <ele>19.39999961853</ele>
        <time>2019-07-04T08:02:08.000Z</time>
      </trkpt>
      <trkpt lat="47.27305" lon="-2.30256">
        <ele>19.39999961853</ele>
        <time>2019-07-04T08:02:09.000Z</time>
      </trkpt>
      <trkpt lat="47.27337" lon="-2.30253">
        <ele>19.39999961853</ele>
        <time>2019-07-04T08:02:15.000Z</time>
      </trkpt>
      <trkpt lat="47.27342" lon="-2.30252">
        <ele>19.39999961853</ele>
        <time>2019-07-04T08:02:16.000Z</time>
      </trkpt>
      <trkpt lat="47.27369" lon="-2.30249">
        <ele>19.39999961853</ele>
        <time>2019-07-04T08:02:21.000Z</time>
      </trkpt>
      <trkpt lat="47.27379" lon="-2.30245">
        <ele>19.799999237061</ele>
        <time>2019-07-04T08:02:23.000Z</time>
      </trkpt>
      <trkpt lat="47.27384" lon="-2.30243">
        <ele>20.200000762939</ele>
        <time>2019-07-04T08:02:24.000Z</time>
      </trkpt>
      <trkpt lat="47.2739" lon="-2.3024">
        <ele>20.60000038147</ele>
        <time>2019-07-04T08:02:25.000Z</time>
      </trkpt>
      <trkpt lat="47.27395" lon="-2.30237">
        <ele>21</ele>
        <time>2019-07-04T08:02:26.000Z</time>
      </trkpt>
      <trkpt lat="47.274" lon="-2.30234">
        <ele>21.39999961853</ele>
        <time>2019-07-04T08:02:27.000Z</time>
      </trkpt>
      <trkpt lat="47.27416" lon="-2.30226">
        <ele>21.39999961853</ele>
        <time>2019-07-04T08:02:30.000Z</time>
      </trkpt>
      <trkpt lat="47.27426" lon="-2.3022">
        <ele>21.39999961853</ele>
        <time>2019-07-04T08:02:32.000Z</time>
      </trkpt>
      <trkpt lat="47.27453" lon="-2.30214">
        <ele>21.39999961853</ele>
        <time>2019-07-04T08:02:38.000Z</time>
      </trkpt>
      <trkpt lat="47.27461" lon="-2.30213">
        <ele>21.39999961853</ele>
        <time>2019-07-04T08:02:40.000Z</time>
      </trkpt>
      <trkpt lat="47.27463" lon="-2.30212">
        <ele>21.39999961853</ele>
        <time>2019-07-04T08:02:42.000Z</time>
      </trkpt>
      <trkpt lat="47.27477" lon="-2.30205">
        <ele>21.39999961853</ele>
        <time>2019-07-04T08:02:46.000Z</time>
      </trkpt>
      <trkpt lat="47.2748" lon="-2.30203">
        <ele>21.39999961853</ele>
        <time>2019-07-04T08:02:47.000Z</time>
      </trkpt>
      <trkpt lat="47.27504" lon="-2.30192">
        <ele>21.39999961853</ele>
        <time>2019-07-04T08:02:53.000Z</time>
      </trkpt>
      <trkpt lat="47.2751" lon="-2.30183">
        <ele>21.39999961853</ele>
        <time>2019-07-04T08:02:55.000Z</time>
      </trkpt>
      <trkpt lat="47.27511" lon="-2.3018">
        <ele>21.39999961853</ele>
        <time>2019-07-04T08:02:56.000Z</time>
      </trkpt>
      <trkpt lat="47.27515" lon="-2.30175">
        <ele>21.39999961853</ele>
        <time>2019-07-04T08:02:58.000Z</time>
      </trkpt>
      <trkpt lat="47.27522" lon="-2.3017">
        <ele>21.39999961853</ele>
        <time>2019-07-04T08:03:00.000Z</time>
      </trkpt>
      <trkpt lat="47.27544" lon="-2.30155">
        <ele>21.39999961853</ele>
        <time>2019-07-04T08:03:06.000Z</time>
      </trkpt>
      <trkpt lat="47.27564" lon="-2.30144">
        <ele>21.39999961853</ele>
        <time>2019-07-04T08:03:11.000Z</time>
      </trkpt>
      <trkpt lat="47.27573" lon="-2.30139">
        <ele>21.39999961853</ele>
        <time>2019-07-04T08:03:13.000Z</time>
      </trkpt>
      <trkpt lat="47.2758" lon="-2.30136">
        <ele>21.39999961853</ele>
        <time>2019-07-04T08:03:15.000Z</time>
      </trkpt>
      <trkpt lat="47.27593" lon="-2.30131">
        <ele>21.39999961853</ele>
        <time>2019-07-04T08:03:19.000Z</time>
      </trkpt>
      <trkpt lat="47.27607" lon="-2.30122">
        <ele>21.39999961853</ele>
        <time>2019-07-04T08:03:24.000Z</time>
      </trkpt>
      <trkpt lat="47.27617" lon="-2.30121">
        <ele>21.39999961853</ele>
        <time>2019-07-04T08:03:26.000Z</time>
      </trkpt>
      <trkpt lat="47.27626" lon="-2.30123">
        <ele>21.39999961853</ele>
        <time>2019-07-04T08:03:28.000Z</time>
      </trkpt>
      <trkpt lat="47.27636" lon="-2.30134">
        <ele>21.39999961853</ele>
        <time>2019-07-04T08:03:31.000Z</time>
      </trkpt>
      <trkpt lat="47.27648" lon="-2.30147">
        <ele>21.39999961853</ele>
        <time>2019-07-04T08:03:34.000Z</time>
      </trkpt>
      <trkpt lat="47.27653" lon="-2.3015">
        <ele>21.39999961853</ele>
        <time>2019-07-04T08:03:35.000Z</time>
      </trkpt>
      <trkpt lat="47.27669" lon="-2.30148">
        <ele>21.39999961853</ele>
        <time>2019-07-04T08:03:38.000Z</time>
      </trkpt>
      <trkpt lat="47.27679" lon="-2.30144">
        <ele>21.39999961853</ele>
        <time>2019-07-04T08:03:40.000Z</time>
      </trkpt>
      <trkpt lat="47.27695" lon="-2.3014">
        <ele>21.39999961853</ele>
        <time>2019-07-04T08:03:43.000Z</time>
      </trkpt>
      <trkpt lat="47.27722" lon="-2.30136">
        <ele>21.39999961853</ele>
        <time>2019-07-04T08:03:49.000Z</time>
      </trkpt>
      <trkpt lat="47.27746" lon="-2.30127">
        <ele>21.39999961853</ele>
        <time>2019-07-04T08:03:54.000Z</time>
      </trkpt>
      <trkpt lat="47.27776" lon="-2.30116">
        <ele>21.39999961853</ele>
        <time>2019-07-04T08:04:00.000Z</time>
      </trkpt>
      <trkpt lat="47.27808" lon="-2.30097">
        <ele>21.39999961853</ele>
        <time>2019-07-04T08:04:07.000Z</time>
      </trkpt>
      <trkpt lat="47.27841" lon="-2.30074">
        <ele>21.39999961853</ele>
        <time>2019-07-04T08:04:14.000Z</time>
      </trkpt>
      <trkpt lat="47.27853" lon="-2.30064">
        <ele>21.799999237061</ele>
        <time>2019-07-04T08:04:17.000Z</time>
      </trkpt>
      <trkpt lat="47.27858" lon="-2.30061">
        <ele>22.200000762939</ele>
        <time>2019-07-04T08:04:18.000Z</time>
      </trkpt>
      <trkpt lat="47.27862" lon="-2.30058">
        <ele>22.60000038147</ele>
        <time>2019-07-04T08:04:19.000Z</time>
      </trkpt>
      <trkpt lat="47.27866" lon="-2.30055">
        <ele>23</ele>
        <time>2019-07-04T08:04:20.000Z</time>
      </trkpt>
      <trkpt lat="47.2787" lon="-2.30052">
        <ele>23.39999961853</ele>
        <time>2019-07-04T08:04:21.000Z</time>
      </trkpt>
      <trkpt lat="47.27884" lon="-2.3004">
        <ele>23.39999961853</ele>
        <time>2019-07-04T08:04:25.000Z</time>
      </trkpt>
      <trkpt lat="47.27888" lon="-2.3003">
        <ele>23.39999961853</ele>
        <time>2019-07-04T08:04:29.000Z</time>
      </trkpt>
      <trkpt lat="47.27891" lon="-2.30021">
        <ele>23.39999961853</ele>
        <time>2019-07-04T08:04:34.000Z</time>
      </trkpt>
      <trkpt lat="47.27891" lon="-2.30021">
        <ele>23.39999961853</ele>
        <time>2019-07-04T08:04:35.000Z</time>
      </trkpt>
      <trkpt lat="47.27891" lon="-2.30018">
        <ele>23.39999961853</ele>
        <time>2019-07-04T08:05:26.000Z</time>
      </trkpt>
      <trkpt lat="47.27891" lon="-2.30012">
        <ele>23.39999961853</ele>
        <time>2019-07-04T08:05:28.000Z</time>
      </trkpt>
      <trkpt lat="47.27891" lon="-2.29993">
        <ele>23.39999961853</ele>
        <time>2019-07-04T08:05:32.000Z</time>
      </trkpt>
      <trkpt lat="47.27889" lon="-2.29966">
        <ele>23.799999237061</ele>
        <time>2019-07-04T08:05:36.000Z</time>
      </trkpt>
      <trkpt lat="47.27888" lon="-2.29959">
        <ele>24.200000762939</ele>
        <time>2019-07-04T08:05:37.000Z</time>
      </trkpt>
      <trkpt lat="47.27887" lon="-2.29952">
        <ele>24.60000038147</ele>
        <time>2019-07-04T08:05:38.000Z</time>
      </trkpt>
      <trkpt lat="47.27887" lon="-2.29944">
        <ele>25</ele>
        <time>2019-07-04T08:05:39.000Z</time>
      </trkpt>
      <trkpt lat="47.27887" lon="-2.29936">
        <ele>25.39999961853</ele>
        <time>2019-07-04T08:05:40.000Z</time>
      </trkpt>
      <trkpt lat="47.27886" lon="-2.29905">
        <ele>25.39999961853</ele>
        <time>2019-07-04T08:05:44.000Z</time>
      </trkpt>
      <trkpt lat="47.27885" lon="-2.29856">
        <ele>25.39999961853</ele>
        <time>2019-07-04T08:05:51.000Z</time>
      </trkpt>
      <trkpt lat="47.27883" lon="-2.29828">
        <ele>25.39999961853</ele>
        <time>2019-07-04T08:05:55.000Z</time>
      </trkpt>
      <trkpt lat="47.27883" lon="-2.29821">
        <ele>25.39999961853</ele>
        <time>2019-07-04T08:05:56.000Z</time>
      </trkpt>
      <trkpt lat="47.2788" lon="-2.298">
        <ele>26</ele>
        <time>2019-07-04T08:05:59.000Z</time>
      </trkpt>
      <trkpt lat="47.27879" lon="-2.29793">
        <ele>26.39999961853</ele>
        <time>2019-07-04T08:06:00.000Z</time>
      </trkpt>
      <trkpt lat="47.27877" lon="-2.29786">
        <ele>26.799999237061</ele>
        <time>2019-07-04T08:06:01.000Z</time>
      </trkpt>
      <trkpt lat="47.27876" lon="-2.29779">
        <ele>27.200000762939</ele>
        <time>2019-07-04T08:06:02.000Z</time>
      </trkpt>
      <trkpt lat="47.27875" lon="-2.29771">
        <ele>27.60000038147</ele>
        <time>2019-07-04T08:06:03.000Z</time>
      </trkpt>
      <trkpt lat="47.27874" lon="-2.29764">
        <ele>27.60000038147</ele>
        <time>2019-07-04T08:06:04.000Z</time>
      </trkpt>
      <trkpt lat="47.27865" lon="-2.29711">
        <ele>27.60000038147</ele>
        <time>2019-07-04T08:06:11.000Z</time>
      </trkpt>
      <trkpt lat="47.27859" lon="-2.29647">
        <ele>27.60000038147</ele>
        <time>2019-07-04T08:06:19.000Z</time>
      </trkpt>
      <trkpt lat="47.27858" lon="-2.29639">
        <ele>27.60000038147</ele>
        <time>2019-07-04T08:06:20.000Z</time>
      </trkpt>
      <trkpt lat="47.27853" lon="-2.29601">
        <ele>27.60000038147</ele>
        <time>2019-07-04T08:06:25.000Z</time>
      </trkpt>
      <trkpt lat="47.27866" lon="-2.29589">
        <ele>27.60000038147</ele>
        <time>2019-07-04T08:06:28.000Z</time>
      </trkpt>
      <trkpt lat="47.27883" lon="-2.2959">
        <ele>27.60000038147</ele>
        <time>2019-07-04T08:06:31.000Z</time>
      </trkpt>
      <trkpt lat="47.27889" lon="-2.29591">
        <ele>27.60000038147</ele>
        <time>2019-07-04T08:06:32.000Z</time>
      </trkpt>
      <trkpt lat="47.27935" lon="-2.29594">
        <ele>27.60000038147</ele>
        <time>2019-07-04T08:06:40.000Z</time>
      </trkpt>
      <trkpt lat="47.27964" lon="-2.29593">
        <ele>27.60000038147</ele>
        <time>2019-07-04T08:06:45.000Z</time>
      </trkpt>
      <trkpt lat="47.27976" lon="-2.2959">
        <ele>27.60000038147</ele>
        <time>2019-07-04T08:06:47.000Z</time>
      </trkpt>
      <trkpt lat="47.27989" lon="-2.29587">
        <ele>27.60000038147</ele>
        <time>2019-07-04T08:06:49.000Z</time>
      </trkpt>
      <trkpt lat="47.28013" lon="-2.29578">
        <ele>27.60000038147</ele>
        <time>2019-07-04T08:06:53.000Z</time>
      </trkpt>
      <trkpt lat="47.28018" lon="-2.29575">
        <ele>27.60000038147</ele>
        <time>2019-07-04T08:06:54.000Z</time>
      </trkpt>
      <trkpt lat="47.28048" lon="-2.29562">
        <ele>27.60000038147</ele>
        <time>2019-07-04T08:06:59.000Z</time>
      </trkpt>
      <trkpt lat="47.28086" lon="-2.29547">
        <ele>27.60000038147</ele>
        <time>2019-07-04T08:07:05.000Z</time>
      </trkpt>
      <trkpt lat="47.28122" lon="-2.29529">
        <ele>27.60000038147</ele>
        <time>2019-07-04T08:07:11.000Z</time>
      </trkpt>
      <trkpt lat="47.28166" lon="-2.29513">
        <ele>27.60000038147</ele>
        <time>2019-07-04T08:07:18.000Z</time>
      </trkpt>
      <trkpt lat="47.28197" lon="-2.29501">
        <ele>27.60000038147</ele>
        <time>2019-07-04T08:07:23.000Z</time>
      </trkpt>
      <trkpt lat="47.28232" lon="-2.29485">
        <ele>27.200000762939</ele>
        <time>2019-07-04T08:07:28.000Z</time>
      </trkpt>
      <trkpt lat="47.28239" lon="-2.29481">
        <ele>26.799999237061</ele>
        <time>2019-07-04T08:07:29.000Z</time>
      </trkpt>
      <trkpt lat="47.28246" lon="-2.29476">
        <ele>26.200000762939</ele>
        <time>2019-07-04T08:07:30.000Z</time>
      </trkpt>
      <trkpt lat="47.28253" lon="-2.29472">
        <ele>25.799999237061</ele>
        <time>2019-07-04T08:07:31.000Z</time>
      </trkpt>
      <trkpt lat="47.2826" lon="-2.29467">
        <ele>25.39999961853</ele>
        <time>2019-07-04T08:07:32.000Z</time>
      </trkpt>
      <trkpt lat="47.28281" lon="-2.29452">
        <ele>25.39999961853</ele>
        <time>2019-07-04T08:07:35.000Z</time>
      </trkpt>
      <trkpt lat="47.28315" lon="-2.29422">
        <ele>25.39999961853</ele>
        <time>2019-07-04T08:07:40.000Z</time>
      </trkpt>
      <trkpt lat="47.28327" lon="-2.29409">
        <ele>25</ele>
        <time>2019-07-04T08:07:42.000Z</time>
      </trkpt>
      <trkpt lat="47.28333" lon="-2.29402">
        <ele>24.60000038147</ele>
        <time>2019-07-04T08:07:43.000Z</time>
      </trkpt>
      <trkpt lat="47.28339" lon="-2.29395">
        <ele>24</ele>
        <time>2019-07-04T08:07:44.000Z</time>
      </trkpt>
      <trkpt lat="47.28344" lon="-2.29389">
        <ele>23.60000038147</ele>
        <time>2019-07-04T08:07:45.000Z</time>
      </trkpt>
      <trkpt lat="47.2835" lon="-2.29383">
        <ele>23</ele>
        <time>2019-07-04T08:07:46.000Z</time>
      </trkpt>
      <trkpt lat="47.28356" lon="-2.29378">
        <ele>23</ele>
        <time>2019-07-04T08:07:47.000Z</time>
      </trkpt>
      <trkpt lat="47.2839" lon="-2.29354">
        <ele>23</ele>
        <time>2019-07-04T08:07:53.000Z</time>
      </trkpt>
      <trkpt lat="47.28438" lon="-2.29328">
        <ele>23</ele>
        <time>2019-07-04T08:08:01.000Z</time>
      </trkpt>
      <trkpt lat="47.28485" lon="-2.2931">
        <ele>23</ele>
        <time>2019-07-04T08:08:08.000Z</time>
      </trkpt>
      <trkpt lat="47.28504" lon="-2.293">
        <ele>22.60000038147</ele>
        <time>2019-07-04T08:08:11.000Z</time>
      </trkpt>
      <trkpt lat="47.28511" lon="-2.29296">
        <ele>22.200000762939</ele>
        <time>2019-07-04T08:08:12.000Z</time>
      </trkpt>
      <trkpt lat="47.28516" lon="-2.29293">
        <ele>21.799999237061</ele>
        <time>2019-07-04T08:08:13.000Z</time>
      </trkpt>
      <trkpt lat="47.2852" lon="-2.2929">
        <ele>21.39999961853</ele>
        <time>2019-07-04T08:08:14.000Z</time>
      </trkpt>
      <trkpt lat="47.28524" lon="-2.29287">
        <ele>20.799999237061</ele>
        <time>2019-07-04T08:08:15.000Z</time>
      </trkpt>
      <trkpt lat="47.28524" lon="-2.29281">
        <ele>20.799999237061</ele>
        <time>2019-07-04T08:08:16.000Z</time>
      </trkpt>
      <trkpt lat="47.28523" lon="-2.29276">
        <ele>20.799999237061</ele>
        <time>2019-07-04T08:08:17.000Z</time>
      </trkpt>
      <trkpt lat="47.2852" lon="-2.29256">
        <ele>20.799999237061</ele>
        <time>2019-07-04T08:08:20.000Z</time>
      </trkpt>
      <trkpt lat="47.2852" lon="-2.29248">
        <ele>20.799999237061</ele>
        <time>2019-07-04T08:08:21.000Z</time>
      </trkpt>
      <trkpt lat="47.2852" lon="-2.29215">
        <ele>20.39999961853</ele>
        <time>2019-07-04T08:08:25.000Z</time>
      </trkpt>
      <trkpt lat="47.2852" lon="-2.29208">
        <ele>20</ele>
        <time>2019-07-04T08:08:26.000Z</time>
      </trkpt>
      <trkpt lat="47.28523" lon="-2.29201">
        <ele>19.60000038147</ele>
        <time>2019-07-04T08:08:27.000Z</time>
      </trkpt>
      <trkpt lat="47.28527" lon="-2.29197">
        <ele>19.200000762939</ele>
        <time>2019-07-04T08:08:28.000Z</time>
      </trkpt>
      <trkpt lat="47.28531" lon="-2.29192">
        <ele>18.799999237061</ele>
        <time>2019-07-04T08:08:29.000Z</time>
      </trkpt>
      <trkpt lat="47.28536" lon="-2.29188">
        <ele>18.799999237061</ele>
        <time>2019-07-04T08:08:30.000Z</time>
      </trkpt>
      <trkpt lat="47.28541" lon="-2.29185">
        <ele>18.799999237061</ele>
        <time>2019-07-04T08:08:31.000Z</time>
      </trkpt>
      <trkpt lat="47.28565" lon="-2.29166">
        <ele>18.799999237061</ele>
        <time>2019-07-04T08:08:36.000Z</time>
      </trkpt>
      <trkpt lat="47.28575" lon="-2.29155">
        <ele>18.799999237061</ele>
        <time>2019-07-04T08:08:38.000Z</time>
      </trkpt>
      <trkpt lat="47.2858" lon="-2.29149">
        <ele>18.799999237061</ele>
        <time>2019-07-04T08:08:39.000Z</time>
      </trkpt>
      <trkpt lat="47.28587" lon="-2.29138">
        <ele>18.799999237061</ele>
        <time>2019-07-04T08:08:41.000Z</time>
      </trkpt>
      <trkpt lat="47.28595" lon="-2.29118">
        <ele>18.799999237061</ele>
        <time>2019-07-04T08:08:44.000Z</time>
      </trkpt>
      <trkpt lat="47.28607" lon="-2.29067">
        <ele>18.799999237061</ele>
        <time>2019-07-04T08:08:51.000Z</time>
      </trkpt>
      <trkpt lat="47.28607" lon="-2.2905">
        <ele>18.799999237061</ele>
        <time>2019-07-04T08:08:54.000Z</time>
      </trkpt>
      <trkpt lat="47.28605" lon="-2.29047">
        <ele>18.799999237061</ele>
        <time>2019-07-04T08:08:55.000Z</time>
      </trkpt>
      <trkpt lat="47.28595" lon="-2.29046">
        <ele>18.799999237061</ele>
        <time>2019-07-04T08:08:58.000Z</time>
      </trkpt>
      <trkpt lat="47.28578" lon="-2.29045">
        <ele>18.799999237061</ele>
        <time>2019-07-04T08:09:03.000Z</time>
      </trkpt>
      <trkpt lat="47.28561" lon="-2.29043">
        <ele>18.799999237061</ele>
        <time>2019-07-04T08:09:08.000Z</time>
      </trkpt>
      <trkpt lat="47.28549" lon="-2.2904">
        <ele>18.799999237061</ele>
        <time>2019-07-04T08:09:12.000Z</time>
      </trkpt>
      <trkpt lat="47.2853" lon="-2.29041">
        <ele>18.799999237061</ele>
        <time>2019-07-04T08:09:18.000Z</time>
      </trkpt>
      <trkpt lat="47.28524" lon="-2.29038">
        <ele>18.799999237061</ele>
        <time>2019-07-04T08:09:19.000Z</time>
      </trkpt>
      <trkpt lat="47.28511" lon="-2.29028">
        <ele>18.799999237061</ele>
        <time>2019-07-04T08:09:22.000Z</time>
      </trkpt>
      <trkpt lat="47.28507" lon="-2.29026">
        <ele>18.799999237061</ele>
        <time>2019-07-04T08:09:23.000Z</time>
      </trkpt>
      <trkpt lat="47.28487" lon="-2.29017">
        <ele>18.799999237061</ele>
        <time>2019-07-04T08:09:28.000Z</time>
      </trkpt>
      <trkpt lat="47.28472" lon="-2.29013">
        <ele>19.200000762939</ele>
        <time>2019-07-04T08:09:32.000Z</time>
      </trkpt>
      <trkpt lat="47.28469" lon="-2.29011">
        <ele>19.60000038147</ele>
        <time>2019-07-04T08:09:33.000Z</time>
      </trkpt>
      <trkpt lat="47.28466" lon="-2.2901">
        <ele>20</ele>
        <time>2019-07-04T08:09:34.000Z</time>
      </trkpt>
      <trkpt lat="47.28463" lon="-2.2901">
        <ele>20.799999237061</ele>
        <time>2019-07-04T08:09:35.000Z</time>
      </trkpt>
      <trkpt lat="47.28453" lon="-2.29009">
        <ele>20.799999237061</ele>
        <time>2019-07-04T08:09:39.000Z</time>
      </trkpt>
      <trkpt lat="47.28437" lon="-2.29005">
        <ele>20.799999237061</ele>
        <time>2019-07-04T08:09:44.000Z</time>
      </trkpt>
      <trkpt lat="47.28435" lon="-2.29005">
        <ele>21.200000762939</ele>
        <time>2019-07-04T08:09:45.000Z</time>
      </trkpt>
      <trkpt lat="47.28432" lon="-2.29004">
        <ele>21.60000038147</ele>
        <time>2019-07-04T08:09:46.000Z</time>
      </trkpt>
      <trkpt lat="47.28428" lon="-2.29004">
        <ele>22</ele>
        <time>2019-07-04T08:09:47.000Z</time>
      </trkpt>
      <trkpt lat="47.28425" lon="-2.29004">
        <ele>22.39999961853</ele>
        <time>2019-07-04T08:09:48.000Z</time>
      </trkpt>
      <trkpt lat="47.28423" lon="-2.29002">
        <ele>22.799999237061</ele>
        <time>2019-07-04T08:09:49.000Z</time>
      </trkpt>
      <trkpt lat="47.2842" lon="-2.29">
        <ele>22.799999237061</ele>
        <time>2019-07-04T08:09:50.000Z</time>
      </trkpt>
      <trkpt lat="47.28407" lon="-2.28994">
        <ele>22.799999237061</ele>
        <time>2019-07-04T08:09:53.000Z</time>
      </trkpt>
      <trkpt lat="47.28406" lon="-2.28992">
        <ele>22.799999237061</ele>
        <time>2019-07-04T08:09:54.000Z</time>
      </trkpt>
      <trkpt lat="47.28404" lon="-2.28986">
        <ele>23.39999961853</ele>
        <time>2019-07-04T08:09:55.000Z</time>
      </trkpt>
      <trkpt lat="47.28403" lon="-2.2898">
        <ele>23.799999237061</ele>
        <time>2019-07-04T08:09:56.000Z</time>
      </trkpt>
      <trkpt lat="47.28402" lon="-2.28973">
        <ele>24.200000762939</ele>
        <time>2019-07-04T08:09:57.000Z</time>
      </trkpt>
      <trkpt lat="47.28401" lon="-2.28966">
        <ele>24.60000038147</ele>
        <time>2019-07-04T08:09:58.000Z</time>
      </trkpt>
      <trkpt lat="47.284" lon="-2.28958">
        <ele>25</ele>
        <time>2019-07-04T08:09:59.000Z</time>
      </trkpt>
      <trkpt lat="47.28399" lon="-2.2895">
        <ele>25</ele>
        <time>2019-07-04T08:10:00.000Z</time>
      </trkpt>
      <trkpt lat="47.28398" lon="-2.28942">
        <ele>25</ele>
        <time>2019-07-04T08:10:01.000Z</time>
      </trkpt>
      <trkpt lat="47.28398" lon="-2.28934">
        <ele>25</ele>
        <time>2019-07-04T08:10:02.000Z</time>
      </trkpt>
      <trkpt lat="47.28395" lon="-2.28879">
        <ele>25</ele>
        <time>2019-07-04T08:10:08.000Z</time>
      </trkpt>
      <trkpt lat="47.28392" lon="-2.28838">
        <ele>25</ele>
        <time>2019-07-04T08:10:13.000Z</time>
      </trkpt>
      <trkpt lat="47.28389" lon="-2.28771">
        <ele>25</ele>
        <time>2019-07-04T08:10:21.000Z</time>
      </trkpt>
      <trkpt lat="47.28389" lon="-2.28722">
        <ele>25</ele>
        <time>2019-07-04T08:10:27.000Z</time>
      </trkpt>
      <trkpt lat="47.28388" lon="-2.28696">
        <ele>25</ele>
        <time>2019-07-04T08:10:30.000Z</time>
      </trkpt>
      <trkpt lat="47.28387" lon="-2.28688">
        <ele>25.60000038147</ele>
        <time>2019-07-04T08:10:31.000Z</time>
      </trkpt>
      <trkpt lat="47.28386" lon="-2.28678">
        <ele>26</ele>
        <time>2019-07-04T08:10:32.000Z</time>
      </trkpt>
      <trkpt lat="47.28386" lon="-2.28669">
        <ele>26.39999961853</ele>
        <time>2019-07-04T08:10:33.000Z</time>
      </trkpt>
      <trkpt lat="47.28385" lon="-2.2866">
        <ele>27</ele>
        <time>2019-07-04T08:10:34.000Z</time>
      </trkpt>
      <trkpt lat="47.28384" lon="-2.28651">
        <ele>27.39999961853</ele>
        <time>2019-07-04T08:10:35.000Z</time>
      </trkpt>
      <trkpt lat="47.28382" lon="-2.28595">
        <ele>27.39999961853</ele>
        <time>2019-07-04T08:10:41.000Z</time>
      </trkpt>
      <trkpt lat="47.2838" lon="-2.28533">
        <ele>27.39999961853</ele>
        <time>2019-07-04T08:10:48.000Z</time>
      </trkpt>
      <trkpt lat="47.28378" lon="-2.28488">
        <ele>27.39999961853</ele>
        <time>2019-07-04T08:10:53.000Z</time>
      </trkpt>
      <trkpt lat="47.28378" lon="-2.28477">
        <ele>27.39999961853</ele>
        <time>2019-07-04T08:10:54.000Z</time>
      </trkpt>
      <trkpt lat="47.28375" lon="-2.28404">
        <ele>27.39999961853</ele>
        <time>2019-07-04T08:11:02.000Z</time>
      </trkpt>
      <trkpt lat="47.2837" lon="-2.28379">
        <ele>27.39999961853</ele>
        <time>2019-07-04T08:11:05.000Z</time>
      </trkpt>
      <trkpt lat="47.28369" lon="-2.28371">
        <ele>27.39999961853</ele>
        <time>2019-07-04T08:11:06.000Z</time>
      </trkpt>
      <trkpt lat="47.28369" lon="-2.28339">
        <ele>27.39999961853</ele>
        <time>2019-07-04T08:11:10.000Z</time>
      </trkpt>
      <trkpt lat="47.28368" lon="-2.28286">
        <ele>27.39999961853</ele>
        <time>2019-07-04T08:11:17.000Z</time>
      </trkpt>
      <trkpt lat="47.28369" lon="-2.28257">
        <ele>27</ele>
        <time>2019-07-04T08:11:21.000Z</time>
      </trkpt>
      <trkpt lat="47.28368" lon="-2.28248">
        <ele>26.60000038147</ele>
        <time>2019-07-04T08:11:22.000Z</time>
      </trkpt>
      <trkpt lat="47.28368" lon="-2.28239">
        <ele>26</ele>
        <time>2019-07-04T08:11:23.000Z</time>
      </trkpt>
      <trkpt lat="47.28367" lon="-2.28231">
        <ele>25.60000038147</ele>
        <time>2019-07-04T08:11:24.000Z</time>
      </trkpt>
      <trkpt lat="47.28367" lon="-2.28222">
        <ele>25.200000762939</ele>
        <time>2019-07-04T08:11:25.000Z</time>
      </trkpt>
      <trkpt lat="47.28367" lon="-2.28213">
        <ele>25.200000762939</ele>
        <time>2019-07-04T08:11:26.000Z</time>
      </trkpt>
      <trkpt lat="47.28366" lon="-2.28195">
        <ele>25.200000762939</ele>
        <time>2019-07-04T08:11:28.000Z</time>
      </trkpt>
      <trkpt lat="47.28367" lon="-2.28186">
        <ele>25.200000762939</ele>
        <time>2019-07-04T08:11:29.000Z</time>
      </trkpt>
      <trkpt lat="47.28367" lon="-2.28177">
        <ele>24.799999237061</ele>
        <time>2019-07-04T08:11:30.000Z</time>
      </trkpt>
      <trkpt lat="47.28367" lon="-2.28169">
        <ele>24.39999961853</ele>
        <time>2019-07-04T08:11:31.000Z</time>
      </trkpt>
      <trkpt lat="47.28368" lon="-2.2816">
        <ele>23.799999237061</ele>
        <time>2019-07-04T08:11:32.000Z</time>
      </trkpt>
      <trkpt lat="47.28368" lon="-2.28153">
        <ele>23.39999961853</ele>
        <time>2019-07-04T08:11:33.000Z</time>
      </trkpt>
      <trkpt lat="47.28367" lon="-2.28145">
        <ele>23</ele>
        <time>2019-07-04T08:11:34.000Z</time>
      </trkpt>
      <trkpt lat="47.28368" lon="-2.28136">
        <ele>23</ele>
        <time>2019-07-04T08:11:35.000Z</time>
      </trkpt>
      <trkpt lat="47.28367" lon="-2.28126">
        <ele>22.60000038147</ele>
        <time>2019-07-04T08:11:36.000Z</time>
      </trkpt>
      <trkpt lat="47.28367" lon="-2.28116">
        <ele>22.200000762939</ele>
        <time>2019-07-04T08:11:37.000Z</time>
      </trkpt>
      <trkpt lat="47.28366" lon="-2.28108">
        <ele>21.200000762939</ele>
        <time>2019-07-04T08:11:38.000Z</time>
      </trkpt>
      <trkpt lat="47.28365" lon="-2.281">
        <ele>20.799999237061</ele>
        <time>2019-07-04T08:11:39.000Z</time>
      </trkpt>
      <trkpt lat="47.28364" lon="-2.28095">
        <ele>20.39999961853</ele>
        <time>2019-07-04T08:11:40.000Z</time>
      </trkpt>
      <trkpt lat="47.28364" lon="-2.2809">
        <ele>20</ele>
        <time>2019-07-04T08:11:41.000Z</time>
      </trkpt>
      <trkpt lat="47.28363" lon="-2.28087">
        <ele>19.60000038147</ele>
        <time>2019-07-04T08:11:42.000Z</time>
      </trkpt>
      <trkpt lat="47.28364" lon="-2.28084">
        <ele>19.200000762939</ele>
        <time>2019-07-04T08:11:43.000Z</time>
      </trkpt>
      <trkpt lat="47.28365" lon="-2.28082">
        <ele>18.60000038147</ele>
        <time>2019-07-04T08:11:44.000Z</time>
      </trkpt>
      <trkpt lat="47.28367" lon="-2.28074">
        <ele>18.60000038147</ele>
        <time>2019-07-04T08:11:49.000Z</time>
      </trkpt>
      <trkpt lat="47.2837" lon="-2.28062">
        <ele>18.60000038147</ele>
        <time>2019-07-04T08:11:55.000Z</time>
      </trkpt>
      <trkpt lat="47.28373" lon="-2.2806">
        <ele>19</ele>
        <time>2019-07-04T08:11:58.000Z</time>
      </trkpt>
      <trkpt lat="47.28373" lon="-2.2806">
        <ele>19.60000038147</ele>
        <time>2019-07-04T08:11:59.000Z</time>
      </trkpt>
      <trkpt lat="47.28374" lon="-2.28061">
        <ele>20</ele>
        <time>2019-07-04T08:12:00.000Z</time>
      </trkpt>
      <trkpt lat="47.28375" lon="-2.28063">
        <ele>20.39999961853</ele>
        <time>2019-07-04T08:12:01.000Z</time>
      </trkpt>
      <trkpt lat="47.28375" lon="-2.28064">
        <ele>20.799999237061</ele>
        <time>2019-07-04T08:12:02.000Z</time>
      </trkpt>
      <trkpt lat="47.2838" lon="-2.28074">
        <ele>20.39999961853</ele>
        <time>2019-07-04T08:12:08.000Z</time>
      </trkpt>
      <trkpt lat="47.28382" lon="-2.28074">
        <ele>20</ele>
        <time>2019-07-04T08:12:09.000Z</time>
      </trkpt>
      <trkpt lat="47.28384" lon="-2.28075">
        <ele>19.60000038147</ele>
        <time>2019-07-04T08:12:10.000Z</time>
      </trkpt>
      <trkpt lat="47.28385" lon="-2.28075">
        <ele>19</ele>
        <time>2019-07-04T08:12:11.000Z</time>
      </trkpt>
      <trkpt lat="47.28388" lon="-2.28075">
        <ele>18.60000038147</ele>
        <time>2019-07-04T08:12:12.000Z</time>
      </trkpt>
      <trkpt lat="47.28391" lon="-2.28075">
        <ele>18.60000038147</ele>
        <time>2019-07-04T08:12:13.000Z</time>
      </trkpt>
      <trkpt lat="47.28406" lon="-2.2808">
        <ele>18.60000038147</ele>
        <time>2019-07-04T08:12:18.000Z</time>
      </trkpt>
      <trkpt lat="47.28419" lon="-2.28085">
        <ele>18.60000038147</ele>
        <time>2019-07-04T08:12:22.000Z</time>
      </trkpt>
      <trkpt lat="47.28428" lon="-2.28087">
        <ele>18.60000038147</ele>
        <time>2019-07-04T08:12:26.000Z</time>
      </trkpt>
      <trkpt lat="47.2843" lon="-2.28087">
        <ele>18.60000038147</ele>
        <time>2019-07-04T08:12:27.000Z</time>
      </trkpt>
      <trkpt lat="47.28434" lon="-2.28084">
        <ele>18.60000038147</ele>
        <time>2019-07-04T08:12:29.000Z</time>
      </trkpt>
      <trkpt lat="47.28441" lon="-2.28088">
        <ele>18.60000038147</ele>
        <time>2019-07-04T08:12:32.000Z</time>
      </trkpt>
      <trkpt lat="47.28445" lon="-2.28088">
        <ele>18.60000038147</ele>
        <time>2019-07-04T08:12:33.000Z</time>
      </trkpt>
      <trkpt lat="47.28455" lon="-2.28093">
        <ele>18.60000038147</ele>
        <time>2019-07-04T08:12:37.000Z</time>
      </trkpt>
      <trkpt lat="47.28468" lon="-2.28093">
        <ele>18.60000038147</ele>
        <time>2019-07-04T08:12:41.000Z</time>
      </trkpt>
      <trkpt lat="47.28485" lon="-2.28083">
        <ele>18.60000038147</ele>
        <time>2019-07-04T08:12:46.000Z</time>
      </trkpt>
      <trkpt lat="47.28487" lon="-2.28075">
        <ele>19</ele>
        <time>2019-07-04T08:12:48.000Z</time>
      </trkpt>
      <trkpt lat="47.28487" lon="-2.28072">
        <ele>19.60000038147</ele>
        <time>2019-07-04T08:12:49.000Z</time>
      </trkpt>
      <trkpt lat="47.28485" lon="-2.2807">
        <ele>20</ele>
        <time>2019-07-04T08:12:50.000Z</time>
      </trkpt>
      <trkpt lat="47.28483" lon="-2.28067">
        <ele>20.39999961853</ele>
        <time>2019-07-04T08:12:51.000Z</time>
      </trkpt>
      <trkpt lat="47.28481" lon="-2.28064">
        <ele>20.799999237061</ele>
        <time>2019-07-04T08:12:52.000Z</time>
      </trkpt>
      <trkpt lat="47.28478" lon="-2.28053">
        <ele>20.799999237061</ele>
        <time>2019-07-04T08:12:55.000Z</time>
      </trkpt>
      <trkpt lat="47.28478" lon="-2.28049">
        <ele>20.799999237061</ele>
        <time>2019-07-04T08:12:56.000Z</time>
      </trkpt>
      <trkpt lat="47.28481" lon="-2.28041">
        <ele>20.799999237061</ele>
        <time>2019-07-04T08:13:00.000Z</time>
      </trkpt>
      <trkpt lat="47.28495" lon="-2.28039">
        <ele>20.799999237061</ele>
        <time>2019-07-04T08:13:04.000Z</time>
      </trkpt>
      <trkpt lat="47.2851" lon="-2.28047">
        <ele>20.799999237061</ele>
        <time>2019-07-04T08:13:08.000Z</time>
      </trkpt>
      <trkpt lat="47.28525" lon="-2.2805">
        <ele>20.799999237061</ele>
        <time>2019-07-04T08:13:12.000Z</time>
      </trkpt>
      <trkpt lat="47.2854" lon="-2.28052">
        <ele>20.200000762939</ele>
        <time>2019-07-04T08:13:16.000Z</time>
      </trkpt>
      <trkpt lat="47.28543" lon="-2.28052">
        <ele>19.799999237061</ele>
        <time>2019-07-04T08:13:17.000Z</time>
      </trkpt>
      <trkpt lat="47.28545" lon="-2.28052">
        <ele>18.799999237061</ele>
        <time>2019-07-04T08:13:18.000Z</time>
      </trkpt>
      <trkpt lat="47.28548" lon="-2.28052">
        <ele>18.39999961853</ele>
        <time>2019-07-04T08:13:19.000Z</time>
      </trkpt>
      <trkpt lat="47.28549" lon="-2.28053">
        <ele>17.799999237061</ele>
        <time>2019-07-04T08:13:20.000Z</time>
      </trkpt>
      <trkpt lat="47.28549" lon="-2.28055">
        <ele>17.39999961853</ele>
        <time>2019-07-04T08:13:21.000Z</time>
      </trkpt>
      <trkpt lat="47.2855" lon="-2.28056">
        <ele>17</ele>
        <time>2019-07-04T08:13:22.000Z</time>
      </trkpt>
      <trkpt lat="47.2855" lon="-2.28057">
        <ele>16.60000038147</ele>
        <time>2019-07-04T08:13:23.000Z</time>
      </trkpt>
      <trkpt lat="47.28551" lon="-2.28056">
        <ele>16.200000762939</ele>
        <time>2019-07-04T08:13:40.000Z</time>
      </trkpt>
      <trkpt lat="47.28553" lon="-2.28057">
        <ele>16.200000762939</ele>
        <time>2019-07-04T08:13:41.000Z</time>
      </trkpt>
      <trkpt lat="47.28564" lon="-2.28053">
        <ele>16.200000762939</ele>
        <time>2019-07-04T08:13:46.000Z</time>
      </trkpt>
      <trkpt lat="47.28573" lon="-2.28046">
        <ele>16.200000762939</ele>
        <time>2019-07-04T08:13:50.000Z</time>
      </trkpt>
      <trkpt lat="47.28587" lon="-2.28029">
        <ele>16.200000762939</ele>
        <time>2019-07-04T08:13:55.000Z</time>
      </trkpt>
      <trkpt lat="47.2859" lon="-2.28025">
        <ele>16.200000762939</ele>
        <time>2019-07-04T08:13:56.000Z</time>
      </trkpt>
      <trkpt lat="47.286" lon="-2.2801">
        <ele>16.200000762939</ele>
        <time>2019-07-04T08:13:59.000Z</time>
      </trkpt>
      <trkpt lat="47.28602" lon="-2.28004">
        <ele>16.200000762939</ele>
        <time>2019-07-04T08:14:00.000Z</time>
      </trkpt>
      <trkpt lat="47.28605" lon="-2.27996">
        <ele>16.200000762939</ele>
        <time>2019-07-04T08:14:01.000Z</time>
      </trkpt>
      <trkpt lat="47.28609" lon="-2.27982">
        <ele>16.200000762939</ele>
        <time>2019-07-04T08:14:03.000Z</time>
      </trkpt>
      <trkpt lat="47.28617" lon="-2.27958">
        <ele>16.200000762939</ele>
        <time>2019-07-04T08:14:07.000Z</time>
      </trkpt>
      <trkpt lat="47.28619" lon="-2.27956">
        <ele>16.200000762939</ele>
        <time>2019-07-04T08:14:08.000Z</time>
      </trkpt>
      <trkpt lat="47.28624" lon="-2.27954">
        <ele>15.60000038147</ele>
        <time>2019-07-04T08:14:11.000Z</time>
      </trkpt>
      <trkpt lat="47.28626" lon="-2.27946">
        <ele>14</ele>
        <time>2019-07-04T08:15:08.000Z</time>
      </trkpt>
      <trkpt lat="47.2863" lon="-2.27924">
        <ele>14</ele>
        <time>2019-07-04T08:15:14.000Z</time>
      </trkpt>
      <trkpt lat="47.28634" lon="-2.27895">
        <ele>14</ele>
        <time>2019-07-04T08:15:19.000Z</time>
      </trkpt>
      <trkpt lat="47.28635" lon="-2.27887">
        <ele>14</ele>
        <time>2019-07-04T08:15:20.000Z</time>
      </trkpt>
      <trkpt lat="47.28642" lon="-2.27841">
        <ele>14</ele>
        <time>2019-07-04T08:15:26.000Z</time>
      </trkpt>
      <trkpt lat="47.28652" lon="-2.27785">
        <ele>14</ele>
        <time>2019-07-04T08:15:33.000Z</time>
      </trkpt>
      <trkpt lat="47.28653" lon="-2.27778">
        <ele>14</ele>
        <time>2019-07-04T08:15:34.000Z</time>
      </trkpt>
      <trkpt lat="47.28661" lon="-2.27754">
        <ele>14</ele>
        <time>2019-07-04T08:15:37.000Z</time>
      </trkpt>
      <trkpt lat="47.28664" lon="-2.27747">
        <ele>14</ele>
        <time>2019-07-04T08:15:38.000Z</time>
      </trkpt>
      <trkpt lat="47.28691" lon="-2.27698">
        <ele>14</ele>
        <time>2019-07-04T08:15:45.000Z</time>
      </trkpt>
      <trkpt lat="47.28713" lon="-2.27659">
        <ele>14</ele>
        <time>2019-07-04T08:15:51.000Z</time>
      </trkpt>
      <trkpt lat="47.28739" lon="-2.27623">
        <ele>14</ele>
        <time>2019-07-04T08:15:57.000Z</time>
      </trkpt>
      <trkpt lat="47.28771" lon="-2.27583">
        <ele>14</ele>
        <time>2019-07-04T08:16:04.000Z</time>
      </trkpt>
      <trkpt lat="47.2879" lon="-2.27559">
        <ele>14</ele>
        <time>2019-07-04T08:16:08.000Z</time>
      </trkpt>
      <trkpt lat="47.28795" lon="-2.27553">
        <ele>14</ele>
        <time>2019-07-04T08:16:09.000Z</time>
      </trkpt>
      <trkpt lat="47.28809" lon="-2.27539">
        <ele>14</ele>
        <time>2019-07-04T08:16:12.000Z</time>
      </trkpt>
      <trkpt lat="47.28815" lon="-2.27538">
        <ele>14</ele>
        <time>2019-07-04T08:16:13.000Z</time>
      </trkpt>
      <trkpt lat="47.28845" lon="-2.27531">
        <ele>14</ele>
        <time>2019-07-04T08:16:18.000Z</time>
      </trkpt>
      <trkpt lat="47.2885" lon="-2.2753">
        <ele>14</ele>
        <time>2019-07-04T08:16:19.000Z</time>
      </trkpt>
      <trkpt lat="47.28881" lon="-2.27526">
        <ele>14</ele>
        <time>2019-07-04T08:16:24.000Z</time>
      </trkpt>
      <trkpt lat="47.2892" lon="-2.27522">
        <ele>14</ele>
        <time>2019-07-04T08:16:30.000Z</time>
      </trkpt>
      <trkpt lat="47.28961" lon="-2.27522">
        <ele>14</ele>
        <time>2019-07-04T08:16:36.000Z</time>
      </trkpt>
      <trkpt lat="47.28994" lon="-2.27521">
        <ele>14</ele>
        <time>2019-07-04T08:16:41.000Z</time>
      </trkpt>
      <trkpt lat="47.29055" lon="-2.27523">
        <ele>14</ele>
        <time>2019-07-04T08:16:50.000Z</time>
      </trkpt>
      <trkpt lat="47.29101" lon="-2.27528">
        <ele>14</ele>
        <time>2019-07-04T08:16:57.000Z</time>
      </trkpt>
      <trkpt lat="47.29141" lon="-2.27529">
        <ele>14</ele>
        <time>2019-07-04T08:17:03.000Z</time>
      </trkpt>
      <trkpt lat="47.29182" lon="-2.27528">
        <ele>14</ele>
        <time>2019-07-04T08:17:09.000Z</time>
      </trkpt>
      <trkpt lat="47.29231" lon="-2.27528">
        <ele>14</ele>
        <time>2019-07-04T08:17:17.000Z</time>
      </trkpt>
      <trkpt lat="47.29252" lon="-2.27529">
        <ele>14</ele>
        <time>2019-07-04T08:17:22.000Z</time>
      </trkpt>
      <trkpt lat="47.29265" lon="-2.27521">
        <ele>14</ele>
        <time>2019-07-04T08:17:27.000Z</time>
      </trkpt>
      <trkpt lat="47.29276" lon="-2.27519">
        <ele>14</ele>
        <time>2019-07-04T08:17:30.000Z</time>
      </trkpt>
      <trkpt lat="47.2928" lon="-2.27521">
        <ele>14</ele>
        <time>2019-07-04T08:17:31.000Z</time>
      </trkpt>
      <trkpt lat="47.29294" lon="-2.2753">
        <ele>14</ele>
        <time>2019-07-04T08:17:34.000Z</time>
      </trkpt>
      <trkpt lat="47.293" lon="-2.27532">
        <ele>14</ele>
        <time>2019-07-04T08:17:35.000Z</time>
      </trkpt>
      <trkpt lat="47.2933" lon="-2.27534">
        <ele>14</ele>
        <time>2019-07-04T08:17:40.000Z</time>
      </trkpt>
      <trkpt lat="47.29342" lon="-2.27533">
        <ele>14</ele>
        <time>2019-07-04T08:17:42.000Z</time>
      </trkpt>
      <trkpt lat="47.29365" lon="-2.27527">
        <ele>14</ele>
        <time>2019-07-04T08:17:46.000Z</time>
      </trkpt>
      <trkpt lat="47.29399" lon="-2.27517">
        <ele>14</ele>
        <time>2019-07-04T08:17:52.000Z</time>
      </trkpt>
      <trkpt lat="47.29405" lon="-2.27516">
        <ele>14</ele>
        <time>2019-07-04T08:17:53.000Z</time>
      </trkpt>
      <trkpt lat="47.29442" lon="-2.27513">
        <ele>14</ele>
        <time>2019-07-04T08:17:59.000Z</time>
      </trkpt>
      <trkpt lat="47.29486" lon="-2.27524">
        <ele>14</ele>
        <time>2019-07-04T08:18:06.000Z</time>
      </trkpt>
      <trkpt lat="47.29523" lon="-2.27534">
        <ele>14</ele>
        <time>2019-07-04T08:18:12.000Z</time>
      </trkpt>
      <trkpt lat="47.29541" lon="-2.2754">
        <ele>13.60000038147</ele>
        <time>2019-07-04T08:18:15.000Z</time>
      </trkpt>
      <trkpt lat="47.29547" lon="-2.27542">
        <ele>13.199999809265</ele>
        <time>2019-07-04T08:18:16.000Z</time>
      </trkpt>
      <trkpt lat="47.29553" lon="-2.27544">
        <ele>12.800000190735</ele>
        <time>2019-07-04T08:18:17.000Z</time>
      </trkpt>
      <trkpt lat="47.2956" lon="-2.27547">
        <ele>12.39999961853</ele>
        <time>2019-07-04T08:18:18.000Z</time>
      </trkpt>
      <trkpt lat="47.29566" lon="-2.27549">
        <ele>12</ele>
        <time>2019-07-04T08:18:19.000Z</time>
      </trkpt>
      <trkpt lat="47.29611" lon="-2.27575">
        <ele>12</ele>
        <time>2019-07-04T08:18:26.000Z</time>
      </trkpt>
      <trkpt lat="47.29658" lon="-2.27605">
        <ele>12</ele>
        <time>2019-07-04T08:18:33.000Z</time>
      </trkpt>
      <trkpt lat="47.29664" lon="-2.27608">
        <ele>11.60000038147</ele>
        <time>2019-07-04T08:18:34.000Z</time>
      </trkpt>
      <trkpt lat="47.29672" lon="-2.27611">
        <ele>11</ele>
        <time>2019-07-04T08:18:35.000Z</time>
      </trkpt>
      <trkpt lat="47.29679" lon="-2.27614">
        <ele>10.60000038147</ele>
        <time>2019-07-04T08:18:36.000Z</time>
      </trkpt>
      <trkpt lat="47.29687" lon="-2.27616">
        <ele>10.199999809265</ele>
        <time>2019-07-04T08:18:37.000Z</time>
      </trkpt>
      <trkpt lat="47.29695" lon="-2.27617">
        <ele>9.8000001907349</ele>
        <time>2019-07-04T08:18:38.000Z</time>
      </trkpt>
      <trkpt lat="47.29711" lon="-2.27617">
        <ele>9.3999996185303</ele>
        <time>2019-07-04T08:18:40.000Z</time>
      </trkpt>
      <trkpt lat="47.29719" lon="-2.27615">
        <ele>9</ele>
        <time>2019-07-04T08:18:41.000Z</time>
      </trkpt>
      <trkpt lat="47.29726" lon="-2.27613">
        <ele>8.3999996185303</ele>
        <time>2019-07-04T08:18:42.000Z</time>
      </trkpt>
      <trkpt lat="47.29733" lon="-2.27611">
        <ele>8</ele>
        <time>2019-07-04T08:18:43.000Z</time>
      </trkpt>
      <trkpt lat="47.2974" lon="-2.27609">
        <ele>7.5999999046326</ele>
        <time>2019-07-04T08:18:44.000Z</time>
      </trkpt>
      <trkpt lat="47.2976" lon="-2.276">
        <ele>7.5999999046326</ele>
        <time>2019-07-04T08:18:47.000Z</time>
      </trkpt>
      <trkpt lat="47.29785" lon="-2.27595">
        <ele>7.5999999046326</ele>
        <time>2019-07-04T08:18:51.000Z</time>
      </trkpt>
      <trkpt lat="47.29792" lon="-2.27595">
        <ele>7.5999999046326</ele>
        <time>2019-07-04T08:18:52.000Z</time>
      </trkpt>
      <trkpt lat="47.29825" lon="-2.2761">
        <ele>7.5999999046326</ele>
        <time>2019-07-04T08:18:57.000Z</time>
      </trkpt>
      <trkpt lat="47.29845" lon="-2.27621">
        <ele>7.5999999046326</ele>
        <time>2019-07-04T08:19:00.000Z</time>
      </trkpt>
      <trkpt lat="47.29859" lon="-2.27623">
        <ele>7.5999999046326</ele>
        <time>2019-07-04T08:19:02.000Z</time>
      </trkpt>
      <trkpt lat="47.2988" lon="-2.27617">
        <ele>7.5999999046326</ele>
        <time>2019-07-04T08:19:05.000Z</time>
      </trkpt>
      <trkpt lat="47.29887" lon="-2.27614">
        <ele>7.5999999046326</ele>
        <time>2019-07-04T08:19:06.000Z</time>
      </trkpt>
      <trkpt lat="47.29922" lon="-2.27598">
        <ele>7.5999999046326</ele>
        <time>2019-07-04T08:19:11.000Z</time>
      </trkpt>
      <trkpt lat="47.29947" lon="-2.27598">
        <ele>7.5999999046326</ele>
        <time>2019-07-04T08:19:15.000Z</time>
      </trkpt>
      <trkpt lat="47.29953" lon="-2.27599">
        <ele>7.5999999046326</ele>
        <time>2019-07-04T08:19:16.000Z</time>
      </trkpt>
      <trkpt lat="47.2996" lon="-2.27607">
        <ele>7.1999998092651</ele>
        <time>2019-07-04T08:19:18.000Z</time>
      </trkpt>
      <trkpt lat="47.29962" lon="-2.27614">
        <ele>6.8000001907349</ele>
        <time>2019-07-04T08:19:19.000Z</time>
      </trkpt>
      <trkpt lat="47.29963" lon="-2.27621">
        <ele>6.4000000953674</ele>
        <time>2019-07-04T08:19:20.000Z</time>
      </trkpt>
      <trkpt lat="47.29963" lon="-2.27628">
        <ele>6</ele>
        <time>2019-07-04T08:19:21.000Z</time>
      </trkpt>
      <trkpt lat="47.29963" lon="-2.27636">
        <ele>5.4000000953674</ele>
        <time>2019-07-04T08:19:22.000Z</time>
      </trkpt>
      <trkpt lat="47.2996" lon="-2.27669">
        <ele>5.4000000953674</ele>
        <time>2019-07-04T08:19:26.000Z</time>
      </trkpt>
      <trkpt lat="47.29954" lon="-2.27729">
        <ele>5.4000000953674</ele>
        <time>2019-07-04T08:19:33.000Z</time>
      </trkpt>
      <trkpt lat="47.29949" lon="-2.27783">
        <ele>5.4000000953674</ele>
        <time>2019-07-04T08:19:39.000Z</time>
      </trkpt>
      <trkpt lat="47.29948" lon="-2.27791">
        <ele>6</ele>
        <time>2019-07-04T08:19:40.000Z</time>
      </trkpt>
      <trkpt lat="47.29947" lon="-2.27799">
        <ele>6.4000000953674</ele>
        <time>2019-07-04T08:19:41.000Z</time>
      </trkpt>
      <trkpt lat="47.29946" lon="-2.27808">
        <ele>6.8000001907349</ele>
        <time>2019-07-04T08:19:42.000Z</time>
      </trkpt>
      <trkpt lat="47.29946" lon="-2.27816">
        <ele>7.1999998092651</ele>
        <time>2019-07-04T08:19:43.000Z</time>
      </trkpt>
      <trkpt lat="47.29945" lon="-2.27825">
        <ele>7.5999999046326</ele>
        <time>2019-07-04T08:19:44.000Z</time>
      </trkpt>
      <trkpt lat="47.2994" lon="-2.27879">
        <ele>7.5999999046326</ele>
        <time>2019-07-04T08:19:50.000Z</time>
      </trkpt>
      <trkpt lat="47.29934" lon="-2.27943">
        <ele>7.5999999046326</ele>
        <time>2019-07-04T08:19:57.000Z</time>
      </trkpt>
      <trkpt lat="47.29934" lon="-2.27998">
        <ele>7.5999999046326</ele>
        <time>2019-07-04T08:20:03.000Z</time>
      </trkpt>
      <trkpt lat="47.29935" lon="-2.28007">
        <ele>7.5999999046326</ele>
        <time>2019-07-04T08:20:04.000Z</time>
      </trkpt>
      <trkpt lat="47.29943" lon="-2.28033">
        <ele>7.5999999046326</ele>
        <time>2019-07-04T08:20:07.000Z</time>
      </trkpt>
      <trkpt lat="47.29946" lon="-2.28041">
        <ele>7.5999999046326</ele>
        <time>2019-07-04T08:20:08.000Z</time>
      </trkpt>
      <trkpt lat="47.29956" lon="-2.28047">
        <ele>7.5999999046326</ele>
        <time>2019-07-04T08:20:10.000Z</time>
      </trkpt>
      <trkpt lat="47.29973" lon="-2.28041">
        <ele>7.5999999046326</ele>
        <time>2019-07-04T08:20:13.000Z</time>
      </trkpt>
      <trkpt lat="47.29977" lon="-2.28039">
        <ele>7.5999999046326</ele>
        <time>2019-07-04T08:20:14.000Z</time>
      </trkpt>
      <trkpt lat="47.29988" lon="-2.28033">
        <ele>7.5999999046326</ele>
        <time>2019-07-04T08:20:17.000Z</time>
      </trkpt>
      <trkpt lat="47.29994" lon="-2.28037">
        <ele>7.5999999046326</ele>
        <time>2019-07-04T08:20:20.000Z</time>
      </trkpt>
      <trkpt lat="47.29993" lon="-2.28049">
        <ele>7.5999999046326</ele>
        <time>2019-07-04T08:20:23.000Z</time>
      </trkpt>
      <trkpt lat="47.29991" lon="-2.28053">
        <ele>7.5999999046326</ele>
        <time>2019-07-04T08:20:24.000Z</time>
      </trkpt>
      <trkpt lat="47.2999" lon="-2.28059">
        <ele>7.5999999046326</ele>
        <time>2019-07-04T08:20:25.000Z</time>
      </trkpt>
      <trkpt lat="47.29984" lon="-2.28078">
        <ele>7.5999999046326</ele>
        <time>2019-07-04T08:20:28.000Z</time>
      </trkpt>
      <trkpt lat="47.29971" lon="-2.28119">
        <ele>7.5999999046326</ele>
        <time>2019-07-04T08:20:34.000Z</time>
      </trkpt>
      <trkpt lat="47.29969" lon="-2.28125">
        <ele>7.5999999046326</ele>
        <time>2019-07-04T08:20:35.000Z</time>
      </trkpt>
      <trkpt lat="47.2996" lon="-2.2815">
        <ele>7.5999999046326</ele>
        <time>2019-07-04T08:20:39.000Z</time>
      </trkpt>
      <trkpt lat="47.29958" lon="-2.28162">
        <ele>7.5999999046326</ele>
        <time>2019-07-04T08:20:41.000Z</time>
      </trkpt>
      <trkpt lat="47.29954" lon="-2.28179">
        <ele>7.5999999046326</ele>
        <time>2019-07-04T08:20:44.000Z</time>
      </trkpt>
      <trkpt lat="47.29948" lon="-2.28192">
        <ele>7.5999999046326</ele>
        <time>2019-07-04T08:20:46.000Z</time>
      </trkpt>
      <trkpt lat="47.29947" lon="-2.28199">
        <ele>7.5999999046326</ele>
        <time>2019-07-04T08:20:47.000Z</time>
      </trkpt>
      <trkpt lat="47.29947" lon="-2.28212">
        <ele>7.5999999046326</ele>
        <time>2019-07-04T08:20:49.000Z</time>
      </trkpt>
      <trkpt lat="47.29948" lon="-2.28238">
        <ele>7.5999999046326</ele>
        <time>2019-07-04T08:20:53.000Z</time>
      </trkpt>
      <trkpt lat="47.2995" lon="-2.28254">
        <ele>7.5999999046326</ele>
        <time>2019-07-04T08:20:55.000Z</time>
      </trkpt>
      <trkpt lat="47.29953" lon="-2.28297">
        <ele>7.5999999046326</ele>
        <time>2019-07-04T08:21:00.000Z</time>
      </trkpt>
      <trkpt lat="47.29953" lon="-2.28306">
        <ele>7.5999999046326</ele>
        <time>2019-07-04T08:21:01.000Z</time>
      </trkpt>
      <trkpt lat="47.29953" lon="-2.28314">
        <ele>7.5999999046326</ele>
        <time>2019-07-04T08:21:02.000Z</time>
      </trkpt>
      <trkpt lat="47.29952" lon="-2.28348">
        <ele>7.5999999046326</ele>
        <time>2019-07-04T08:21:06.000Z</time>
      </trkpt>
      <trkpt lat="47.2995" lon="-2.28381">
        <ele>7.5999999046326</ele>
        <time>2019-07-04T08:21:10.000Z</time>
      </trkpt>
      <trkpt lat="47.29951" lon="-2.28389">
        <ele>7.5999999046326</ele>
        <time>2019-07-04T08:21:11.000Z</time>
      </trkpt>
      <trkpt lat="47.29949" lon="-2.28415">
        <ele>7.5999999046326</ele>
        <time>2019-07-04T08:21:15.000Z</time>
      </trkpt>
      <trkpt lat="47.29942" lon="-2.28444">
        <ele>7.5999999046326</ele>
        <time>2019-07-04T08:21:19.000Z</time>
      </trkpt>
      <trkpt lat="47.29942" lon="-2.28453">
        <ele>7.5999999046326</ele>
        <time>2019-07-04T08:21:20.000Z</time>
      </trkpt>
      <trkpt lat="47.29942" lon="-2.2847">
        <ele>7.5999999046326</ele>
        <time>2019-07-04T08:21:22.000Z</time>
      </trkpt>
      <trkpt lat="47.2994" lon="-2.2849">
        <ele>7.5999999046326</ele>
        <time>2019-07-04T08:21:24.000Z</time>
      </trkpt>
      <trkpt lat="47.29931" lon="-2.28519">
        <ele>7.5999999046326</ele>
        <time>2019-07-04T08:21:27.000Z</time>
      </trkpt>
      <trkpt lat="47.29929" lon="-2.28528">
        <ele>7.5999999046326</ele>
        <time>2019-07-04T08:21:28.000Z</time>
      </trkpt>
      <trkpt lat="47.2993" lon="-2.28546">
        <ele>7.5999999046326</ele>
        <time>2019-07-04T08:21:30.000Z</time>
      </trkpt>
      <trkpt lat="47.29942" lon="-2.28564">
        <ele>7.5999999046326</ele>
        <time>2019-07-04T08:21:33.000Z</time>
      </trkpt>
      <trkpt lat="47.29944" lon="-2.28579">
        <ele>7.5999999046326</ele>
        <time>2019-07-04T08:21:35.000Z</time>
      </trkpt>
      <trkpt lat="47.2994" lon="-2.28604">
        <ele>7.5999999046326</ele>
        <time>2019-07-04T08:21:38.000Z</time>
      </trkpt>
      <trkpt lat="47.29936" lon="-2.28631">
        <ele>7.5999999046326</ele>
        <time>2019-07-04T08:21:41.000Z</time>
      </trkpt>
      <trkpt lat="47.29932" lon="-2.2865">
        <ele>7.5999999046326</ele>
        <time>2019-07-04T08:21:43.000Z</time>
      </trkpt>
      <trkpt lat="47.29926" lon="-2.28685">
        <ele>7.5999999046326</ele>
        <time>2019-07-04T08:21:47.000Z</time>
      </trkpt>
      <trkpt lat="47.29924" lon="-2.28694">
        <ele>7.5999999046326</ele>
        <time>2019-07-04T08:21:48.000Z</time>
      </trkpt>
      <trkpt lat="47.29918" lon="-2.28713">
        <ele>7.1999998092651</ele>
        <time>2019-07-04T08:21:50.000Z</time>
      </trkpt>
      <trkpt lat="47.29916" lon="-2.28722">
        <ele>6.8000001907349</ele>
        <time>2019-07-04T08:21:51.000Z</time>
      </trkpt>
      <trkpt lat="47.29913" lon="-2.28731">
        <ele>6.4000000953674</ele>
        <time>2019-07-04T08:21:52.000Z</time>
      </trkpt>
      <trkpt lat="47.2991" lon="-2.28739">
        <ele>6</ele>
        <time>2019-07-04T08:21:53.000Z</time>
      </trkpt>
      <trkpt lat="47.29908" lon="-2.28747">
        <ele>5.5999999046326</ele>
        <time>2019-07-04T08:21:54.000Z</time>
      </trkpt>
      <trkpt lat="47.29908" lon="-2.28755">
        <ele>5.5999999046326</ele>
        <time>2019-07-04T08:21:55.000Z</time>
      </trkpt>
      <trkpt lat="47.29907" lon="-2.28771">
        <ele>5.5999999046326</ele>
        <time>2019-07-04T08:21:57.000Z</time>
      </trkpt>
      <trkpt lat="47.29908" lon="-2.28781">
        <ele>5.5999999046326</ele>
        <time>2019-07-04T08:21:59.000Z</time>
      </trkpt>
      <trkpt lat="47.29908" lon="-2.28787">
        <ele>5.5999999046326</ele>
        <time>2019-07-04T08:22:00.000Z</time>
      </trkpt>
      <trkpt lat="47.29906" lon="-2.28793">
        <ele>5.5999999046326</ele>
        <time>2019-07-04T08:22:01.000Z</time>
      </trkpt>
      <trkpt lat="47.29903" lon="-2.28818">
        <ele>5.5999999046326</ele>
        <time>2019-07-04T08:22:04.000Z</time>
      </trkpt>
      <trkpt lat="47.29893" lon="-2.28861">
        <ele>5.5999999046326</ele>
        <time>2019-07-04T08:22:09.000Z</time>
      </trkpt>
      <trkpt lat="47.29885" lon="-2.28891">
        <ele>5.5999999046326</ele>
        <time>2019-07-04T08:22:13.000Z</time>
      </trkpt>
      <trkpt lat="47.29879" lon="-2.28904">
        <ele>5.5999999046326</ele>
        <time>2019-07-04T08:22:15.000Z</time>
      </trkpt>
      <trkpt lat="47.29879" lon="-2.28912">
        <ele>5.5999999046326</ele>
        <time>2019-07-04T08:22:16.000Z</time>
      </trkpt>
      <trkpt lat="47.29879" lon="-2.28935">
        <ele>5.5999999046326</ele>
        <time>2019-07-04T08:22:19.000Z</time>
      </trkpt>
      <trkpt lat="47.29882" lon="-2.2894">
        <ele>5.5999999046326</ele>
        <time>2019-07-04T08:22:20.000Z</time>
      </trkpt>
      <trkpt lat="47.29895" lon="-2.28945">
        <ele>5.5999999046326</ele>
        <time>2019-07-04T08:22:23.000Z</time>
      </trkpt>
      <trkpt lat="47.29915" lon="-2.28948">
        <ele>5.5999999046326</ele>
        <time>2019-07-04T08:22:27.000Z</time>
      </trkpt>
      <trkpt lat="47.2992" lon="-2.2895">
        <ele>5.5999999046326</ele>
        <time>2019-07-04T08:22:28.000Z</time>
      </trkpt>
      <trkpt lat="47.29927" lon="-2.28959">
        <ele>5.1999998092651</ele>
        <time>2019-07-04T08:22:30.000Z</time>
      </trkpt>
      <trkpt lat="47.2993" lon="-2.28965">
        <ele>4.8000001907349</ele>
        <time>2019-07-04T08:22:31.000Z</time>
      </trkpt>
      <trkpt lat="47.29933" lon="-2.2897">
        <ele>4.4000000953674</ele>
        <time>2019-07-04T08:22:32.000Z</time>
      </trkpt>
      <trkpt lat="47.29936" lon="-2.28975">
        <ele>4</ele>
        <time>2019-07-04T08:22:33.000Z</time>
      </trkpt>
      <trkpt lat="47.29939" lon="-2.28981">
        <ele>3.5999999046326</ele>
        <time>2019-07-04T08:22:34.000Z</time>
      </trkpt>
      <trkpt lat="47.29946" lon="-2.28993">
        <ele>3.5999999046326</ele>
        <time>2019-07-04T08:22:36.000Z</time>
      </trkpt>
      <trkpt lat="47.29973" lon="-2.29034">
        <ele>3.5999999046326</ele>
        <time>2019-07-04T08:22:42.000Z</time>
      </trkpt>
      <trkpt lat="47.29992" lon="-2.29062">
        <ele>3.5999999046326</ele>
        <time>2019-07-04T08:22:46.000Z</time>
      </trkpt>
      <trkpt lat="47.29995" lon="-2.2907">
        <ele>3.5999999046326</ele>
        <time>2019-07-04T08:22:47.000Z</time>
      </trkpt>
      <trkpt lat="47.30003" lon="-2.29084">
        <ele>3.5999999046326</ele>
        <time>2019-07-04T08:22:49.000Z</time>
      </trkpt>
      <trkpt lat="47.30013" lon="-2.29094">
        <ele>3.5999999046326</ele>
        <time>2019-07-04T08:22:51.000Z</time>
      </trkpt>
      <trkpt lat="47.30034" lon="-2.29113">
        <ele>3.5999999046326</ele>
        <time>2019-07-04T08:22:55.000Z</time>
      </trkpt>
      <trkpt lat="47.30056" lon="-2.29129">
        <ele>3.5999999046326</ele>
        <time>2019-07-04T08:22:59.000Z</time>
      </trkpt>
      <trkpt lat="47.3006" lon="-2.29134">
        <ele>3.5999999046326</ele>
        <time>2019-07-04T08:23:00.000Z</time>
      </trkpt>
      <trkpt lat="47.30074" lon="-2.29158">
        <ele>3.5999999046326</ele>
        <time>2019-07-04T08:23:03.000Z</time>
      </trkpt>
      <trkpt lat="47.30107" lon="-2.2921">
        <ele>3</ele>
        <time>2019-07-04T08:23:09.000Z</time>
      </trkpt>
      <trkpt lat="47.30112" lon="-2.29218">
        <ele>2.5999999046326</ele>
        <time>2019-07-04T08:23:10.000Z</time>
      </trkpt>
      <trkpt lat="47.30118" lon="-2.29226">
        <ele>1.7999999523163</ele>
        <time>2019-07-04T08:23:11.000Z</time>
      </trkpt>
      <trkpt lat="47.30123" lon="-2.29235">
        <ele>1.3999999761581</ele>
        <time>2019-07-04T08:23:12.000Z</time>
      </trkpt>
      <trkpt lat="47.30144" lon="-2.2927">
        <ele>1.3999999761581</ele>
        <time>2019-07-04T08:23:16.000Z</time>
      </trkpt>
      <trkpt lat="47.30183" lon="-2.2933">
        <ele>1.3999999761581</ele>
        <time>2019-07-04T08:23:23.000Z</time>
      </trkpt>
      <trkpt lat="47.30189" lon="-2.29338">
        <ele>1.3999999761581</ele>
        <time>2019-07-04T08:23:24.000Z</time>
      </trkpt>
      <trkpt lat="47.30207" lon="-2.29359">
        <ele>1.3999999761581</ele>
        <time>2019-07-04T08:23:27.000Z</time>
      </trkpt>
      <trkpt lat="47.3022" lon="-2.29366">
        <ele>1.3999999761581</ele>
        <time>2019-07-04T08:23:29.000Z</time>
      </trkpt>
      <trkpt lat="47.30241" lon="-2.29365">
        <ele>1.3999999761581</ele>
        <time>2019-07-04T08:23:32.000Z</time>
      </trkpt>
      <trkpt lat="47.30268" lon="-2.29346">
        <ele>1.3999999761581</ele>
        <time>2019-07-04T08:23:36.000Z</time>
      </trkpt>
      <trkpt lat="47.30275" lon="-2.2934">
        <ele>1.3999999761581</ele>
        <time>2019-07-04T08:23:37.000Z</time>
      </trkpt>
      <trkpt lat="47.30285" lon="-2.29328">
        <ele>1.3999999761581</ele>
        <time>2019-07-04T08:23:39.000Z</time>
      </trkpt>
      <trkpt lat="47.3029" lon="-2.29323">
        <ele>1.3999999761581</ele>
        <time>2019-07-04T08:23:40.000Z</time>
      </trkpt>
      <trkpt lat="47.30295" lon="-2.29317">
        <ele>1.3999999761581</ele>
        <time>2019-07-04T08:23:41.000Z</time>
      </trkpt>
      <trkpt lat="47.30301" lon="-2.29311">
        <ele>1</ele>
        <time>2019-07-04T08:23:42.000Z</time>
      </trkpt>
      <trkpt lat="47.30307" lon="-2.29305">
        <ele>0.60000002384186</ele>
        <time>2019-07-04T08:23:43.000Z</time>
      </trkpt>
      <trkpt lat="47.30313" lon="-2.293">
        <ele>2.2</ele>
        <time>2019-07-04T08:23:44.000Z</time>
      </trkpt>
      <trkpt lat="47.3032" lon="-2.29296">
        <ele>-0.40000000596046</ele>
        <time>2019-07-04T08:23:45.000Z</time>
      </trkpt>
      <trkpt lat="47.30327" lon="-2.29293">
        <ele>-0.80000001192093</ele>
        <time>2019-07-04T08:23:46.000Z</time>
      </trkpt>
      <trkpt lat="47.30343" lon="-2.2929">
        <ele>-0.80000001192093</ele>
        <time>2019-07-04T08:23:48.000Z</time>
      </trkpt>
      <trkpt lat="47.30364" lon="-2.29289">
        <ele>-0.80000001192093</ele>
        <time>2019-07-04T08:23:51.000Z</time>
      </trkpt>
      <trkpt lat="47.30378" lon="-2.29286">
        <ele>-0.80000001192093</ele>
        <time>2019-07-04T08:23:53.000Z</time>
      </trkpt>
      <trkpt lat="47.30393" lon="-2.29281">
        <ele>-0.80000001192093</ele>
        <time>2019-07-04T08:23:55.000Z</time>
      </trkpt>
      <trkpt lat="47.30406" lon="-2.2927">
        <ele>-0.80000001192093</ele>
        <time>2019-07-04T08:23:57.000Z</time>
      </trkpt>
      <trkpt lat="47.30418" lon="-2.29255">
        <ele>-0.80000001192093</ele>
        <time>2019-07-04T08:23:59.000Z</time>
      </trkpt>
      <trkpt lat="47.30436" lon="-2.29231">
        <ele>-0.80000001192093</ele>
        <time>2019-07-04T08:24:02.000Z</time>
      </trkpt>
      <trkpt lat="47.30471" lon="-2.29184">
        <ele>-0.80000001192093</ele>
        <time>2019-07-04T08:24:08.000Z</time>
      </trkpt>
      <trkpt lat="47.30491" lon="-2.2915">
        <ele>-0.80000001192093</ele>
        <time>2019-07-04T08:24:12.000Z</time>
      </trkpt>
      <trkpt lat="47.30494" lon="-2.29142">
        <ele>-0.80000001192093</ele>
        <time>2019-07-04T08:24:13.000Z</time>
      </trkpt>
      <trkpt lat="47.30498" lon="-2.29133">
        <ele>-0.20000000298023</ele>
        <time>2019-07-04T08:24:14.000Z</time>
      </trkpt>
      <trkpt lat="47.305" lon="-2.29124">
        <ele>0.20000000298023</ele>
        <time>2019-07-04T08:24:15.000Z</time>
      </trkpt>
      <trkpt lat="47.30503" lon="-2.29114">
        <ele>0.60000002384186</ele>
        <time>2019-07-04T08:24:16.000Z</time>
      </trkpt>
      <trkpt lat="47.30504" lon="-2.29104">
        <ele>1.2000000476837</ele>
        <time>2019-07-04T08:24:17.000Z</time>
      </trkpt>
      <trkpt lat="47.30505" lon="-2.29094">
        <ele>1.6000000238419</ele>
        <time>2019-07-04T08:24:18.000Z</time>
      </trkpt>
      <trkpt lat="47.30506" lon="-2.29083">
        <ele>1.6000000238419</ele>
        <time>2019-07-04T08:24:19.000Z</time>
      </trkpt>
      <trkpt lat="47.30506" lon="-2.29073">
        <ele>1.6000000238419</ele>
        <time>2019-07-04T08:24:20.000Z</time>
      </trkpt>
      <trkpt lat="47.30505" lon="-2.29063">
        <ele>1.6000000238419</ele>
        <time>2019-07-04T08:24:21.000Z</time>
      </trkpt>
      <trkpt lat="47.30496" lon="-2.29005">
        <ele>1.6000000238419</ele>
        <time>2019-07-04T08:24:27.000Z</time>
      </trkpt>
      <trkpt lat="47.30504" lon="-2.28981">
        <ele>1.6000000238419</ele>
        <time>2019-07-04T08:24:30.000Z</time>
      </trkpt>
      <trkpt lat="47.30508" lon="-2.28975">
        <ele>1.2000000476837</ele>
        <time>2019-07-04T08:24:31.000Z</time>
      </trkpt>
      <trkpt lat="47.30513" lon="-2.28971">
        <ele>0.80000001192093</ele>
        <time>2019-07-04T08:24:32.000Z</time>
      </trkpt>
      <trkpt lat="47.30518" lon="-2.28967">
        <ele>0.40000000596046</ele>
        <time>2019-07-04T08:24:33.000Z</time>
      </trkpt>
      <trkpt lat="47.30524" lon="-2.28965">
        <ele>4</ele>
        <time>2019-07-04T08:24:34.000Z</time>
      </trkpt>
      <trkpt lat="47.3053" lon="-2.28962">
        <ele>-0.60000002384186</ele>
        <time>2019-07-04T08:24:35.000Z</time>
      </trkpt>
      <trkpt lat="47.30546" lon="-2.28953">
        <ele>-0.60000002384186</ele>
        <time>2019-07-04T08:24:38.000Z</time>
      </trkpt>
      <trkpt lat="47.30551" lon="-2.28948">
        <ele>-0.60000002384186</ele>
        <time>2019-07-04T08:24:39.000Z</time>
      </trkpt>
      <trkpt lat="47.30565" lon="-2.28935">
        <ele>-0.60000002384186</ele>
        <time>2019-07-04T08:24:42.000Z</time>
      </trkpt>
      <trkpt lat="47.30574" lon="-2.28926">
        <ele>-0.60000002384186</ele>
        <time>2019-07-04T08:24:44.000Z</time>
      </trkpt>
      <trkpt lat="47.3058" lon="-2.28921">
        <ele>-0.60000002384186</ele>
        <time>2019-07-04T08:24:45.000Z</time>
      </trkpt>
      <trkpt lat="47.30601" lon="-2.28905">
        <ele>-0.60000002384186</ele>
        <time>2019-07-04T08:24:49.000Z</time>
      </trkpt>
      <trkpt lat="47.30607" lon="-2.28901">
        <ele>0.40000000596046</ele>
        <time>2019-07-04T08:24:50.000Z</time>
      </trkpt>
      <trkpt lat="47.30613" lon="-2.28898">
        <ele>0.80000001192093</ele>
        <time>2019-07-04T08:24:51.000Z</time>
      </trkpt>
      <trkpt lat="47.30619" lon="-2.28895">
        <ele>1.2000000476837</ele>
        <time>2019-07-04T08:24:52.000Z</time>
      </trkpt>
      <trkpt lat="47.30625" lon="-2.28891">
        <ele>1.6000000238419</ele>
        <time>2019-07-04T08:24:53.000Z</time>
      </trkpt>
      <trkpt lat="47.30636" lon="-2.28884">
        <ele>1.6000000238419</ele>
        <time>2019-07-04T08:24:55.000Z</time>
      </trkpt>
      <trkpt lat="47.30671" lon="-2.28863">
        <ele>1.6000000238419</ele>
        <time>2019-07-04T08:25:01.000Z</time>
      </trkpt>
      <trkpt lat="47.30683" lon="-2.28853">
        <ele>2</ele>
        <time>2019-07-04T08:25:03.000Z</time>
      </trkpt>
      <trkpt lat="47.30689" lon="-2.28848">
        <ele>2.4000000953674</ele>
        <time>2019-07-04T08:25:04.000Z</time>
      </trkpt>
      <trkpt lat="47.30696" lon="-2.28844">
        <ele>2.7999999523163</ele>
        <time>2019-07-04T08:25:05.000Z</time>
      </trkpt>
      <trkpt lat="47.30702" lon="-2.28839">
        <ele>3.2000000476837</ele>
        <time>2019-07-04T08:25:06.000Z</time>
      </trkpt>
      <trkpt lat="47.30708" lon="-2.28836">
        <ele>3.5999999046326</ele>
        <time>2019-07-04T08:25:07.000Z</time>
      </trkpt>
      <trkpt lat="47.30722" lon="-2.2883">
        <ele>3.5999999046326</ele>
        <time>2019-07-04T08:25:09.000Z</time>
      </trkpt>
      <trkpt lat="47.30736" lon="-2.28827">
        <ele>3.5999999046326</ele>
        <time>2019-07-04T08:25:11.000Z</time>
      </trkpt>
      <trkpt lat="47.30786" lon="-2.2882">
        <ele>3.5999999046326</ele>
        <time>2019-07-04T08:25:18.000Z</time>
      </trkpt>
      <trkpt lat="47.3081" lon="-2.28818">
        <ele>3.2000000476837</ele>
        <time>2019-07-04T08:25:21.000Z</time>
      </trkpt>
      <trkpt lat="47.30818" lon="-2.28818">
        <ele>2.7999999523163</ele>
        <time>2019-07-04T08:25:22.000Z</time>
      </trkpt>
      <trkpt lat="47.30825" lon="-2.28819">
        <ele>2.2000000476837</ele>
        <time>2019-07-04T08:25:23.000Z</time>
      </trkpt>
      <trkpt lat="47.30833" lon="-2.2882">
        <ele>1.7999999523163</ele>
        <time>2019-07-04T08:25:24.000Z</time>
      </trkpt>
      <trkpt lat="47.30841" lon="-2.28821">
        <ele>1.3999999761581</ele>
        <time>2019-07-04T08:25:25.000Z</time>
      </trkpt>
      <trkpt lat="47.30881" lon="-2.28823">
        <ele>1.3999999761581</ele>
        <time>2019-07-04T08:25:30.000Z</time>
      </trkpt>
      <trkpt lat="47.3091" lon="-2.28822">
        <ele>1.3999999761581</ele>
        <time>2019-07-04T08:25:34.000Z</time>
      </trkpt>
      <trkpt lat="47.30922" lon="-2.28821">
        <ele>0.80000001192093</ele>
        <time>2019-07-04T08:25:36.000Z</time>
      </trkpt>
      <trkpt lat="47.30927" lon="-2.28821">
        <ele>0.40000000596046</ele>
        <time>2019-07-04T08:25:37.000Z</time>
      </trkpt>
      <trkpt lat="47.30932" lon="-2.28821">
        <ele>3.7</ele>
        <time>2019-07-04T08:25:38.000Z</time>
      </trkpt>
      <trkpt lat="47.30937" lon="-2.28821">
        <ele>-0.80000001192093</ele>
        <time>2019-07-04T08:25:39.000Z</time>
      </trkpt>
      <trkpt lat="47.30962" lon="-2.28816">
        <ele>-0.40000000596046</ele>
        <time>2019-07-04T08:25:44.000Z</time>
      </trkpt>
      <trkpt lat="47.30968" lon="-2.28815">
        <ele>7.3</ele>
        <time>2019-07-04T08:25:45.000Z</time>
      </trkpt>
      <trkpt lat="47.30973" lon="-2.28813">
        <ele>0.40000000596046</ele>
        <time>2019-07-04T08:25:46.000Z</time>
      </trkpt>
      <trkpt lat="47.30978" lon="-2.28811">
        <ele>0.80000001192093</ele>
        <time>2019-07-04T08:25:47.000Z</time>
      </trkpt>
      <trkpt lat="47.30984" lon="-2.28809">
        <ele>1.2000000476837</ele>
        <time>2019-07-04T08:25:48.000Z</time>
      </trkpt>
      <trkpt lat="47.3099" lon="-2.28807">
        <ele>1.7999999523163</ele>
        <time>2019-07-04T08:25:49.000Z</time>
      </trkpt>
      <trkpt lat="47.30996" lon="-2.28806">
        <ele>2.2000000476837</ele>
        <time>2019-07-04T08:25:50.000Z</time>
      </trkpt>
      <trkpt lat="47.31003" lon="-2.28807">
        <ele>2.7999999523163</ele>
        <time>2019-07-04T08:25:51.000Z</time>
      </trkpt>
      <trkpt lat="47.31009" lon="-2.2881">
        <ele>3.2000000476837</ele>
        <time>2019-07-04T08:25:52.000Z</time>
      </trkpt>
      <trkpt lat="47.31015" lon="-2.28814">
        <ele>3.7999999523163</ele>
        <time>2019-07-04T08:25:53.000Z</time>
      </trkpt>
      <trkpt lat="47.31055" lon="-2.28846">
        <ele>3.7999999523163</ele>
        <time>2019-07-04T08:26:00.000Z</time>
      </trkpt>
      <trkpt lat="47.31098" lon="-2.28877">
        <ele>3.7999999523163</ele>
        <time>2019-07-04T08:26:07.000Z</time>
      </trkpt>
      <trkpt lat="47.31117" lon="-2.28895">
        <ele>3.4000000953674</ele>
        <time>2019-07-04T08:26:10.000Z</time>
      </trkpt>
      <trkpt lat="47.31123" lon="-2.28901">
        <ele>3</ele>
        <time>2019-07-04T08:26:11.000Z</time>
      </trkpt>
      <trkpt lat="47.3113" lon="-2.28904">
        <ele>2.5999999046326</ele>
        <time>2019-07-04T08:26:12.000Z</time>
      </trkpt>
      <trkpt lat="47.31137" lon="-2.28904">
        <ele>2.2000000476837</ele>
        <time>2019-07-04T08:26:13.000Z</time>
      </trkpt>
      <trkpt lat="47.31143" lon="-2.28902">
        <ele>1.6000000238419</ele>
        <time>2019-07-04T08:26:14.000Z</time>
      </trkpt>
      <trkpt lat="47.31167" lon="-2.28894">
        <ele>1.6000000238419</ele>
        <time>2019-07-04T08:26:18.000Z</time>
      </trkpt>
      <trkpt lat="47.31171" lon="-2.28895">
        <ele>1.6000000238419</ele>
        <time>2019-07-04T08:26:19.000Z</time>
      </trkpt>
      <trkpt lat="47.31178" lon="-2.2891">
        <ele>1.6000000238419</ele>
        <time>2019-07-04T08:26:22.000Z</time>
      </trkpt>
      <trkpt lat="47.3118" lon="-2.28915">
        <ele>1.6000000238419</ele>
        <time>2019-07-04T08:26:23.000Z</time>
      </trkpt>
      <trkpt lat="47.31187" lon="-2.2894">
        <ele>1.2000000476837</ele>
        <time>2019-07-04T08:26:28.000Z</time>
      </trkpt>
      <trkpt lat="47.31188" lon="-2.28945">
        <ele>0.40000000596046</ele>
        <time>2019-07-04T08:26:29.000Z</time>
      </trkpt>
      <trkpt lat="47.31189" lon="-2.2895">
        <ele>5</ele>
        <time>2019-07-04T08:26:30.000Z</time>
      </trkpt>
      <trkpt lat="47.3119" lon="-2.28954">
        <ele>-0.40000000596046</ele>
        <time>2019-07-04T08:26:31.000Z</time>
      </trkpt>
      <trkpt lat="47.31193" lon="-2.28968">
        <ele>-0.40000000596046</ele>
        <time>2019-07-04T08:26:34.000Z</time>
      </trkpt>
      <trkpt lat="47.312" lon="-2.29007">
        <ele>-0.40000000596046</ele>
        <time>2019-07-04T08:26:41.000Z</time>
      </trkpt>
      <trkpt lat="47.31202" lon="-2.29038">
        <ele>-0.40000000596046</ele>
        <time>2019-07-04T08:26:46.000Z</time>
      </trkpt>
      <trkpt lat="47.31202" lon="-2.2905">
        <ele>6.3</ele>
        <time>2019-07-04T08:26:48.000Z</time>
      </trkpt>
      <trkpt lat="47.31203" lon="-2.29055">
        <ele>0.40000000596046</ele>
        <time>2019-07-04T08:26:49.000Z</time>
      </trkpt>
      <trkpt lat="47.31204" lon="-2.29061">
        <ele>0.80000001192093</ele>
        <time>2019-07-04T08:26:50.000Z</time>
      </trkpt>
      <trkpt lat="47.31205" lon="-2.29067">
        <ele>1.2000000476837</ele>
        <time>2019-07-04T08:26:51.000Z</time>
      </trkpt>
      <trkpt lat="47.31205" lon="-2.29074">
        <ele>1.7999999523163</ele>
        <time>2019-07-04T08:26:52.000Z</time>
      </trkpt>
      <trkpt lat="47.31206" lon="-2.29081">
        <ele>1.7999999523163</ele>
        <time>2019-07-04T08:26:53.000Z</time>
      </trkpt>
      <trkpt lat="47.31212" lon="-2.2913">
        <ele>1.7999999523163</ele>
        <time>2019-07-04T08:27:00.000Z</time>
      </trkpt>
      <trkpt lat="47.31227" lon="-2.29196">
        <ele>1.7999999523163</ele>
        <time>2019-07-04T08:27:09.000Z</time>
      </trkpt>
      <trkpt lat="47.31243" lon="-2.29255">
        <ele>1.7999999523163</ele>
        <time>2019-07-04T08:27:16.000Z</time>
      </trkpt>
      <trkpt lat="47.31255" lon="-2.29308">
        <ele>1.7999999523163</ele>
        <time>2019-07-04T08:27:23.000Z</time>
      </trkpt>
      <trkpt lat="47.31265" lon="-2.29345">
        <ele>1.7999999523163</ele>
        <time>2019-07-04T08:27:29.000Z</time>
      </trkpt>
      <trkpt lat="47.31267" lon="-2.29346">
        <ele>1.7999999523163</ele>
        <time>2019-07-04T08:27:30.000Z</time>
      </trkpt>
      <trkpt lat="47.31269" lon="-2.29346">
        <ele>1.7999999523163</ele>
        <time>2019-07-04T08:27:32.000Z</time>
      </trkpt>
      <trkpt lat="47.31273" lon="-2.29334">
        <ele>1.7999999523163</ele>
        <time>2019-07-04T08:27:37.000Z</time>
      </trkpt>
      <trkpt lat="47.31284" lon="-2.29314">
        <ele>1.7999999523163</ele>
        <time>2019-07-04T08:27:44.000Z</time>
      </trkpt>
      <trkpt lat="47.31295" lon="-2.29303">
        <ele>1.7999999523163</ele>
        <time>2019-07-04T08:27:50.000Z</time>
      </trkpt>
      <trkpt lat="47.31308" lon="-2.29295">
        <ele>1.7999999523163</ele>
        <time>2019-07-04T08:27:57.000Z</time>
      </trkpt>
      <trkpt lat="47.3132" lon="-2.29295">
        <ele>1.7999999523163</ele>
        <time>2019-07-04T08:28:02.000Z</time>
      </trkpt>
      <trkpt lat="47.31333" lon="-2.29298">
        <ele>1.7999999523163</ele>
        <time>2019-07-04T08:28:08.000Z</time>
      </trkpt>
      <trkpt lat="47.31337" lon="-2.29299">
        <ele>1.7999999523163</ele>
        <time>2019-07-04T08:28:12.000Z</time>
      </trkpt>
      <trkpt lat="47.31343" lon="-2.29302">
        <ele>1.7999999523163</ele>
        <time>2019-07-04T08:28:42.000Z</time>
      </trkpt>
      <trkpt lat="47.3135" lon="-2.29306">
        <ele>1.7999999523163</ele>
        <time>2019-07-04T08:28:47.000Z</time>
      </trkpt>
      <trkpt lat="47.3135" lon="-2.29306">
        <ele>1.7999999523163</ele>
        <time>2019-07-04T08:28:48.000Z</time>
      </trkpt>
      <trkpt lat="47.31348" lon="-2.29305">
        <ele>1.7999999523163</ele>
        <time>2019-07-04T08:29:30.000Z</time>
      </trkpt>
      <trkpt lat="47.31344" lon="-2.29304">
        <ele>1.7999999523163</ele>
        <time>2019-07-04T08:29:32.000Z</time>
      </trkpt>
      <trkpt lat="47.31323" lon="-2.29297">
        <ele>1.7999999523163</ele>
        <time>2019-07-04T08:29:41.000Z</time>
      </trkpt>
      <trkpt lat="47.31309" lon="-2.29297">
        <ele>1.7999999523163</ele>
        <time>2019-07-04T08:29:46.000Z</time>
      </trkpt>
      <trkpt lat="47.31296" lon="-2.29303">
        <ele>1.7999999523163</ele>
        <time>2019-07-04T08:29:51.000Z</time>
      </trkpt>
      <trkpt lat="47.31286" lon="-2.29314">
        <ele>1.7999999523163</ele>
        <time>2019-07-04T08:29:57.000Z</time>
      </trkpt>
      <trkpt lat="47.31281" lon="-2.29325">
        <ele>1.7999999523163</ele>
        <time>2019-07-04T08:30:03.000Z</time>
      </trkpt>
      <trkpt lat="47.31276" lon="-2.29336">
        <ele>1.7999999523163</ele>
        <time>2019-07-04T08:30:09.000Z</time>
      </trkpt>
      <trkpt lat="47.31273" lon="-2.29339">
        <ele>1.7999999523163</ele>
        <time>2019-07-04T08:30:13.000Z</time>
      </trkpt>
      <trkpt lat="47.31271" lon="-2.2934">
        <ele>1.7999999523163</ele>
        <time>2019-07-04T08:31:44.000Z</time>
      </trkpt>
      <trkpt lat="47.31262" lon="-2.29338">
        <ele>1.7999999523163</ele>
        <time>2019-07-04T08:31:49.000Z</time>
      </trkpt>
      <trkpt lat="47.31257" lon="-2.2932">
        <ele>1.7999999523163</ele>
        <time>2019-07-04T08:31:53.000Z</time>
      </trkpt>
      <trkpt lat="47.31252" lon="-2.29292">
        <ele>1.7999999523163</ele>
        <time>2019-07-04T08:31:58.000Z</time>
      </trkpt>
      <trkpt lat="47.31249" lon="-2.2928">
        <ele>1.7999999523163</ele>
        <time>2019-07-04T08:32:00.000Z</time>
      </trkpt>
      <trkpt lat="47.31237" lon="-2.2923">
        <ele>1.7999999523163</ele>
        <time>2019-07-04T08:32:07.000Z</time>
      </trkpt>
      <trkpt lat="47.31226" lon="-2.29181">
        <ele>1.7999999523163</ele>
        <time>2019-07-04T08:32:14.000Z</time>
      </trkpt>
      <trkpt lat="47.31215" lon="-2.29124">
        <ele>1.7999999523163</ele>
        <time>2019-07-04T08:32:22.000Z</time>
      </trkpt>
      <trkpt lat="47.31214" lon="-2.29118">
        <ele>1.7999999523163</ele>
        <time>2019-07-04T08:32:23.000Z</time>
      </trkpt>
      <trkpt lat="47.31208" lon="-2.29079">
        <ele>1.7999999523163</ele>
        <time>2019-07-04T08:32:29.000Z</time>
      </trkpt>
      <trkpt lat="47.31201" lon="-2.29027">
        <ele>1.7999999523163</ele>
        <time>2019-07-04T08:32:38.000Z</time>
      </trkpt>
      <trkpt lat="47.31199" lon="-2.29008">
        <ele>1.7999999523163</ele>
        <time>2019-07-04T08:32:44.000Z</time>
      </trkpt>
      <trkpt lat="47.31198" lon="-2.28987">
        <ele>1.7999999523163</ele>
        <time>2019-07-04T08:32:50.000Z</time>
      </trkpt>
      <trkpt lat="47.31192" lon="-2.28952">
        <ele>1.7999999523163</ele>
        <time>2019-07-04T08:32:58.000Z</time>
      </trkpt>
      <trkpt lat="47.31185" lon="-2.2892">
        <ele>1.7999999523163</ele>
        <time>2019-07-04T08:33:05.000Z</time>
      </trkpt>
      <trkpt lat="47.31177" lon="-2.28901">
        <ele>1.7999999523163</ele>
        <time>2019-07-04T08:33:10.000Z</time>
      </trkpt>
      <trkpt lat="47.3117" lon="-2.28896">
        <ele>1.2000000476837</ele>
        <time>2019-07-04T08:33:13.000Z</time>
      </trkpt>
      <trkpt lat="47.31168" lon="-2.28896">
        <ele>0.80000001192093</ele>
        <time>2019-07-04T08:33:14.000Z</time>
      </trkpt>
      <trkpt lat="47.31165" lon="-2.28896">
        <ele>0.40000000596046</ele>
        <time>2019-07-04T08:33:15.000Z</time>
      </trkpt>
      <trkpt lat="47.31162" lon="-2.28897">
        <ele>4</ele>
        <time>2019-07-04T08:33:16.000Z</time>
      </trkpt>
      <trkpt lat="47.31159" lon="-2.28897">
        <ele>-0.40000000596046</ele>
        <time>2019-07-04T08:33:17.000Z</time>
      </trkpt>
      <trkpt lat="47.31145" lon="-2.28903">
        <ele>-0.40000000596046</ele>
        <time>2019-07-04T08:33:22.000Z</time>
      </trkpt>
      <trkpt lat="47.31127" lon="-2.28905">
        <ele>-0.40000000596046</ele>
        <time>2019-07-04T08:33:28.000Z</time>
      </trkpt>
      <trkpt lat="47.31118" lon="-2.28896">
        <ele>-0.40000000596046</ele>
        <time>2019-07-04T08:33:33.000Z</time>
      </trkpt>
      <trkpt lat="47.31108" lon="-2.28887">
        <ele>-0.40000000596046</ele>
        <time>2019-07-04T08:33:39.000Z</time>
      </trkpt>
      <trkpt lat="47.31104" lon="-2.28884">
        <ele>-0.40000000596046</ele>
        <time>2019-07-04T08:33:41.000Z</time>
      </trkpt>
      <trkpt lat="47.31099" lon="-2.2888">
        <ele>-0.40000000596046</ele>
        <time>2019-07-04T08:33:44.000Z</time>
      </trkpt>
      <trkpt lat="47.31095" lon="-2.28877">
        <ele>-0.40000000596046</ele>
        <time>2019-07-04T08:33:46.000Z</time>
      </trkpt>
      <trkpt lat="47.31087" lon="-2.28871">
        <ele>-0.40000000596046</ele>
        <time>2019-07-04T08:33:50.000Z</time>
      </trkpt>
      <trkpt lat="47.31082" lon="-2.28866">
        <ele>6.6</ele>
        <time>2019-07-04T08:33:54.000Z</time>
      </trkpt>
      <trkpt lat="47.31082" lon="-2.28865">
        <ele>0.40000000596046</ele>
        <time>2019-07-04T08:33:55.000Z</time>
      </trkpt>
      <trkpt lat="47.31082" lon="-2.28865">
        <ele>0.80000001192093</ele>
        <time>2019-07-04T08:33:56.000Z</time>
      </trkpt>
      <trkpt lat="47.31087" lon="-2.28869">
        <ele>1.7999999523163</ele>
        <time>2019-07-04T08:34:11.000Z</time>
      </trkpt>
      <trkpt lat="47.31091" lon="-2.28873">
        <ele>1.7999999523163</ele>
        <time>2019-07-04T08:34:13.000Z</time>
      </trkpt>
      <trkpt lat="47.31106" lon="-2.28885">
        <ele>1.7999999523163</ele>
        <time>2019-07-04T08:34:19.000Z</time>
      </trkpt>
      <trkpt lat="47.31119" lon="-2.289">
        <ele>1.7999999523163</ele>
        <time>2019-07-04T08:34:24.000Z</time>
      </trkpt>
      <trkpt lat="47.31134" lon="-2.28907">
        <ele>1.7999999523163</ele>
        <time>2019-07-04T08:34:29.000Z</time>
      </trkpt>
      <trkpt lat="47.31148" lon="-2.28901">
        <ele>1.7999999523163</ele>
        <time>2019-07-04T08:34:34.000Z</time>
      </trkpt>
      <trkpt lat="47.31166" lon="-2.28896">
        <ele>1.7999999523163</ele>
        <time>2019-07-04T08:34:40.000Z</time>
      </trkpt>
      <trkpt lat="47.31174" lon="-2.28899">
        <ele>1.3999999761581</ele>
        <time>2019-07-04T08:34:42.000Z</time>
      </trkpt>
      <trkpt lat="47.31177" lon="-2.28903">
        <ele>0.80000001192093</ele>
        <time>2019-07-04T08:34:43.000Z</time>
      </trkpt>
      <trkpt lat="47.3118" lon="-2.28909">
        <ele>4.3</ele>
        <time>2019-07-04T08:34:44.000Z</time>
      </trkpt>
      <trkpt lat="47.31182" lon="-2.28915">
        <ele>-0.40000000596046</ele>
        <time>2019-07-04T08:34:45.000Z</time>
      </trkpt>
      <trkpt lat="47.31186" lon="-2.28927">
        <ele>-0.40000000596046</ele>
        <time>2019-07-04T08:34:47.000Z</time>
      </trkpt>
      <trkpt lat="47.31189" lon="-2.28943">
        <ele>-0.40000000596046</ele>
        <time>2019-07-04T08:34:50.000Z</time>
      </trkpt>
      <trkpt lat="47.31191" lon="-2.28951">
        <ele>-0.40000000596046</ele>
        <time>2019-07-04T08:34:52.000Z</time>
      </trkpt>
      <trkpt lat="47.31198" lon="-2.28983">
        <ele>-0.40000000596046</ele>
        <time>2019-07-04T08:34:59.000Z</time>
      </trkpt>
      <trkpt lat="47.31202" lon="-2.29007">
        <ele>-0.40000000596046</ele>
        <time>2019-07-04T08:35:05.000Z</time>
      </trkpt>
      <trkpt lat="47.31202" lon="-2.29009">
        <ele>-0.40000000596046</ele>
        <time>2019-07-04T08:35:07.000Z</time>
      </trkpt>
      <trkpt lat="47.31201" lon="-2.29019">
        <ele>-0.40000000596046</ele>
        <time>2019-07-04T08:35:57.000Z</time>
      </trkpt>
      <trkpt lat="47.31201" lon="-2.29022">
        <ele>-0.40000000596046</ele>
        <time>2019-07-04T08:35:58.000Z</time>
      </trkpt>
      <trkpt lat="47.31203" lon="-2.29044">
        <ele>-0.40000000596046</ele>
        <time>2019-07-04T08:36:03.000Z</time>
      </trkpt>
      <trkpt lat="47.31204" lon="-2.29049">
        <ele>6.3</ele>
        <time>2019-07-04T08:36:04.000Z</time>
      </trkpt>
      <trkpt lat="47.31204" lon="-2.29055">
        <ele>0.40000000596046</ele>
        <time>2019-07-04T08:36:05.000Z</time>
      </trkpt>
      <trkpt lat="47.31205" lon="-2.2906">
        <ele>0.80000001192093</ele>
        <time>2019-07-04T08:36:06.000Z</time>
      </trkpt>
      <trkpt lat="47.31206" lon="-2.29066">
        <ele>1.2000000476837</ele>
        <time>2019-07-04T08:36:07.000Z</time>
      </trkpt>
      <trkpt lat="47.31207" lon="-2.29073">
        <ele>1.6000000238419</ele>
        <time>2019-07-04T08:36:08.000Z</time>
      </trkpt>
      <trkpt lat="47.31208" lon="-2.2908">
        <ele>1.6000000238419</ele>
        <time>2019-07-04T08:36:09.000Z</time>
      </trkpt>
      <trkpt lat="47.31215" lon="-2.29123">
        <ele>1.6000000238419</ele>
        <time>2019-07-04T08:36:15.000Z</time>
      </trkpt>
      <trkpt lat="47.31224" lon="-2.29172">
        <ele>1.6000000238419</ele>
        <time>2019-07-04T08:36:21.000Z</time>
      </trkpt>
      <trkpt lat="47.31243" lon="-2.29245">
        <ele>1.6000000238419</ele>
        <time>2019-07-04T08:36:30.000Z</time>
      </trkpt>
      <trkpt lat="47.31258" lon="-2.29305">
        <ele>1.6000000238419</ele>
        <time>2019-07-04T08:36:38.000Z</time>
      </trkpt>
      <trkpt lat="47.3127" lon="-2.2934">
        <ele>1.6000000238419</ele>
        <time>2019-07-04T08:36:44.000Z</time>
      </trkpt>
      <trkpt lat="47.31273" lon="-2.2934">
        <ele>1.6000000238419</ele>
        <time>2019-07-04T08:36:45.000Z</time>
      </trkpt>
      <trkpt lat="47.31277" lon="-2.29335">
        <ele>1.6000000238419</ele>
        <time>2019-07-04T08:36:47.000Z</time>
      </trkpt>
      <trkpt lat="47.31289" lon="-2.29315">
        <ele>2</ele>
        <time>2019-07-04T08:36:51.000Z</time>
      </trkpt>
      <trkpt lat="47.31292" lon="-2.2931">
        <ele>2.4000000953674</ele>
        <time>2019-07-04T08:36:52.000Z</time>
      </trkpt>
      <trkpt lat="47.31296" lon="-2.29306">
        <ele>2.7999999523163</ele>
        <time>2019-07-04T08:36:53.000Z</time>
      </trkpt>
      <trkpt lat="47.31301" lon="-2.29302">
        <ele>3.2000000476837</ele>
        <time>2019-07-04T08:36:54.000Z</time>
      </trkpt>
      <trkpt lat="47.31306" lon="-2.293">
        <ele>3.5999999046326</ele>
        <time>2019-07-04T08:36:55.000Z</time>
      </trkpt>
      <trkpt lat="47.31311" lon="-2.29299">
        <ele>3.5999999046326</ele>
        <time>2019-07-04T08:36:56.000Z</time>
      </trkpt>
      <trkpt lat="47.31331" lon="-2.29301">
        <ele>3.5999999046326</ele>
        <time>2019-07-04T08:37:00.000Z</time>
      </trkpt>
      <trkpt lat="47.31336" lon="-2.29302">
        <ele>3.5999999046326</ele>
        <time>2019-07-04T08:37:01.000Z</time>
      </trkpt>
      <trkpt lat="47.3136" lon="-2.29311">
        <ele>3.5999999046326</ele>
        <time>2019-07-04T08:37:06.000Z</time>
      </trkpt>
      <trkpt lat="47.31391" lon="-2.29325">
        <ele>3.5999999046326</ele>
        <time>2019-07-04T08:37:13.000Z</time>
      </trkpt>
      <trkpt lat="47.31395" lon="-2.29327">
        <ele>3.5999999046326</ele>
        <time>2019-07-04T08:37:14.000Z</time>
      </trkpt>
      <trkpt lat="47.31407" lon="-2.29335">
        <ele>3.5999999046326</ele>
        <time>2019-07-04T08:37:17.000Z</time>
      </trkpt>
      <trkpt lat="47.31416" lon="-2.29341">
        <ele>3.5999999046326</ele>
        <time>2019-07-04T08:37:19.000Z</time>
      </trkpt>
      <trkpt lat="47.31428" lon="-2.29355">
        <ele>3.5999999046326</ele>
        <time>2019-07-04T08:37:23.000Z</time>
      </trkpt>
      <trkpt lat="47.31437" lon="-2.29367">
        <ele>4</ele>
        <time>2019-07-04T08:37:26.000Z</time>
      </trkpt>
      <trkpt lat="47.31439" lon="-2.29372">
        <ele>4.4000000953674</ele>
        <time>2019-07-04T08:37:27.000Z</time>
      </trkpt>
      <trkpt lat="47.31442" lon="-2.29376">
        <ele>5</ele>
        <time>2019-07-04T08:37:28.000Z</time>
      </trkpt>
      <trkpt lat="47.31445" lon="-2.2938">
        <ele>5.4000000953674</ele>
        <time>2019-07-04T08:37:29.000Z</time>
      </trkpt>
      <trkpt lat="47.31448" lon="-2.29384">
        <ele>5.8000001907349</ele>
        <time>2019-07-04T08:37:30.000Z</time>
      </trkpt>
      <trkpt lat="47.31456" lon="-2.29395">
        <ele>5.8000001907349</ele>
        <time>2019-07-04T08:37:33.000Z</time>
      </trkpt>
      <trkpt lat="47.3147" lon="-2.294">
        <ele>5.8000001907349</ele>
        <time>2019-07-04T08:37:37.000Z</time>
      </trkpt>
      <trkpt lat="47.31491" lon="-2.29396">
        <ele>5.8000001907349</ele>
        <time>2019-07-04T08:37:42.000Z</time>
      </trkpt>
      <trkpt lat="47.31499" lon="-2.29396">
        <ele>5.8000001907349</ele>
        <time>2019-07-04T08:37:44.000Z</time>
      </trkpt>
      <trkpt lat="47.3151" lon="-2.29404">
        <ele>5.8000001907349</ele>
        <time>2019-07-04T08:37:47.000Z</time>
      </trkpt>
      <trkpt lat="47.31516" lon="-2.29414">
        <ele>6.1999998092651</ele>
        <time>2019-07-04T08:37:49.000Z</time>
      </trkpt>
      <trkpt lat="47.3152" lon="-2.29419">
        <ele>6.5999999046326</ele>
        <time>2019-07-04T08:37:50.000Z</time>
      </trkpt>
      <trkpt lat="47.31523" lon="-2.29424">
        <ele>7</ele>
        <time>2019-07-04T08:37:51.000Z</time>
      </trkpt>
      <trkpt lat="47.31525" lon="-2.2943">
        <ele>7.4000000953674</ele>
        <time>2019-07-04T08:37:52.000Z</time>
      </trkpt>
      <trkpt lat="47.31527" lon="-2.29434">
        <ele>7.8000001907349</ele>
        <time>2019-07-04T08:37:53.000Z</time>
      </trkpt>
      <trkpt lat="47.31533" lon="-2.29448">
        <ele>7.8000001907349</ele>
        <time>2019-07-04T08:37:56.000Z</time>
      </trkpt>
      <trkpt lat="47.31541" lon="-2.29471">
        <ele>7.8000001907349</ele>
        <time>2019-07-04T08:38:01.000Z</time>
      </trkpt>
      <trkpt lat="47.31544" lon="-2.2949">
        <ele>8.1999998092651</ele>
        <time>2019-07-04T08:38:05.000Z</time>
      </trkpt>
      <trkpt lat="47.31546" lon="-2.29495">
        <ele>8.6000003814697</ele>
        <time>2019-07-04T08:38:06.000Z</time>
      </trkpt>
      <trkpt lat="47.31547" lon="-2.29501">
        <ele>9</ele>
        <time>2019-07-04T08:38:07.000Z</time>
      </trkpt>
      <trkpt lat="47.31548" lon="-2.29507">
        <ele>9.3999996185303</ele>
        <time>2019-07-04T08:38:08.000Z</time>
      </trkpt>
      <trkpt lat="47.3155" lon="-2.29513">
        <ele>9.8000001907349</ele>
        <time>2019-07-04T08:38:09.000Z</time>
      </trkpt>
      <trkpt lat="47.31557" lon="-2.29537">
        <ele>9.8000001907349</ele>
        <time>2019-07-04T08:38:13.000Z</time>
      </trkpt>
      <trkpt lat="47.31568" lon="-2.29559">
        <ele>9.8000001907349</ele>
        <time>2019-07-04T08:38:18.000Z</time>
      </trkpt>
      <trkpt lat="47.31583" lon="-2.29582">
        <ele>9.8000001907349</ele>
        <time>2019-07-04T08:38:24.000Z</time>
      </trkpt>
      <trkpt lat="47.31602" lon="-2.296">
        <ele>9.8000001907349</ele>
        <time>2019-07-04T08:38:30.000Z</time>
      </trkpt>
      <trkpt lat="47.31612" lon="-2.29611">
        <ele>9.8000001907349</ele>
        <time>2019-07-04T08:38:33.000Z</time>
      </trkpt>
      <trkpt lat="47.31617" lon="-2.2962">
        <ele>9.8000001907349</ele>
        <time>2019-07-04T08:38:35.000Z</time>
      </trkpt>
      <trkpt lat="47.3163" lon="-2.29643">
        <ele>9.8000001907349</ele>
        <time>2019-07-04T08:38:40.000Z</time>
      </trkpt>
      <trkpt lat="47.31642" lon="-2.29673">
        <ele>9.8000001907349</ele>
        <time>2019-07-04T08:38:46.000Z</time>
      </trkpt>
      <trkpt lat="47.31652" lon="-2.29704">
        <ele>9.8000001907349</ele>
        <time>2019-07-04T08:38:51.000Z</time>
      </trkpt>
      <trkpt lat="47.31655" lon="-2.29711">
        <ele>9.8000001907349</ele>
        <time>2019-07-04T08:38:52.000Z</time>
      </trkpt>
      <trkpt lat="47.31662" lon="-2.29728">
        <ele>10.199999809265</ele>
        <time>2019-07-04T08:38:55.000Z</time>
      </trkpt>
      <trkpt lat="47.31665" lon="-2.29733">
        <ele>10.60000038147</ele>
        <time>2019-07-04T08:38:56.000Z</time>
      </trkpt>
      <trkpt lat="47.31669" lon="-2.29736">
        <ele>11</ele>
        <time>2019-07-04T08:38:57.000Z</time>
      </trkpt>
      <trkpt lat="47.31673" lon="-2.29738">
        <ele>11.39999961853</ele>
        <time>2019-07-04T08:38:58.000Z</time>
      </trkpt>
      <trkpt lat="47.31678" lon="-2.29738">
        <ele>11.800000190735</ele>
        <time>2019-07-04T08:38:59.000Z</time>
      </trkpt>
      <trkpt lat="47.3169" lon="-2.29735">
        <ele>11.800000190735</ele>
        <time>2019-07-04T08:39:02.000Z</time>
      </trkpt>
      <trkpt lat="47.31698" lon="-2.29733">
        <ele>11.800000190735</ele>
        <time>2019-07-04T08:39:04.000Z</time>
      </trkpt>
      <trkpt lat="47.31716" lon="-2.29722">
        <ele>11.800000190735</ele>
        <time>2019-07-04T08:39:09.000Z</time>
      </trkpt>
      <trkpt lat="47.31742" lon="-2.29701">
        <ele>11.800000190735</ele>
        <time>2019-07-04T08:39:15.000Z</time>
      </trkpt>
      <trkpt lat="47.31777" lon="-2.29673">
        <ele>11.800000190735</ele>
        <time>2019-07-04T08:39:22.000Z</time>
      </trkpt>
      <trkpt lat="47.31812" lon="-2.29649">
        <ele>11.800000190735</ele>
        <time>2019-07-04T08:39:29.000Z</time>
      </trkpt>
      <trkpt lat="47.31858" lon="-2.29621">
        <ele>11.800000190735</ele>
        <time>2019-07-04T08:39:38.000Z</time>
      </trkpt>
      <trkpt lat="47.31873" lon="-2.29597">
        <ele>11.800000190735</ele>
        <time>2019-07-04T08:39:42.000Z</time>
      </trkpt>
      <trkpt lat="47.31873" lon="-2.29572">
        <ele>11.800000190735</ele>
        <time>2019-07-04T08:39:45.000Z</time>
      </trkpt>
      <trkpt lat="47.31867" lon="-2.29549">
        <ele>11.800000190735</ele>
        <time>2019-07-04T08:39:48.000Z</time>
      </trkpt>
      <trkpt lat="47.31865" lon="-2.29541">
        <ele>11.800000190735</ele>
        <time>2019-07-04T08:39:49.000Z</time>
      </trkpt>
      <trkpt lat="47.31849" lon="-2.29484">
        <ele>11.800000190735</ele>
        <time>2019-07-04T08:39:56.000Z</time>
      </trkpt>
      <trkpt lat="47.31849" lon="-2.29448">
        <ele>11.800000190735</ele>
        <time>2019-07-04T08:40:00.000Z</time>
      </trkpt>
      <trkpt lat="47.31851" lon="-2.29401">
        <ele>11.800000190735</ele>
        <time>2019-07-04T08:40:05.000Z</time>
      </trkpt>
      <trkpt lat="47.31851" lon="-2.29392">
        <ele>11.800000190735</ele>
        <time>2019-07-04T08:40:06.000Z</time>
      </trkpt>
      <trkpt lat="47.31849" lon="-2.29383">
        <ele>11.800000190735</ele>
        <time>2019-07-04T08:40:07.000Z</time>
      </trkpt>
      <trkpt lat="47.3184" lon="-2.29347">
        <ele>11.800000190735</ele>
        <time>2019-07-04T08:40:11.000Z</time>
      </trkpt>
      <trkpt lat="47.31834" lon="-2.29287">
        <ele>11.39999961853</ele>
        <time>2019-07-04T08:40:17.000Z</time>
      </trkpt>
      <trkpt lat="47.31833" lon="-2.29276">
        <ele>11</ele>
        <time>2019-07-04T08:40:18.000Z</time>
      </trkpt>
      <trkpt lat="47.31832" lon="-2.29265">
        <ele>10.39999961853</ele>
        <time>2019-07-04T08:40:19.000Z</time>
      </trkpt>
      <trkpt lat="47.3183" lon="-2.29254">
        <ele>10</ele>
        <time>2019-07-04T08:40:20.000Z</time>
      </trkpt>
      <trkpt lat="47.31828" lon="-2.29243">
        <ele>9.6000003814697</ele>
        <time>2019-07-04T08:40:21.000Z</time>
      </trkpt>
      <trkpt lat="47.31826" lon="-2.29221">
        <ele>9.6000003814697</ele>
        <time>2019-07-04T08:40:23.000Z</time>
      </trkpt>
      <trkpt lat="47.31828" lon="-2.29173">
        <ele>9.6000003814697</ele>
        <time>2019-07-04T08:40:27.000Z</time>
      </trkpt>
      <trkpt lat="47.3183" lon="-2.29148">
        <ele>8.6000003814697</ele>
        <time>2019-07-04T08:40:29.000Z</time>
      </trkpt>
      <trkpt lat="47.31832" lon="-2.29136">
        <ele>8</ele>
        <time>2019-07-04T08:40:30.000Z</time>
      </trkpt>
      <trkpt lat="47.31834" lon="-2.29123">
        <ele>7.4000000953674</ele>
        <time>2019-07-04T08:40:31.000Z</time>
      </trkpt>
      <trkpt lat="47.31836" lon="-2.29111">
        <ele>7</ele>
        <time>2019-07-04T08:40:32.000Z</time>
      </trkpt>
      <trkpt lat="47.31837" lon="-2.291">
        <ele>6.4000000953674</ele>
        <time>2019-07-04T08:40:33.000Z</time>
      </trkpt>
      <trkpt lat="47.31839" lon="-2.29089">
        <ele>6</ele>
        <time>2019-07-04T08:40:34.000Z</time>
      </trkpt>
      <trkpt lat="47.31841" lon="-2.29078">
        <ele>5.4000000953674</ele>
        <time>2019-07-04T08:40:35.000Z</time>
      </trkpt>
      <trkpt lat="47.31843" lon="-2.29067">
        <ele>4.8000001907349</ele>
        <time>2019-07-04T08:40:36.000Z</time>
      </trkpt>
      <trkpt lat="47.31851" lon="-2.29036">
        <ele>4.8000001907349</ele>
        <time>2019-07-04T08:40:39.000Z</time>
      </trkpt>
      <trkpt lat="47.31859" lon="-2.28984">
        <ele>4.4000000953674</ele>
        <time>2019-07-04T08:40:44.000Z</time>
      </trkpt>
      <trkpt lat="47.3186" lon="-2.28974">
        <ele>4</ele>
        <time>2019-07-04T08:40:45.000Z</time>
      </trkpt>
      <trkpt lat="47.31861" lon="-2.28965">
        <ele>3.4000000953674</ele>
        <time>2019-07-04T08:40:46.000Z</time>
      </trkpt>
      <trkpt lat="47.31862" lon="-2.28957">
        <ele>3</ele>
        <time>2019-07-04T08:40:47.000Z</time>
      </trkpt>
      <trkpt lat="47.31863" lon="-2.28951">
        <ele>2.5999999046326</ele>
        <time>2019-07-04T08:40:48.000Z</time>
      </trkpt>
      <trkpt lat="47.31864" lon="-2.28945">
        <ele>2.5999999046326</ele>
        <time>2019-07-04T08:40:49.000Z</time>
      </trkpt>
      <trkpt lat="47.31875" lon="-2.28941">
        <ele>2</ele>
        <time>2019-07-04T08:40:52.000Z</time>
      </trkpt>
      <trkpt lat="47.3188" lon="-2.28941">
        <ele>1.6000000238419</ele>
        <time>2019-07-04T08:40:53.000Z</time>
      </trkpt>
      <trkpt lat="47.31884" lon="-2.28941">
        <ele>0.80000001192093</ele>
        <time>2019-07-04T08:40:54.000Z</time>
      </trkpt>
      <trkpt lat="47.31889" lon="-2.2894">
        <ele>0.40000000596046</ele>
        <time>2019-07-04T08:40:55.000Z</time>
      </trkpt>
      <trkpt lat="47.319" lon="-2.28937">
        <ele>0.40000000596046</ele>
        <time>2019-07-04T08:40:57.000Z</time>
      </trkpt>
      <trkpt lat="47.31904" lon="-2.28934">
        <ele>0.40000000596046</ele>
        <time>2019-07-04T08:40:58.000Z</time>
      </trkpt>
      <trkpt lat="47.31916" lon="-2.2892">
        <ele>0.40000000596046</ele>
        <time>2019-07-04T08:41:01.000Z</time>
      </trkpt>
      <trkpt lat="47.31937" lon="-2.28903">
        <ele>0.40000000596046</ele>
        <time>2019-07-04T08:41:06.000Z</time>
      </trkpt>
      <trkpt lat="47.31942" lon="-2.289">
        <ele>0.40000000596046</ele>
        <time>2019-07-04T08:41:07.000Z</time>
      </trkpt>
      <trkpt lat="47.3195" lon="-2.28895">
        <ele>0.40000000596046</ele>
        <time>2019-07-04T08:41:09.000Z</time>
      </trkpt>
      <trkpt lat="47.3196" lon="-2.28892">
        <ele>0.40000000596046</ele>
        <time>2019-07-04T08:41:11.000Z</time>
      </trkpt>
      <trkpt lat="47.31995" lon="-2.28885">
        <ele>0.40000000596046</ele>
        <time>2019-07-04T08:41:17.000Z</time>
      </trkpt>
      <trkpt lat="47.32012" lon="-2.28879">
        <ele>0.40000000596046</ele>
        <time>2019-07-04T08:41:20.000Z</time>
      </trkpt>
      <trkpt lat="47.32023" lon="-2.28874">
        <ele>0.40000000596046</ele>
        <time>2019-07-04T08:41:22.000Z</time>
      </trkpt>
      <trkpt lat="47.32027" lon="-2.28871">
        <ele>0.40000000596046</ele>
        <time>2019-07-04T08:41:23.000Z</time>
      </trkpt>
      <trkpt lat="47.32039" lon="-2.28878">
        <ele>0.40000000596046</ele>
        <time>2019-07-04T08:41:26.000Z</time>
      </trkpt>
      <trkpt lat="47.32043" lon="-2.289">
        <ele>0.40000000596046</ele>
        <time>2019-07-04T08:41:29.000Z</time>
      </trkpt>
      <trkpt lat="47.32044" lon="-2.28907">
        <ele>0.40000000596046</ele>
        <time>2019-07-04T08:41:30.000Z</time>
      </trkpt>
      <trkpt lat="47.32051" lon="-2.28942">
        <ele>0.40000000596046</ele>
        <time>2019-07-04T08:41:35.000Z</time>
      </trkpt>
      <trkpt lat="47.32061" lon="-2.2895">
        <ele>0.40000000596046</ele>
        <time>2019-07-04T08:41:38.000Z</time>
      </trkpt>
      <trkpt lat="47.32065" lon="-2.28953">
        <ele>0.40000000596046</ele>
        <time>2019-07-04T08:41:39.000Z</time>
      </trkpt>
      <trkpt lat="47.32084" lon="-2.28966">
        <ele>0.40000000596046</ele>
        <time>2019-07-04T08:41:43.000Z</time>
      </trkpt>
      <trkpt lat="47.32102" lon="-2.28981">
        <ele>0.40000000596046</ele>
        <time>2019-07-04T08:41:47.000Z</time>
      </trkpt>
      <trkpt lat="47.32105" lon="-2.28985">
        <ele>0.40000000596046</ele>
        <time>2019-07-04T08:41:48.000Z</time>
      </trkpt>
      <trkpt lat="47.32118" lon="-2.29009">
        <ele>0.40000000596046</ele>
        <time>2019-07-04T08:41:53.000Z</time>
      </trkpt>
      <trkpt lat="47.32133" lon="-2.29048">
        <ele>0.40000000596046</ele>
        <time>2019-07-04T08:41:59.000Z</time>
      </trkpt>
      <trkpt lat="47.32144" lon="-2.29074">
        <ele>0.80000001192093</ele>
        <time>2019-07-04T08:42:03.000Z</time>
      </trkpt>
      <trkpt lat="47.32145" lon="-2.29081">
        <ele>1.2000000476837</ele>
        <time>2019-07-04T08:42:04.000Z</time>
      </trkpt>
      <trkpt lat="47.32148" lon="-2.29087">
        <ele>1.6000000238419</ele>
        <time>2019-07-04T08:42:05.000Z</time>
      </trkpt>
      <trkpt lat="47.32151" lon="-2.29093">
        <ele>2</ele>
        <time>2019-07-04T08:42:06.000Z</time>
      </trkpt>
      <trkpt lat="47.32154" lon="-2.29099">
        <ele>2.4000000953674</ele>
        <time>2019-07-04T08:42:07.000Z</time>
      </trkpt>
      <trkpt lat="47.32168" lon="-2.29115">
        <ele>2.4000000953674</ele>
        <time>2019-07-04T08:42:10.000Z</time>
      </trkpt>
      <trkpt lat="47.322" lon="-2.29147">
        <ele>2.4000000953674</ele>
        <time>2019-07-04T08:42:16.000Z</time>
      </trkpt>
      <trkpt lat="47.32229" lon="-2.29184">
        <ele>2.4000000953674</ele>
        <time>2019-07-04T08:42:22.000Z</time>
      </trkpt>
      <trkpt lat="47.32251" lon="-2.29221">
        <ele>2.4000000953674</ele>
        <time>2019-07-04T08:42:28.000Z</time>
      </trkpt>
      <trkpt lat="47.32266" lon="-2.29222">
        <ele>2.4000000953674</ele>
        <time>2019-07-04T08:42:31.000Z</time>
      </trkpt>
      <trkpt lat="47.32277" lon="-2.29219">
        <ele>2.4000000953674</ele>
        <time>2019-07-04T08:42:33.000Z</time>
      </trkpt>
      <trkpt lat="47.32299" lon="-2.29216">
        <ele>2.4000000953674</ele>
        <time>2019-07-04T08:42:37.000Z</time>
      </trkpt>
      <trkpt lat="47.32305" lon="-2.29216">
        <ele>2.4000000953674</ele>
        <time>2019-07-04T08:42:38.000Z</time>
      </trkpt>
      <trkpt lat="47.32322" lon="-2.29222">
        <ele>2</ele>
        <time>2019-07-04T08:42:41.000Z</time>
      </trkpt>
      <trkpt lat="47.32327" lon="-2.29225">
        <ele>1.6000000238419</ele>
        <time>2019-07-04T08:42:42.000Z</time>
      </trkpt>
      <trkpt lat="47.32333" lon="-2.29228">
        <ele>1</ele>
        <time>2019-07-04T08:42:43.000Z</time>
      </trkpt>
      <trkpt lat="47.32338" lon="-2.29231">
        <ele>0.60000002384186</ele>
        <time>2019-07-04T08:42:44.000Z</time>
      </trkpt>
      <trkpt lat="47.32344" lon="-2.29234">
        <ele>0.20000000298023</ele>
        <time>2019-07-04T08:42:45.000Z</time>
      </trkpt>
      <trkpt lat="47.32355" lon="-2.2924">
        <ele>0.20000000298023</ele>
        <time>2019-07-04T08:42:47.000Z</time>
      </trkpt>
      <trkpt lat="47.324" lon="-2.29264">
        <ele>0.20000000298023</ele>
        <time>2019-07-04T08:42:55.000Z</time>
      </trkpt>
      <trkpt lat="47.32416" lon="-2.29286">
        <ele>0.20000000298023</ele>
        <time>2019-07-04T08:42:59.000Z</time>
      </trkpt>
      <trkpt lat="47.32418" lon="-2.29293">
        <ele>0.20000000298023</ele>
        <time>2019-07-04T08:43:00.000Z</time>
      </trkpt>
      <trkpt lat="47.32422" lon="-2.29317">
        <ele>0.20000000298023</ele>
        <time>2019-07-04T08:43:04.000Z</time>
      </trkpt>
      <trkpt lat="47.32423" lon="-2.29334">
        <ele>0.20000000298023</ele>
        <time>2019-07-04T08:43:07.000Z</time>
      </trkpt>
      <trkpt lat="47.32425" lon="-2.29349">
        <ele>0.20000000298023</ele>
        <time>2019-07-04T08:43:09.000Z</time>
      </trkpt>
      <trkpt lat="47.32432" lon="-2.29399">
        <ele>0.20000000298023</ele>
        <time>2019-07-04T08:43:15.000Z</time>
      </trkpt>
      <trkpt lat="47.32441" lon="-2.29452">
        <ele>0.20000000298023</ele>
        <time>2019-07-04T08:43:22.000Z</time>
      </trkpt>
      <trkpt lat="47.32442" lon="-2.2946">
        <ele>0.80000001192093</ele>
        <time>2019-07-04T08:43:23.000Z</time>
      </trkpt>
      <trkpt lat="47.32443" lon="-2.29467">
        <ele>1.2000000476837</ele>
        <time>2019-07-04T08:43:24.000Z</time>
      </trkpt>
      <trkpt lat="47.32445" lon="-2.29475">
        <ele>1.6000000238419</ele>
        <time>2019-07-04T08:43:25.000Z</time>
      </trkpt>
      <trkpt lat="47.32446" lon="-2.29482">
        <ele>2</ele>
        <time>2019-07-04T08:43:26.000Z</time>
      </trkpt>
      <trkpt lat="47.32448" lon="-2.29489">
        <ele>2.4000000953674</ele>
        <time>2019-07-04T08:43:27.000Z</time>
      </trkpt>
      <trkpt lat="47.3245" lon="-2.29496">
        <ele>2.7999999523163</ele>
        <time>2019-07-04T08:43:28.000Z</time>
      </trkpt>
      <trkpt lat="47.32452" lon="-2.29502">
        <ele>3.2000000476837</ele>
        <time>2019-07-04T08:43:29.000Z</time>
      </trkpt>
      <trkpt lat="47.32455" lon="-2.29509">
        <ele>3.5999999046326</ele>
        <time>2019-07-04T08:43:30.000Z</time>
      </trkpt>
      <trkpt lat="47.32456" lon="-2.29515">
        <ele>4.1999998092651</ele>
        <time>2019-07-04T08:43:31.000Z</time>
      </trkpt>
      <trkpt lat="47.32459" lon="-2.29522">
        <ele>4.5999999046326</ele>
        <time>2019-07-04T08:43:32.000Z</time>
      </trkpt>
      <trkpt lat="47.32466" lon="-2.29542">
        <ele>4.5999999046326</ele>
        <time>2019-07-04T08:43:35.000Z</time>
      </trkpt>
      <trkpt lat="47.32476" lon="-2.29572">
        <ele>5</ele>
        <time>2019-07-04T08:43:40.000Z</time>
      </trkpt>
      <trkpt lat="47.32478" lon="-2.29578">
        <ele>5.4000000953674</ele>
        <time>2019-07-04T08:43:41.000Z</time>
      </trkpt>
      <trkpt lat="47.3248" lon="-2.29585">
        <ele>5.8000001907349</ele>
        <time>2019-07-04T08:43:42.000Z</time>
      </trkpt>
      <trkpt lat="47.32482" lon="-2.29591">
        <ele>6.1999998092651</ele>
        <time>2019-07-04T08:43:43.000Z</time>
      </trkpt>
      <trkpt lat="47.32484" lon="-2.29597">
        <ele>6.5999999046326</ele>
        <time>2019-07-04T08:43:44.000Z</time>
      </trkpt>
      <trkpt lat="47.32491" lon="-2.29622">
        <ele>7.4000000953674</ele>
        <time>2019-07-04T08:43:48.000Z</time>
      </trkpt>
      <trkpt lat="47.32493" lon="-2.29628">
        <ele>7.8000001907349</ele>
        <time>2019-07-04T08:43:49.000Z</time>
      </trkpt>
      <trkpt lat="47.32495" lon="-2.29635">
        <ele>8.1999998092651</ele>
        <time>2019-07-04T08:43:50.000Z</time>
      </trkpt>
      <trkpt lat="47.32496" lon="-2.29641">
        <ele>8.6000003814697</ele>
        <time>2019-07-04T08:43:51.000Z</time>
      </trkpt>
      <trkpt lat="47.32501" lon="-2.29661">
        <ele>9</ele>
        <time>2019-07-04T08:43:54.000Z</time>
      </trkpt>
      <trkpt lat="47.32503" lon="-2.29668">
        <ele>9.3999996185303</ele>
        <time>2019-07-04T08:43:55.000Z</time>
      </trkpt>
      <trkpt lat="47.32504" lon="-2.29674">
        <ele>9.8000001907349</ele>
        <time>2019-07-04T08:43:56.000Z</time>
      </trkpt>
      <trkpt lat="47.32506" lon="-2.29681">
        <ele>10.39999961853</ele>
        <time>2019-07-04T08:43:57.000Z</time>
      </trkpt>
      <trkpt lat="47.32508" lon="-2.29688">
        <ele>10.800000190735</ele>
        <time>2019-07-04T08:43:58.000Z</time>
      </trkpt>
      <trkpt lat="47.32517" lon="-2.29727">
        <ele>10.800000190735</ele>
        <time>2019-07-04T08:44:04.000Z</time>
      </trkpt>
      <trkpt lat="47.32523" lon="-2.29749">
        <ele>11.199999809265</ele>
        <time>2019-07-04T08:44:07.000Z</time>
      </trkpt>
      <trkpt lat="47.32525" lon="-2.29755">
        <ele>11.60000038147</ele>
        <time>2019-07-04T08:44:08.000Z</time>
      </trkpt>
      <trkpt lat="47.32527" lon="-2.29761">
        <ele>12</ele>
        <time>2019-07-04T08:44:09.000Z</time>
      </trkpt>
      <trkpt lat="47.32529" lon="-2.29767">
        <ele>12.39999961853</ele>
        <time>2019-07-04T08:44:10.000Z</time>
      </trkpt>
      <trkpt lat="47.32531" lon="-2.29773">
        <ele>12.800000190735</ele>
        <time>2019-07-04T08:44:11.000Z</time>
      </trkpt>
      <trkpt lat="47.32534" lon="-2.29795">
        <ele>12.800000190735</ele>
        <time>2019-07-04T08:44:15.000Z</time>
      </trkpt>
      <trkpt lat="47.32529" lon="-2.29798">
        <ele>12.800000190735</ele>
        <time>2019-07-04T08:44:16.000Z</time>
      </trkpt>
      <trkpt lat="47.32527" lon="-2.29801">
        <ele>12.800000190735</ele>
        <time>2019-07-04T08:44:17.000Z</time>
      </trkpt>
      <trkpt lat="47.32505" lon="-2.2983">
        <ele>12.800000190735</ele>
        <time>2019-07-04T08:44:24.000Z</time>
      </trkpt>
      <trkpt lat="47.32482" lon="-2.29846">
        <ele>12.800000190735</ele>
        <time>2019-07-04T08:44:28.000Z</time>
      </trkpt>
      <trkpt lat="47.32465" lon="-2.29858">
        <ele>12.800000190735</ele>
        <time>2019-07-04T08:44:31.000Z</time>
      </trkpt>
      <trkpt lat="47.32456" lon="-2.29872">
        <ele>12.800000190735</ele>
        <time>2019-07-04T08:44:33.000Z</time>
      </trkpt>
      <trkpt lat="47.32454" lon="-2.29896">
        <ele>12.800000190735</ele>
        <time>2019-07-04T08:44:36.000Z</time>
      </trkpt>
      <trkpt lat="47.32455" lon="-2.29911">
        <ele>12.800000190735</ele>
        <time>2019-07-04T08:44:38.000Z</time>
      </trkpt>
      <trkpt lat="47.32456" lon="-2.29937">
        <ele>12.800000190735</ele>
        <time>2019-07-04T08:44:42.000Z</time>
      </trkpt>
      <trkpt lat="47.32452" lon="-2.29942">
        <ele>12.800000190735</ele>
        <time>2019-07-04T08:44:43.000Z</time>
      </trkpt>
      <trkpt lat="47.32447" lon="-2.2995">
        <ele>12.800000190735</ele>
        <time>2019-07-04T08:44:45.000Z</time>
      </trkpt>
      <trkpt lat="47.32452" lon="-2.29964">
        <ele>12.800000190735</ele>
        <time>2019-07-04T08:44:48.000Z</time>
      </trkpt>
      <trkpt lat="47.32457" lon="-2.29971">
        <ele>12.800000190735</ele>
        <time>2019-07-04T08:44:50.000Z</time>
      </trkpt>
      <trkpt lat="47.32463" lon="-2.29982">
        <ele>12.800000190735</ele>
        <time>2019-07-04T08:44:53.000Z</time>
      </trkpt>
      <trkpt lat="47.32473" lon="-2.29998">
        <ele>12.800000190735</ele>
        <time>2019-07-04T08:44:59.000Z</time>
      </trkpt>
      <trkpt lat="47.32479" lon="-2.30008">
        <ele>12.800000190735</ele>
        <time>2019-07-04T08:45:05.000Z</time>
      </trkpt>
      <trkpt lat="47.32483" lon="-2.3002">
        <ele>12.800000190735</ele>
        <time>2019-07-04T08:45:11.000Z</time>
      </trkpt>
      <trkpt lat="47.32484" lon="-2.30022">
        <ele>12.800000190735</ele>
        <time>2019-07-04T08:45:14.000Z</time>
      </trkpt>
      <trkpt lat="47.32485" lon="-2.30024">
        <ele>12.800000190735</ele>
        <time>2019-07-04T08:45:17.000Z</time>
      </trkpt>
      <trkpt lat="47.32485" lon="-2.30026">
        <ele>12.800000190735</ele>
        <time>2019-07-04T08:45:18.000Z</time>
      </trkpt>
      <trkpt lat="47.32491" lon="-2.30048">
        <ele>12.800000190735</ele>
        <time>2019-07-04T08:45:24.000Z</time>
      </trkpt>
      <trkpt lat="47.32497" lon="-2.30078">
        <ele>12.800000190735</ele>
        <time>2019-07-04T08:45:30.000Z</time>
      </trkpt>
      <trkpt lat="47.32502" lon="-2.30129">
        <ele>12.800000190735</ele>
        <time>2019-07-04T08:45:37.000Z</time>
      </trkpt>
      <trkpt lat="47.32509" lon="-2.3018">
        <ele>12.800000190735</ele>
        <time>2019-07-04T08:45:43.000Z</time>
      </trkpt>
      <trkpt lat="47.32517" lon="-2.30238">
        <ele>12.800000190735</ele>
        <time>2019-07-04T08:45:49.000Z</time>
      </trkpt>
      <trkpt lat="47.32526" lon="-2.30299">
        <ele>12.800000190735</ele>
        <time>2019-07-04T08:45:55.000Z</time>
      </trkpt>
      <trkpt lat="47.32537" lon="-2.30357">
        <ele>12.39999961853</ele>
        <time>2019-07-04T08:46:01.000Z</time>
      </trkpt>
      <trkpt lat="47.32539" lon="-2.30366">
        <ele>12</ele>
        <time>2019-07-04T08:46:02.000Z</time>
      </trkpt>
      <trkpt lat="47.32541" lon="-2.30374">
        <ele>11.60000038147</ele>
        <time>2019-07-04T08:46:03.000Z</time>
      </trkpt>
      <trkpt lat="47.32543" lon="-2.30383">
        <ele>11</ele>
        <time>2019-07-04T08:46:04.000Z</time>
      </trkpt>
      <trkpt lat="47.32544" lon="-2.30392">
        <ele>10.60000038147</ele>
        <time>2019-07-04T08:46:05.000Z</time>
      </trkpt>
      <trkpt lat="47.32545" lon="-2.30399">
        <ele>10.60000038147</ele>
        <time>2019-07-04T08:46:06.000Z</time>
      </trkpt>
      <trkpt lat="47.32538" lon="-2.30408">
        <ele>10.60000038147</ele>
        <time>2019-07-04T08:46:08.000Z</time>
      </trkpt>
      <trkpt lat="47.3252" lon="-2.30412">
        <ele>10.60000038147</ele>
        <time>2019-07-04T08:46:11.000Z</time>
      </trkpt>
      <trkpt lat="47.32503" lon="-2.30421">
        <ele>10.60000038147</ele>
        <time>2019-07-04T08:46:14.000Z</time>
      </trkpt>
      <trkpt lat="47.32499" lon="-2.30428">
        <ele>10.60000038147</ele>
        <time>2019-07-04T08:46:15.000Z</time>
      </trkpt>
      <trkpt lat="47.325" lon="-2.3045">
        <ele>10.60000038147</ele>
        <time>2019-07-04T08:46:18.000Z</time>
      </trkpt>
      <trkpt lat="47.32504" lon="-2.30467">
        <ele>10.60000038147</ele>
        <time>2019-07-04T08:46:20.000Z</time>
      </trkpt>
      <trkpt lat="47.32509" lon="-2.30487">
        <ele>10.60000038147</ele>
        <time>2019-07-04T08:46:22.000Z</time>
      </trkpt>
      <trkpt lat="47.32522" lon="-2.30555">
        <ele>10.60000038147</ele>
        <time>2019-07-04T08:46:29.000Z</time>
      </trkpt>
      <trkpt lat="47.32527" lon="-2.30584">
        <ele>10.199999809265</ele>
        <time>2019-07-04T08:46:32.000Z</time>
      </trkpt>
      <trkpt lat="47.32529" lon="-2.30594">
        <ele>9.8000001907349</ele>
        <time>2019-07-04T08:46:33.000Z</time>
      </trkpt>
      <trkpt lat="47.3253" lon="-2.30604">
        <ele>9.3999996185303</ele>
        <time>2019-07-04T08:46:34.000Z</time>
      </trkpt>
      <trkpt lat="47.32532" lon="-2.30614">
        <ele>9</ele>
        <time>2019-07-04T08:46:35.000Z</time>
      </trkpt>
      <trkpt lat="47.32534" lon="-2.30624">
        <ele>8.6000003814697</ele>
        <time>2019-07-04T08:46:36.000Z</time>
      </trkpt>
      <trkpt lat="47.32536" lon="-2.30633">
        <ele>8.6000003814697</ele>
        <time>2019-07-04T08:46:37.000Z</time>
      </trkpt>
      <trkpt lat="47.32546" lon="-2.30675">
        <ele>8.6000003814697</ele>
        <time>2019-07-04T08:46:42.000Z</time>
      </trkpt>
      <trkpt lat="47.32553" lon="-2.30723">
        <ele>8.6000003814697</ele>
        <time>2019-07-04T08:46:47.000Z</time>
      </trkpt>
      <trkpt lat="47.32555" lon="-2.30732">
        <ele>8.6000003814697</ele>
        <time>2019-07-04T08:46:48.000Z</time>
      </trkpt>
      <trkpt lat="47.32557" lon="-2.30742">
        <ele>8.1999998092651</ele>
        <time>2019-07-04T08:46:49.000Z</time>
      </trkpt>
      <trkpt lat="47.32558" lon="-2.30751">
        <ele>7.8000001907349</ele>
        <time>2019-07-04T08:46:50.000Z</time>
      </trkpt>
      <trkpt lat="47.3256" lon="-2.30761">
        <ele>7.1999998092651</ele>
        <time>2019-07-04T08:46:51.000Z</time>
      </trkpt>
      <trkpt lat="47.32561" lon="-2.3077">
        <ele>6.8000001907349</ele>
        <time>2019-07-04T08:46:52.000Z</time>
      </trkpt>
      <trkpt lat="47.32563" lon="-2.3078">
        <ele>6.4000000953674</ele>
        <time>2019-07-04T08:46:53.000Z</time>
      </trkpt>
      <trkpt lat="47.32565" lon="-2.30791">
        <ele>6.4000000953674</ele>
        <time>2019-07-04T08:46:54.000Z</time>
      </trkpt>
      <trkpt lat="47.3257" lon="-2.3085">
        <ele>6.4000000953674</ele>
        <time>2019-07-04T08:47:00.000Z</time>
      </trkpt>
      <trkpt lat="47.32571" lon="-2.30895">
        <ele>6.4000000953674</ele>
        <time>2019-07-04T08:47:05.000Z</time>
      </trkpt>
      <trkpt lat="47.3257" lon="-2.30905">
        <ele>6.4000000953674</ele>
        <time>2019-07-04T08:47:06.000Z</time>
      </trkpt>
      <trkpt lat="47.32569" lon="-2.30915">
        <ele>6.8000001907349</ele>
        <time>2019-07-04T08:47:07.000Z</time>
      </trkpt>
      <trkpt lat="47.32569" lon="-2.30925">
        <ele>7.1999998092651</ele>
        <time>2019-07-04T08:47:08.000Z</time>
      </trkpt>
      <trkpt lat="47.32569" lon="-2.30934">
        <ele>7.5999999046326</ele>
        <time>2019-07-04T08:47:09.000Z</time>
      </trkpt>
      <trkpt lat="47.32569" lon="-2.30943">
        <ele>8</ele>
        <time>2019-07-04T08:47:10.000Z</time>
      </trkpt>
      <trkpt lat="47.32568" lon="-2.30953">
        <ele>8.3999996185303</ele>
        <time>2019-07-04T08:47:11.000Z</time>
      </trkpt>
      <trkpt lat="47.32568" lon="-2.30996">
        <ele>8.3999996185303</ele>
        <time>2019-07-04T08:47:16.000Z</time>
      </trkpt>
      <trkpt lat="47.32569" lon="-2.31015">
        <ele>8.3999996185303</ele>
        <time>2019-07-04T08:47:18.000Z</time>
      </trkpt>
      <trkpt lat="47.32572" lon="-2.31031">
        <ele>8.3999996185303</ele>
        <time>2019-07-04T08:47:20.000Z</time>
      </trkpt>
      <trkpt lat="47.32573" lon="-2.31038">
        <ele>8.3999996185303</ele>
        <time>2019-07-04T08:47:21.000Z</time>
      </trkpt>
      <trkpt lat="47.32579" lon="-2.31076">
        <ele>8.3999996185303</ele>
        <time>2019-07-04T08:47:25.000Z</time>
      </trkpt>
      <trkpt lat="47.32579" lon="-2.31096">
        <ele>8.3999996185303</ele>
        <time>2019-07-04T08:47:27.000Z</time>
      </trkpt>
      <trkpt lat="47.32576" lon="-2.31124">
        <ele>8.3999996185303</ele>
        <time>2019-07-04T08:47:30.000Z</time>
      </trkpt>
      <trkpt lat="47.32565" lon="-2.31183">
        <ele>8.3999996185303</ele>
        <time>2019-07-04T08:47:36.000Z</time>
      </trkpt>
      <trkpt lat="47.32565" lon="-2.31191">
        <ele>8</ele>
        <time>2019-07-04T08:47:37.000Z</time>
      </trkpt>
      <trkpt lat="47.32569" lon="-2.31202">
        <ele>7.5999999046326</ele>
        <time>2019-07-04T08:47:38.000Z</time>
      </trkpt>
      <trkpt lat="47.32573" lon="-2.3121">
        <ele>7.1999998092651</ele>
        <time>2019-07-04T08:47:39.000Z</time>
      </trkpt>
      <trkpt lat="47.32575" lon="-2.3122">
        <ele>6.8000001907349</ele>
        <time>2019-07-04T08:47:40.000Z</time>
      </trkpt>
      <trkpt lat="47.32576" lon="-2.3123">
        <ele>6.4000000953674</ele>
        <time>2019-07-04T08:47:41.000Z</time>
      </trkpt>
      <trkpt lat="47.32577" lon="-2.31239">
        <ele>6.4000000953674</ele>
        <time>2019-07-04T08:47:42.000Z</time>
      </trkpt>
      <trkpt lat="47.32576" lon="-2.3125">
        <ele>6.4000000953674</ele>
        <time>2019-07-04T08:47:43.000Z</time>
      </trkpt>
      <trkpt lat="47.32574" lon="-2.31278">
        <ele>6.4000000953674</ele>
        <time>2019-07-04T08:47:46.000Z</time>
      </trkpt>
      <trkpt lat="47.32573" lon="-2.31304">
        <ele>6.4000000953674</ele>
        <time>2019-07-04T08:47:49.000Z</time>
      </trkpt>
      <trkpt lat="47.32569" lon="-2.3132">
        <ele>6.4000000953674</ele>
        <time>2019-07-04T08:47:51.000Z</time>
      </trkpt>
      <trkpt lat="47.32566" lon="-2.31327">
        <ele>6.4000000953674</ele>
        <time>2019-07-04T08:47:52.000Z</time>
      </trkpt>
      <trkpt lat="47.3256" lon="-2.31343">
        <ele>6.4000000953674</ele>
        <time>2019-07-04T08:47:54.000Z</time>
      </trkpt>
      <trkpt lat="47.32557" lon="-2.31359">
        <ele>6.4000000953674</ele>
        <time>2019-07-04T08:47:56.000Z</time>
      </trkpt>
      <trkpt lat="47.32553" lon="-2.31395">
        <ele>6.4000000953674</ele>
        <time>2019-07-04T08:48:02.000Z</time>
      </trkpt>
      <trkpt lat="47.32552" lon="-2.31396">
        <ele>6.4000000953674</ele>
        <time>2019-07-04T08:48:03.000Z</time>
      </trkpt>
      <trkpt lat="47.32552" lon="-2.314">
        <ele>6.4000000953674</ele>
        <time>2019-07-04T08:48:09.000Z</time>
      </trkpt>
      <trkpt lat="47.32552" lon="-2.31403">
        <ele>6.4000000953674</ele>
        <time>2019-07-04T08:48:10.000Z</time>
      </trkpt>
      <trkpt lat="47.32552" lon="-2.31418">
        <ele>6.4000000953674</ele>
        <time>2019-07-04T08:48:14.000Z</time>
      </trkpt>
      <trkpt lat="47.32555" lon="-2.31445">
        <ele>6.4000000953674</ele>
        <time>2019-07-04T08:48:19.000Z</time>
      </trkpt>
      <trkpt lat="47.3256" lon="-2.31478">
        <ele>6.4000000953674</ele>
        <time>2019-07-04T08:48:24.000Z</time>
      </trkpt>
      <trkpt lat="47.32561" lon="-2.31523">
        <ele>6.4000000953674</ele>
        <time>2019-07-04T08:48:29.000Z</time>
      </trkpt>
      <trkpt lat="47.32559" lon="-2.31566">
        <ele>6.4000000953674</ele>
        <time>2019-07-04T08:48:34.000Z</time>
      </trkpt>
      <trkpt lat="47.32559" lon="-2.31582">
        <ele>6.4000000953674</ele>
        <time>2019-07-04T08:48:36.000Z</time>
      </trkpt>
      <trkpt lat="47.32557" lon="-2.31588">
        <ele>6.4000000953674</ele>
        <time>2019-07-04T08:48:37.000Z</time>
      </trkpt>
      <trkpt lat="47.32548" lon="-2.31605">
        <ele>6.4000000953674</ele>
        <time>2019-07-04T08:48:40.000Z</time>
      </trkpt>
      <trkpt lat="47.3254" lon="-2.31617">
        <ele>6.4000000953674</ele>
        <time>2019-07-04T08:48:42.000Z</time>
      </trkpt>
      <trkpt lat="47.32516" lon="-2.31648">
        <ele>6.4000000953674</ele>
        <time>2019-07-04T08:48:47.000Z</time>
      </trkpt>
      <trkpt lat="47.32513" lon="-2.31656">
        <ele>6.4000000953674</ele>
        <time>2019-07-04T08:48:48.000Z</time>
      </trkpt>
      <trkpt lat="47.32509" lon="-2.31692">
        <ele>6.4000000953674</ele>
        <time>2019-07-04T08:48:52.000Z</time>
      </trkpt>
      <trkpt lat="47.32512" lon="-2.31736">
        <ele>6.4000000953674</ele>
        <time>2019-07-04T08:48:57.000Z</time>
      </trkpt>
      <trkpt lat="47.32519" lon="-2.31816">
        <ele>6.4000000953674</ele>
        <time>2019-07-04T08:49:05.000Z</time>
      </trkpt>
      <trkpt lat="47.32521" lon="-2.31846">
        <ele>6.4000000953674</ele>
        <time>2019-07-04T08:49:08.000Z</time>
      </trkpt>
      <trkpt lat="47.32519" lon="-2.31877">
        <ele>6.4000000953674</ele>
        <time>2019-07-04T08:49:11.000Z</time>
      </trkpt>
      <trkpt lat="47.32511" lon="-2.31944">
        <ele>6.4000000953674</ele>
        <time>2019-07-04T08:49:18.000Z</time>
      </trkpt>
      <trkpt lat="47.32504" lon="-2.32007">
        <ele>6.4000000953674</ele>
        <time>2019-07-04T08:49:25.000Z</time>
      </trkpt>
      <trkpt lat="47.32503" lon="-2.32053">
        <ele>6.4000000953674</ele>
        <time>2019-07-04T08:49:31.000Z</time>
      </trkpt>
      <trkpt lat="47.32502" lon="-2.3206">
        <ele>6.4000000953674</ele>
        <time>2019-07-04T08:49:32.000Z</time>
      </trkpt>
      <trkpt lat="47.32499" lon="-2.32083">
        <ele>6.4000000953674</ele>
        <time>2019-07-04T08:49:36.000Z</time>
      </trkpt>
      <trkpt lat="47.32498" lon="-2.32084">
        <ele>6.4000000953674</ele>
        <time>2019-07-04T08:49:37.000Z</time>
      </trkpt>
      <trkpt lat="47.32499" lon="-2.32086">
        <ele>6.4000000953674</ele>
        <time>2019-07-04T08:49:59.000Z</time>
      </trkpt>
      <trkpt lat="47.325" lon="-2.32089">
        <ele>6.4000000953674</ele>
        <time>2019-07-04T08:50:00.000Z</time>
      </trkpt>
      <trkpt lat="47.32507" lon="-2.32094">
        <ele>6.4000000953674</ele>
        <time>2019-07-04T08:50:03.000Z</time>
      </trkpt>
      <trkpt lat="47.3251" lon="-2.32094">
        <ele>6.4000000953674</ele>
        <time>2019-07-04T08:50:04.000Z</time>
      </trkpt>
      <trkpt lat="47.32529" lon="-2.32095">
        <ele>6.4000000953674</ele>
        <time>2019-07-04T08:50:10.000Z</time>
      </trkpt>
      <trkpt lat="47.32554" lon="-2.32094">
        <ele>6.4000000953674</ele>
        <time>2019-07-04T08:50:16.000Z</time>
      </trkpt>
      <trkpt lat="47.32579" lon="-2.32094">
        <ele>6.4000000953674</ele>
        <time>2019-07-04T08:50:21.000Z</time>
      </trkpt>
      <trkpt lat="47.32584" lon="-2.32095">
        <ele>6.4000000953674</ele>
        <time>2019-07-04T08:50:22.000Z</time>
      </trkpt>
      <trkpt lat="47.32594" lon="-2.32115">
        <ele>6.4000000953674</ele>
        <time>2019-07-04T08:50:25.000Z</time>
      </trkpt>
      <trkpt lat="47.32596" lon="-2.32124">
        <ele>5.8000001907349</ele>
        <time>2019-07-04T08:50:26.000Z</time>
      </trkpt>
      <trkpt lat="47.32596" lon="-2.32134">
        <ele>5.4000000953674</ele>
        <time>2019-07-04T08:50:27.000Z</time>
      </trkpt>
      <trkpt lat="47.32595" lon="-2.32143">
        <ele>5</ele>
        <time>2019-07-04T08:50:28.000Z</time>
      </trkpt>
      <trkpt lat="47.32593" lon="-2.32152">
        <ele>4.5999999046326</ele>
        <time>2019-07-04T08:50:29.000Z</time>
      </trkpt>
      <trkpt lat="47.32591" lon="-2.32161">
        <ele>4</ele>
        <time>2019-07-04T08:50:30.000Z</time>
      </trkpt>
      <trkpt lat="47.32584" lon="-2.32191">
        <ele>3.5999999046326</ele>
        <time>2019-07-04T08:50:33.000Z</time>
      </trkpt>
      <trkpt lat="47.3258" lon="-2.322">
        <ele>3.2000000476837</ele>
        <time>2019-07-04T08:50:34.000Z</time>
      </trkpt>
      <trkpt lat="47.32576" lon="-2.3221">
        <ele>2.7999999523163</ele>
        <time>2019-07-04T08:50:35.000Z</time>
      </trkpt>
      <trkpt lat="47.3257" lon="-2.3222">
        <ele>2.4000000953674</ele>
        <time>2019-07-04T08:50:36.000Z</time>
      </trkpt>
      <trkpt lat="47.32566" lon="-2.3223">
        <ele>2</ele>
        <time>2019-07-04T08:50:37.000Z</time>
      </trkpt>
      <trkpt lat="47.3256" lon="-2.32248">
        <ele>2</ele>
        <time>2019-07-04T08:50:39.000Z</time>
      </trkpt>
      <trkpt lat="47.32556" lon="-2.32257">
        <ele>2</ele>
        <time>2019-07-04T08:50:40.000Z</time>
      </trkpt>
      <trkpt lat="47.32549" lon="-2.32281">
        <ele>2</ele>
        <time>2019-07-04T08:50:43.000Z</time>
      </trkpt>
      <trkpt lat="47.32547" lon="-2.32288">
        <ele>2</ele>
        <time>2019-07-04T08:50:44.000Z</time>
      </trkpt>
      <trkpt lat="47.32545" lon="-2.32305">
        <ele>2.4000000953674</ele>
        <time>2019-07-04T08:50:47.000Z</time>
      </trkpt>
      <trkpt lat="47.32544" lon="-2.32309">
        <ele>2.7999999523163</ele>
        <time>2019-07-04T08:50:48.000Z</time>
      </trkpt>
      <trkpt lat="47.32544" lon="-2.32312">
        <ele>3.4000000953674</ele>
        <time>2019-07-04T08:50:49.000Z</time>
      </trkpt>
      <trkpt lat="47.32545" lon="-2.32315">
        <ele>3.7999999523163</ele>
        <time>2019-07-04T08:50:50.000Z</time>
      </trkpt>
      <trkpt lat="47.32548" lon="-2.32316">
        <ele>4.4000000953674</ele>
        <time>2019-07-04T08:50:51.000Z</time>
      </trkpt>
      <trkpt lat="47.32551" lon="-2.32317">
        <ele>4.4000000953674</ele>
        <time>2019-07-04T08:50:52.000Z</time>
      </trkpt>
      <trkpt lat="47.32558" lon="-2.32317">
        <ele>4.4000000953674</ele>
        <time>2019-07-04T08:50:54.000Z</time>
      </trkpt>
      <trkpt lat="47.32568" lon="-2.32316">
        <ele>4.4000000953674</ele>
        <time>2019-07-04T08:50:56.000Z</time>
      </trkpt>
      <trkpt lat="47.32579" lon="-2.32314">
        <ele>4.8000001907349</ele>
        <time>2019-07-04T08:50:58.000Z</time>
      </trkpt>
      <trkpt lat="47.32584" lon="-2.32313">
        <ele>5.1999998092651</ele>
        <time>2019-07-04T08:50:59.000Z</time>
      </trkpt>
      <trkpt lat="47.3259" lon="-2.32312">
        <ele>5.8000001907349</ele>
        <time>2019-07-04T08:51:00.000Z</time>
      </trkpt>
      <trkpt lat="47.32597" lon="-2.32312">
        <ele>6.1999998092651</ele>
        <time>2019-07-04T08:51:01.000Z</time>
      </trkpt>
      <trkpt lat="47.32603" lon="-2.32311">
        <ele>6.8000001907349</ele>
        <time>2019-07-04T08:51:02.000Z</time>
      </trkpt>
      <trkpt lat="47.3261" lon="-2.32311">
        <ele>6.8000001907349</ele>
        <time>2019-07-04T08:51:03.000Z</time>
      </trkpt>
      <trkpt lat="47.32642" lon="-2.32313">
        <ele>6.8000001907349</ele>
        <time>2019-07-04T08:51:08.000Z</time>
      </trkpt>
      <trkpt lat="47.32669" lon="-2.32317">
        <ele>6.4000000953674</ele>
        <time>2019-07-04T08:51:12.000Z</time>
      </trkpt>
      <trkpt lat="47.32676" lon="-2.3232">
        <ele>6</ele>
        <time>2019-07-04T08:51:13.000Z</time>
      </trkpt>
      <trkpt lat="47.32684" lon="-2.32322">
        <ele>5.5999999046326</ele>
        <time>2019-07-04T08:51:14.000Z</time>
      </trkpt>
      <trkpt lat="47.32691" lon="-2.32324">
        <ele>5.1999998092651</ele>
        <time>2019-07-04T08:51:15.000Z</time>
      </trkpt>
      <trkpt lat="47.32699" lon="-2.32326">
        <ele>4.8000001907349</ele>
        <time>2019-07-04T08:51:16.000Z</time>
      </trkpt>
      <trkpt lat="47.32728" lon="-2.32341">
        <ele>4.8000001907349</ele>
        <time>2019-07-04T08:51:20.000Z</time>
      </trkpt>
      <trkpt lat="47.32757" lon="-2.32357">
        <ele>4.4000000953674</ele>
        <time>2019-07-04T08:51:24.000Z</time>
      </trkpt>
      <trkpt lat="47.32764" lon="-2.32362">
        <ele>4</ele>
        <time>2019-07-04T08:51:25.000Z</time>
      </trkpt>
      <trkpt lat="47.32772" lon="-2.32366">
        <ele>3.5999999046326</ele>
        <time>2019-07-04T08:51:26.000Z</time>
      </trkpt>
      <trkpt lat="47.32779" lon="-2.3237">
        <ele>3.2000000476837</ele>
        <time>2019-07-04T08:51:27.000Z</time>
      </trkpt>
      <trkpt lat="47.32786" lon="-2.32374">
        <ele>2.7999999523163</ele>
        <time>2019-07-04T08:51:28.000Z</time>
      </trkpt>
      <trkpt lat="47.32812" lon="-2.32395">
        <ele>2.7999999523163</ele>
        <time>2019-07-04T08:51:32.000Z</time>
      </trkpt>
      <trkpt lat="47.32847" lon="-2.32428">
        <ele>2.7999999523163</ele>
        <time>2019-07-04T08:51:38.000Z</time>
      </trkpt>
      <trkpt lat="47.32879" lon="-2.32448">
        <ele>2.7999999523163</ele>
        <time>2019-07-04T08:51:45.000Z</time>
      </trkpt>
      <trkpt lat="47.32894" lon="-2.3246">
        <ele>2.7999999523163</ele>
        <time>2019-07-04T08:51:49.000Z</time>
      </trkpt>
      <trkpt lat="47.32899" lon="-2.3247">
        <ele>2.7999999523163</ele>
        <time>2019-07-04T08:51:51.000Z</time>
      </trkpt>
      <trkpt lat="47.32904" lon="-2.32483">
        <ele>2.7999999523163</ele>
        <time>2019-07-04T08:51:53.000Z</time>
      </trkpt>
      <trkpt lat="47.32909" lon="-2.32503">
        <ele>2.7999999523163</ele>
        <time>2019-07-04T08:51:56.000Z</time>
      </trkpt>
      <trkpt lat="47.32918" lon="-2.32539">
        <ele>2.7999999523163</ele>
        <time>2019-07-04T08:52:01.000Z</time>
      </trkpt>
      <trkpt lat="47.32919" lon="-2.32546">
        <ele>2.7999999523163</ele>
        <time>2019-07-04T08:52:02.000Z</time>
      </trkpt>
      <trkpt lat="47.32919" lon="-2.3259">
        <ele>2.7999999523163</ele>
        <time>2019-07-04T08:52:07.000Z</time>
      </trkpt>
      <trkpt lat="47.32919" lon="-2.32618">
        <ele>2.7999999523163</ele>
        <time>2019-07-04T08:52:10.000Z</time>
      </trkpt>
      <trkpt lat="47.32921" lon="-2.32635">
        <ele>2.7999999523163</ele>
        <time>2019-07-04T08:52:12.000Z</time>
      </trkpt>
      <trkpt lat="47.32923" lon="-2.32639">
        <ele>2.7999999523163</ele>
        <time>2019-07-04T08:52:13.000Z</time>
      </trkpt>
      <trkpt lat="47.32927" lon="-2.32641">
        <ele>2.7999999523163</ele>
        <time>2019-07-04T08:52:14.000Z</time>
      </trkpt>
      <trkpt lat="47.3295" lon="-2.32638">
        <ele>2.7999999523163</ele>
        <time>2019-07-04T08:52:18.000Z</time>
      </trkpt>
      <trkpt lat="47.32973" lon="-2.3263">
        <ele>2.7999999523163</ele>
        <time>2019-07-04T08:52:21.000Z</time>
      </trkpt>
      <trkpt lat="47.32987" lon="-2.32623">
        <ele>2.7999999523163</ele>
        <time>2019-07-04T08:52:23.000Z</time>
      </trkpt>
      <trkpt lat="47.32994" lon="-2.32623">
        <ele>2.2000000476837</ele>
        <time>2019-07-04T08:52:24.000Z</time>
      </trkpt>
      <trkpt lat="47.33002" lon="-2.32627">
        <ele>1.7999999523163</ele>
        <time>2019-07-04T08:52:25.000Z</time>
      </trkpt>
      <trkpt lat="47.33009" lon="-2.32631">
        <ele>1</ele>
        <time>2019-07-04T08:52:26.000Z</time>
      </trkpt>
      <trkpt lat="47.33016" lon="-2.32633">
        <ele>0.60000002384186</ele>
        <time>2019-07-04T08:52:27.000Z</time>
      </trkpt>
      <trkpt lat="47.33023" lon="-2.32633">
        <ele>0.60000002384186</ele>
        <time>2019-07-04T08:52:28.000Z</time>
      </trkpt>
      <trkpt lat="47.33043" lon="-2.32621">
        <ele>0.60000002384186</ele>
        <time>2019-07-04T08:52:31.000Z</time>
      </trkpt>
      <trkpt lat="47.33068" lon="-2.32602">
        <ele>0.60000002384186</ele>
        <time>2019-07-04T08:52:35.000Z</time>
      </trkpt>
      <trkpt lat="47.33074" lon="-2.32598">
        <ele>0.60000002384186</ele>
        <time>2019-07-04T08:52:36.000Z</time>
      </trkpt>
      <trkpt lat="47.33101" lon="-2.32574">
        <ele>0.60000002384186</ele>
        <time>2019-07-04T08:52:41.000Z</time>
      </trkpt>
      <trkpt lat="47.33132" lon="-2.32551">
        <ele>1</ele>
        <time>2019-07-04T08:52:46.000Z</time>
      </trkpt>
      <trkpt lat="47.33138" lon="-2.32546">
        <ele>1.3999999761581</ele>
        <time>2019-07-04T08:52:47.000Z</time>
      </trkpt>
      <trkpt lat="47.33143" lon="-2.32542">
        <ele>1.7999999523163</ele>
        <time>2019-07-04T08:52:48.000Z</time>
      </trkpt>
      <trkpt lat="47.33149" lon="-2.32537">
        <ele>2.2000000476837</ele>
        <time>2019-07-04T08:52:49.000Z</time>
      </trkpt>
      <trkpt lat="47.33155" lon="-2.32534">
        <ele>2.5999999046326</ele>
        <time>2019-07-04T08:52:50.000Z</time>
      </trkpt>
      <trkpt lat="47.33166" lon="-2.32528">
        <ele>2.5999999046326</ele>
        <time>2019-07-04T08:52:52.000Z</time>
      </trkpt>
      <trkpt lat="47.33203" lon="-2.32512">
        <ele>2.5999999046326</ele>
        <time>2019-07-04T08:52:58.000Z</time>
      </trkpt>
      <trkpt lat="47.33216" lon="-2.32507">
        <ele>3</ele>
        <time>2019-07-04T08:53:00.000Z</time>
      </trkpt>
      <trkpt lat="47.33222" lon="-2.32504">
        <ele>3.4000000953674</ele>
        <time>2019-07-04T08:53:01.000Z</time>
      </trkpt>
      <trkpt lat="47.33228" lon="-2.32501">
        <ele>4</ele>
        <time>2019-07-04T08:53:02.000Z</time>
      </trkpt>
      <trkpt lat="47.33235" lon="-2.32498">
        <ele>4.4000000953674</ele>
        <time>2019-07-04T08:53:03.000Z</time>
      </trkpt>
      <trkpt lat="47.33241" lon="-2.32495">
        <ele>4.8000001907349</ele>
        <time>2019-07-04T08:53:04.000Z</time>
      </trkpt>
      <trkpt lat="47.3329" lon="-2.32471">
        <ele>4.8000001907349</ele>
        <time>2019-07-04T08:53:12.000Z</time>
      </trkpt>
      <trkpt lat="47.33308" lon="-2.32462">
        <ele>4.8000001907349</ele>
        <time>2019-07-04T08:53:15.000Z</time>
      </trkpt>
      <trkpt lat="47.33319" lon="-2.32456">
        <ele>4.8000001907349</ele>
        <time>2019-07-04T08:53:17.000Z</time>
      </trkpt>
      <trkpt lat="47.33342" lon="-2.32436">
        <ele>4.8000001907349</ele>
        <time>2019-07-04T08:53:21.000Z</time>
      </trkpt>
      <trkpt lat="47.33347" lon="-2.32429">
        <ele>4.8000001907349</ele>
        <time>2019-07-04T08:53:22.000Z</time>
      </trkpt>
      <trkpt lat="47.33373" lon="-2.32399">
        <ele>4.8000001907349</ele>
        <time>2019-07-04T08:53:27.000Z</time>
      </trkpt>
      <trkpt lat="47.33419" lon="-2.3236">
        <ele>4.8000001907349</ele>
        <time>2019-07-04T08:53:34.000Z</time>
      </trkpt>
      <trkpt lat="47.33433" lon="-2.32349">
        <ele>4.4000000953674</ele>
        <time>2019-07-04T08:53:36.000Z</time>
      </trkpt>
      <trkpt lat="47.3344" lon="-2.32345">
        <ele>4</ele>
        <time>2019-07-04T08:53:37.000Z</time>
      </trkpt>
      <trkpt lat="47.33446" lon="-2.32341">
        <ele>3.5999999046326</ele>
        <time>2019-07-04T08:53:38.000Z</time>
      </trkpt>
      <trkpt lat="47.33453" lon="-2.32336">
        <ele>3.2000000476837</ele>
        <time>2019-07-04T08:53:39.000Z</time>
      </trkpt>
      <trkpt lat="47.3346" lon="-2.32332">
        <ele>2.7999999523163</ele>
        <time>2019-07-04T08:53:40.000Z</time>
      </trkpt>
      <trkpt lat="47.33505" lon="-2.32311">
        <ele>2.7999999523163</ele>
        <time>2019-07-04T08:53:46.000Z</time>
      </trkpt>
      <trkpt lat="47.33533" lon="-2.32302">
        <ele>2.7999999523163</ele>
        <time>2019-07-04T08:53:50.000Z</time>
      </trkpt>
      <trkpt lat="47.3354" lon="-2.32303">
        <ele>2.7999999523163</ele>
        <time>2019-07-04T08:53:51.000Z</time>
      </trkpt>
      <trkpt lat="47.33559" lon="-2.32299">
        <ele>2.7999999523163</ele>
        <time>2019-07-04T08:53:54.000Z</time>
      </trkpt>
      <trkpt lat="47.33566" lon="-2.32297">
        <ele>2.7999999523163</ele>
        <time>2019-07-04T08:53:55.000Z</time>
      </trkpt>
      <trkpt lat="47.33605" lon="-2.32288">
        <ele>2.7999999523163</ele>
        <time>2019-07-04T08:54:01.000Z</time>
      </trkpt>
      <trkpt lat="47.33618" lon="-2.32287">
        <ele>3.2000000476837</ele>
        <time>2019-07-04T08:54:03.000Z</time>
      </trkpt>
      <trkpt lat="47.33625" lon="-2.32285">
        <ele>4</ele>
        <time>2019-07-04T08:54:04.000Z</time>
      </trkpt>
      <trkpt lat="47.33632" lon="-2.32284">
        <ele>4.4000000953674</ele>
        <time>2019-07-04T08:54:05.000Z</time>
      </trkpt>
      <trkpt lat="47.33639" lon="-2.32282">
        <ele>4.8000001907349</ele>
        <time>2019-07-04T08:54:06.000Z</time>
      </trkpt>
      <trkpt lat="47.33651" lon="-2.32277">
        <ele>4.8000001907349</ele>
        <time>2019-07-04T08:54:08.000Z</time>
      </trkpt>
      <trkpt lat="47.33671" lon="-2.32267">
        <ele>4.8000001907349</ele>
        <time>2019-07-04T08:54:11.000Z</time>
      </trkpt>
      <trkpt lat="47.3371" lon="-2.32243">
        <ele>4.8000001907349</ele>
        <time>2019-07-04T08:54:17.000Z</time>
      </trkpt>
      <trkpt lat="47.3375" lon="-2.3222">
        <ele>4.8000001907349</ele>
        <time>2019-07-04T08:54:23.000Z</time>
      </trkpt>
      <trkpt lat="47.3377" lon="-2.32211">
        <ele>4.8000001907349</ele>
        <time>2019-07-04T08:54:26.000Z</time>
      </trkpt>
      <trkpt lat="47.3379" lon="-2.32206">
        <ele>4.8000001907349</ele>
        <time>2019-07-04T08:54:29.000Z</time>
      </trkpt>
      <trkpt lat="47.33803" lon="-2.32205">
        <ele>4.8000001907349</ele>
        <time>2019-07-04T08:54:31.000Z</time>
      </trkpt>
      <trkpt lat="47.33825" lon="-2.32202">
        <ele>4.8000001907349</ele>
        <time>2019-07-04T08:54:34.000Z</time>
      </trkpt>
      <trkpt lat="47.33863" lon="-2.32197">
        <ele>4.8000001907349</ele>
        <time>2019-07-04T08:54:39.000Z</time>
      </trkpt>
      <trkpt lat="47.33877" lon="-2.32198">
        <ele>4.8000001907349</ele>
        <time>2019-07-04T08:54:41.000Z</time>
      </trkpt>
      <trkpt lat="47.33891" lon="-2.322">
        <ele>4.1999998092651</ele>
        <time>2019-07-04T08:54:43.000Z</time>
      </trkpt>
      <trkpt lat="47.33898" lon="-2.322">
        <ele>3.7999999523163</ele>
        <time>2019-07-04T08:54:44.000Z</time>
      </trkpt>
      <trkpt lat="47.33904" lon="-2.32201">
        <ele>3.4000000953674</ele>
        <time>2019-07-04T08:54:45.000Z</time>
      </trkpt>
      <trkpt lat="47.33911" lon="-2.322">
        <ele>3</ele>
        <time>2019-07-04T08:54:46.000Z</time>
      </trkpt>
      <trkpt lat="47.33919" lon="-2.322">
        <ele>2.4000000953674</ele>
        <time>2019-07-04T08:54:47.000Z</time>
      </trkpt>
      <trkpt lat="47.33933" lon="-2.32201">
        <ele>2.4000000953674</ele>
        <time>2019-07-04T08:54:49.000Z</time>
      </trkpt>
      <trkpt lat="47.33953" lon="-2.32215">
        <ele>2.4000000953674</ele>
        <time>2019-07-04T08:54:52.000Z</time>
      </trkpt>
      <trkpt lat="47.33966" lon="-2.32217">
        <ele>2.4000000953674</ele>
        <time>2019-07-04T08:54:54.000Z</time>
      </trkpt>
      <trkpt lat="47.33981" lon="-2.32218">
        <ele>2.4000000953674</ele>
        <time>2019-07-04T08:54:56.000Z</time>
      </trkpt>
      <trkpt lat="47.3401" lon="-2.32217">
        <ele>2.4000000953674</ele>
        <time>2019-07-04T08:55:00.000Z</time>
      </trkpt>
      <trkpt lat="47.34051" lon="-2.32219">
        <ele>2.4000000953674</ele>
        <time>2019-07-04T08:55:06.000Z</time>
      </trkpt>
      <trkpt lat="47.34064" lon="-2.32223">
        <ele>2.4000000953674</ele>
        <time>2019-07-04T08:55:08.000Z</time>
      </trkpt>
      <trkpt lat="47.34075" lon="-2.32231">
        <ele>2.4000000953674</ele>
        <time>2019-07-04T08:55:10.000Z</time>
      </trkpt>
      <trkpt lat="47.34091" lon="-2.32259">
        <ele>2.4000000953674</ele>
        <time>2019-07-04T08:55:14.000Z</time>
      </trkpt>
      <trkpt lat="47.34093" lon="-2.32267">
        <ele>2.4000000953674</ele>
        <time>2019-07-04T08:55:15.000Z</time>
      </trkpt>
      <trkpt lat="47.341" lon="-2.32291">
        <ele>3</ele>
        <time>2019-07-04T08:55:18.000Z</time>
      </trkpt>
      <trkpt lat="47.34102" lon="-2.32299">
        <ele>3.4000000953674</ele>
        <time>2019-07-04T08:55:19.000Z</time>
      </trkpt>
      <trkpt lat="47.34104" lon="-2.32307">
        <ele>3.7999999523163</ele>
        <time>2019-07-04T08:55:20.000Z</time>
      </trkpt>
      <trkpt lat="47.34107" lon="-2.32315">
        <ele>4.1999998092651</ele>
        <time>2019-07-04T08:55:21.000Z</time>
      </trkpt>
      <trkpt lat="47.34109" lon="-2.32323">
        <ele>4.5999999046326</ele>
        <time>2019-07-04T08:55:22.000Z</time>
      </trkpt>
      <trkpt lat="47.34112" lon="-2.3233">
        <ele>4.5999999046326</ele>
        <time>2019-07-04T08:55:23.000Z</time>
      </trkpt>
      <trkpt lat="47.34119" lon="-2.32353">
        <ele>4.5999999046326</ele>
        <time>2019-07-04T08:55:26.000Z</time>
      </trkpt>
      <trkpt lat="47.34131" lon="-2.32396">
        <ele>5</ele>
        <time>2019-07-04T08:55:31.000Z</time>
      </trkpt>
      <trkpt lat="47.34133" lon="-2.32404">
        <ele>5.5999999046326</ele>
        <time>2019-07-04T08:55:32.000Z</time>
      </trkpt>
      <trkpt lat="47.34135" lon="-2.32412">
        <ele>6</ele>
        <time>2019-07-04T08:55:33.000Z</time>
      </trkpt>
      <trkpt lat="47.34138" lon="-2.32421">
        <ele>6.4000000953674</ele>
        <time>2019-07-04T08:55:34.000Z</time>
      </trkpt>
      <trkpt lat="47.3414" lon="-2.32429">
        <ele>6.8000001907349</ele>
        <time>2019-07-04T08:55:35.000Z</time>
      </trkpt>
      <trkpt lat="47.34147" lon="-2.32456">
        <ele>6.8000001907349</ele>
        <time>2019-07-04T08:55:38.000Z</time>
      </trkpt>
      <trkpt lat="47.34156" lon="-2.32502">
        <ele>6.8000001907349</ele>
        <time>2019-07-04T08:55:43.000Z</time>
      </trkpt>
      <trkpt lat="47.34162" lon="-2.32568">
        <ele>6.8000001907349</ele>
        <time>2019-07-04T08:55:51.000Z</time>
      </trkpt>
      <trkpt lat="47.34159" lon="-2.32586">
        <ele>6.8000001907349</ele>
        <time>2019-07-04T08:55:55.000Z</time>
      </trkpt>
      <trkpt lat="47.34156" lon="-2.32607">
        <ele>6.8000001907349</ele>
        <time>2019-07-04T08:55:59.000Z</time>
      </trkpt>
      <trkpt lat="47.34156" lon="-2.32614">
        <ele>6.8000001907349</ele>
        <time>2019-07-04T08:56:00.000Z</time>
      </trkpt>
      <trkpt lat="47.34158" lon="-2.32652">
        <ele>6.8000001907349</ele>
        <time>2019-07-04T08:56:05.000Z</time>
      </trkpt>
      <trkpt lat="47.34164" lon="-2.32702">
        <ele>6.8000001907349</ele>
        <time>2019-07-04T08:56:11.000Z</time>
      </trkpt>
      <trkpt lat="47.34168" lon="-2.32759">
        <ele>6.8000001907349</ele>
        <time>2019-07-04T08:56:18.000Z</time>
      </trkpt>
      <trkpt lat="47.3417" lon="-2.3278">
        <ele>6.8000001907349</ele>
        <time>2019-07-04T08:56:21.000Z</time>
      </trkpt>
      <trkpt lat="47.34175" lon="-2.32801">
        <ele>6.8000001907349</ele>
        <time>2019-07-04T08:56:24.000Z</time>
      </trkpt>
      <trkpt lat="47.34179" lon="-2.32811">
        <ele>6.8000001907349</ele>
        <time>2019-07-04T08:56:27.000Z</time>
      </trkpt>
      <trkpt lat="47.34184" lon="-2.32824">
        <ele>6.8000001907349</ele>
        <time>2019-07-04T08:56:33.000Z</time>
      </trkpt>
      <trkpt lat="47.34188" lon="-2.32835">
        <ele>6.4000000953674</ele>
        <time>2019-07-04T08:56:38.000Z</time>
      </trkpt>
      <trkpt lat="47.34189" lon="-2.32839">
        <ele>6</ele>
        <time>2019-07-04T08:56:39.000Z</time>
      </trkpt>
      <trkpt lat="47.34191" lon="-2.32842">
        <ele>5.5999999046326</ele>
        <time>2019-07-04T08:56:40.000Z</time>
      </trkpt>
      <trkpt lat="47.34193" lon="-2.32845">
        <ele>5.1999998092651</ele>
        <time>2019-07-04T08:56:41.000Z</time>
      </trkpt>
      <trkpt lat="47.34195" lon="-2.32848">
        <ele>4.8000001907349</ele>
        <time>2019-07-04T08:56:42.000Z</time>
      </trkpt>
      <trkpt lat="47.34203" lon="-2.32861">
        <ele>4.8000001907349</ele>
        <time>2019-07-04T08:56:45.000Z</time>
      </trkpt>
      <trkpt lat="47.34216" lon="-2.32885">
        <ele>4.8000001907349</ele>
        <time>2019-07-04T08:56:50.000Z</time>
      </trkpt>
      <trkpt lat="47.34221" lon="-2.32894">
        <ele>4.4000000953674</ele>
        <time>2019-07-04T08:56:53.000Z</time>
      </trkpt>
      <trkpt lat="47.34223" lon="-2.32896">
        <ele>4</ele>
        <time>2019-07-04T08:56:54.000Z</time>
      </trkpt>
      <trkpt lat="47.34224" lon="-2.32898">
        <ele>3.5999999046326</ele>
        <time>2019-07-04T08:56:55.000Z</time>
      </trkpt>
      <trkpt lat="47.34225" lon="-2.329">
        <ele>3</ele>
        <time>2019-07-04T08:56:56.000Z</time>
      </trkpt>
      <trkpt lat="47.34226" lon="-2.32902">
        <ele>2.5999999046326</ele>
        <time>2019-07-04T08:56:57.000Z</time>
      </trkpt>
      <trkpt lat="47.34231" lon="-2.32909">
        <ele>2.5999999046326</ele>
        <time>2019-07-04T08:57:00.000Z</time>
      </trkpt>
      <trkpt lat="47.34243" lon="-2.32931">
        <ele>2.5999999046326</ele>
        <time>2019-07-04T08:57:06.000Z</time>
      </trkpt>
      <trkpt lat="47.34246" lon="-2.32937">
        <ele>2.2000000476837</ele>
        <time>2019-07-04T08:57:07.000Z</time>
      </trkpt>
      <trkpt lat="47.34248" lon="-2.32943">
        <ele>1.7999999523163</ele>
        <time>2019-07-04T08:57:08.000Z</time>
      </trkpt>
      <trkpt lat="47.3425" lon="-2.32949">
        <ele>1.2000000476837</ele>
        <time>2019-07-04T08:57:09.000Z</time>
      </trkpt>
      <trkpt lat="47.34252" lon="-2.32955">
        <ele>0.80000001192093</ele>
        <time>2019-07-04T08:57:10.000Z</time>
      </trkpt>
      <trkpt lat="47.34255" lon="-2.32961">
        <ele>0.40000000596046</ele>
        <time>2019-07-04T08:57:11.000Z</time>
      </trkpt>
      <trkpt lat="47.34261" lon="-2.32975">
        <ele>0.40000000596046</ele>
        <time>2019-07-04T08:57:13.000Z</time>
      </trkpt>
      <trkpt lat="47.34268" lon="-2.32988">
        <ele>0.40000000596046</ele>
        <time>2019-07-04T08:57:15.000Z</time>
      </trkpt>
      <trkpt lat="47.34278" lon="-2.33008">
        <ele>0.40000000596046</ele>
        <time>2019-07-04T08:57:18.000Z</time>
      </trkpt>
      <trkpt lat="47.34281" lon="-2.33016">
        <ele>0.40000000596046</ele>
        <time>2019-07-04T08:57:19.000Z</time>
      </trkpt>
      <trkpt lat="47.34286" lon="-2.33027">
        <ele>0.40000000596046</ele>
        <time>2019-07-04T08:57:22.000Z</time>
      </trkpt>
      <trkpt lat="47.34291" lon="-2.33045">
        <ele>0.40000000596046</ele>
        <time>2019-07-04T08:57:28.000Z</time>
      </trkpt>
      <trkpt lat="47.34292" lon="-2.33047">
        <ele>0.40000000596046</ele>
        <time>2019-07-04T08:57:29.000Z</time>
      </trkpt>
      <trkpt lat="47.3429" lon="-2.33049">
        <ele>0.40000000596046</ele>
        <time>2019-07-04T08:57:31.000Z</time>
      </trkpt>
      <trkpt lat="47.34286" lon="-2.33052">
        <ele>0.40000000596046</ele>
        <time>2019-07-04T08:57:33.000Z</time>
      </trkpt>
      <trkpt lat="47.3428" lon="-2.33055">
        <ele>0.40000000596046</ele>
        <time>2019-07-04T08:57:35.000Z</time>
      </trkpt>
      <trkpt lat="47.34273" lon="-2.3306">
        <ele>0.40000000596046</ele>
        <time>2019-07-04T08:57:39.000Z</time>
      </trkpt>
      <trkpt lat="47.34272" lon="-2.33061">
        <ele>0.40000000596046</ele>
        <time>2019-07-04T08:57:40.000Z</time>
      </trkpt>
      <trkpt lat="47.34257" lon="-2.33079">
        <ele>0.40000000596046</ele>
        <time>2019-07-04T09:05:42.000Z</time>
      </trkpt>
      <trkpt lat="47.3426" lon="-2.33076">
        <ele>0.40000000596046</ele>
        <time>2019-07-04T09:05:44.000Z</time>
      </trkpt>
      <trkpt lat="47.34265" lon="-2.3307">
        <ele>0.40000000596046</ele>
        <time>2019-07-04T09:05:50.000Z</time>
      </trkpt>
      <trkpt lat="47.34271" lon="-2.33069">
        <ele>0.40000000596046</ele>
        <time>2019-07-04T09:05:53.000Z</time>
      </trkpt>
      <trkpt lat="47.34275" lon="-2.33065">
        <ele>0.40000000596046</ele>
        <time>2019-07-04T09:05:55.000Z</time>
      </trkpt>
      <trkpt lat="47.34283" lon="-2.33059">
        <ele>0.80000001192093</ele>
        <time>2019-07-04T09:05:58.000Z</time>
      </trkpt>
      <trkpt lat="47.34286" lon="-2.33058">
        <ele>1.2000000476837</ele>
        <time>2019-07-04T09:05:59.000Z</time>
      </trkpt>
      <trkpt lat="47.34289" lon="-2.33057">
        <ele>2</ele>
        <time>2019-07-04T09:06:00.000Z</time>
      </trkpt>
      <trkpt lat="47.34292" lon="-2.33055">
        <ele>2.4000000953674</ele>
        <time>2019-07-04T09:06:01.000Z</time>
      </trkpt>
      <trkpt lat="47.34311" lon="-2.33047">
        <ele>2.4000000953674</ele>
        <time>2019-07-04T09:06:06.000Z</time>
      </trkpt>
      <trkpt lat="47.34335" lon="-2.33043">
        <ele>2.4000000953674</ele>
        <time>2019-07-04T09:06:11.000Z</time>
      </trkpt>
      <trkpt lat="47.34351" lon="-2.33036">
        <ele>2.4000000953674</ele>
        <time>2019-07-04T09:06:15.000Z</time>
      </trkpt>
      <trkpt lat="47.34359" lon="-2.33039">
        <ele>2.4000000953674</ele>
        <time>2019-07-04T09:06:19.000Z</time>
      </trkpt>
      <trkpt lat="47.34363" lon="-2.33041">
        <ele>2.4000000953674</ele>
        <time>2019-07-04T09:06:21.000Z</time>
      </trkpt>
      <trkpt lat="47.34372" lon="-2.33049">
        <ele>2.4000000953674</ele>
        <time>2019-07-04T09:06:26.000Z</time>
      </trkpt>
      <trkpt lat="47.34375" lon="-2.33053">
        <ele>2.4000000953674</ele>
        <time>2019-07-04T09:06:28.000Z</time>
      </trkpt>
      <trkpt lat="47.34377" lon="-2.33058">
        <ele>2.4000000953674</ele>
        <time>2019-07-04T09:06:30.000Z</time>
      </trkpt>
      <trkpt lat="47.34378" lon="-2.33062">
        <ele>2.4000000953674</ele>
        <time>2019-07-04T09:06:31.000Z</time>
      </trkpt>
      <trkpt lat="47.34384" lon="-2.33081">
        <ele>2.4000000953674</ele>
        <time>2019-07-04T09:06:37.000Z</time>
      </trkpt>
      <trkpt lat="47.34386" lon="-2.33089">
        <ele>2.4000000953674</ele>
        <time>2019-07-04T09:06:39.000Z</time>
      </trkpt>
      <trkpt lat="47.34386" lon="-2.33099">
        <ele>2.4000000953674</ele>
        <time>2019-07-04T09:06:41.000Z</time>
      </trkpt>
      <trkpt lat="47.34391" lon="-2.33122">
        <ele>2.4000000953674</ele>
        <time>2019-07-04T09:06:46.000Z</time>
      </trkpt>
      <trkpt lat="47.34396" lon="-2.33145">
        <ele>2.4000000953674</ele>
        <time>2019-07-04T09:06:52.000Z</time>
      </trkpt>
      <trkpt lat="47.34401" lon="-2.33166">
        <ele>2.4000000953674</ele>
        <time>2019-07-04T09:06:58.000Z</time>
      </trkpt>
      <trkpt lat="47.34404" lon="-2.33197">
        <ele>2.4000000953674</ele>
        <time>2019-07-04T09:07:06.000Z</time>
      </trkpt>
      <trkpt lat="47.34411" lon="-2.3323">
        <ele>2.4000000953674</ele>
        <time>2019-07-04T09:07:13.000Z</time>
      </trkpt>
      <trkpt lat="47.3442" lon="-2.33261">
        <ele>2.4000000953674</ele>
        <time>2019-07-04T09:07:19.000Z</time>
      </trkpt>
      <trkpt lat="47.3443" lon="-2.3328">
        <ele>2.4000000953674</ele>
        <time>2019-07-04T09:07:23.000Z</time>
      </trkpt>
      <trkpt lat="47.34446" lon="-2.33304">
        <ele>2.4000000953674</ele>
        <time>2019-07-04T09:07:28.000Z</time>
      </trkpt>
      <trkpt lat="47.34448" lon="-2.33309">
        <ele>3</ele>
        <time>2019-07-04T09:07:29.000Z</time>
      </trkpt>
      <trkpt lat="47.3445" lon="-2.33315">
        <ele>3.4000000953674</ele>
        <time>2019-07-04T09:07:30.000Z</time>
      </trkpt>
      <trkpt lat="47.34451" lon="-2.3332">
        <ele>3.7999999523163</ele>
        <time>2019-07-04T09:07:31.000Z</time>
      </trkpt>
      <trkpt lat="47.34452" lon="-2.33325">
        <ele>4.1999998092651</ele>
        <time>2019-07-04T09:07:32.000Z</time>
      </trkpt>
      <trkpt lat="47.34453" lon="-2.33331">
        <ele>4.5999999046326</ele>
        <time>2019-07-04T09:07:33.000Z</time>
      </trkpt>
      <trkpt lat="47.34462" lon="-2.33374">
        <ele>4.5999999046326</ele>
        <time>2019-07-04T09:07:40.000Z</time>
      </trkpt>
      <trkpt lat="47.34468" lon="-2.33416">
        <ele>4.5999999046326</ele>
        <time>2019-07-04T09:07:48.000Z</time>
      </trkpt>
      <trkpt lat="47.34473" lon="-2.3345">
        <ele>4.5999999046326</ele>
        <time>2019-07-04T09:07:54.000Z</time>
      </trkpt>
      <trkpt lat="47.34478" lon="-2.33489">
        <ele>4.5999999046326</ele>
        <time>2019-07-04T09:08:01.000Z</time>
      </trkpt>
      <trkpt lat="47.34482" lon="-2.33522">
        <ele>4.5999999046326</ele>
        <time>2019-07-04T09:08:07.000Z</time>
      </trkpt>
      <trkpt lat="47.34486" lon="-2.33558">
        <ele>4.5999999046326</ele>
        <time>2019-07-04T09:08:14.000Z</time>
      </trkpt>
      <trkpt lat="47.34488" lon="-2.33573">
        <ele>5</ele>
        <time>2019-07-04T09:08:18.000Z</time>
      </trkpt>
      <trkpt lat="47.34489" lon="-2.33576">
        <ele>5.4000000953674</ele>
        <time>2019-07-04T09:08:19.000Z</time>
      </trkpt>
      <trkpt lat="47.34491" lon="-2.33579">
        <ele>5.8000001907349</ele>
        <time>2019-07-04T09:08:20.000Z</time>
      </trkpt>
      <trkpt lat="47.34494" lon="-2.33583">
        <ele>6.1999998092651</ele>
        <time>2019-07-04T09:08:21.000Z</time>
      </trkpt>
      <trkpt lat="47.34495" lon="-2.33587">
        <ele>6.5999999046326</ele>
        <time>2019-07-04T09:08:22.000Z</time>
      </trkpt>
      <trkpt lat="47.34497" lon="-2.33595">
        <ele>6.5999999046326</ele>
        <time>2019-07-04T09:08:24.000Z</time>
      </trkpt>
      <trkpt lat="47.34502" lon="-2.33617">
        <ele>6.5999999046326</ele>
        <time>2019-07-04T09:08:30.000Z</time>
      </trkpt>
      <trkpt lat="47.34509" lon="-2.33648">
        <ele>6.5999999046326</ele>
        <time>2019-07-04T09:08:36.000Z</time>
      </trkpt>
      <trkpt lat="47.34518" lon="-2.33685">
        <ele>6.5999999046326</ele>
        <time>2019-07-04T09:08:43.000Z</time>
      </trkpt>
      <trkpt lat="47.34526" lon="-2.33719">
        <ele>6.5999999046326</ele>
        <time>2019-07-04T09:08:50.000Z</time>
      </trkpt>
      <trkpt lat="47.3453" lon="-2.33739">
        <ele>7</ele>
        <time>2019-07-04T09:08:54.000Z</time>
      </trkpt>
      <trkpt lat="47.34531" lon="-2.33745">
        <ele>8</ele>
        <time>2019-07-04T09:08:55.000Z</time>
      </trkpt>
      <trkpt lat="47.34532" lon="-2.3375">
        <ele>8.3999996185303</ele>
        <time>2019-07-04T09:08:56.000Z</time>
      </trkpt>
      <trkpt lat="47.34533" lon="-2.33755">
        <ele>8.8000001907349</ele>
        <time>2019-07-04T09:08:57.000Z</time>
      </trkpt>
      <trkpt lat="47.34537" lon="-2.33777">
        <ele>8.8000001907349</ele>
        <time>2019-07-04T09:09:01.000Z</time>
      </trkpt>
      <trkpt lat="47.34544" lon="-2.3382">
        <ele>8.8000001907349</ele>
        <time>2019-07-04T09:09:08.000Z</time>
      </trkpt>
      <trkpt lat="47.34551" lon="-2.33858">
        <ele>8.8000001907349</ele>
        <time>2019-07-04T09:09:13.000Z</time>
      </trkpt>
      <trkpt lat="47.34553" lon="-2.33867">
        <ele>8.8000001907349</ele>
        <time>2019-07-04T09:09:14.000Z</time>
      </trkpt>
      <trkpt lat="47.3457" lon="-2.33912">
        <ele>8.8000001907349</ele>
        <time>2019-07-04T09:09:20.000Z</time>
      </trkpt>
      <trkpt lat="47.34573" lon="-2.33921">
        <ele>8.8000001907349</ele>
        <time>2019-07-04T09:09:21.000Z</time>
      </trkpt>
      <trkpt lat="47.34583" lon="-2.33954">
        <ele>8.8000001907349</ele>
        <time>2019-07-04T09:09:25.000Z</time>
      </trkpt>
      <trkpt lat="47.34594" lon="-2.33994">
        <ele>8.8000001907349</ele>
        <time>2019-07-04T09:09:30.000Z</time>
      </trkpt>
      <trkpt lat="47.34597" lon="-2.34002">
        <ele>8.8000001907349</ele>
        <time>2019-07-04T09:09:31.000Z</time>
      </trkpt>
      <trkpt lat="47.34599" lon="-2.3401">
        <ele>8.8000001907349</ele>
        <time>2019-07-04T09:09:32.000Z</time>
      </trkpt>
      <trkpt lat="47.34605" lon="-2.34035">
        <ele>8.8000001907349</ele>
        <time>2019-07-04T09:09:35.000Z</time>
      </trkpt>
      <trkpt lat="47.34606" lon="-2.34043">
        <ele>8.8000001907349</ele>
        <time>2019-07-04T09:09:36.000Z</time>
      </trkpt>
      <trkpt lat="47.34616" lon="-2.34088">
        <ele>8.8000001907349</ele>
        <time>2019-07-04T09:09:42.000Z</time>
      </trkpt>
      <trkpt lat="47.3462" lon="-2.341">
        <ele>8.8000001907349</ele>
        <time>2019-07-04T09:09:44.000Z</time>
      </trkpt>
      <trkpt lat="47.3463" lon="-2.34124">
        <ele>8.8000001907349</ele>
        <time>2019-07-04T09:09:48.000Z</time>
      </trkpt>
      <trkpt lat="47.34646" lon="-2.34145">
        <ele>8.8000001907349</ele>
        <time>2019-07-04T09:09:52.000Z</time>
      </trkpt>
      <trkpt lat="47.34651" lon="-2.34147">
        <ele>8.8000001907349</ele>
        <time>2019-07-04T09:09:53.000Z</time>
      </trkpt>
      <trkpt lat="47.34662" lon="-2.3415">
        <ele>9.1999998092651</ele>
        <time>2019-07-04T09:09:55.000Z</time>
      </trkpt>
      <trkpt lat="47.34667" lon="-2.34152">
        <ele>9.6000003814697</ele>
        <time>2019-07-04T09:09:56.000Z</time>
      </trkpt>
      <trkpt lat="47.34671" lon="-2.34155">
        <ele>10</ele>
        <time>2019-07-04T09:09:57.000Z</time>
      </trkpt>
      <trkpt lat="47.34674" lon="-2.3416">
        <ele>10.39999961853</ele>
        <time>2019-07-04T09:09:58.000Z</time>
      </trkpt>
      <trkpt lat="47.34675" lon="-2.34168">
        <ele>10.800000190735</ele>
        <time>2019-07-04T09:09:59.000Z</time>
      </trkpt>
      <trkpt lat="47.34674" lon="-2.34175">
        <ele>10.800000190735</ele>
        <time>2019-07-04T09:10:00.000Z</time>
      </trkpt>
      <trkpt lat="47.34668" lon="-2.34189">
        <ele>10.800000190735</ele>
        <time>2019-07-04T09:10:02.000Z</time>
      </trkpt>
      <trkpt lat="47.34666" lon="-2.34196">
        <ele>10.800000190735</ele>
        <time>2019-07-04T09:10:03.000Z</time>
      </trkpt>
      <trkpt lat="47.34649" lon="-2.34247">
        <ele>10.800000190735</ele>
        <time>2019-07-04T09:10:10.000Z</time>
      </trkpt>
      <trkpt lat="47.3464" lon="-2.34274">
        <ele>10.800000190735</ele>
        <time>2019-07-04T09:10:14.000Z</time>
      </trkpt>
      <trkpt lat="47.34636" lon="-2.34288">
        <ele>10.800000190735</ele>
        <time>2019-07-04T09:10:16.000Z</time>
      </trkpt>
      <trkpt lat="47.3463" lon="-2.34307">
        <ele>11.199999809265</ele>
        <time>2019-07-04T09:10:19.000Z</time>
      </trkpt>
      <trkpt lat="47.34629" lon="-2.34313">
        <ele>11.60000038147</ele>
        <time>2019-07-04T09:10:20.000Z</time>
      </trkpt>
      <trkpt lat="47.34627" lon="-2.34319">
        <ele>12.199999809265</ele>
        <time>2019-07-04T09:10:21.000Z</time>
      </trkpt>
      <trkpt lat="47.34625" lon="-2.34326">
        <ele>12.60000038147</ele>
        <time>2019-07-04T09:10:22.000Z</time>
      </trkpt>
      <trkpt lat="47.34623" lon="-2.34332">
        <ele>13</ele>
        <time>2019-07-04T09:10:23.000Z</time>
      </trkpt>
      <trkpt lat="47.34614" lon="-2.34365">
        <ele>13.39999961853</ele>
        <time>2019-07-04T09:10:28.000Z</time>
      </trkpt>
      <trkpt lat="47.34612" lon="-2.34371">
        <ele>13.800000190735</ele>
        <time>2019-07-04T09:10:29.000Z</time>
      </trkpt>
      <trkpt lat="47.3461" lon="-2.34378">
        <ele>14.199999809265</ele>
        <time>2019-07-04T09:10:30.000Z</time>
      </trkpt>
      <trkpt lat="47.34608" lon="-2.34385">
        <ele>14.60000038147</ele>
        <time>2019-07-04T09:10:31.000Z</time>
      </trkpt>
      <trkpt lat="47.34607" lon="-2.34392">
        <ele>15</ele>
        <time>2019-07-04T09:10:32.000Z</time>
      </trkpt>
      <trkpt lat="47.34599" lon="-2.34428">
        <ele>15</ele>
        <time>2019-07-04T09:10:37.000Z</time>
      </trkpt>
      <trkpt lat="47.34598" lon="-2.34476">
        <ele>15</ele>
        <time>2019-07-04T09:10:43.000Z</time>
      </trkpt>
      <trkpt lat="47.34599" lon="-2.34484">
        <ele>15</ele>
        <time>2019-07-04T09:10:44.000Z</time>
      </trkpt>
      <trkpt lat="47.34605" lon="-2.34519">
        <ele>15</ele>
        <time>2019-07-04T09:10:49.000Z</time>
      </trkpt>
      <trkpt lat="47.34609" lon="-2.34538">
        <ele>15</ele>
        <time>2019-07-04T09:10:52.000Z</time>
      </trkpt>
      <trkpt lat="47.34612" lon="-2.34558">
        <ele>15</ele>
        <time>2019-07-04T09:10:55.000Z</time>
      </trkpt>
      <trkpt lat="47.34622" lon="-2.34613">
        <ele>15</ele>
        <time>2019-07-04T09:11:03.000Z</time>
      </trkpt>
      <trkpt lat="47.34626" lon="-2.34636">
        <ele>14.60000038147</ele>
        <time>2019-07-04T09:11:06.000Z</time>
      </trkpt>
      <trkpt lat="47.34628" lon="-2.34643">
        <ele>14</ele>
        <time>2019-07-04T09:11:07.000Z</time>
      </trkpt>
      <trkpt lat="47.34629" lon="-2.34652">
        <ele>13.60000038147</ele>
        <time>2019-07-04T09:11:08.000Z</time>
      </trkpt>
      <trkpt lat="47.34631" lon="-2.3466">
        <ele>13.199999809265</ele>
        <time>2019-07-04T09:11:09.000Z</time>
      </trkpt>
      <trkpt lat="47.34634" lon="-2.34669">
        <ele>12.800000190735</ele>
        <time>2019-07-04T09:11:10.000Z</time>
      </trkpt>
      <trkpt lat="47.34641" lon="-2.34709">
        <ele>12.800000190735</ele>
        <time>2019-07-04T09:11:14.000Z</time>
      </trkpt>
      <trkpt lat="47.34642" lon="-2.34733">
        <ele>12.800000190735</ele>
        <time>2019-07-04T09:11:16.000Z</time>
      </trkpt>
      <trkpt lat="47.34639" lon="-2.34756">
        <ele>12.800000190735</ele>
        <time>2019-07-04T09:11:18.000Z</time>
      </trkpt>
      <trkpt lat="47.34627" lon="-2.34792">
        <ele>12.800000190735</ele>
        <time>2019-07-04T09:11:22.000Z</time>
      </trkpt>
      <trkpt lat="47.34623" lon="-2.34801">
        <ele>12</ele>
        <time>2019-07-04T09:11:23.000Z</time>
      </trkpt>
      <trkpt lat="47.34619" lon="-2.34809">
        <ele>11.60000038147</ele>
        <time>2019-07-04T09:11:24.000Z</time>
      </trkpt>
      <trkpt lat="47.34615" lon="-2.34817">
        <ele>11.199999809265</ele>
        <time>2019-07-04T09:11:25.000Z</time>
      </trkpt>
      <trkpt lat="47.34612" lon="-2.34825">
        <ele>10.800000190735</ele>
        <time>2019-07-04T09:11:26.000Z</time>
      </trkpt>
      <trkpt lat="47.34598" lon="-2.34859">
        <ele>10.800000190735</ele>
        <time>2019-07-04T09:11:30.000Z</time>
      </trkpt>
      <trkpt lat="47.34592" lon="-2.34874">
        <ele>10.800000190735</ele>
        <time>2019-07-04T09:11:32.000Z</time>
      </trkpt>
      <trkpt lat="47.34584" lon="-2.34893">
        <ele>10.800000190735</ele>
        <time>2019-07-04T09:11:35.000Z</time>
      </trkpt>
      <trkpt lat="47.34581" lon="-2.34898">
        <ele>10.800000190735</ele>
        <time>2019-07-04T09:11:36.000Z</time>
      </trkpt>
      <trkpt lat="47.34579" lon="-2.3491">
        <ele>10.800000190735</ele>
        <time>2019-07-04T09:11:39.000Z</time>
      </trkpt>
      <trkpt lat="47.34582" lon="-2.34917">
        <ele>10.800000190735</ele>
        <time>2019-07-04T09:11:41.000Z</time>
      </trkpt>
      <trkpt lat="47.34588" lon="-2.34929">
        <ele>10.800000190735</ele>
        <time>2019-07-04T09:11:44.000Z</time>
      </trkpt>
      <trkpt lat="47.34595" lon="-2.34947">
        <ele>10.800000190735</ele>
        <time>2019-07-04T09:11:49.000Z</time>
      </trkpt>
      <trkpt lat="47.34608" lon="-2.34969">
        <ele>10.800000190735</ele>
        <time>2019-07-04T09:11:54.000Z</time>
      </trkpt>
      <trkpt lat="47.34621" lon="-2.34987">
        <ele>10.800000190735</ele>
        <time>2019-07-04T09:11:58.000Z</time>
      </trkpt>
      <trkpt lat="47.34629" lon="-2.35">
        <ele>10.800000190735</ele>
        <time>2019-07-04T09:12:03.000Z</time>
      </trkpt>
      <trkpt lat="47.34637" lon="-2.35017">
        <ele>10.800000190735</ele>
        <time>2019-07-04T09:12:09.000Z</time>
      </trkpt>
      <trkpt lat="47.3464" lon="-2.35018">
        <ele>10.800000190735</ele>
        <time>2019-07-04T09:12:10.000Z</time>
      </trkpt>
      <trkpt lat="47.34647" lon="-2.35019">
        <ele>10.800000190735</ele>
        <time>2019-07-04T09:12:12.000Z</time>
      </trkpt>
      <trkpt lat="47.3466" lon="-2.35021">
        <ele>10.800000190735</ele>
        <time>2019-07-04T09:12:16.000Z</time>
      </trkpt>
      <trkpt lat="47.34663" lon="-2.35022">
        <ele>10.800000190735</ele>
        <time>2019-07-04T09:12:17.000Z</time>
      </trkpt>
      <trkpt lat="47.34674" lon="-2.35031">
        <ele>10.800000190735</ele>
        <time>2019-07-04T09:12:22.000Z</time>
      </trkpt>
      <trkpt lat="47.34676" lon="-2.35035">
        <ele>10.800000190735</ele>
        <time>2019-07-04T09:12:24.000Z</time>
      </trkpt>
      <trkpt lat="47.34682" lon="-2.35046">
        <ele>10.800000190735</ele>
        <time>2019-07-04T09:12:28.000Z</time>
      </trkpt>
      <trkpt lat="47.34696" lon="-2.3506">
        <ele>10.800000190735</ele>
        <time>2019-07-04T09:12:33.000Z</time>
      </trkpt>
      <trkpt lat="47.34708" lon="-2.35079">
        <ele>10.800000190735</ele>
        <time>2019-07-04T09:12:37.000Z</time>
      </trkpt>
      <trkpt lat="47.3471" lon="-2.35085">
        <ele>10.800000190735</ele>
        <time>2019-07-04T09:12:38.000Z</time>
      </trkpt>
      <trkpt lat="47.34716" lon="-2.35098">
        <ele>10.800000190735</ele>
        <time>2019-07-04T09:12:40.000Z</time>
      </trkpt>
      <trkpt lat="47.34723" lon="-2.35105">
        <ele>10.800000190735</ele>
        <time>2019-07-04T09:12:42.000Z</time>
      </trkpt>
      <trkpt lat="47.3473" lon="-2.35115">
        <ele>10.800000190735</ele>
        <time>2019-07-04T09:12:45.000Z</time>
      </trkpt>
      <trkpt lat="47.34732" lon="-2.3512">
        <ele>10.800000190735</ele>
        <time>2019-07-04T09:12:46.000Z</time>
      </trkpt>
      <trkpt lat="47.34744" lon="-2.35147">
        <ele>10.800000190735</ele>
        <time>2019-07-04T09:12:51.000Z</time>
      </trkpt>
      <trkpt lat="47.34748" lon="-2.35177">
        <ele>10.800000190735</ele>
        <time>2019-07-04T09:12:56.000Z</time>
      </trkpt>
      <trkpt lat="47.34748" lon="-2.35181">
        <ele>10.800000190735</ele>
        <time>2019-07-04T09:12:57.000Z</time>
      </trkpt>
      <trkpt lat="47.34749" lon="-2.35193">
        <ele>10.800000190735</ele>
        <time>2019-07-04T09:12:59.000Z</time>
      </trkpt>
      <trkpt lat="47.34751" lon="-2.35208">
        <ele>10.800000190735</ele>
        <time>2019-07-04T09:13:01.000Z</time>
      </trkpt>
      <trkpt lat="47.34752" lon="-2.35224">
        <ele>10.800000190735</ele>
        <time>2019-07-04T09:13:03.000Z</time>
      </trkpt>
      <trkpt lat="47.34748" lon="-2.3524">
        <ele>10.800000190735</ele>
        <time>2019-07-04T09:13:05.000Z</time>
      </trkpt>
      <trkpt lat="47.34748" lon="-2.35248">
        <ele>10.800000190735</ele>
        <time>2019-07-04T09:13:06.000Z</time>
      </trkpt>
      <trkpt lat="47.34746" lon="-2.35262">
        <ele>10.800000190735</ele>
        <time>2019-07-04T09:13:08.000Z</time>
      </trkpt>
      <trkpt lat="47.34744" lon="-2.35275">
        <ele>10.800000190735</ele>
        <time>2019-07-04T09:13:10.000Z</time>
      </trkpt>
      <trkpt lat="47.34735" lon="-2.35292">
        <ele>10.800000190735</ele>
        <time>2019-07-04T09:13:14.000Z</time>
      </trkpt>
      <trkpt lat="47.34734" lon="-2.35295">
        <ele>10.800000190735</ele>
        <time>2019-07-04T09:13:15.000Z</time>
      </trkpt>
      <trkpt lat="47.34728" lon="-2.3531">
        <ele>10.800000190735</ele>
        <time>2019-07-04T09:13:19.000Z</time>
      </trkpt>
      <trkpt lat="47.34729" lon="-2.35314">
        <ele>10.800000190735</ele>
        <time>2019-07-04T09:13:20.000Z</time>
      </trkpt>
      <trkpt lat="47.34729" lon="-2.35317">
        <ele>11.199999809265</ele>
        <time>2019-07-04T09:13:21.000Z</time>
      </trkpt>
      <trkpt lat="47.34729" lon="-2.35321">
        <ele>11.60000038147</ele>
        <time>2019-07-04T09:13:22.000Z</time>
      </trkpt>
      <trkpt lat="47.34728" lon="-2.35324">
        <ele>12</ele>
        <time>2019-07-04T09:13:23.000Z</time>
      </trkpt>
      <trkpt lat="47.34728" lon="-2.35329">
        <ele>12.39999961853</ele>
        <time>2019-07-04T09:13:24.000Z</time>
      </trkpt>
      <trkpt lat="47.34727" lon="-2.35333">
        <ele>12.800000190735</ele>
        <time>2019-07-04T09:13:25.000Z</time>
      </trkpt>
      <trkpt lat="47.34729" lon="-2.35343">
        <ele>12.800000190735</ele>
        <time>2019-07-04T09:13:29.000Z</time>
      </trkpt>
      <trkpt lat="47.34729" lon="-2.35346">
        <ele>12.800000190735</ele>
        <time>2019-07-04T09:13:30.000Z</time>
      </trkpt>
      <trkpt lat="47.34727" lon="-2.35355">
        <ele>12.800000190735</ele>
        <time>2019-07-04T09:13:33.000Z</time>
      </trkpt>
      <trkpt lat="47.34725" lon="-2.35359">
        <ele>12.800000190735</ele>
        <time>2019-07-04T09:13:34.000Z</time>
      </trkpt>
      <trkpt lat="47.34717" lon="-2.35373">
        <ele>12.800000190735</ele>
        <time>2019-07-04T09:13:37.000Z</time>
      </trkpt>
      <trkpt lat="47.34702" lon="-2.35391">
        <ele>12.800000190735</ele>
        <time>2019-07-04T09:13:42.000Z</time>
      </trkpt>
      <trkpt lat="47.34696" lon="-2.35393">
        <ele>12.800000190735</ele>
        <time>2019-07-04T09:13:44.000Z</time>
      </trkpt>
      <trkpt lat="47.34688" lon="-2.35394">
        <ele>12.800000190735</ele>
        <time>2019-07-04T09:13:46.000Z</time>
      </trkpt>
      <trkpt lat="47.34662" lon="-2.35399">
        <ele>12.800000190735</ele>
        <time>2019-07-04T09:13:53.000Z</time>
      </trkpt>
      <trkpt lat="47.34648" lon="-2.35401">
        <ele>12.800000190735</ele>
        <time>2019-07-04T09:13:57.000Z</time>
      </trkpt>
      <trkpt lat="47.3464" lon="-2.35399">
        <ele>12.800000190735</ele>
        <time>2019-07-04T09:13:59.000Z</time>
      </trkpt>
      <trkpt lat="47.3463" lon="-2.35392">
        <ele>12.800000190735</ele>
        <time>2019-07-04T09:14:01.000Z</time>
      </trkpt>
      <trkpt lat="47.34605" lon="-2.35371">
        <ele>12.800000190735</ele>
        <time>2019-07-04T09:14:07.000Z</time>
      </trkpt>
      <trkpt lat="47.34597" lon="-2.35368">
        <ele>12.800000190735</ele>
        <time>2019-07-04T09:14:09.000Z</time>
      </trkpt>
      <trkpt lat="47.34591" lon="-2.3537">
        <ele>12.800000190735</ele>
        <time>2019-07-04T09:14:11.000Z</time>
      </trkpt>
      <trkpt lat="47.34576" lon="-2.35372">
        <ele>12.800000190735</ele>
        <time>2019-07-04T09:14:15.000Z</time>
      </trkpt>
      <trkpt lat="47.34567" lon="-2.35368">
        <ele>12.800000190735</ele>
        <time>2019-07-04T09:14:17.000Z</time>
      </trkpt>
      <trkpt lat="47.34552" lon="-2.35364">
        <ele>12.800000190735</ele>
        <time>2019-07-04T09:14:20.000Z</time>
      </trkpt>
      <trkpt lat="47.3454" lon="-2.35361">
        <ele>12.800000190735</ele>
        <time>2019-07-04T09:14:22.000Z</time>
      </trkpt>
      <trkpt lat="47.34528" lon="-2.35362">
        <ele>12.800000190735</ele>
        <time>2019-07-04T09:14:24.000Z</time>
      </trkpt>
      <trkpt lat="47.34517" lon="-2.35365">
        <ele>12.800000190735</ele>
        <time>2019-07-04T09:14:26.000Z</time>
      </trkpt>
      <trkpt lat="47.34506" lon="-2.35373">
        <ele>12.800000190735</ele>
        <time>2019-07-04T09:14:28.000Z</time>
      </trkpt>
      <trkpt lat="47.34483" lon="-2.35394">
        <ele>12.800000190735</ele>
        <time>2019-07-04T09:14:33.000Z</time>
      </trkpt>
      <trkpt lat="47.34479" lon="-2.35398">
        <ele>12.39999961853</ele>
        <time>2019-07-04T09:14:34.000Z</time>
      </trkpt>
      <trkpt lat="47.34474" lon="-2.35402">
        <ele>11.800000190735</ele>
        <time>2019-07-04T09:14:35.000Z</time>
      </trkpt>
      <trkpt lat="47.3447" lon="-2.35405">
        <ele>11.39999961853</ele>
        <time>2019-07-04T09:14:36.000Z</time>
      </trkpt>
      <trkpt lat="47.34467" lon="-2.35406">
        <ele>11</ele>
        <time>2019-07-04T09:14:37.000Z</time>
      </trkpt>
      <trkpt lat="47.34464" lon="-2.35407">
        <ele>10.39999961853</ele>
        <time>2019-07-04T09:14:38.000Z</time>
      </trkpt>
      <trkpt lat="47.34455" lon="-2.354">
        <ele>10.39999961853</ele>
        <time>2019-07-04T09:14:42.000Z</time>
      </trkpt>
      <trkpt lat="47.34453" lon="-2.35399">
        <ele>10.39999961853</ele>
        <time>2019-07-04T09:14:43.000Z</time>
      </trkpt>
      <trkpt lat="47.34441" lon="-2.35396">
        <ele>10.39999961853</ele>
        <time>2019-07-04T09:14:48.000Z</time>
      </trkpt>
      <trkpt lat="47.34436" lon="-2.35398">
        <ele>10.39999961853</ele>
        <time>2019-07-04T09:14:50.000Z</time>
      </trkpt>
      <trkpt lat="47.34432" lon="-2.35401">
        <ele>10.39999961853</ele>
        <time>2019-07-04T09:14:52.000Z</time>
      </trkpt>
      <trkpt lat="47.3443" lon="-2.35407">
        <ele>10.39999961853</ele>
        <time>2019-07-04T09:14:53.000Z</time>
      </trkpt>
      <trkpt lat="47.34427" lon="-2.3542">
        <ele>10.39999961853</ele>
        <time>2019-07-04T09:14:55.000Z</time>
      </trkpt>
      <trkpt lat="47.34423" lon="-2.35435">
        <ele>10.39999961853</ele>
        <time>2019-07-04T09:14:57.000Z</time>
      </trkpt>
      <trkpt lat="47.34415" lon="-2.35459">
        <ele>10.39999961853</ele>
        <time>2019-07-04T09:15:00.000Z</time>
      </trkpt>
      <trkpt lat="47.34394" lon="-2.35495">
        <ele>10.39999961853</ele>
        <time>2019-07-04T09:15:05.000Z</time>
      </trkpt>
      <trkpt lat="47.3437" lon="-2.35529">
        <ele>10.39999961853</ele>
        <time>2019-07-04T09:15:10.000Z</time>
      </trkpt>
      <trkpt lat="47.34349" lon="-2.35556">
        <ele>10.39999961853</ele>
        <time>2019-07-04T09:15:14.000Z</time>
      </trkpt>
      <trkpt lat="47.34344" lon="-2.35564">
        <ele>10.39999961853</ele>
        <time>2019-07-04T09:15:15.000Z</time>
      </trkpt>
      <trkpt lat="47.34307" lon="-2.35613">
        <ele>10.39999961853</ele>
        <time>2019-07-04T09:15:22.000Z</time>
      </trkpt>
      <trkpt lat="47.34269" lon="-2.35666">
        <ele>10.39999961853</ele>
        <time>2019-07-04T09:15:30.000Z</time>
      </trkpt>
      <trkpt lat="47.34253" lon="-2.35682">
        <ele>10.39999961853</ele>
        <time>2019-07-04T09:15:33.000Z</time>
      </trkpt>
      <trkpt lat="47.34243" lon="-2.35689">
        <ele>10.39999961853</ele>
        <time>2019-07-04T09:15:35.000Z</time>
      </trkpt>
      <trkpt lat="47.3423" lon="-2.35695">
        <ele>10.39999961853</ele>
        <time>2019-07-04T09:15:38.000Z</time>
      </trkpt>
      <trkpt lat="47.34226" lon="-2.35695">
        <ele>10.39999961853</ele>
        <time>2019-07-04T09:15:39.000Z</time>
      </trkpt>
      <trkpt lat="47.34219" lon="-2.35697">
        <ele>11</ele>
        <time>2019-07-04T09:15:41.000Z</time>
      </trkpt>
      <trkpt lat="47.34217" lon="-2.35697">
        <ele>11.39999961853</ele>
        <time>2019-07-04T09:15:42.000Z</time>
      </trkpt>
      <trkpt lat="47.34215" lon="-2.35698">
        <ele>11.800000190735</ele>
        <time>2019-07-04T09:15:43.000Z</time>
      </trkpt>
      <trkpt lat="47.34214" lon="-2.35698">
        <ele>12.199999809265</ele>
        <time>2019-07-04T09:15:44.000Z</time>
      </trkpt>
      <trkpt lat="47.34211" lon="-2.35699">
        <ele>12.60000038147</ele>
        <time>2019-07-04T09:15:45.000Z</time>
      </trkpt>
      <trkpt lat="47.34208" lon="-2.35702">
        <ele>12.60000038147</ele>
        <time>2019-07-04T09:15:47.000Z</time>
      </trkpt>
      <trkpt lat="47.34206" lon="-2.35708">
        <ele>12.60000038147</ele>
        <time>2019-07-04T09:15:49.000Z</time>
      </trkpt>
      <trkpt lat="47.34206" lon="-2.35714">
        <ele>12.60000038147</ele>
        <time>2019-07-04T09:15:52.000Z</time>
      </trkpt>
      <trkpt lat="47.34207" lon="-2.35717">
        <ele>12.60000038147</ele>
        <time>2019-07-04T09:15:53.000Z</time>
      </trkpt>
      <trkpt lat="47.34209" lon="-2.35722">
        <ele>12.60000038147</ele>
        <time>2019-07-04T09:15:55.000Z</time>
      </trkpt>
      <trkpt lat="47.34214" lon="-2.35726">
        <ele>12.60000038147</ele>
        <time>2019-07-04T09:15:57.000Z</time>
      </trkpt>
      <trkpt lat="47.34216" lon="-2.35728">
        <ele>12.60000038147</ele>
        <time>2019-07-04T09:15:58.000Z</time>
      </trkpt>
      <trkpt lat="47.34219" lon="-2.35736">
        <ele>12.199999809265</ele>
        <time>2019-07-04T09:16:00.000Z</time>
      </trkpt>
      <trkpt lat="47.3422" lon="-2.35743">
        <ele>11.800000190735</ele>
        <time>2019-07-04T09:16:01.000Z</time>
      </trkpt>
      <trkpt lat="47.3422" lon="-2.3575">
        <ele>11.39999961853</ele>
        <time>2019-07-04T09:16:02.000Z</time>
      </trkpt>
      <trkpt lat="47.34221" lon="-2.35757">
        <ele>11</ele>
        <time>2019-07-04T09:16:03.000Z</time>
      </trkpt>
      <trkpt lat="47.34222" lon="-2.35765">
        <ele>10.60000038147</ele>
        <time>2019-07-04T09:16:04.000Z</time>
      </trkpt>
      <trkpt lat="47.34224" lon="-2.35773">
        <ele>10.60000038147</ele>
        <time>2019-07-04T09:16:05.000Z</time>
      </trkpt>
      <trkpt lat="47.3423" lon="-2.35789">
        <ele>10.60000038147</ele>
        <time>2019-07-04T09:16:07.000Z</time>
      </trkpt>
      <trkpt lat="47.34236" lon="-2.35805">
        <ele>10.60000038147</ele>
        <time>2019-07-04T09:16:09.000Z</time>
      </trkpt>
      <trkpt lat="47.34245" lon="-2.35833">
        <ele>10.60000038147</ele>
        <time>2019-07-04T09:16:12.000Z</time>
      </trkpt>
      <trkpt lat="47.34249" lon="-2.35861">
        <ele>10.60000038147</ele>
        <time>2019-07-04T09:16:15.000Z</time>
      </trkpt>
      <trkpt lat="47.34248" lon="-2.35882">
        <ele>10.60000038147</ele>
        <time>2019-07-04T09:16:17.000Z</time>
      </trkpt>
      <trkpt lat="47.34245" lon="-2.35902">
        <ele>10.60000038147</ele>
        <time>2019-07-04T09:16:19.000Z</time>
      </trkpt>
      <trkpt lat="47.3424" lon="-2.35928">
        <ele>10.60000038147</ele>
        <time>2019-07-04T09:16:22.000Z</time>
      </trkpt>
      <trkpt lat="47.3424" lon="-2.35941">
        <ele>10.60000038147</ele>
        <time>2019-07-04T09:16:24.000Z</time>
      </trkpt>
      <trkpt lat="47.34244" lon="-2.35944">
        <ele>10.60000038147</ele>
        <time>2019-07-04T09:16:25.000Z</time>
      </trkpt>
      <trkpt lat="47.34259" lon="-2.35948">
        <ele>11</ele>
        <time>2019-07-04T09:16:28.000Z</time>
      </trkpt>
      <trkpt lat="47.34264" lon="-2.35949">
        <ele>11.39999961853</ele>
        <time>2019-07-04T09:16:29.000Z</time>
      </trkpt>
      <trkpt lat="47.3427" lon="-2.35948">
        <ele>11.800000190735</ele>
        <time>2019-07-04T09:16:30.000Z</time>
      </trkpt>
      <trkpt lat="47.34275" lon="-2.35948">
        <ele>12.199999809265</ele>
        <time>2019-07-04T09:16:31.000Z</time>
      </trkpt>
      <trkpt lat="47.34281" lon="-2.35947">
        <ele>12.60000038147</ele>
        <time>2019-07-04T09:16:32.000Z</time>
      </trkpt>
      <trkpt lat="47.34286" lon="-2.35948">
        <ele>13</ele>
        <time>2019-07-04T09:16:33.000Z</time>
      </trkpt>
      <trkpt lat="47.34292" lon="-2.35949">
        <ele>13.60000038147</ele>
        <time>2019-07-04T09:16:34.000Z</time>
      </trkpt>
      <trkpt lat="47.34296" lon="-2.3595">
        <ele>14</ele>
        <time>2019-07-04T09:16:35.000Z</time>
      </trkpt>
      <trkpt lat="47.34302" lon="-2.35952">
        <ele>14.39999961853</ele>
        <time>2019-07-04T09:16:36.000Z</time>
      </trkpt>
      <trkpt lat="47.34307" lon="-2.35953">
        <ele>14.800000190735</ele>
        <time>2019-07-04T09:16:37.000Z</time>
      </trkpt>
      <trkpt lat="47.34313" lon="-2.35955">
        <ele>15.199999809265</ele>
        <time>2019-07-04T09:16:38.000Z</time>
      </trkpt>
      <trkpt lat="47.34319" lon="-2.35957">
        <ele>15.800000190735</ele>
        <time>2019-07-04T09:16:39.000Z</time>
      </trkpt>
      <trkpt lat="47.34324" lon="-2.3596">
        <ele>16.200000762939</ele>
        <time>2019-07-04T09:16:40.000Z</time>
      </trkpt>
      <trkpt lat="47.3433" lon="-2.35962">
        <ele>16.60000038147</ele>
        <time>2019-07-04T09:16:41.000Z</time>
      </trkpt>
      <trkpt lat="47.34335" lon="-2.35964">
        <ele>17.200000762939</ele>
        <time>2019-07-04T09:16:42.000Z</time>
      </trkpt>
      <trkpt lat="47.34346" lon="-2.3597">
        <ele>17.200000762939</ele>
        <time>2019-07-04T09:16:44.000Z</time>
      </trkpt>
      <trkpt lat="47.34381" lon="-2.35987">
        <ele>17.200000762939</ele>
        <time>2019-07-04T09:16:50.000Z</time>
      </trkpt>
      <trkpt lat="47.34387" lon="-2.3599">
        <ele>17.200000762939</ele>
        <time>2019-07-04T09:16:51.000Z</time>
      </trkpt>
      <trkpt lat="47.34403" lon="-2.36">
        <ele>17.200000762939</ele>
        <time>2019-07-04T09:16:54.000Z</time>
      </trkpt>
      <trkpt lat="47.34415" lon="-2.36022">
        <ele>17.200000762939</ele>
        <time>2019-07-04T09:16:57.000Z</time>
      </trkpt>
      <trkpt lat="47.3442" lon="-2.36037">
        <ele>17.200000762939</ele>
        <time>2019-07-04T09:16:59.000Z</time>
      </trkpt>
      <trkpt lat="47.34426" lon="-2.3606">
        <ele>17.200000762939</ele>
        <time>2019-07-04T09:17:02.000Z</time>
      </trkpt>
      <trkpt lat="47.34441" lon="-2.36103">
        <ele>17.200000762939</ele>
        <time>2019-07-04T09:17:07.000Z</time>
      </trkpt>
      <trkpt lat="47.34468" lon="-2.36165">
        <ele>17.200000762939</ele>
        <time>2019-07-04T09:17:14.000Z</time>
      </trkpt>
      <trkpt lat="47.34497" lon="-2.36215">
        <ele>17.200000762939</ele>
        <time>2019-07-04T09:17:20.000Z</time>
      </trkpt>
      <trkpt lat="47.34505" lon="-2.36231">
        <ele>17.200000762939</ele>
        <time>2019-07-04T09:17:22.000Z</time>
      </trkpt>
      <trkpt lat="47.34507" lon="-2.36241">
        <ele>16.799999237061</ele>
        <time>2019-07-04T09:17:23.000Z</time>
      </trkpt>
      <trkpt lat="47.3451" lon="-2.3625">
        <ele>16.39999961853</ele>
        <time>2019-07-04T09:17:24.000Z</time>
      </trkpt>
      <trkpt lat="47.34512" lon="-2.36259">
        <ele>15.800000190735</ele>
        <time>2019-07-04T09:17:25.000Z</time>
      </trkpt>
      <trkpt lat="47.34516" lon="-2.36269">
        <ele>15.39999961853</ele>
        <time>2019-07-04T09:17:26.000Z</time>
      </trkpt>
      <trkpt lat="47.34519" lon="-2.36278">
        <ele>15</ele>
        <time>2019-07-04T09:17:27.000Z</time>
      </trkpt>
      <trkpt lat="47.34525" lon="-2.36296">
        <ele>15</ele>
        <time>2019-07-04T09:17:29.000Z</time>
      </trkpt>
      <trkpt lat="47.34547" lon="-2.36357">
        <ele>15</ele>
        <time>2019-07-04T09:17:36.000Z</time>
      </trkpt>
      <trkpt lat="47.34553" lon="-2.36372">
        <ele>15</ele>
        <time>2019-07-04T09:17:38.000Z</time>
      </trkpt>
      <trkpt lat="47.34561" lon="-2.36386">
        <ele>15</ele>
        <time>2019-07-04T09:17:40.000Z</time>
      </trkpt>
      <trkpt lat="47.34585" lon="-2.36423">
        <ele>15.39999961853</ele>
        <time>2019-07-04T09:17:46.000Z</time>
      </trkpt>
      <trkpt lat="47.34588" lon="-2.36428">
        <ele>15.800000190735</ele>
        <time>2019-07-04T09:17:47.000Z</time>
      </trkpt>
      <trkpt lat="47.34592" lon="-2.36433">
        <ele>16.200000762939</ele>
        <time>2019-07-04T09:17:48.000Z</time>
      </trkpt>
      <trkpt lat="47.34598" lon="-2.36436">
        <ele>16.60000038147</ele>
        <time>2019-07-04T09:17:49.000Z</time>
      </trkpt>
      <trkpt lat="47.34603" lon="-2.36435">
        <ele>17</ele>
        <time>2019-07-04T09:17:50.000Z</time>
      </trkpt>
      <trkpt lat="47.34623" lon="-2.36423">
        <ele>17</ele>
        <time>2019-07-04T09:17:54.000Z</time>
      </trkpt>
      <trkpt lat="47.34653" lon="-2.36409">
        <ele>17</ele>
        <time>2019-07-04T09:18:00.000Z</time>
      </trkpt>
      <trkpt lat="47.34656" lon="-2.36407">
        <ele>17.60000038147</ele>
        <time>2019-07-04T09:18:01.000Z</time>
      </trkpt>
      <trkpt lat="47.34661" lon="-2.36405">
        <ele>18</ele>
        <time>2019-07-04T09:18:02.000Z</time>
      </trkpt>
      <trkpt lat="47.34664" lon="-2.36404">
        <ele>18.39999961853</ele>
        <time>2019-07-04T09:18:03.000Z</time>
      </trkpt>
      <trkpt lat="47.34668" lon="-2.36402">
        <ele>18.799999237061</ele>
        <time>2019-07-04T09:18:04.000Z</time>
      </trkpt>
      <trkpt lat="47.34671" lon="-2.364">
        <ele>19.200000762939</ele>
        <time>2019-07-04T09:18:05.000Z</time>
      </trkpt>
      <trkpt lat="47.34676" lon="-2.36398">
        <ele>19.200000762939</ele>
        <time>2019-07-04T09:18:06.000Z</time>
      </trkpt>
      <trkpt lat="47.34689" lon="-2.36394">
        <ele>19.200000762939</ele>
        <time>2019-07-04T09:18:09.000Z</time>
      </trkpt>
      <trkpt lat="47.34713" lon="-2.36386">
        <ele>19.200000762939</ele>
        <time>2019-07-04T09:18:15.000Z</time>
      </trkpt>
      <trkpt lat="47.34717" lon="-2.36384">
        <ele>19.60000038147</ele>
        <time>2019-07-04T09:18:16.000Z</time>
      </trkpt>
      <trkpt lat="47.34721" lon="-2.36382">
        <ele>20</ele>
        <time>2019-07-04T09:18:17.000Z</time>
      </trkpt>
      <trkpt lat="47.34726" lon="-2.3638">
        <ele>20.39999961853</ele>
        <time>2019-07-04T09:18:18.000Z</time>
      </trkpt>
      <trkpt lat="47.3473" lon="-2.36377">
        <ele>20.799999237061</ele>
        <time>2019-07-04T09:18:19.000Z</time>
      </trkpt>
      <trkpt lat="47.34734" lon="-2.36374">
        <ele>21.200000762939</ele>
        <time>2019-07-04T09:18:20.000Z</time>
      </trkpt>
      <trkpt lat="47.34739" lon="-2.36371">
        <ele>21.200000762939</ele>
        <time>2019-07-04T09:18:21.000Z</time>
      </trkpt>
      <trkpt lat="47.34763" lon="-2.36356">
        <ele>21.200000762939</ele>
        <time>2019-07-04T09:18:26.000Z</time>
      </trkpt>
      <trkpt lat="47.34793" lon="-2.36335">
        <ele>21.200000762939</ele>
        <time>2019-07-04T09:18:32.000Z</time>
      </trkpt>
      <trkpt lat="47.34823" lon="-2.36319">
        <ele>21.200000762939</ele>
        <time>2019-07-04T09:18:38.000Z</time>
      </trkpt>
      <trkpt lat="47.34828" lon="-2.3632">
        <ele>21.200000762939</ele>
        <time>2019-07-04T09:18:39.000Z</time>
      </trkpt>
      <trkpt lat="47.34848" lon="-2.36333">
        <ele>21.200000762939</ele>
        <time>2019-07-04T09:18:43.000Z</time>
      </trkpt>
      <trkpt lat="47.34889" lon="-2.36356">
        <ele>21.200000762939</ele>
        <time>2019-07-04T09:18:50.000Z</time>
      </trkpt>
      <trkpt lat="47.34942" lon="-2.36388">
        <ele>21.200000762939</ele>
        <time>2019-07-04T09:18:58.000Z</time>
      </trkpt>
      <trkpt lat="47.34965" lon="-2.36402">
        <ele>20.799999237061</ele>
        <time>2019-07-04T09:19:01.000Z</time>
      </trkpt>
      <trkpt lat="47.34968" lon="-2.36404">
        <ele>20.39999961853</ele>
        <time>2019-07-04T09:19:02.000Z</time>
      </trkpt>
      <trkpt lat="47.34981" lon="-2.36412">
        <ele>20</ele>
        <time>2019-07-04T09:19:03.000Z</time>
      </trkpt>
      <trkpt lat="47.34988" lon="-2.36417">
        <ele>19.39999961853</ele>
        <time>2019-07-04T09:19:04.000Z</time>
      </trkpt>
      <trkpt lat="47.34995" lon="-2.36423">
        <ele>19</ele>
        <time>2019-07-04T09:19:05.000Z</time>
      </trkpt>
      <trkpt lat="47.35001" lon="-2.36431">
        <ele>19</ele>
        <time>2019-07-04T09:19:06.000Z</time>
      </trkpt>
      <trkpt lat="47.35005" lon="-2.36439">
        <ele>18.60000038147</ele>
        <time>2019-07-04T09:19:07.000Z</time>
      </trkpt>
      <trkpt lat="47.35009" lon="-2.36449">
        <ele>18.200000762939</ele>
        <time>2019-07-04T09:19:08.000Z</time>
      </trkpt>
      <trkpt lat="47.35012" lon="-2.36458">
        <ele>17.799999237061</ele>
        <time>2019-07-04T09:19:09.000Z</time>
      </trkpt>
      <trkpt lat="47.35016" lon="-2.36468">
        <ele>17.39999961853</ele>
        <time>2019-07-04T09:19:10.000Z</time>
      </trkpt>
      <trkpt lat="47.35019" lon="-2.36478">
        <ele>17</ele>
        <time>2019-07-04T09:19:11.000Z</time>
      </trkpt>
      <trkpt lat="47.35043" lon="-2.36523">
        <ele>17</ele>
        <time>2019-07-04T09:19:16.000Z</time>
      </trkpt>
      <trkpt lat="47.35062" lon="-2.36561">
        <ele>17</ele>
        <time>2019-07-04T09:19:21.000Z</time>
      </trkpt>
      <trkpt lat="47.3508" lon="-2.3661">
        <ele>17</ele>
        <time>2019-07-04T09:19:27.000Z</time>
      </trkpt>
      <trkpt lat="47.35095" lon="-2.36652">
        <ele>17.39999961853</ele>
        <time>2019-07-04T09:19:32.000Z</time>
      </trkpt>
      <trkpt lat="47.35098" lon="-2.3666">
        <ele>17.799999237061</ele>
        <time>2019-07-04T09:19:33.000Z</time>
      </trkpt>
      <trkpt lat="47.351" lon="-2.36669">
        <ele>18.200000762939</ele>
        <time>2019-07-04T09:19:34.000Z</time>
      </trkpt>
      <trkpt lat="47.35103" lon="-2.36678">
        <ele>18.60000038147</ele>
        <time>2019-07-04T09:19:35.000Z</time>
      </trkpt>
      <trkpt lat="47.35106" lon="-2.36686">
        <ele>19</ele>
        <time>2019-07-04T09:19:36.000Z</time>
      </trkpt>
      <trkpt lat="47.35117" lon="-2.36728">
        <ele>19</ele>
        <time>2019-07-04T09:19:41.000Z</time>
      </trkpt>
      <trkpt lat="47.35126" lon="-2.36765">
        <ele>19.39999961853</ele>
        <time>2019-07-04T09:19:45.000Z</time>
      </trkpt>
      <trkpt lat="47.35128" lon="-2.36774">
        <ele>20</ele>
        <time>2019-07-04T09:19:46.000Z</time>
      </trkpt>
      <trkpt lat="47.3513" lon="-2.36783">
        <ele>20.39999961853</ele>
        <time>2019-07-04T09:19:47.000Z</time>
      </trkpt>
      <trkpt lat="47.35132" lon="-2.36792">
        <ele>20.799999237061</ele>
        <time>2019-07-04T09:19:48.000Z</time>
      </trkpt>
      <trkpt lat="47.35135" lon="-2.36801">
        <ele>21.200000762939</ele>
        <time>2019-07-04T09:19:49.000Z</time>
      </trkpt>
      <trkpt lat="47.35146" lon="-2.36849">
        <ele>21.200000762939</ele>
        <time>2019-07-04T09:19:54.000Z</time>
      </trkpt>
      <trkpt lat="47.35163" lon="-2.36912">
        <ele>21.200000762939</ele>
        <time>2019-07-04T09:20:01.000Z</time>
      </trkpt>
      <trkpt lat="47.35185" lon="-2.36962">
        <ele>21.200000762939</ele>
        <time>2019-07-04T09:20:07.000Z</time>
      </trkpt>
      <trkpt lat="47.35208" lon="-2.3701">
        <ele>21.200000762939</ele>
        <time>2019-07-04T09:20:13.000Z</time>
      </trkpt>
      <trkpt lat="47.35218" lon="-2.37039">
        <ele>21.200000762939</ele>
        <time>2019-07-04T09:20:16.000Z</time>
      </trkpt>
      <trkpt lat="47.35226" lon="-2.37076">
        <ele>21.200000762939</ele>
        <time>2019-07-04T09:20:20.000Z</time>
      </trkpt>
      <trkpt lat="47.35235" lon="-2.37123">
        <ele>21.200000762939</ele>
        <time>2019-07-04T09:20:25.000Z</time>
      </trkpt>
      <trkpt lat="47.35242" lon="-2.37148">
        <ele>21.200000762939</ele>
        <time>2019-07-04T09:20:28.000Z</time>
      </trkpt>
      <trkpt lat="47.35248" lon="-2.37163">
        <ele>21.200000762939</ele>
        <time>2019-07-04T09:20:30.000Z</time>
      </trkpt>
      <trkpt lat="47.3527" lon="-2.37203">
        <ele>21.200000762939</ele>
        <time>2019-07-04T09:20:36.000Z</time>
      </trkpt>
      <trkpt lat="47.35277" lon="-2.37215">
        <ele>21.200000762939</ele>
        <time>2019-07-04T09:20:38.000Z</time>
      </trkpt>
      <trkpt lat="47.3528" lon="-2.37225">
        <ele>21.200000762939</ele>
        <time>2019-07-04T09:20:40.000Z</time>
      </trkpt>
      <trkpt lat="47.35283" lon="-2.37237">
        <ele>21.200000762939</ele>
        <time>2019-07-04T09:20:42.000Z</time>
      </trkpt>
      <trkpt lat="47.35284" lon="-2.37253">
        <ele>20.799999237061</ele>
        <time>2019-07-04T09:20:44.000Z</time>
      </trkpt>
      <trkpt lat="47.35284" lon="-2.37261">
        <ele>20.39999961853</ele>
        <time>2019-07-04T09:20:45.000Z</time>
      </trkpt>
      <trkpt lat="47.35283" lon="-2.3727">
        <ele>20</ele>
        <time>2019-07-04T09:20:46.000Z</time>
      </trkpt>
      <trkpt lat="47.35283" lon="-2.37279">
        <ele>19.60000038147</ele>
        <time>2019-07-04T09:20:47.000Z</time>
      </trkpt>
      <trkpt lat="47.35283" lon="-2.37289">
        <ele>19.200000762939</ele>
        <time>2019-07-04T09:20:48.000Z</time>
      </trkpt>
      <trkpt lat="47.35283" lon="-2.37298">
        <ele>19.200000762939</ele>
        <time>2019-07-04T09:20:49.000Z</time>
      </trkpt>
      <trkpt lat="47.35285" lon="-2.37369">
        <ele>19.200000762939</ele>
        <time>2019-07-04T09:20:57.000Z</time>
      </trkpt>
      <trkpt lat="47.35288" lon="-2.37438">
        <ele>19.200000762939</ele>
        <time>2019-07-04T09:21:04.000Z</time>
      </trkpt>
      <trkpt lat="47.35291" lon="-2.37472">
        <ele>19.200000762939</ele>
        <time>2019-07-04T09:21:07.000Z</time>
      </trkpt>
      <trkpt lat="47.35295" lon="-2.37497">
        <ele>19.200000762939</ele>
        <time>2019-07-04T09:21:09.000Z</time>
      </trkpt>
      <trkpt lat="47.35311" lon="-2.37571">
        <ele>19.200000762939</ele>
        <time>2019-07-04T09:21:15.000Z</time>
      </trkpt>
      <trkpt lat="47.35333" lon="-2.37657">
        <ele>19.200000762939</ele>
        <time>2019-07-04T09:21:22.000Z</time>
      </trkpt>
      <trkpt lat="47.35336" lon="-2.37669">
        <ele>19.200000762939</ele>
        <time>2019-07-04T09:21:23.000Z</time>
      </trkpt>
      <trkpt lat="47.35355" lon="-2.3774">
        <ele>19.200000762939</ele>
        <time>2019-07-04T09:21:29.000Z</time>
      </trkpt>
      <trkpt lat="47.35362" lon="-2.37772">
        <ele>18.799999237061</ele>
        <time>2019-07-04T09:21:32.000Z</time>
      </trkpt>
      <trkpt lat="47.35361" lon="-2.3778">
        <ele>18.39999961853</ele>
        <time>2019-07-04T09:21:33.000Z</time>
      </trkpt>
      <trkpt lat="47.35359" lon="-2.37788">
        <ele>18</ele>
        <time>2019-07-04T09:21:34.000Z</time>
      </trkpt>
      <trkpt lat="47.35355" lon="-2.37793">
        <ele>17.39999961853</ele>
        <time>2019-07-04T09:21:35.000Z</time>
      </trkpt>
      <trkpt lat="47.35349" lon="-2.37796">
        <ele>17</ele>
        <time>2019-07-04T09:21:36.000Z</time>
      </trkpt>
      <trkpt lat="47.35328" lon="-2.37801">
        <ele>17</ele>
        <time>2019-07-04T09:21:39.000Z</time>
      </trkpt>
      <trkpt lat="47.35284" lon="-2.37816">
        <ele>17</ele>
        <time>2019-07-04T09:21:45.000Z</time>
      </trkpt>
      <trkpt lat="47.3527" lon="-2.37825">
        <ele>16.60000038147</ele>
        <time>2019-07-04T09:21:47.000Z</time>
      </trkpt>
      <trkpt lat="47.35264" lon="-2.3783">
        <ele>16.200000762939</ele>
        <time>2019-07-04T09:21:48.000Z</time>
      </trkpt>
      <trkpt lat="47.35258" lon="-2.37835">
        <ele>15.800000190735</ele>
        <time>2019-07-04T09:21:49.000Z</time>
      </trkpt>
      <trkpt lat="47.35252" lon="-2.37842">
        <ele>15.39999961853</ele>
        <time>2019-07-04T09:21:50.000Z</time>
      </trkpt>
      <trkpt lat="47.35246" lon="-2.37848">
        <ele>15</ele>
        <time>2019-07-04T09:21:51.000Z</time>
      </trkpt>
      <trkpt lat="47.35214" lon="-2.37875">
        <ele>15</ele>
        <time>2019-07-04T09:21:56.000Z</time>
      </trkpt>
      <trkpt lat="47.35183" lon="-2.37898">
        <ele>15</ele>
        <time>2019-07-04T09:22:01.000Z</time>
      </trkpt>
      <trkpt lat="47.35139" lon="-2.3793">
        <ele>15</ele>
        <time>2019-07-04T09:22:08.000Z</time>
      </trkpt>
      <trkpt lat="47.35101" lon="-2.37959">
        <ele>15</ele>
        <time>2019-07-04T09:22:14.000Z</time>
      </trkpt>
      <trkpt lat="47.35058" lon="-2.37993">
        <ele>15</ele>
        <time>2019-07-04T09:22:21.000Z</time>
      </trkpt>
      <trkpt lat="47.35011" lon="-2.38033">
        <ele>15</ele>
        <time>2019-07-04T09:22:29.000Z</time>
      </trkpt>
      <trkpt lat="47.34981" lon="-2.38059">
        <ele>15</ele>
        <time>2019-07-04T09:22:35.000Z</time>
      </trkpt>
      <trkpt lat="47.3497" lon="-2.38062">
        <ele>15</ele>
        <time>2019-07-04T09:22:38.000Z</time>
      </trkpt>
      <trkpt lat="47.34965" lon="-2.38052">
        <ele>15</ele>
        <time>2019-07-04T09:22:41.000Z</time>
      </trkpt>
      <trkpt lat="47.34964" lon="-2.38049">
        <ele>15</ele>
        <time>2019-07-04T09:22:42.000Z</time>
      </trkpt>
      <trkpt lat="47.34957" lon="-2.38033">
        <ele>15</ele>
        <time>2019-07-04T09:22:45.000Z</time>
      </trkpt>
      <trkpt lat="47.34954" lon="-2.38028">
        <ele>15</ele>
        <time>2019-07-04T09:22:46.000Z</time>
      </trkpt>
      <trkpt lat="47.34944" lon="-2.38011">
        <ele>15</ele>
        <time>2019-07-04T09:22:49.000Z</time>
      </trkpt>
      <trkpt lat="47.34935" lon="-2.38">
        <ele>15</ele>
        <time>2019-07-04T09:22:51.000Z</time>
      </trkpt>
      <trkpt lat="47.34913" lon="-2.37979">
        <ele>15</ele>
        <time>2019-07-04T09:22:55.000Z</time>
      </trkpt>
      <trkpt lat="47.34908" lon="-2.37975">
        <ele>15</ele>
        <time>2019-07-04T09:22:56.000Z</time>
      </trkpt>
      <trkpt lat="47.34886" lon="-2.37959">
        <ele>15</ele>
        <time>2019-07-04T09:23:00.000Z</time>
      </trkpt>
      <trkpt lat="47.3488" lon="-2.37955">
        <ele>15</ele>
        <time>2019-07-04T09:23:01.000Z</time>
      </trkpt>
      <trkpt lat="47.34849" lon="-2.37928">
        <ele>15</ele>
        <time>2019-07-04T09:23:07.000Z</time>
      </trkpt>
      <trkpt lat="47.34817" lon="-2.37904">
        <ele>15</ele>
        <time>2019-07-04T09:23:13.000Z</time>
      </trkpt>
      <trkpt lat="47.34806" lon="-2.37897">
        <ele>15</ele>
        <time>2019-07-04T09:23:15.000Z</time>
      </trkpt>
      <trkpt lat="47.34795" lon="-2.37889">
        <ele>15.39999961853</ele>
        <time>2019-07-04T09:23:17.000Z</time>
      </trkpt>
      <trkpt lat="47.3479" lon="-2.37885">
        <ele>15.800000190735</ele>
        <time>2019-07-04T09:23:18.000Z</time>
      </trkpt>
      <trkpt lat="47.34785" lon="-2.37882">
        <ele>16.200000762939</ele>
        <time>2019-07-04T09:23:19.000Z</time>
      </trkpt>
      <trkpt lat="47.3478" lon="-2.37878">
        <ele>16.60000038147</ele>
        <time>2019-07-04T09:23:20.000Z</time>
      </trkpt>
      <trkpt lat="47.34775" lon="-2.37874">
        <ele>17</ele>
        <time>2019-07-04T09:23:21.000Z</time>
      </trkpt>
      <trkpt lat="47.34765" lon="-2.37868">
        <ele>17</ele>
        <time>2019-07-04T09:23:23.000Z</time>
      </trkpt>
      <trkpt lat="47.34755" lon="-2.37867">
        <ele>17</ele>
        <time>2019-07-04T09:23:25.000Z</time>
      </trkpt>
      <trkpt lat="47.34749" lon="-2.37879">
        <ele>17</ele>
        <time>2019-07-04T09:23:27.000Z</time>
      </trkpt>
      <trkpt lat="47.34744" lon="-2.37894">
        <ele>17</ele>
        <time>2019-07-04T09:23:29.000Z</time>
      </trkpt>
      <trkpt lat="47.34735" lon="-2.37917">
        <ele>17</ele>
        <time>2019-07-04T09:23:32.000Z</time>
      </trkpt>
      <trkpt lat="47.34716" lon="-2.37943">
        <ele>17</ele>
        <time>2019-07-04T09:23:36.000Z</time>
      </trkpt>
      <trkpt lat="47.34711" lon="-2.37949">
        <ele>17</ele>
        <time>2019-07-04T09:23:37.000Z</time>
      </trkpt>
      <trkpt lat="47.34696" lon="-2.37968">
        <ele>17</ele>
        <time>2019-07-04T09:23:40.000Z</time>
      </trkpt>
      <trkpt lat="47.34668" lon="-2.37995">
        <ele>17</ele>
        <time>2019-07-04T09:23:45.000Z</time>
      </trkpt>
      <trkpt lat="47.34633" lon="-2.38022">
        <ele>17</ele>
        <time>2019-07-04T09:23:51.000Z</time>
      </trkpt>
      <trkpt lat="47.34611" lon="-2.38041">
        <ele>17</ele>
        <time>2019-07-04T09:23:55.000Z</time>
      </trkpt>
      <trkpt lat="47.3461" lon="-2.38049">
        <ele>17</ele>
        <time>2019-07-04T09:23:56.000Z</time>
      </trkpt>
      <trkpt lat="47.34612" lon="-2.38073">
        <ele>17</ele>
        <time>2019-07-04T09:23:59.000Z</time>
      </trkpt>
      <trkpt lat="47.34623" lon="-2.38094">
        <ele>17</ele>
        <time>2019-07-04T09:24:02.000Z</time>
      </trkpt>
      <trkpt lat="47.34628" lon="-2.38101">
        <ele>17</ele>
        <time>2019-07-04T09:24:03.000Z</time>
      </trkpt>
      <trkpt lat="47.34644" lon="-2.38131">
        <ele>17</ele>
        <time>2019-07-04T09:24:07.000Z</time>
      </trkpt>
      <trkpt lat="47.34649" lon="-2.38168">
        <ele>17</ele>
        <time>2019-07-04T09:24:11.000Z</time>
      </trkpt>
      <trkpt lat="47.3465" lon="-2.38178">
        <ele>17</ele>
        <time>2019-07-04T09:24:12.000Z</time>
      </trkpt>
      <trkpt lat="47.34652" lon="-2.38247">
        <ele>17</ele>
        <time>2019-07-04T09:24:19.000Z</time>
      </trkpt>
      <trkpt lat="47.34655" lon="-2.38315">
        <ele>17</ele>
        <time>2019-07-04T09:24:26.000Z</time>
      </trkpt>
      <trkpt lat="47.34656" lon="-2.38342">
        <ele>17</ele>
        <time>2019-07-04T09:24:29.000Z</time>
      </trkpt>
      <trkpt lat="47.34658" lon="-2.3837">
        <ele>17</ele>
        <time>2019-07-04T09:24:32.000Z</time>
      </trkpt>
      <trkpt lat="47.34668" lon="-2.38425">
        <ele>17</ele>
        <time>2019-07-04T09:24:38.000Z</time>
      </trkpt>
      <trkpt lat="47.34677" lon="-2.38458">
        <ele>17</ele>
        <time>2019-07-04T09:24:42.000Z</time>
      </trkpt>
      <trkpt lat="47.34679" lon="-2.38466">
        <ele>17</ele>
        <time>2019-07-04T09:24:43.000Z</time>
      </trkpt>
      <trkpt lat="47.34688" lon="-2.38528">
        <ele>17</ele>
        <time>2019-07-04T09:24:50.000Z</time>
      </trkpt>
      <trkpt lat="47.34691" lon="-2.38563">
        <ele>17</ele>
        <time>2019-07-04T09:24:54.000Z</time>
      </trkpt>
      <trkpt lat="47.34691" lon="-2.3858">
        <ele>17</ele>
        <time>2019-07-04T09:24:56.000Z</time>
      </trkpt>
      <trkpt lat="47.3469" lon="-2.38632">
        <ele>17</ele>
        <time>2019-07-04T09:25:02.000Z</time>
      </trkpt>
      <trkpt lat="47.34694" lon="-2.38677">
        <ele>17</ele>
        <time>2019-07-04T09:25:07.000Z</time>
      </trkpt>
      <trkpt lat="47.34696" lon="-2.38695">
        <ele>16.60000038147</ele>
        <time>2019-07-04T09:25:09.000Z</time>
      </trkpt>
      <trkpt lat="47.34697" lon="-2.38704">
        <ele>16.200000762939</ele>
        <time>2019-07-04T09:25:10.000Z</time>
      </trkpt>
      <trkpt lat="47.34699" lon="-2.38713">
        <ele>15.800000190735</ele>
        <time>2019-07-04T09:25:11.000Z</time>
      </trkpt>
      <trkpt lat="47.347" lon="-2.38723">
        <ele>15.39999961853</ele>
        <time>2019-07-04T09:25:12.000Z</time>
      </trkpt>
      <trkpt lat="47.347" lon="-2.38733">
        <ele>15</ele>
        <time>2019-07-04T09:25:13.000Z</time>
      </trkpt>
      <trkpt lat="47.34702" lon="-2.38788">
        <ele>15</ele>
        <time>2019-07-04T09:25:19.000Z</time>
      </trkpt>
      <trkpt lat="47.34704" lon="-2.38832">
        <ele>15</ele>
        <time>2019-07-04T09:25:25.000Z</time>
      </trkpt>
      <trkpt lat="47.34705" lon="-2.38877">
        <ele>15</ele>
        <time>2019-07-04T09:25:31.000Z</time>
      </trkpt>
      <trkpt lat="47.34706" lon="-2.38885">
        <ele>15</ele>
        <time>2019-07-04T09:25:32.000Z</time>
      </trkpt>
      <trkpt lat="47.34707" lon="-2.38916">
        <ele>15</ele>
        <time>2019-07-04T09:25:36.000Z</time>
      </trkpt>
      <trkpt lat="47.34707" lon="-2.38933">
        <ele>15</ele>
        <time>2019-07-04T09:25:38.000Z</time>
      </trkpt>
      <trkpt lat="47.34708" lon="-2.38948">
        <ele>15</ele>
        <time>2019-07-04T09:25:41.000Z</time>
      </trkpt>
      <trkpt lat="47.34705" lon="-2.38982">
        <ele>15</ele>
        <time>2019-07-04T09:25:47.000Z</time>
      </trkpt>
      <trkpt lat="47.34701" lon="-2.39012">
        <ele>15</ele>
        <time>2019-07-04T09:25:52.000Z</time>
      </trkpt>
      <trkpt lat="47.34699" lon="-2.39024">
        <ele>15</ele>
        <time>2019-07-04T09:25:54.000Z</time>
      </trkpt>
      <trkpt lat="47.34696" lon="-2.39052">
        <ele>15</ele>
        <time>2019-07-04T09:25:58.000Z</time>
      </trkpt>
      <trkpt lat="47.34693" lon="-2.39086">
        <ele>15</ele>
        <time>2019-07-04T09:26:03.000Z</time>
      </trkpt>
      <trkpt lat="47.3469" lon="-2.39099">
        <ele>15</ele>
        <time>2019-07-04T09:26:05.000Z</time>
      </trkpt>
      <trkpt lat="47.34686" lon="-2.39126">
        <ele>15</ele>
        <time>2019-07-04T09:26:09.000Z</time>
      </trkpt>
      <trkpt lat="47.34685" lon="-2.39153">
        <ele>15</ele>
        <time>2019-07-04T09:26:13.000Z</time>
      </trkpt>
      <trkpt lat="47.34685" lon="-2.39166">
        <ele>15</ele>
        <time>2019-07-04T09:26:15.000Z</time>
      </trkpt>
      <trkpt lat="47.34691" lon="-2.39194">
        <ele>15</ele>
        <time>2019-07-04T09:26:20.000Z</time>
      </trkpt>
      <trkpt lat="47.34702" lon="-2.39223">
        <ele>15</ele>
        <time>2019-07-04T09:26:25.000Z</time>
      </trkpt>
      <trkpt lat="47.347" lon="-2.3923">
        <ele>15</ele>
        <time>2019-07-04T09:26:26.000Z</time>
      </trkpt>
      <trkpt lat="47.34691" lon="-2.39246">
        <ele>15</ele>
        <time>2019-07-04T09:26:29.000Z</time>
      </trkpt>
      <trkpt lat="47.34683" lon="-2.39262">
        <ele>15</ele>
        <time>2019-07-04T09:26:32.000Z</time>
      </trkpt>
      <trkpt lat="47.34677" lon="-2.39273">
        <ele>15</ele>
        <time>2019-07-04T09:26:34.000Z</time>
      </trkpt>
      <trkpt lat="47.34665" lon="-2.39298">
        <ele>15</ele>
        <time>2019-07-04T09:26:40.000Z</time>
      </trkpt>
      <trkpt lat="47.34661" lon="-2.39309">
        <ele>15.800000190735</ele>
        <time>2019-07-04T09:26:44.000Z</time>
      </trkpt>
      <trkpt lat="47.34661" lon="-2.39312">
        <ele>16.200000762939</ele>
        <time>2019-07-04T09:26:45.000Z</time>
      </trkpt>
      <trkpt lat="47.34662" lon="-2.39314">
        <ele>16.60000038147</ele>
        <time>2019-07-04T09:26:46.000Z</time>
      </trkpt>
      <trkpt lat="47.34662" lon="-2.39317">
        <ele>17</ele>
        <time>2019-07-04T09:26:47.000Z</time>
      </trkpt>
      <trkpt lat="47.34659" lon="-2.39325">
        <ele>17</ele>
        <time>2019-07-04T09:26:50.000Z</time>
      </trkpt>
      <trkpt lat="47.34657" lon="-2.39326">
        <ele>17</ele>
        <time>2019-07-04T09:26:53.000Z</time>
      </trkpt>
      <trkpt lat="47.34653" lon="-2.39328">
        <ele>17</ele>
        <time>2019-07-04T09:28:06.000Z</time>
      </trkpt>
      <trkpt lat="47.34645" lon="-2.3934">
        <ele>17</ele>
        <time>2019-07-04T09:28:12.000Z</time>
      </trkpt>
      <trkpt lat="47.34631" lon="-2.39364">
        <ele>17</ele>
        <time>2019-07-04T09:28:19.000Z</time>
      </trkpt>
      <trkpt lat="47.34625" lon="-2.39376">
        <ele>17.799999237061</ele>
        <time>2019-07-04T09:28:22.000Z</time>
      </trkpt>
      <trkpt lat="47.34623" lon="-2.3938">
        <ele>18.200000762939</ele>
        <time>2019-07-04T09:28:23.000Z</time>
      </trkpt>
      <trkpt lat="47.34621" lon="-2.39383">
        <ele>18.60000038147</ele>
        <time>2019-07-04T09:28:24.000Z</time>
      </trkpt>
      <trkpt lat="47.34619" lon="-2.39385">
        <ele>19</ele>
        <time>2019-07-04T09:28:25.000Z</time>
      </trkpt>
      <trkpt lat="47.34613" lon="-2.39393">
        <ele>19</ele>
        <time>2019-07-04T09:28:28.000Z</time>
      </trkpt>
      <trkpt lat="47.34603" lon="-2.39409">
        <ele>19</ele>
        <time>2019-07-04T09:28:35.000Z</time>
      </trkpt>
      <trkpt lat="47.34602" lon="-2.39414">
        <ele>19</ele>
        <time>2019-07-04T09:28:40.000Z</time>
      </trkpt>
      <trkpt lat="47.346" lon="-2.39416">
        <ele>21.200000762939</ele>
        <time>2019-07-04T09:29:47.000Z</time>
      </trkpt>
      <trkpt lat="47.34604" lon="-2.39408">
        <ele>21.200000762939</ele>
        <time>2019-07-04T09:29:50.000Z</time>
      </trkpt>
      <trkpt lat="47.34617" lon="-2.39385">
        <ele>21.200000762939</ele>
        <time>2019-07-04T09:29:56.000Z</time>
      </trkpt>
      <trkpt lat="47.34634" lon="-2.39357">
        <ele>21.200000762939</ele>
        <time>2019-07-04T09:30:02.000Z</time>
      </trkpt>
      <trkpt lat="47.34654" lon="-2.39329">
        <ele>21.200000762939</ele>
        <time>2019-07-04T09:30:08.000Z</time>
      </trkpt>
      <trkpt lat="47.34657" lon="-2.39324">
        <ele>21.200000762939</ele>
        <time>2019-07-04T09:30:09.000Z</time>
      </trkpt>
      <trkpt lat="47.34657" lon="-2.39312">
        <ele>21.200000762939</ele>
        <time>2019-07-04T09:30:11.000Z</time>
      </trkpt>
      <trkpt lat="47.34655" lon="-2.39307">
        <ele>20.799999237061</ele>
        <time>2019-07-04T09:30:12.000Z</time>
      </trkpt>
      <trkpt lat="47.34652" lon="-2.39303">
        <ele>20.39999961853</ele>
        <time>2019-07-04T09:30:13.000Z</time>
      </trkpt>
      <trkpt lat="47.34648" lon="-2.39298">
        <ele>20</ele>
        <time>2019-07-04T09:30:14.000Z</time>
      </trkpt>
      <trkpt lat="47.34644" lon="-2.39294">
        <ele>19.60000038147</ele>
        <time>2019-07-04T09:30:15.000Z</time>
      </trkpt>
      <trkpt lat="47.34641" lon="-2.39289">
        <ele>19.200000762939</ele>
        <time>2019-07-04T09:30:16.000Z</time>
      </trkpt>
      <trkpt lat="47.34627" lon="-2.39278">
        <ele>19.200000762939</ele>
        <time>2019-07-04T09:30:19.000Z</time>
      </trkpt>
      <trkpt lat="47.34623" lon="-2.39274">
        <ele>19.200000762939</ele>
        <time>2019-07-04T09:30:20.000Z</time>
      </trkpt>
      <trkpt lat="47.34589" lon="-2.3925">
        <ele>19.200000762939</ele>
        <time>2019-07-04T09:30:26.000Z</time>
      </trkpt>
      <trkpt lat="47.34544" lon="-2.3923">
        <ele>19.200000762939</ele>
        <time>2019-07-04T09:30:33.000Z</time>
      </trkpt>
      <trkpt lat="47.34515" lon="-2.39228">
        <ele>19.200000762939</ele>
        <time>2019-07-04T09:30:38.000Z</time>
      </trkpt>
      <trkpt lat="47.34502" lon="-2.3923">
        <ele>19.200000762939</ele>
        <time>2019-07-04T09:30:42.000Z</time>
      </trkpt>
      <trkpt lat="47.34497" lon="-2.3923">
        <ele>19.200000762939</ele>
        <time>2019-07-04T09:30:47.000Z</time>
      </trkpt>
      <trkpt lat="47.34492" lon="-2.39232">
        <ele>19.200000762939</ele>
        <time>2019-07-04T09:30:51.000Z</time>
      </trkpt>
      <trkpt lat="47.34487" lon="-2.39233">
        <ele>19.200000762939</ele>
        <time>2019-07-04T09:30:53.000Z</time>
      </trkpt>
      <trkpt lat="47.34473" lon="-2.39239">
        <ele>19.200000762939</ele>
        <time>2019-07-04T09:30:58.000Z</time>
      </trkpt>
      <trkpt lat="47.34463" lon="-2.39243">
        <ele>19.60000038147</ele>
        <time>2019-07-04T09:31:01.000Z</time>
      </trkpt>
      <trkpt lat="47.34459" lon="-2.39244">
        <ele>20</ele>
        <time>2019-07-04T09:31:02.000Z</time>
      </trkpt>
      <trkpt lat="47.34456" lon="-2.39245">
        <ele>20.39999961853</ele>
        <time>2019-07-04T09:31:03.000Z</time>
      </trkpt>
      <trkpt lat="47.34453" lon="-2.39247">
        <ele>20.799999237061</ele>
        <time>2019-07-04T09:31:04.000Z</time>
      </trkpt>
      <trkpt lat="47.3445" lon="-2.39248">
        <ele>21.200000762939</ele>
        <time>2019-07-04T09:31:05.000Z</time>
      </trkpt>
      <trkpt lat="47.34431" lon="-2.39252">
        <ele>21.200000762939</ele>
        <time>2019-07-04T09:31:10.000Z</time>
      </trkpt>
      <trkpt lat="47.34424" lon="-2.39255">
        <ele>21.60000038147</ele>
        <time>2019-07-04T09:31:12.000Z</time>
      </trkpt>
      <trkpt lat="47.34419" lon="-2.39256">
        <ele>22</ele>
        <time>2019-07-04T09:31:13.000Z</time>
      </trkpt>
      <trkpt lat="47.34415" lon="-2.39257">
        <ele>22.39999961853</ele>
        <time>2019-07-04T09:31:14.000Z</time>
      </trkpt>
      <trkpt lat="47.34411" lon="-2.39259">
        <ele>23.39999961853</ele>
        <time>2019-07-04T09:31:15.000Z</time>
      </trkpt>
      <trkpt lat="47.34406" lon="-2.39259">
        <ele>23.39999961853</ele>
        <time>2019-07-04T09:31:16.000Z</time>
      </trkpt>
      <trkpt lat="47.34402" lon="-2.39261">
        <ele>23.39999961853</ele>
        <time>2019-07-04T09:31:17.000Z</time>
      </trkpt>
      <trkpt lat="47.34385" lon="-2.39269">
        <ele>23.799999237061</ele>
        <time>2019-07-04T09:31:21.000Z</time>
      </trkpt>
      <trkpt lat="47.34381" lon="-2.3927">
        <ele>24.200000762939</ele>
        <time>2019-07-04T09:31:22.000Z</time>
      </trkpt>
      <trkpt lat="47.34377" lon="-2.39272">
        <ele>24.60000038147</ele>
        <time>2019-07-04T09:31:23.000Z</time>
      </trkpt>
      <trkpt lat="47.34372" lon="-2.39275">
        <ele>25.200000762939</ele>
        <time>2019-07-04T09:31:24.000Z</time>
      </trkpt>
      <trkpt lat="47.34368" lon="-2.39277">
        <ele>25.60000038147</ele>
        <time>2019-07-04T09:31:25.000Z</time>
      </trkpt>
      <trkpt lat="47.34351" lon="-2.39286">
        <ele>26</ele>
        <time>2019-07-04T09:31:29.000Z</time>
      </trkpt>
      <trkpt lat="47.34346" lon="-2.39288">
        <ele>26.39999961853</ele>
        <time>2019-07-04T09:31:30.000Z</time>
      </trkpt>
      <trkpt lat="47.34342" lon="-2.39291">
        <ele>26.799999237061</ele>
        <time>2019-07-04T09:31:31.000Z</time>
      </trkpt>
      <trkpt lat="47.34338" lon="-2.39294">
        <ele>27.200000762939</ele>
        <time>2019-07-04T09:31:32.000Z</time>
      </trkpt>
      <trkpt lat="47.34333" lon="-2.39296">
        <ele>27.60000038147</ele>
        <time>2019-07-04T09:31:33.000Z</time>
      </trkpt>
      <trkpt lat="47.34324" lon="-2.39301">
        <ele>27.60000038147</ele>
        <time>2019-07-04T09:31:35.000Z</time>
      </trkpt>
      <trkpt lat="47.34293" lon="-2.39318">
        <ele>27.60000038147</ele>
        <time>2019-07-04T09:31:41.000Z</time>
      </trkpt>
      <trkpt lat="47.34288" lon="-2.3932">
        <ele>28</ele>
        <time>2019-07-04T09:31:42.000Z</time>
      </trkpt>
      <trkpt lat="47.34283" lon="-2.39322">
        <ele>28.39999961853</ele>
        <time>2019-07-04T09:31:43.000Z</time>
      </trkpt>
      <trkpt lat="47.34278" lon="-2.39325">
        <ele>28.799999237061</ele>
        <time>2019-07-04T09:31:44.000Z</time>
      </trkpt>
      <trkpt lat="47.34274" lon="-2.39327">
        <ele>29.200000762939</ele>
        <time>2019-07-04T09:31:45.000Z</time>
      </trkpt>
      <trkpt lat="47.34269" lon="-2.3933">
        <ele>29.60000038147</ele>
        <time>2019-07-04T09:31:46.000Z</time>
      </trkpt>
      <trkpt lat="47.3426" lon="-2.39336">
        <ele>29.60000038147</ele>
        <time>2019-07-04T09:31:48.000Z</time>
      </trkpt>
      <trkpt lat="47.3422" lon="-2.39364">
        <ele>29.60000038147</ele>
        <time>2019-07-04T09:31:57.000Z</time>
      </trkpt>
      <trkpt lat="47.34198" lon="-2.39376">
        <ele>30</ele>
        <time>2019-07-04T09:32:02.000Z</time>
      </trkpt>
      <trkpt lat="47.34193" lon="-2.39379">
        <ele>30.39999961853</ele>
        <time>2019-07-04T09:32:03.000Z</time>
      </trkpt>
      <trkpt lat="47.34189" lon="-2.39382">
        <ele>31</ele>
        <time>2019-07-04T09:32:04.000Z</time>
      </trkpt>
      <trkpt lat="47.34185" lon="-2.39385">
        <ele>31.799999237061</ele>
        <time>2019-07-04T09:32:05.000Z</time>
      </trkpt>
      <trkpt lat="47.34167" lon="-2.39397">
        <ele>31.799999237061</ele>
        <time>2019-07-04T09:32:09.000Z</time>
      </trkpt>
      <trkpt lat="47.34141" lon="-2.39414">
        <ele>31.799999237061</ele>
        <time>2019-07-04T09:32:14.000Z</time>
      </trkpt>
      <trkpt lat="47.34135" lon="-2.39417">
        <ele>31.799999237061</ele>
        <time>2019-07-04T09:32:15.000Z</time>
      </trkpt>
      <trkpt lat="47.34105" lon="-2.39432">
        <ele>31.799999237061</ele>
        <time>2019-07-04T09:32:20.000Z</time>
      </trkpt>
      <trkpt lat="47.34099" lon="-2.3943">
        <ele>31.799999237061</ele>
        <time>2019-07-04T09:32:21.000Z</time>
      </trkpt>
      <trkpt lat="47.3409" lon="-2.3941">
        <ele>31.799999237061</ele>
        <time>2019-07-04T09:32:24.000Z</time>
      </trkpt>
      <trkpt lat="47.34089" lon="-2.39394">
        <ele>31.799999237061</ele>
        <time>2019-07-04T09:32:26.000Z</time>
      </trkpt>
      <trkpt lat="47.34087" lon="-2.39387">
        <ele>31.799999237061</ele>
        <time>2019-07-04T09:32:27.000Z</time>
      </trkpt>
      <trkpt lat="47.34086" lon="-2.39378">
        <ele>31.799999237061</ele>
        <time>2019-07-04T09:32:28.000Z</time>
      </trkpt>
      <trkpt lat="47.34076" lon="-2.3933">
        <ele>31.799999237061</ele>
        <time>2019-07-04T09:32:34.000Z</time>
      </trkpt>
      <trkpt lat="47.34065" lon="-2.39272">
        <ele>31.799999237061</ele>
        <time>2019-07-04T09:32:41.000Z</time>
      </trkpt>
      <trkpt lat="47.34062" lon="-2.39265">
        <ele>31.799999237061</ele>
        <time>2019-07-04T09:32:42.000Z</time>
      </trkpt>
      <trkpt lat="47.34052" lon="-2.39262">
        <ele>31.799999237061</ele>
        <time>2019-07-04T09:32:44.000Z</time>
      </trkpt>
      <trkpt lat="47.34035" lon="-2.3926">
        <ele>31.799999237061</ele>
        <time>2019-07-04T09:32:47.000Z</time>
      </trkpt>
      <trkpt lat="47.34023" lon="-2.3926">
        <ele>31.799999237061</ele>
        <time>2019-07-04T09:32:49.000Z</time>
      </trkpt>
      <trkpt lat="47.33987" lon="-2.39266">
        <ele>31.799999237061</ele>
        <time>2019-07-04T09:32:55.000Z</time>
      </trkpt>
      <trkpt lat="47.3395" lon="-2.39273">
        <ele>31.799999237061</ele>
        <time>2019-07-04T09:33:01.000Z</time>
      </trkpt>
      <trkpt lat="47.33918" lon="-2.39278">
        <ele>31.799999237061</ele>
        <time>2019-07-04T09:33:06.000Z</time>
      </trkpt>
      <trkpt lat="47.33886" lon="-2.39284">
        <ele>31.799999237061</ele>
        <time>2019-07-04T09:33:11.000Z</time>
      </trkpt>
      <trkpt lat="47.33854" lon="-2.3929">
        <ele>32.200000762939</ele>
        <time>2019-07-04T09:33:16.000Z</time>
      </trkpt>
      <trkpt lat="47.33848" lon="-2.3929">
        <ele>32.599998474121</ele>
        <time>2019-07-04T09:33:17.000Z</time>
      </trkpt>
      <trkpt lat="47.33842" lon="-2.39291">
        <ele>33</ele>
        <time>2019-07-04T09:33:18.000Z</time>
      </trkpt>
      <trkpt lat="47.33835" lon="-2.39291">
        <ele>33.799999237061</ele>
        <time>2019-07-04T09:33:19.000Z</time>
      </trkpt>
      <trkpt lat="47.33812" lon="-2.39294">
        <ele>33.799999237061</ele>
        <time>2019-07-04T09:33:23.000Z</time>
      </trkpt>
      <trkpt lat="47.33783" lon="-2.39301">
        <ele>33.799999237061</ele>
        <time>2019-07-04T09:33:28.000Z</time>
      </trkpt>
      <trkpt lat="47.33772" lon="-2.39303">
        <ele>33.799999237061</ele>
        <time>2019-07-04T09:33:30.000Z</time>
      </trkpt>
      <trkpt lat="47.33761" lon="-2.39304">
        <ele>33.799999237061</ele>
        <time>2019-07-04T09:33:32.000Z</time>
      </trkpt>
      <trkpt lat="47.3375" lon="-2.39305">
        <ele>34.400001525879</ele>
        <time>2019-07-04T09:33:34.000Z</time>
      </trkpt>
      <trkpt lat="47.33745" lon="-2.39306">
        <ele>34.799999237061</ele>
        <time>2019-07-04T09:33:35.000Z</time>
      </trkpt>
      <trkpt lat="47.33741" lon="-2.39306">
        <ele>35.200000762939</ele>
        <time>2019-07-04T09:33:36.000Z</time>
      </trkpt>
      <trkpt lat="47.33736" lon="-2.39307">
        <ele>35.599998474121</ele>
        <time>2019-07-04T09:33:37.000Z</time>
      </trkpt>
      <trkpt lat="47.33731" lon="-2.39307">
        <ele>36</ele>
        <time>2019-07-04T09:33:38.000Z</time>
      </trkpt>
      <trkpt lat="47.33716" lon="-2.39311">
        <ele>36</ele>
        <time>2019-07-04T09:33:41.000Z</time>
      </trkpt>
      <trkpt lat="47.33712" lon="-2.39317">
        <ele>36</ele>
        <time>2019-07-04T09:33:42.000Z</time>
      </trkpt>
      <trkpt lat="47.3371" lon="-2.39332">
        <ele>36</ele>
        <time>2019-07-04T09:33:44.000Z</time>
      </trkpt>
      <trkpt lat="47.33707" lon="-2.39365">
        <ele>36</ele>
        <time>2019-07-04T09:33:48.000Z</time>
      </trkpt>
      <trkpt lat="47.33702" lon="-2.39412">
        <ele>36</ele>
        <time>2019-07-04T09:33:54.000Z</time>
      </trkpt>
      <trkpt lat="47.33702" lon="-2.3942">
        <ele>36.400001525879</ele>
        <time>2019-07-04T09:33:55.000Z</time>
      </trkpt>
      <trkpt lat="47.337" lon="-2.39429">
        <ele>36.799999237061</ele>
        <time>2019-07-04T09:33:56.000Z</time>
      </trkpt>
      <trkpt lat="47.33699" lon="-2.39436">
        <ele>37.200000762939</ele>
        <time>2019-07-04T09:33:57.000Z</time>
      </trkpt>
      <trkpt lat="47.33698" lon="-2.39443">
        <ele>37.599998474121</ele>
        <time>2019-07-04T09:33:58.000Z</time>
      </trkpt>
      <trkpt lat="47.33697" lon="-2.3945">
        <ele>38</ele>
        <time>2019-07-04T09:33:59.000Z</time>
      </trkpt>
      <trkpt lat="47.33692" lon="-2.39474">
        <ele>38</ele>
        <time>2019-07-04T09:34:02.000Z</time>
      </trkpt>
      <trkpt lat="47.33687" lon="-2.39491">
        <ele>38</ele>
        <time>2019-07-04T09:34:04.000Z</time>
      </trkpt>
      <trkpt lat="47.33668" lon="-2.39549">
        <ele>38</ele>
        <time>2019-07-04T09:34:11.000Z</time>
      </trkpt>
      <trkpt lat="47.33648" lon="-2.39603">
        <ele>38</ele>
        <time>2019-07-04T09:34:17.000Z</time>
      </trkpt>
      <trkpt lat="47.33626" lon="-2.39659">
        <ele>38</ele>
        <time>2019-07-04T09:34:23.000Z</time>
      </trkpt>
      <trkpt lat="47.33621" lon="-2.39667">
        <ele>37.599998474121</ele>
        <time>2019-07-04T09:34:24.000Z</time>
      </trkpt>
      <trkpt lat="47.33615" lon="-2.39676">
        <ele>37</ele>
        <time>2019-07-04T09:34:25.000Z</time>
      </trkpt>
      <trkpt lat="47.33609" lon="-2.39684">
        <ele>36.599998474121</ele>
        <time>2019-07-04T09:34:26.000Z</time>
      </trkpt>
      <trkpt lat="47.33603" lon="-2.39693">
        <ele>36.200000762939</ele>
        <time>2019-07-04T09:34:27.000Z</time>
      </trkpt>
      <trkpt lat="47.33598" lon="-2.39703">
        <ele>35.599998474121</ele>
        <time>2019-07-04T09:34:28.000Z</time>
      </trkpt>
      <trkpt lat="47.3357" lon="-2.39747">
        <ele>35.599998474121</ele>
        <time>2019-07-04T09:34:33.000Z</time>
      </trkpt>
      <trkpt lat="47.33544" lon="-2.39773">
        <ele>35.599998474121</ele>
        <time>2019-07-04T09:34:37.000Z</time>
      </trkpt>
      <trkpt lat="47.33502" lon="-2.3983">
        <ele>35.599998474121</ele>
        <time>2019-07-04T09:34:44.000Z</time>
      </trkpt>
      <trkpt lat="47.33471" lon="-2.39874">
        <ele>35.599998474121</ele>
        <time>2019-07-04T09:34:50.000Z</time>
      </trkpt>
      <trkpt lat="47.33466" lon="-2.39881">
        <ele>36</ele>
        <time>2019-07-04T09:34:51.000Z</time>
      </trkpt>
      <trkpt lat="47.3346" lon="-2.39888">
        <ele>36.400001525879</ele>
        <time>2019-07-04T09:34:52.000Z</time>
      </trkpt>
      <trkpt lat="47.33455" lon="-2.39894">
        <ele>36.799999237061</ele>
        <time>2019-07-04T09:34:53.000Z</time>
      </trkpt>
      <trkpt lat="47.3345" lon="-2.39901">
        <ele>37.200000762939</ele>
        <time>2019-07-04T09:34:54.000Z</time>
      </trkpt>
      <trkpt lat="47.33445" lon="-2.39908">
        <ele>37.599998474121</ele>
        <time>2019-07-04T09:34:55.000Z</time>
      </trkpt>
      <trkpt lat="47.33435" lon="-2.39922">
        <ele>37.599998474121</ele>
        <time>2019-07-04T09:34:57.000Z</time>
      </trkpt>
      <trkpt lat="47.33426" lon="-2.39934">
        <ele>38.200000762939</ele>
        <time>2019-07-04T09:34:59.000Z</time>
      </trkpt>
      <trkpt lat="47.33421" lon="-2.39941">
        <ele>38.599998474121</ele>
        <time>2019-07-04T09:35:00.000Z</time>
      </trkpt>
      <trkpt lat="47.33416" lon="-2.39949">
        <ele>39</ele>
        <time>2019-07-04T09:35:01.000Z</time>
      </trkpt>
      <trkpt lat="47.33412" lon="-2.39956">
        <ele>39.400001525879</ele>
        <time>2019-07-04T09:35:02.000Z</time>
      </trkpt>
      <trkpt lat="47.33407" lon="-2.39963">
        <ele>39.799999237061</ele>
        <time>2019-07-04T09:35:03.000Z</time>
      </trkpt>
      <trkpt lat="47.33385" lon="-2.39998">
        <ele>39.799999237061</ele>
        <time>2019-07-04T09:35:08.000Z</time>
      </trkpt>
      <trkpt lat="47.3336" lon="-2.40039">
        <ele>39.799999237061</ele>
        <time>2019-07-04T09:35:14.000Z</time>
      </trkpt>
      <trkpt lat="47.33355" lon="-2.40054">
        <ele>40.400001525879</ele>
        <time>2019-07-04T09:35:16.000Z</time>
      </trkpt>
      <trkpt lat="47.33354" lon="-2.40063">
        <ele>40.799999237061</ele>
        <time>2019-07-04T09:35:17.000Z</time>
      </trkpt>
      <trkpt lat="47.33353" lon="-2.40072">
        <ele>41.400001525879</ele>
        <time>2019-07-04T09:35:18.000Z</time>
      </trkpt>
      <trkpt lat="47.33352" lon="-2.40081">
        <ele>41.799999237061</ele>
        <time>2019-07-04T09:35:19.000Z</time>
      </trkpt>
      <trkpt lat="47.33352" lon="-2.4009">
        <ele>42.400001525879</ele>
        <time>2019-07-04T09:35:20.000Z</time>
      </trkpt>
      <trkpt lat="47.3335" lon="-2.40126">
        <ele>42.400001525879</ele>
        <time>2019-07-04T09:35:24.000Z</time>
      </trkpt>
      <trkpt lat="47.33349" lon="-2.40155">
        <ele>42.400001525879</ele>
        <time>2019-07-04T09:35:27.000Z</time>
      </trkpt>
      <trkpt lat="47.33347" lon="-2.40174">
        <ele>42.400001525879</ele>
        <time>2019-07-04T09:35:29.000Z</time>
      </trkpt>
      <trkpt lat="47.33341" lon="-2.4024">
        <ele>42.400001525879</ele>
        <time>2019-07-04T09:35:36.000Z</time>
      </trkpt>
      <trkpt lat="47.33332" lon="-2.40312">
        <ele>42.400001525879</ele>
        <time>2019-07-04T09:35:43.000Z</time>
      </trkpt>
      <trkpt lat="47.33326" lon="-2.40332">
        <ele>42.400001525879</ele>
        <time>2019-07-04T09:35:45.000Z</time>
      </trkpt>
      <trkpt lat="47.33316" lon="-2.40361">
        <ele>41.799999237061</ele>
        <time>2019-07-04T09:35:48.000Z</time>
      </trkpt>
      <trkpt lat="47.33313" lon="-2.40371">
        <ele>41.400001525879</ele>
        <time>2019-07-04T09:35:49.000Z</time>
      </trkpt>
      <trkpt lat="47.33311" lon="-2.4038">
        <ele>40.799999237061</ele>
        <time>2019-07-04T09:35:50.000Z</time>
      </trkpt>
      <trkpt lat="47.33311" lon="-2.4039">
        <ele>40.400001525879</ele>
        <time>2019-07-04T09:35:51.000Z</time>
      </trkpt>
      <trkpt lat="47.33312" lon="-2.40399">
        <ele>40</ele>
        <time>2019-07-04T09:35:52.000Z</time>
      </trkpt>
      <trkpt lat="47.33314" lon="-2.40409">
        <ele>40</ele>
        <time>2019-07-04T09:35:53.000Z</time>
      </trkpt>
      <trkpt lat="47.33314" lon="-2.40419">
        <ele>39.400001525879</ele>
        <time>2019-07-04T09:35:54.000Z</time>
      </trkpt>
      <trkpt lat="47.33314" lon="-2.40429">
        <ele>39</ele>
        <time>2019-07-04T09:35:55.000Z</time>
      </trkpt>
      <trkpt lat="47.33314" lon="-2.40438">
        <ele>38.400001525879</ele>
        <time>2019-07-04T09:35:56.000Z</time>
      </trkpt>
      <trkpt lat="47.33313" lon="-2.40451">
        <ele>38</ele>
        <time>2019-07-04T09:35:57.000Z</time>
      </trkpt>
      <trkpt lat="47.33312" lon="-2.40463">
        <ele>37.599998474121</ele>
        <time>2019-07-04T09:35:58.000Z</time>
      </trkpt>
      <trkpt lat="47.33311" lon="-2.40475">
        <ele>37.599998474121</ele>
        <time>2019-07-04T09:35:59.000Z</time>
      </trkpt>
      <trkpt lat="47.33309" lon="-2.40486">
        <ele>37.599998474121</ele>
        <time>2019-07-04T09:36:00.000Z</time>
      </trkpt>
      <trkpt lat="47.33305" lon="-2.40497">
        <ele>37.599998474121</ele>
        <time>2019-07-04T09:36:01.000Z</time>
      </trkpt>
      <trkpt lat="47.33295" lon="-2.4052">
        <ele>37.200000762939</ele>
        <time>2019-07-04T09:36:03.000Z</time>
      </trkpt>
      <trkpt lat="47.33289" lon="-2.4053">
        <ele>36.799999237061</ele>
        <time>2019-07-04T09:36:04.000Z</time>
      </trkpt>
      <trkpt lat="47.33284" lon="-2.40542">
        <ele>36.200000762939</ele>
        <time>2019-07-04T09:36:05.000Z</time>
      </trkpt>
      <trkpt lat="47.3328" lon="-2.40553">
        <ele>35.799999237061</ele>
        <time>2019-07-04T09:36:06.000Z</time>
      </trkpt>
      <trkpt lat="47.33276" lon="-2.40564">
        <ele>35.400001525879</ele>
        <time>2019-07-04T09:36:07.000Z</time>
      </trkpt>
      <trkpt lat="47.33255" lon="-2.40638">
        <ele>35.400001525879</ele>
        <time>2019-07-04T09:36:14.000Z</time>
      </trkpt>
      <trkpt lat="47.3324" lon="-2.40689">
        <ele>35.799999237061</ele>
        <time>2019-07-04T09:36:19.000Z</time>
      </trkpt>
      <trkpt lat="47.33238" lon="-2.40699">
        <ele>36.200000762939</ele>
        <time>2019-07-04T09:36:20.000Z</time>
      </trkpt>
      <trkpt lat="47.33236" lon="-2.4071">
        <ele>36.599998474121</ele>
        <time>2019-07-04T09:36:21.000Z</time>
      </trkpt>
      <trkpt lat="47.33234" lon="-2.40721">
        <ele>37.200000762939</ele>
        <time>2019-07-04T09:36:22.000Z</time>
      </trkpt>
      <trkpt lat="47.33233" lon="-2.40732">
        <ele>37.599998474121</ele>
        <time>2019-07-04T09:36:23.000Z</time>
      </trkpt>
      <trkpt lat="47.33222" lon="-2.40786">
        <ele>37.599998474121</ele>
        <time>2019-07-04T09:36:28.000Z</time>
      </trkpt>
      <trkpt lat="47.33219" lon="-2.40795">
        <ele>38</ele>
        <time>2019-07-04T09:36:29.000Z</time>
      </trkpt>
      <trkpt lat="47.33215" lon="-2.40803">
        <ele>38.400001525879</ele>
        <time>2019-07-04T09:36:30.000Z</time>
      </trkpt>
      <trkpt lat="47.3321" lon="-2.40811">
        <ele>38.799999237061</ele>
        <time>2019-07-04T09:36:31.000Z</time>
      </trkpt>
      <trkpt lat="47.33206" lon="-2.40818">
        <ele>39.200000762939</ele>
        <time>2019-07-04T09:36:32.000Z</time>
      </trkpt>
      <trkpt lat="47.33201" lon="-2.40826">
        <ele>39.599998474121</ele>
        <time>2019-07-04T09:36:33.000Z</time>
      </trkpt>
      <trkpt lat="47.33187" lon="-2.40847">
        <ele>40</ele>
        <time>2019-07-04T09:36:36.000Z</time>
      </trkpt>
      <trkpt lat="47.33182" lon="-2.40853">
        <ele>40.799999237061</ele>
        <time>2019-07-04T09:36:37.000Z</time>
      </trkpt>
      <trkpt lat="47.33177" lon="-2.4086">
        <ele>41.200000762939</ele>
        <time>2019-07-04T09:36:38.000Z</time>
      </trkpt>
      <trkpt lat="47.33173" lon="-2.40867">
        <ele>41.599998474121</ele>
        <time>2019-07-04T09:36:39.000Z</time>
      </trkpt>
      <trkpt lat="47.33143" lon="-2.40921">
        <ele>41.599998474121</ele>
        <time>2019-07-04T09:36:46.000Z</time>
      </trkpt>
      <trkpt lat="47.33134" lon="-2.40938">
        <ele>42</ele>
        <time>2019-07-04T09:36:48.000Z</time>
      </trkpt>
      <trkpt lat="47.3313" lon="-2.40946">
        <ele>42.400001525879</ele>
        <time>2019-07-04T09:36:49.000Z</time>
      </trkpt>
      <trkpt lat="47.33127" lon="-2.40955">
        <ele>42.799999237061</ele>
        <time>2019-07-04T09:36:50.000Z</time>
      </trkpt>
      <trkpt lat="47.33122" lon="-2.40963">
        <ele>43.200000762939</ele>
        <time>2019-07-04T09:36:51.000Z</time>
      </trkpt>
      <trkpt lat="47.33119" lon="-2.40971">
        <ele>43.599998474121</ele>
        <time>2019-07-04T09:36:52.000Z</time>
      </trkpt>
      <trkpt lat="47.33115" lon="-2.4098">
        <ele>43.599998474121</ele>
        <time>2019-07-04T09:36:53.000Z</time>
      </trkpt>
      <trkpt lat="47.33103" lon="-2.41014">
        <ele>43.599998474121</ele>
        <time>2019-07-04T09:36:57.000Z</time>
      </trkpt>
      <trkpt lat="47.33089" lon="-2.41059">
        <ele>43.599998474121</ele>
        <time>2019-07-04T09:37:02.000Z</time>
      </trkpt>
      <trkpt lat="47.33079" lon="-2.41087">
        <ele>43.599998474121</ele>
        <time>2019-07-04T09:37:05.000Z</time>
      </trkpt>
      <trkpt lat="47.33071" lon="-2.41105">
        <ele>43.599998474121</ele>
        <time>2019-07-04T09:37:07.000Z</time>
      </trkpt>
      <trkpt lat="47.33067" lon="-2.41114">
        <ele>43.599998474121</ele>
        <time>2019-07-04T09:37:08.000Z</time>
      </trkpt>
      <trkpt lat="47.33047" lon="-2.41157">
        <ele>43.599998474121</ele>
        <time>2019-07-04T09:37:13.000Z</time>
      </trkpt>
      <trkpt lat="47.33024" lon="-2.41204">
        <ele>43.599998474121</ele>
        <time>2019-07-04T09:37:19.000Z</time>
      </trkpt>
      <trkpt lat="47.3302" lon="-2.41211">
        <ele>43.599998474121</ele>
        <time>2019-07-04T09:37:20.000Z</time>
      </trkpt>
      <trkpt lat="47.33008" lon="-2.41228">
        <ele>43.599998474121</ele>
        <time>2019-07-04T09:37:23.000Z</time>
      </trkpt>
      <trkpt lat="47.33" lon="-2.41239">
        <ele>44</ele>
        <time>2019-07-04T09:37:25.000Z</time>
      </trkpt>
      <trkpt lat="47.32996" lon="-2.41243">
        <ele>45</ele>
        <time>2019-07-04T09:37:26.000Z</time>
      </trkpt>
      <trkpt lat="47.32991" lon="-2.41247">
        <ele>45.400001525879</ele>
        <time>2019-07-04T09:37:27.000Z</time>
      </trkpt>
      <trkpt lat="47.32985" lon="-2.41251">
        <ele>45.799999237061</ele>
        <time>2019-07-04T09:37:28.000Z</time>
      </trkpt>
      <trkpt lat="47.32951" lon="-2.41266">
        <ele>45.799999237061</ele>
        <time>2019-07-04T09:37:34.000Z</time>
      </trkpt>
      <trkpt lat="47.32945" lon="-2.41267">
        <ele>45.799999237061</ele>
        <time>2019-07-04T09:37:35.000Z</time>
      </trkpt>
      <trkpt lat="47.32915" lon="-2.41272">
        <ele>45.799999237061</ele>
        <time>2019-07-04T09:37:40.000Z</time>
      </trkpt>
      <trkpt lat="47.32872" lon="-2.41276">
        <ele>46.200000762939</ele>
        <time>2019-07-04T09:37:47.000Z</time>
      </trkpt>
      <trkpt lat="47.32866" lon="-2.41276">
        <ele>46.599998474121</ele>
        <time>2019-07-04T09:37:48.000Z</time>
      </trkpt>
      <trkpt lat="47.3286" lon="-2.41277">
        <ele>47</ele>
        <time>2019-07-04T09:37:49.000Z</time>
      </trkpt>
      <trkpt lat="47.32854" lon="-2.41278">
        <ele>47.400001525879</ele>
        <time>2019-07-04T09:37:50.000Z</time>
      </trkpt>
      <trkpt lat="47.32848" lon="-2.41279">
        <ele>47.799999237061</ele>
        <time>2019-07-04T09:37:51.000Z</time>
      </trkpt>
      <trkpt lat="47.32844" lon="-2.4128">
        <ele>47.799999237061</ele>
        <time>2019-07-04T09:37:52.000Z</time>
      </trkpt>
      <trkpt lat="47.32836" lon="-2.41282">
        <ele>47.799999237061</ele>
        <time>2019-07-04T09:37:55.000Z</time>
      </trkpt>
      <trkpt lat="47.32827" lon="-2.41286">
        <ele>47.799999237061</ele>
        <time>2019-07-04T09:37:59.000Z</time>
      </trkpt>
      <trkpt lat="47.32824" lon="-2.41287">
        <ele>47.799999237061</ele>
        <time>2019-07-04T09:38:00.000Z</time>
      </trkpt>
      <trkpt lat="47.32814" lon="-2.41287">
        <ele>47.799999237061</ele>
        <time>2019-07-04T09:38:02.000Z</time>
      </trkpt>
      <trkpt lat="47.32781" lon="-2.41292">
        <ele>47.799999237061</ele>
        <time>2019-07-04T09:38:08.000Z</time>
      </trkpt>
      <trkpt lat="47.32764" lon="-2.41298">
        <ele>47.799999237061</ele>
        <time>2019-07-04T09:38:11.000Z</time>
      </trkpt>
      <trkpt lat="47.32754" lon="-2.41304">
        <ele>47.799999237061</ele>
        <time>2019-07-04T09:38:13.000Z</time>
      </trkpt>
      <trkpt lat="47.32748" lon="-2.41308">
        <ele>47.799999237061</ele>
        <time>2019-07-04T09:38:14.000Z</time>
      </trkpt>
      <trkpt lat="47.32743" lon="-2.41312">
        <ele>47.799999237061</ele>
        <time>2019-07-04T09:38:16.000Z</time>
      </trkpt>
      <trkpt lat="47.32742" lon="-2.41313">
        <ele>47.799999237061</ele>
        <time>2019-07-04T09:38:17.000Z</time>
      </trkpt>
      <trkpt lat="47.3274" lon="-2.41317">
        <ele>47.799999237061</ele>
        <time>2019-07-04T09:38:21.000Z</time>
      </trkpt>
      <trkpt lat="47.32732" lon="-2.41325">
        <ele>47.799999237061</ele>
        <time>2019-07-04T09:38:24.000Z</time>
      </trkpt>
      <trkpt lat="47.32717" lon="-2.41326">
        <ele>47.799999237061</ele>
        <time>2019-07-04T09:38:27.000Z</time>
      </trkpt>
      <trkpt lat="47.32711" lon="-2.41324">
        <ele>47.799999237061</ele>
        <time>2019-07-04T09:38:28.000Z</time>
      </trkpt>
      <trkpt lat="47.32704" lon="-2.41324">
        <ele>47.799999237061</ele>
        <time>2019-07-04T09:38:29.000Z</time>
      </trkpt>
      <trkpt lat="47.32692" lon="-2.41328">
        <ele>47.799999237061</ele>
        <time>2019-07-04T09:38:31.000Z</time>
      </trkpt>
      <trkpt lat="47.32643" lon="-2.41354">
        <ele>47.799999237061</ele>
        <time>2019-07-04T09:38:39.000Z</time>
      </trkpt>
      <trkpt lat="47.32597" lon="-2.41386">
        <ele>48.200000762939</ele>
        <time>2019-07-04T09:38:47.000Z</time>
      </trkpt>
      <trkpt lat="47.32591" lon="-2.41389">
        <ele>48.599998474121</ele>
        <time>2019-07-04T09:38:48.000Z</time>
      </trkpt>
      <trkpt lat="47.32585" lon="-2.41393">
        <ele>49.200000762939</ele>
        <time>2019-07-04T09:38:49.000Z</time>
      </trkpt>
      <trkpt lat="47.32581" lon="-2.414">
        <ele>49.599998474121</ele>
        <time>2019-07-04T09:38:50.000Z</time>
      </trkpt>
      <trkpt lat="47.32579" lon="-2.41408">
        <ele>50</ele>
        <time>2019-07-04T09:38:51.000Z</time>
      </trkpt>
      <trkpt lat="47.32577" lon="-2.41426">
        <ele>50</ele>
        <time>2019-07-04T09:38:53.000Z</time>
      </trkpt>
      <trkpt lat="47.32576" lon="-2.41444">
        <ele>50.400001525879</ele>
        <time>2019-07-04T09:38:55.000Z</time>
      </trkpt>
      <trkpt lat="47.32575" lon="-2.41453">
        <ele>50.799999237061</ele>
        <time>2019-07-04T09:38:56.000Z</time>
      </trkpt>
      <trkpt lat="47.32573" lon="-2.4146">
        <ele>51.200000762939</ele>
        <time>2019-07-04T09:38:57.000Z</time>
      </trkpt>
      <trkpt lat="47.3257" lon="-2.41466">
        <ele>51.599998474121</ele>
        <time>2019-07-04T09:38:58.000Z</time>
      </trkpt>
      <trkpt lat="47.32565" lon="-2.41469">
        <ele>52</ele>
        <time>2019-07-04T09:38:59.000Z</time>
      </trkpt>
      <trkpt lat="47.32559" lon="-2.41468">
        <ele>52</ele>
        <time>2019-07-04T09:39:00.000Z</time>
      </trkpt>
      <trkpt lat="47.32546" lon="-2.4145">
        <ele>52</ele>
        <time>2019-07-04T09:39:03.000Z</time>
      </trkpt>
      <trkpt lat="47.32543" lon="-2.41443">
        <ele>52</ele>
        <time>2019-07-04T09:39:04.000Z</time>
      </trkpt>
      <trkpt lat="47.32536" lon="-2.41429">
        <ele>52.400001525879</ele>
        <time>2019-07-04T09:39:06.000Z</time>
      </trkpt>
      <trkpt lat="47.32532" lon="-2.41422">
        <ele>53</ele>
        <time>2019-07-04T09:39:07.000Z</time>
      </trkpt>
      <trkpt lat="47.32529" lon="-2.41415">
        <ele>53.400001525879</ele>
        <time>2019-07-04T09:39:08.000Z</time>
      </trkpt>
      <trkpt lat="47.32526" lon="-2.41408">
        <ele>54</ele>
        <time>2019-07-04T09:39:09.000Z</time>
      </trkpt>
      <trkpt lat="47.32522" lon="-2.41401">
        <ele>54.400001525879</ele>
        <time>2019-07-04T09:39:10.000Z</time>
      </trkpt>
      <trkpt lat="47.32499" lon="-2.41357">
        <ele>54.400001525879</ele>
        <time>2019-07-04T09:39:16.000Z</time>
      </trkpt>
      <trkpt lat="47.3247" lon="-2.41298">
        <ele>54.400001525879</ele>
        <time>2019-07-04T09:39:24.000Z</time>
      </trkpt>
      <trkpt lat="47.32448" lon="-2.41253">
        <ele>54.400001525879</ele>
        <time>2019-07-04T09:39:30.000Z</time>
      </trkpt>
      <trkpt lat="47.32444" lon="-2.41246">
        <ele>54.400001525879</ele>
        <time>2019-07-04T09:39:31.000Z</time>
      </trkpt>
      <trkpt lat="47.32417" lon="-2.41201">
        <ele>54.400001525879</ele>
        <time>2019-07-04T09:39:38.000Z</time>
      </trkpt>
      <trkpt lat="47.32411" lon="-2.41185">
        <ele>54.400001525879</ele>
        <time>2019-07-04T09:39:42.000Z</time>
      </trkpt>
      <trkpt lat="47.32411" lon="-2.41184">
        <ele>54.400001525879</ele>
        <time>2019-07-04T09:39:44.000Z</time>
      </trkpt>
      <trkpt lat="47.3241" lon="-2.41182">
        <ele>54.400001525879</ele>
        <time>2019-07-04T09:39:46.000Z</time>
      </trkpt>
      <trkpt lat="47.32411" lon="-2.41164">
        <ele>54.400001525879</ele>
        <time>2019-07-04T09:39:50.000Z</time>
      </trkpt>
      <trkpt lat="47.32402" lon="-2.41142">
        <ele>54.400001525879</ele>
        <time>2019-07-04T09:39:54.000Z</time>
      </trkpt>
      <trkpt lat="47.32386" lon="-2.41111">
        <ele>54.400001525879</ele>
        <time>2019-07-04T09:39:59.000Z</time>
      </trkpt>
      <trkpt lat="47.32368" lon="-2.41078">
        <ele>54.400001525879</ele>
        <time>2019-07-04T09:40:05.000Z</time>
      </trkpt>
      <trkpt lat="47.32365" lon="-2.41075">
        <ele>54.400001525879</ele>
        <time>2019-07-04T09:40:06.000Z</time>
      </trkpt>
      <trkpt lat="47.32362" lon="-2.4107">
        <ele>54.400001525879</ele>
        <time>2019-07-04T09:40:07.000Z</time>
      </trkpt>
      <trkpt lat="47.32357" lon="-2.41059">
        <ele>54.400001525879</ele>
        <time>2019-07-04T09:40:09.000Z</time>
      </trkpt>
      <trkpt lat="47.32335" lon="-2.41018">
        <ele>54.400001525879</ele>
        <time>2019-07-04T09:40:15.000Z</time>
      </trkpt>
      <trkpt lat="47.32307" lon="-2.40966">
        <ele>54.400001525879</ele>
        <time>2019-07-04T09:40:21.000Z</time>
      </trkpt>
      <trkpt lat="47.32269" lon="-2.40898">
        <ele>54.400001525879</ele>
        <time>2019-07-04T09:40:29.000Z</time>
      </trkpt>
      <trkpt lat="47.32265" lon="-2.40889">
        <ele>54.400001525879</ele>
        <time>2019-07-04T09:40:30.000Z</time>
      </trkpt>
      <trkpt lat="47.32246" lon="-2.40855">
        <ele>54</ele>
        <time>2019-07-04T09:40:34.000Z</time>
      </trkpt>
      <trkpt lat="47.32241" lon="-2.40848">
        <ele>53.599998474121</ele>
        <time>2019-07-04T09:40:35.000Z</time>
      </trkpt>
      <trkpt lat="47.32237" lon="-2.40841">
        <ele>53.200000762939</ele>
        <time>2019-07-04T09:40:36.000Z</time>
      </trkpt>
      <trkpt lat="47.32234" lon="-2.40835">
        <ele>52.799999237061</ele>
        <time>2019-07-04T09:40:37.000Z</time>
      </trkpt>
      <trkpt lat="47.3223" lon="-2.4083">
        <ele>52.400001525879</ele>
        <time>2019-07-04T09:40:38.000Z</time>
      </trkpt>
      <trkpt lat="47.32224" lon="-2.40819">
        <ele>52.400001525879</ele>
        <time>2019-07-04T09:40:41.000Z</time>
      </trkpt>
      <trkpt lat="47.32214" lon="-2.40809">
        <ele>52.400001525879</ele>
        <time>2019-07-04T09:40:45.000Z</time>
      </trkpt>
      <trkpt lat="47.32204" lon="-2.40792">
        <ele>52.400001525879</ele>
        <time>2019-07-04T09:40:49.000Z</time>
      </trkpt>
      <trkpt lat="47.322" lon="-2.40789">
        <ele>52.400001525879</ele>
        <time>2019-07-04T09:40:50.000Z</time>
      </trkpt>
      <trkpt lat="47.32197" lon="-2.40784">
        <ele>52.400001525879</ele>
        <time>2019-07-04T09:40:51.000Z</time>
      </trkpt>
      <trkpt lat="47.32185" lon="-2.40767">
        <ele>52.400001525879</ele>
        <time>2019-07-04T09:40:54.000Z</time>
      </trkpt>
      <trkpt lat="47.32146" lon="-2.40717">
        <ele>52.400001525879</ele>
        <time>2019-07-04T09:41:02.000Z</time>
      </trkpt>
      <trkpt lat="47.32117" lon="-2.40685">
        <ele>52.400001525879</ele>
        <time>2019-07-04T09:41:07.000Z</time>
      </trkpt>
      <trkpt lat="47.32079" lon="-2.40644">
        <ele>52.400001525879</ele>
        <time>2019-07-04T09:41:13.000Z</time>
      </trkpt>
      <trkpt lat="47.32045" lon="-2.40611">
        <ele>51.799999237061</ele>
        <time>2019-07-04T09:41:18.000Z</time>
      </trkpt>
      <trkpt lat="47.32038" lon="-2.40605">
        <ele>51.400001525879</ele>
        <time>2019-07-04T09:41:19.000Z</time>
      </trkpt>
      <trkpt lat="47.32031" lon="-2.40598">
        <ele>51</ele>
        <time>2019-07-04T09:41:20.000Z</time>
      </trkpt>
      <trkpt lat="47.32024" lon="-2.40591">
        <ele>50.400001525879</ele>
        <time>2019-07-04T09:41:21.000Z</time>
      </trkpt>
      <trkpt lat="47.32016" lon="-2.40585">
        <ele>50</ele>
        <time>2019-07-04T09:41:22.000Z</time>
      </trkpt>
      <trkpt lat="47.32009" lon="-2.4058">
        <ele>50</ele>
        <time>2019-07-04T09:41:23.000Z</time>
      </trkpt>
      <trkpt lat="47.31955" lon="-2.40539">
        <ele>50</ele>
        <time>2019-07-04T09:41:30.000Z</time>
      </trkpt>
      <trkpt lat="47.31911" lon="-2.40508">
        <ele>50</ele>
        <time>2019-07-04T09:41:35.000Z</time>
      </trkpt>
      <trkpt lat="47.31887" lon="-2.40489">
        <ele>49.599998474121</ele>
        <time>2019-07-04T09:41:38.000Z</time>
      </trkpt>
      <trkpt lat="47.31878" lon="-2.40481">
        <ele>49</ele>
        <time>2019-07-04T09:41:39.000Z</time>
      </trkpt>
      <trkpt lat="47.31869" lon="-2.40474">
        <ele>48.599998474121</ele>
        <time>2019-07-04T09:41:40.000Z</time>
      </trkpt>
      <trkpt lat="47.31861" lon="-2.40467">
        <ele>48.200000762939</ele>
        <time>2019-07-04T09:41:41.000Z</time>
      </trkpt>
      <trkpt lat="47.31852" lon="-2.4046">
        <ele>47.599998474121</ele>
        <time>2019-07-04T09:41:42.000Z</time>
      </trkpt>
      <trkpt lat="47.31816" lon="-2.40431">
        <ele>47.599998474121</ele>
        <time>2019-07-04T09:41:46.000Z</time>
      </trkpt>
      <trkpt lat="47.31769" lon="-2.40395">
        <ele>47.599998474121</ele>
        <time>2019-07-04T09:41:51.000Z</time>
      </trkpt>
      <trkpt lat="47.31716" lon="-2.40355">
        <ele>47.200000762939</ele>
        <time>2019-07-04T09:41:57.000Z</time>
      </trkpt>
      <trkpt lat="47.31708" lon="-2.40349">
        <ele>46.799999237061</ele>
        <time>2019-07-04T09:41:58.000Z</time>
      </trkpt>
      <trkpt lat="47.31699" lon="-2.40343">
        <ele>45.799999237061</ele>
        <time>2019-07-04T09:41:59.000Z</time>
      </trkpt>
      <trkpt lat="47.3169" lon="-2.40338">
        <ele>45.400001525879</ele>
        <time>2019-07-04T09:42:00.000Z</time>
      </trkpt>
      <trkpt lat="47.31681" lon="-2.40334">
        <ele>45.400001525879</ele>
        <time>2019-07-04T09:42:01.000Z</time>
      </trkpt>
      <trkpt lat="47.31673" lon="-2.40333">
        <ele>45.400001525879</ele>
        <time>2019-07-04T09:42:02.000Z</time>
      </trkpt>
      <trkpt lat="47.31655" lon="-2.40337">
        <ele>45.400001525879</ele>
        <time>2019-07-04T09:42:05.000Z</time>
      </trkpt>
      <trkpt lat="47.31647" lon="-2.40339">
        <ele>45.400001525879</ele>
        <time>2019-07-04T09:42:08.000Z</time>
      </trkpt>
      <trkpt lat="47.31646" lon="-2.40339">
        <ele>45.400001525879</ele>
        <time>2019-07-04T09:42:09.000Z</time>
      </trkpt>
      <trkpt lat="47.31646" lon="-2.4034">
        <ele>45.400001525879</ele>
        <time>2019-07-04T09:42:10.000Z</time>
      </trkpt>
      <trkpt lat="47.3165" lon="-2.40341">
        <ele>45.400001525879</ele>
        <time>2019-07-04T09:42:16.000Z</time>
      </trkpt>
      <trkpt lat="47.31652" lon="-2.40339">
        <ele>45.400001525879</ele>
        <time>2019-07-04T09:42:17.000Z</time>
      </trkpt>
      <trkpt lat="47.31667" lon="-2.40333">
        <ele>45.400001525879</ele>
        <time>2019-07-04T09:42:21.000Z</time>
      </trkpt>
      <trkpt lat="47.3167" lon="-2.40331">
        <ele>45.400001525879</ele>
        <time>2019-07-04T09:42:22.000Z</time>
      </trkpt>
      <trkpt lat="47.31672" lon="-2.40325">
        <ele>45.400001525879</ele>
        <time>2019-07-04T09:42:24.000Z</time>
      </trkpt>
      <trkpt lat="47.3167" lon="-2.40321">
        <ele>45</ele>
        <time>2019-07-04T09:42:26.000Z</time>
      </trkpt>
      <trkpt lat="47.31666" lon="-2.40317">
        <ele>44.599998474121</ele>
        <time>2019-07-04T09:42:27.000Z</time>
      </trkpt>
      <trkpt lat="47.31662" lon="-2.40315">
        <ele>44.200000762939</ele>
        <time>2019-07-04T09:42:28.000Z</time>
      </trkpt>
      <trkpt lat="47.31658" lon="-2.40312">
        <ele>43.799999237061</ele>
        <time>2019-07-04T09:42:29.000Z</time>
      </trkpt>
      <trkpt lat="47.31652" lon="-2.40308">
        <ele>43.200000762939</ele>
        <time>2019-07-04T09:42:30.000Z</time>
      </trkpt>
      <trkpt lat="47.31647" lon="-2.40305">
        <ele>43.200000762939</ele>
        <time>2019-07-04T09:42:31.000Z</time>
      </trkpt>
      <trkpt lat="47.31624" lon="-2.40286">
        <ele>43.200000762939</ele>
        <time>2019-07-04T09:42:35.000Z</time>
      </trkpt>
      <trkpt lat="47.31618" lon="-2.40281">
        <ele>43.200000762939</ele>
        <time>2019-07-04T09:42:36.000Z</time>
      </trkpt>
      <trkpt lat="47.3158" lon="-2.40253">
        <ele>43.200000762939</ele>
        <time>2019-07-04T09:42:42.000Z</time>
      </trkpt>
      <trkpt lat="47.31539" lon="-2.40224">
        <ele>43.200000762939</ele>
        <time>2019-07-04T09:42:49.000Z</time>
      </trkpt>
      <trkpt lat="47.31511" lon="-2.40202">
        <ele>43.200000762939</ele>
        <time>2019-07-04T09:42:54.000Z</time>
      </trkpt>
      <trkpt lat="47.31498" lon="-2.40193">
        <ele>42.799999237061</ele>
        <time>2019-07-04T09:42:56.000Z</time>
      </trkpt>
      <trkpt lat="47.31492" lon="-2.40188">
        <ele>42.400001525879</ele>
        <time>2019-07-04T09:42:57.000Z</time>
      </trkpt>
      <trkpt lat="47.31487" lon="-2.40183">
        <ele>42</ele>
        <time>2019-07-04T09:42:58.000Z</time>
      </trkpt>
      <trkpt lat="47.31481" lon="-2.40178">
        <ele>41.599998474121</ele>
        <time>2019-07-04T09:42:59.000Z</time>
      </trkpt>
      <trkpt lat="47.31476" lon="-2.40174">
        <ele>41.200000762939</ele>
        <time>2019-07-04T09:43:00.000Z</time>
      </trkpt>
      <trkpt lat="47.31452" lon="-2.40157">
        <ele>41.200000762939</ele>
        <time>2019-07-04T09:43:04.000Z</time>
      </trkpt>
      <trkpt lat="47.31415" lon="-2.4013">
        <ele>40.799999237061</ele>
        <time>2019-07-04T09:43:10.000Z</time>
      </trkpt>
      <trkpt lat="47.3141" lon="-2.40126">
        <ele>40.400001525879</ele>
        <time>2019-07-04T09:43:11.000Z</time>
      </trkpt>
      <trkpt lat="47.31404" lon="-2.40122">
        <ele>40</ele>
        <time>2019-07-04T09:43:12.000Z</time>
      </trkpt>
      <trkpt lat="47.31398" lon="-2.40119">
        <ele>39.599998474121</ele>
        <time>2019-07-04T09:43:13.000Z</time>
      </trkpt>
      <trkpt lat="47.31393" lon="-2.40115">
        <ele>39.200000762939</ele>
        <time>2019-07-04T09:43:14.000Z</time>
      </trkpt>
      <trkpt lat="47.31381" lon="-2.40107">
        <ele>39.200000762939</ele>
        <time>2019-07-04T09:43:16.000Z</time>
      </trkpt>
      <trkpt lat="47.31375" lon="-2.40103">
        <ele>39.200000762939</ele>
        <time>2019-07-04T09:43:17.000Z</time>
      </trkpt>
      <trkpt lat="47.31364" lon="-2.40097">
        <ele>39.200000762939</ele>
        <time>2019-07-04T09:43:19.000Z</time>
      </trkpt>
      <trkpt lat="47.31352" lon="-2.40093">
        <ele>39.200000762939</ele>
        <time>2019-07-04T09:43:21.000Z</time>
      </trkpt>
      <trkpt lat="47.31333" lon="-2.40086">
        <ele>39.200000762939</ele>
        <time>2019-07-04T09:43:24.000Z</time>
      </trkpt>
      <trkpt lat="47.31309" lon="-2.40079">
        <ele>39.200000762939</ele>
        <time>2019-07-04T09:43:28.000Z</time>
      </trkpt>
      <trkpt lat="47.31303" lon="-2.40078">
        <ele>38.799999237061</ele>
        <time>2019-07-04T09:43:29.000Z</time>
      </trkpt>
      <trkpt lat="47.31297" lon="-2.40078">
        <ele>38.400001525879</ele>
        <time>2019-07-04T09:43:30.000Z</time>
      </trkpt>
      <trkpt lat="47.3129" lon="-2.40077">
        <ele>37.400001525879</ele>
        <time>2019-07-04T09:43:31.000Z</time>
      </trkpt>
      <trkpt lat="47.31284" lon="-2.40076">
        <ele>36.799999237061</ele>
        <time>2019-07-04T09:43:32.000Z</time>
      </trkpt>
      <trkpt lat="47.31279" lon="-2.40075">
        <ele>36.799999237061</ele>
        <time>2019-07-04T09:43:33.000Z</time>
      </trkpt>
      <trkpt lat="47.31273" lon="-2.40073">
        <ele>36.799999237061</ele>
        <time>2019-07-04T09:43:34.000Z</time>
      </trkpt>
      <trkpt lat="47.31266" lon="-2.40069">
        <ele>36.799999237061</ele>
        <time>2019-07-04T09:43:35.000Z</time>
      </trkpt>
      <trkpt lat="47.31258" lon="-2.4006">
        <ele>36.799999237061</ele>
        <time>2019-07-04T09:43:37.000Z</time>
      </trkpt>
      <trkpt lat="47.31248" lon="-2.40053">
        <ele>36.799999237061</ele>
        <time>2019-07-04T09:43:40.000Z</time>
      </trkpt>
      <trkpt lat="47.31242" lon="-2.40042">
        <ele>36.799999237061</ele>
        <time>2019-07-04T09:43:43.000Z</time>
      </trkpt>
      <trkpt lat="47.31233" lon="-2.40014">
        <ele>36.799999237061</ele>
        <time>2019-07-04T09:43:48.000Z</time>
      </trkpt>
      <trkpt lat="47.31223" lon="-2.39986">
        <ele>36.799999237061</ele>
        <time>2019-07-04T09:43:54.000Z</time>
      </trkpt>
      <trkpt lat="47.31214" lon="-2.39961">
        <ele>36.799999237061</ele>
        <time>2019-07-04T09:44:00.000Z</time>
      </trkpt>
      <trkpt lat="47.31213" lon="-2.39958">
        <ele>37.400001525879</ele>
        <time>2019-07-04T09:44:01.000Z</time>
      </trkpt>
      <trkpt lat="47.31212" lon="-2.39955">
        <ele>37.799999237061</ele>
        <time>2019-07-04T09:44:02.000Z</time>
      </trkpt>
      <trkpt lat="47.31211" lon="-2.3995">
        <ele>38.200000762939</ele>
        <time>2019-07-04T09:44:03.000Z</time>
      </trkpt>
      <trkpt lat="47.3121" lon="-2.39946">
        <ele>38.599998474121</ele>
        <time>2019-07-04T09:44:04.000Z</time>
      </trkpt>
      <trkpt lat="47.31208" lon="-2.39941">
        <ele>39</ele>
        <time>2019-07-04T09:44:05.000Z</time>
      </trkpt>
      <trkpt lat="47.31201" lon="-2.3992">
        <ele>39</ele>
        <time>2019-07-04T09:44:10.000Z</time>
      </trkpt>
      <trkpt lat="47.31195" lon="-2.39902">
        <ele>39</ele>
        <time>2019-07-04T09:44:14.000Z</time>
      </trkpt>
      <trkpt lat="47.31192" lon="-2.39893">
        <ele>39.400001525879</ele>
        <time>2019-07-04T09:44:16.000Z</time>
      </trkpt>
      <trkpt lat="47.31192" lon="-2.39889">
        <ele>39.799999237061</ele>
        <time>2019-07-04T09:44:17.000Z</time>
      </trkpt>
      <trkpt lat="47.3119" lon="-2.39885">
        <ele>40.200000762939</ele>
        <time>2019-07-04T09:44:18.000Z</time>
      </trkpt>
      <trkpt lat="47.31189" lon="-2.39881">
        <ele>40.799999237061</ele>
        <time>2019-07-04T09:44:19.000Z</time>
      </trkpt>
      <trkpt lat="47.31186" lon="-2.39876">
        <ele>41.200000762939</ele>
        <time>2019-07-04T09:44:20.000Z</time>
      </trkpt>
      <trkpt lat="47.31184" lon="-2.3987">
        <ele>41.200000762939</ele>
        <time>2019-07-04T09:44:21.000Z</time>
      </trkpt>
      <trkpt lat="47.31182" lon="-2.39862">
        <ele>41.200000762939</ele>
        <time>2019-07-04T09:44:22.000Z</time>
      </trkpt>
      <trkpt lat="47.3118" lon="-2.39856">
        <ele>41.200000762939</ele>
        <time>2019-07-04T09:44:23.000Z</time>
      </trkpt>
      <trkpt lat="47.31171" lon="-2.39831">
        <ele>41.200000762939</ele>
        <time>2019-07-04T09:44:27.000Z</time>
      </trkpt>
      <trkpt lat="47.31154" lon="-2.39795">
        <ele>41.200000762939</ele>
        <time>2019-07-04T09:44:33.000Z</time>
      </trkpt>
      <trkpt lat="47.31149" lon="-2.39782">
        <ele>41.599998474121</ele>
        <time>2019-07-04T09:44:35.000Z</time>
      </trkpt>
      <trkpt lat="47.31146" lon="-2.39776">
        <ele>42.200000762939</ele>
        <time>2019-07-04T09:44:36.000Z</time>
      </trkpt>
      <trkpt lat="47.31144" lon="-2.39769">
        <ele>42.599998474121</ele>
        <time>2019-07-04T09:44:37.000Z</time>
      </trkpt>
      <trkpt lat="47.31142" lon="-2.39763">
        <ele>43</ele>
        <time>2019-07-04T09:44:38.000Z</time>
      </trkpt>
      <trkpt lat="47.3114" lon="-2.39756">
        <ele>43.599998474121</ele>
        <time>2019-07-04T09:44:39.000Z</time>
      </trkpt>
      <trkpt lat="47.31121" lon="-2.39706">
        <ele>43.599998474121</ele>
        <time>2019-07-04T09:44:48.000Z</time>
      </trkpt>
      <trkpt lat="47.31105" lon="-2.3966">
        <ele>43.599998474121</ele>
        <time>2019-07-04T09:44:55.000Z</time>
      </trkpt>
      <trkpt lat="47.31102" lon="-2.39653">
        <ele>43.599998474121</ele>
        <time>2019-07-04T09:44:56.000Z</time>
      </trkpt>
      <trkpt lat="47.31092" lon="-2.39624">
        <ele>43.599998474121</ele>
        <time>2019-07-04T09:45:00.000Z</time>
      </trkpt>
      <trkpt lat="47.31084" lon="-2.39599">
        <ele>44</ele>
        <time>2019-07-04T09:45:03.000Z</time>
      </trkpt>
      <trkpt lat="47.31081" lon="-2.39592">
        <ele>44.400001525879</ele>
        <time>2019-07-04T09:45:04.000Z</time>
      </trkpt>
      <trkpt lat="47.31078" lon="-2.39583">
        <ele>44.799999237061</ele>
        <time>2019-07-04T09:45:05.000Z</time>
      </trkpt>
      <trkpt lat="47.31075" lon="-2.39575">
        <ele>45.200000762939</ele>
        <time>2019-07-04T09:45:06.000Z</time>
      </trkpt>
      <trkpt lat="47.31072" lon="-2.39566">
        <ele>45.599998474121</ele>
        <time>2019-07-04T09:45:07.000Z</time>
      </trkpt>
      <trkpt lat="47.31053" lon="-2.39508">
        <ele>45.599998474121</ele>
        <time>2019-07-04T09:45:13.000Z</time>
      </trkpt>
      <trkpt lat="47.31049" lon="-2.39497">
        <ele>45.200000762939</ele>
        <time>2019-07-04T09:45:14.000Z</time>
      </trkpt>
      <trkpt lat="47.31045" lon="-2.39486">
        <ele>44.799999237061</ele>
        <time>2019-07-04T09:45:15.000Z</time>
      </trkpt>
      <trkpt lat="47.31042" lon="-2.39475">
        <ele>44.400001525879</ele>
        <time>2019-07-04T09:45:16.000Z</time>
      </trkpt>
      <trkpt lat="47.31038" lon="-2.39464">
        <ele>44</ele>
        <time>2019-07-04T09:45:17.000Z</time>
      </trkpt>
      <trkpt lat="47.31034" lon="-2.39453">
        <ele>43.599998474121</ele>
        <time>2019-07-04T09:45:18.000Z</time>
      </trkpt>
      <trkpt lat="47.31028" lon="-2.39434">
        <ele>43.599998474121</ele>
        <time>2019-07-04T09:45:20.000Z</time>
      </trkpt>
      <trkpt lat="47.3101" lon="-2.3938">
        <ele>43.599998474121</ele>
        <time>2019-07-04T09:45:26.000Z</time>
      </trkpt>
      <trkpt lat="47.30993" lon="-2.39328">
        <ele>43.599998474121</ele>
        <time>2019-07-04T09:45:32.000Z</time>
      </trkpt>
      <trkpt lat="47.30974" lon="-2.39275">
        <ele>43.599998474121</ele>
        <time>2019-07-04T09:45:38.000Z</time>
      </trkpt>
      <trkpt lat="47.30952" lon="-2.39222">
        <ele>43.599998474121</ele>
        <time>2019-07-04T09:45:44.000Z</time>
      </trkpt>
      <trkpt lat="47.3093" lon="-2.39172">
        <ele>44</ele>
        <time>2019-07-04T09:45:50.000Z</time>
      </trkpt>
      <trkpt lat="47.30927" lon="-2.39163">
        <ele>44.400001525879</ele>
        <time>2019-07-04T09:45:51.000Z</time>
      </trkpt>
      <trkpt lat="47.30923" lon="-2.39154">
        <ele>44.799999237061</ele>
        <time>2019-07-04T09:45:52.000Z</time>
      </trkpt>
      <trkpt lat="47.3092" lon="-2.39145">
        <ele>45.200000762939</ele>
        <time>2019-07-04T09:45:53.000Z</time>
      </trkpt>
      <trkpt lat="47.30916" lon="-2.39136">
        <ele>45.599998474121</ele>
        <time>2019-07-04T09:45:54.000Z</time>
      </trkpt>
      <trkpt lat="47.30907" lon="-2.39109">
        <ele>45.599998474121</ele>
        <time>2019-07-04T09:45:57.000Z</time>
      </trkpt>
      <trkpt lat="47.30899" lon="-2.3908">
        <ele>45.599998474121</ele>
        <time>2019-07-04T09:46:00.000Z</time>
      </trkpt>
      <trkpt lat="47.30897" lon="-2.39061">
        <ele>45.599998474121</ele>
        <time>2019-07-04T09:46:02.000Z</time>
      </trkpt>
      <trkpt lat="47.30896" lon="-2.39052">
        <ele>46</ele>
        <time>2019-07-04T09:46:03.000Z</time>
      </trkpt>
      <trkpt lat="47.30897" lon="-2.39041">
        <ele>46.400001525879</ele>
        <time>2019-07-04T09:46:04.000Z</time>
      </trkpt>
      <trkpt lat="47.30897" lon="-2.39032">
        <ele>46.799999237061</ele>
        <time>2019-07-04T09:46:05.000Z</time>
      </trkpt>
      <trkpt lat="47.30898" lon="-2.39022">
        <ele>47.200000762939</ele>
        <time>2019-07-04T09:46:06.000Z</time>
      </trkpt>
      <trkpt lat="47.30898" lon="-2.39012">
        <ele>47.599998474121</ele>
        <time>2019-07-04T09:46:07.000Z</time>
      </trkpt>
      <trkpt lat="47.30902" lon="-2.38984">
        <ele>47.599998474121</ele>
        <time>2019-07-04T09:46:10.000Z</time>
      </trkpt>
      <trkpt lat="47.30907" lon="-2.38966">
        <ele>47.599998474121</ele>
        <time>2019-07-04T09:46:12.000Z</time>
      </trkpt>
      <trkpt lat="47.3091" lon="-2.38959">
        <ele>47.599998474121</ele>
        <time>2019-07-04T09:46:13.000Z</time>
      </trkpt>
      <trkpt lat="47.30921" lon="-2.38935">
        <ele>47.599998474121</ele>
        <time>2019-07-04T09:46:16.000Z</time>
      </trkpt>
      <trkpt lat="47.30923" lon="-2.38926">
        <ele>47.200000762939</ele>
        <time>2019-07-04T09:46:17.000Z</time>
      </trkpt>
      <trkpt lat="47.30924" lon="-2.38917">
        <ele>46.799999237061</ele>
        <time>2019-07-04T09:46:18.000Z</time>
      </trkpt>
      <trkpt lat="47.30922" lon="-2.38907">
        <ele>46.400001525879</ele>
        <time>2019-07-04T09:46:19.000Z</time>
      </trkpt>
      <trkpt lat="47.30918" lon="-2.38898">
        <ele>46</ele>
        <time>2019-07-04T09:46:20.000Z</time>
      </trkpt>
      <trkpt lat="47.30913" lon="-2.38892">
        <ele>45.599998474121</ele>
        <time>2019-07-04T09:46:21.000Z</time>
      </trkpt>
      <trkpt lat="47.30908" lon="-2.38888">
        <ele>45.599998474121</ele>
        <time>2019-07-04T09:46:22.000Z</time>
      </trkpt>
      <trkpt lat="47.30889" lon="-2.38886">
        <ele>45.599998474121</ele>
        <time>2019-07-04T09:46:25.000Z</time>
      </trkpt>
      <trkpt lat="47.30882" lon="-2.38888">
        <ele>45.599998474121</ele>
        <time>2019-07-04T09:46:26.000Z</time>
      </trkpt>
      <trkpt lat="47.30854" lon="-2.38891">
        <ele>45.599998474121</ele>
        <time>2019-07-04T09:46:30.000Z</time>
      </trkpt>
      <trkpt lat="47.30847" lon="-2.38895">
        <ele>45.200000762939</ele>
        <time>2019-07-04T09:46:31.000Z</time>
      </trkpt>
      <trkpt lat="47.30839" lon="-2.389">
        <ele>44.599998474121</ele>
        <time>2019-07-04T09:46:32.000Z</time>
      </trkpt>
      <trkpt lat="47.30831" lon="-2.38906">
        <ele>44.200000762939</ele>
        <time>2019-07-04T09:46:33.000Z</time>
      </trkpt>
      <trkpt lat="47.30823" lon="-2.38912">
        <ele>43.599998474121</ele>
        <time>2019-07-04T09:46:34.000Z</time>
      </trkpt>
      <trkpt lat="47.30816" lon="-2.38918">
        <ele>43</ele>
        <time>2019-07-04T09:46:35.000Z</time>
      </trkpt>
      <trkpt lat="47.30808" lon="-2.38924">
        <ele>42.400001525879</ele>
        <time>2019-07-04T09:46:36.000Z</time>
      </trkpt>
      <trkpt lat="47.308" lon="-2.3893">
        <ele>41.799999237061</ele>
        <time>2019-07-04T09:46:37.000Z</time>
      </trkpt>
      <trkpt lat="47.30792" lon="-2.38937">
        <ele>41.200000762939</ele>
        <time>2019-07-04T09:46:38.000Z</time>
      </trkpt>
      <trkpt lat="47.3077" lon="-2.38955">
        <ele>41.200000762939</ele>
        <time>2019-07-04T09:46:41.000Z</time>
      </trkpt>
      <trkpt lat="47.30758" lon="-2.3897">
        <ele>41.200000762939</ele>
        <time>2019-07-04T09:46:43.000Z</time>
      </trkpt>
      <trkpt lat="47.30748" lon="-2.38986">
        <ele>41.200000762939</ele>
        <time>2019-07-04T09:46:45.000Z</time>
      </trkpt>
      <trkpt lat="47.30738" lon="-2.38999">
        <ele>41.200000762939</ele>
        <time>2019-07-04T09:46:47.000Z</time>
      </trkpt>
      <trkpt lat="47.30731" lon="-2.39001">
        <ele>41.200000762939</ele>
        <time>2019-07-04T09:46:48.000Z</time>
      </trkpt>
      <trkpt lat="47.30719" lon="-2.38993">
        <ele>41.599998474121</ele>
        <time>2019-07-04T09:46:50.000Z</time>
      </trkpt>
      <trkpt lat="47.30714" lon="-2.38986">
        <ele>42</ele>
        <time>2019-07-04T09:46:51.000Z</time>
      </trkpt>
      <trkpt lat="47.3071" lon="-2.38978">
        <ele>42.400001525879</ele>
        <time>2019-07-04T09:46:52.000Z</time>
      </trkpt>
      <trkpt lat="47.30705" lon="-2.3897">
        <ele>42.799999237061</ele>
        <time>2019-07-04T09:46:53.000Z</time>
      </trkpt>
      <trkpt lat="47.30701" lon="-2.38962">
        <ele>43.200000762939</ele>
        <time>2019-07-04T09:46:54.000Z</time>
      </trkpt>
      <trkpt lat="47.30695" lon="-2.38946">
        <ele>43.200000762939</ele>
        <time>2019-07-04T09:46:56.000Z</time>
      </trkpt>
      <trkpt lat="47.30693" lon="-2.38937">
        <ele>43.200000762939</ele>
        <time>2019-07-04T09:46:57.000Z</time>
      </trkpt>
      <trkpt lat="47.30693" lon="-2.3892">
        <ele>43.599998474121</ele>
        <time>2019-07-04T09:46:59.000Z</time>
      </trkpt>
      <trkpt lat="47.30689" lon="-2.38915">
        <ele>44</ele>
        <time>2019-07-04T09:47:00.000Z</time>
      </trkpt>
      <trkpt lat="47.30684" lon="-2.38913">
        <ele>44.599998474121</ele>
        <time>2019-07-04T09:47:01.000Z</time>
      </trkpt>
      <trkpt lat="47.30679" lon="-2.38915">
        <ele>45</ele>
        <time>2019-07-04T09:47:02.000Z</time>
      </trkpt>
      <trkpt lat="47.30674" lon="-2.38919">
        <ele>45.400001525879</ele>
        <time>2019-07-04T09:47:03.000Z</time>
      </trkpt>
      <trkpt lat="47.30669" lon="-2.38924">
        <ele>45.400001525879</ele>
        <time>2019-07-04T09:47:04.000Z</time>
      </trkpt>
      <trkpt lat="47.30664" lon="-2.38929">
        <ele>45.400001525879</ele>
        <time>2019-07-04T09:47:05.000Z</time>
      </trkpt>
      <trkpt lat="47.30641" lon="-2.3895">
        <ele>45</ele>
        <time>2019-07-04T09:47:09.000Z</time>
      </trkpt>
      <trkpt lat="47.30634" lon="-2.38956">
        <ele>44.599998474121</ele>
        <time>2019-07-04T09:47:10.000Z</time>
      </trkpt>
      <trkpt lat="47.30628" lon="-2.38962">
        <ele>44.200000762939</ele>
        <time>2019-07-04T09:47:11.000Z</time>
      </trkpt>
      <trkpt lat="47.30622" lon="-2.38967">
        <ele>43.799999237061</ele>
        <time>2019-07-04T09:47:12.000Z</time>
      </trkpt>
      <trkpt lat="47.30616" lon="-2.38974">
        <ele>43.400001525879</ele>
        <time>2019-07-04T09:47:13.000Z</time>
      </trkpt>
      <trkpt lat="47.30579" lon="-2.39016">
        <ele>43.400001525879</ele>
        <time>2019-07-04T09:47:19.000Z</time>
      </trkpt>
      <trkpt lat="47.30535" lon="-2.39066">
        <ele>43.400001525879</ele>
        <time>2019-07-04T09:47:26.000Z</time>
      </trkpt>
      <trkpt lat="47.3051" lon="-2.39092">
        <ele>43</ele>
        <time>2019-07-04T09:47:30.000Z</time>
      </trkpt>
      <trkpt lat="47.30503" lon="-2.39099">
        <ele>42.599998474121</ele>
        <time>2019-07-04T09:47:31.000Z</time>
      </trkpt>
      <trkpt lat="47.30497" lon="-2.39105">
        <ele>42.200000762939</ele>
        <time>2019-07-04T09:47:32.000Z</time>
      </trkpt>
      <trkpt lat="47.3049" lon="-2.39111">
        <ele>41.599998474121</ele>
        <time>2019-07-04T09:47:33.000Z</time>
      </trkpt>
      <trkpt lat="47.30483" lon="-2.39116">
        <ele>41.200000762939</ele>
        <time>2019-07-04T09:47:34.000Z</time>
      </trkpt>
      <trkpt lat="47.30463" lon="-2.39138">
        <ele>40.799999237061</ele>
        <time>2019-07-04T09:47:37.000Z</time>
      </trkpt>
      <trkpt lat="47.30457" lon="-2.39146">
        <ele>40</ele>
        <time>2019-07-04T09:47:38.000Z</time>
      </trkpt>
      <trkpt lat="47.3045" lon="-2.39155">
        <ele>39.599998474121</ele>
        <time>2019-07-04T09:47:39.000Z</time>
      </trkpt>
      <trkpt lat="47.30443" lon="-2.39162">
        <ele>39.200000762939</ele>
        <time>2019-07-04T09:47:40.000Z</time>
      </trkpt>
      <trkpt lat="47.30425" lon="-2.39174">
        <ele>39.200000762939</ele>
        <time>2019-07-04T09:47:42.000Z</time>
      </trkpt>
      <trkpt lat="47.30397" lon="-2.39173">
        <ele>39.200000762939</ele>
        <time>2019-07-04T09:47:45.000Z</time>
      </trkpt>
      <trkpt lat="47.30381" lon="-2.39157">
        <ele>39.200000762939</ele>
        <time>2019-07-04T09:47:47.000Z</time>
      </trkpt>
      <trkpt lat="47.30366" lon="-2.39122">
        <ele>39.200000762939</ele>
        <time>2019-07-04T09:47:50.000Z</time>
      </trkpt>
      <trkpt lat="47.30363" lon="-2.3911">
        <ele>39.200000762939</ele>
        <time>2019-07-04T09:47:51.000Z</time>
      </trkpt>
      <trkpt lat="47.3036" lon="-2.39099">
        <ele>39.200000762939</ele>
        <time>2019-07-04T09:47:52.000Z</time>
      </trkpt>
      <trkpt lat="47.30355" lon="-2.39077">
        <ele>39.200000762939</ele>
        <time>2019-07-04T09:47:54.000Z</time>
      </trkpt>
      <trkpt lat="47.30351" lon="-2.39054">
        <ele>39.200000762939</ele>
        <time>2019-07-04T09:47:56.000Z</time>
      </trkpt>
      <trkpt lat="47.30347" lon="-2.39033">
        <ele>39.200000762939</ele>
        <time>2019-07-04T09:47:58.000Z</time>
      </trkpt>
      <trkpt lat="47.30327" lon="-2.3897">
        <ele>39.200000762939</ele>
        <time>2019-07-04T09:48:04.000Z</time>
      </trkpt>
      <trkpt lat="47.3033" lon="-2.38948">
        <ele>39.200000762939</ele>
        <time>2019-07-04T09:48:06.000Z</time>
      </trkpt>
      <trkpt lat="47.30343" lon="-2.38927">
        <ele>39.200000762939</ele>
        <time>2019-07-04T09:48:09.000Z</time>
      </trkpt>
      <trkpt lat="47.30362" lon="-2.38898">
        <ele>39.200000762939</ele>
        <time>2019-07-04T09:48:14.000Z</time>
      </trkpt>
      <trkpt lat="47.30381" lon="-2.38868">
        <ele>39.200000762939</ele>
        <time>2019-07-04T09:48:20.000Z</time>
      </trkpt>
      <trkpt lat="47.30384" lon="-2.38864">
        <ele>39.200000762939</ele>
        <time>2019-07-04T09:48:21.000Z</time>
      </trkpt>
      <trkpt lat="47.30397" lon="-2.38845">
        <ele>39.200000762939</ele>
        <time>2019-07-04T09:48:25.000Z</time>
      </trkpt>
      <trkpt lat="47.30402" lon="-2.38836">
        <ele>40.200000762939</ele>
        <time>2019-07-04T09:48:27.000Z</time>
      </trkpt>
      <trkpt lat="47.30404" lon="-2.38831">
        <ele>40.599998474121</ele>
        <time>2019-07-04T09:48:28.000Z</time>
      </trkpt>
      <trkpt lat="47.30407" lon="-2.38825">
        <ele>41</ele>
        <time>2019-07-04T09:48:29.000Z</time>
      </trkpt>
      <trkpt lat="47.30409" lon="-2.3882">
        <ele>41.400001525879</ele>
        <time>2019-07-04T09:48:30.000Z</time>
      </trkpt>
      <trkpt lat="47.30415" lon="-2.38804">
        <ele>41.799999237061</ele>
        <time>2019-07-04T09:48:33.000Z</time>
      </trkpt>
      <trkpt lat="47.30416" lon="-2.38799">
        <ele>42.200000762939</ele>
        <time>2019-07-04T09:48:34.000Z</time>
      </trkpt>
      <trkpt lat="47.30418" lon="-2.38793">
        <ele>42.799999237061</ele>
        <time>2019-07-04T09:48:35.000Z</time>
      </trkpt>
      <trkpt lat="47.30418" lon="-2.38787">
        <ele>43.200000762939</ele>
        <time>2019-07-04T09:48:36.000Z</time>
      </trkpt>
      <trkpt lat="47.30418" lon="-2.3878">
        <ele>43.599998474121</ele>
        <time>2019-07-04T09:48:37.000Z</time>
      </trkpt>
      <trkpt lat="47.30415" lon="-2.38768">
        <ele>43.599998474121</ele>
        <time>2019-07-04T09:48:39.000Z</time>
      </trkpt>
      <trkpt lat="47.3041" lon="-2.38755">
        <ele>43.599998474121</ele>
        <time>2019-07-04T09:48:41.000Z</time>
      </trkpt>
      <trkpt lat="47.30404" lon="-2.38736">
        <ele>43.599998474121</ele>
        <time>2019-07-04T09:48:44.000Z</time>
      </trkpt>
      <trkpt lat="47.30402" lon="-2.38731">
        <ele>43.599998474121</ele>
        <time>2019-07-04T09:48:45.000Z</time>
      </trkpt>
      <trkpt lat="47.30391" lon="-2.38696">
        <ele>43.599998474121</ele>
        <time>2019-07-04T09:48:50.000Z</time>
      </trkpt>
      <trkpt lat="47.30369" lon="-2.3864">
        <ele>43.599998474121</ele>
        <time>2019-07-04T09:48:57.000Z</time>
      </trkpt>
      <trkpt lat="47.3035" lon="-2.38597">
        <ele>43.599998474121</ele>
        <time>2019-07-04T09:49:03.000Z</time>
      </trkpt>
      <trkpt lat="47.30348" lon="-2.3859">
        <ele>43.599998474121</ele>
        <time>2019-07-04T09:49:04.000Z</time>
      </trkpt>
      <trkpt lat="47.30352" lon="-2.38566">
        <ele>43</ele>
        <time>2019-07-04T09:49:07.000Z</time>
      </trkpt>
      <trkpt lat="47.30356" lon="-2.38561">
        <ele>42.400001525879</ele>
        <time>2019-07-04T09:49:08.000Z</time>
      </trkpt>
      <trkpt lat="47.3036" lon="-2.38558">
        <ele>41.799999237061</ele>
        <time>2019-07-04T09:49:09.000Z</time>
      </trkpt>
      <trkpt lat="47.30364" lon="-2.38554">
        <ele>41.400001525879</ele>
        <time>2019-07-04T09:49:10.000Z</time>
      </trkpt>
      <trkpt lat="47.30368" lon="-2.38551">
        <ele>40.799999237061</ele>
        <time>2019-07-04T09:49:11.000Z</time>
      </trkpt>
      <trkpt lat="47.30389" lon="-2.38534">
        <ele>40.799999237061</ele>
        <time>2019-07-04T09:49:16.000Z</time>
      </trkpt>
      <trkpt lat="47.30394" lon="-2.38535">
        <ele>40.799999237061</ele>
        <time>2019-07-04T09:49:17.000Z</time>
      </trkpt>
      <trkpt lat="47.30402" lon="-2.38549">
        <ele>40.799999237061</ele>
        <time>2019-07-04T09:49:20.000Z</time>
      </trkpt>
      <trkpt lat="47.30411" lon="-2.38576">
        <ele>40.799999237061</ele>
        <time>2019-07-04T09:49:26.000Z</time>
      </trkpt>
      <trkpt lat="47.3041" lon="-2.38583">
        <ele>40.799999237061</ele>
        <time>2019-07-04T09:49:30.000Z</time>
      </trkpt>
      <trkpt lat="47.30413" lon="-2.38582">
        <ele>40.799999237061</ele>
        <time>2019-07-04T11:17:30.000Z</time>
      </trkpt>
      <trkpt lat="47.30412" lon="-2.38578">
        <ele>40.799999237061</ele>
        <time>2019-07-04T11:17:32.000Z</time>
      </trkpt>
      <trkpt lat="47.3041" lon="-2.38572">
        <ele>40.799999237061</ele>
        <time>2019-07-04T11:17:34.000Z</time>
      </trkpt>
      <trkpt lat="47.30406" lon="-2.38559">
        <ele>40.799999237061</ele>
        <time>2019-07-04T11:17:37.000Z</time>
      </trkpt>
      <trkpt lat="47.30394" lon="-2.38532">
        <ele>40.799999237061</ele>
        <time>2019-07-04T11:17:43.000Z</time>
      </trkpt>
      <trkpt lat="47.30383" lon="-2.38528">
        <ele>40.799999237061</ele>
        <time>2019-07-04T11:17:46.000Z</time>
      </trkpt>
      <trkpt lat="47.30381" lon="-2.38526">
        <ele>40.799999237061</ele>
        <time>2019-07-04T11:17:47.000Z</time>
      </trkpt>
      <trkpt lat="47.30372" lon="-2.38516">
        <ele>40.799999237061</ele>
        <time>2019-07-04T11:17:52.000Z</time>
      </trkpt>
      <trkpt lat="47.30359" lon="-2.38508">
        <ele>40.799999237061</ele>
        <time>2019-07-04T11:17:58.000Z</time>
      </trkpt>
      <trkpt lat="47.30348" lon="-2.38502">
        <ele>40.400001525879</ele>
        <time>2019-07-04T11:18:02.000Z</time>
      </trkpt>
      <trkpt lat="47.30345" lon="-2.38499">
        <ele>40</ele>
        <time>2019-07-04T11:18:03.000Z</time>
      </trkpt>
      <trkpt lat="47.30343" lon="-2.38497">
        <ele>39.599998474121</ele>
        <time>2019-07-04T11:18:04.000Z</time>
      </trkpt>
      <trkpt lat="47.30341" lon="-2.38496">
        <ele>39.200000762939</ele>
        <time>2019-07-04T11:18:05.000Z</time>
      </trkpt>
      <trkpt lat="47.3034" lon="-2.38495">
        <ele>38.799999237061</ele>
        <time>2019-07-04T11:18:06.000Z</time>
      </trkpt>
      <trkpt lat="47.30331" lon="-2.38492">
        <ele>38.799999237061</ele>
        <time>2019-07-04T11:18:11.000Z</time>
      </trkpt>
      <trkpt lat="47.30325" lon="-2.38491">
        <ele>38.799999237061</ele>
        <time>2019-07-04T11:18:18.000Z</time>
      </trkpt>
      <trkpt lat="47.30325" lon="-2.3849">
        <ele>38.799999237061</ele>
        <time>2019-07-04T11:18:19.000Z</time>
      </trkpt>
      <trkpt lat="47.30317" lon="-2.38487">
        <ele>38.799999237061</ele>
        <time>2019-07-04T11:18:23.000Z</time>
      </trkpt>
      <trkpt lat="47.30316" lon="-2.38487">
        <ele>38.799999237061</ele>
        <time>2019-07-04T11:18:24.000Z</time>
      </trkpt>
      <trkpt lat="47.30308" lon="-2.38487">
        <ele>38.799999237061</ele>
        <time>2019-07-04T11:18:28.000Z</time>
      </trkpt>
      <trkpt lat="47.30297" lon="-2.38476">
        <ele>38.799999237061</ele>
        <time>2019-07-04T11:18:34.000Z</time>
      </trkpt>
      <trkpt lat="47.30298" lon="-2.38457">
        <ele>38.799999237061</ele>
        <time>2019-07-04T11:18:39.000Z</time>
      </trkpt>
      <trkpt lat="47.30296" lon="-2.38435">
        <ele>38.799999237061</ele>
        <time>2019-07-04T11:18:44.000Z</time>
      </trkpt>
      <trkpt lat="47.30286" lon="-2.38406">
        <ele>38.799999237061</ele>
        <time>2019-07-04T11:18:50.000Z</time>
      </trkpt>
      <trkpt lat="47.30271" lon="-2.38352">
        <ele>38.799999237061</ele>
        <time>2019-07-04T11:19:00.000Z</time>
      </trkpt>
      <trkpt lat="47.30263" lon="-2.38306">
        <ele>38.799999237061</ele>
        <time>2019-07-04T11:19:08.000Z</time>
      </trkpt>
      <trkpt lat="47.30254" lon="-2.38248">
        <ele>39.200000762939</ele>
        <time>2019-07-04T11:19:18.000Z</time>
      </trkpt>
      <trkpt lat="47.30253" lon="-2.38242">
        <ele>39.599998474121</ele>
        <time>2019-07-04T11:19:19.000Z</time>
      </trkpt>
      <trkpt lat="47.30252" lon="-2.38235">
        <ele>40</ele>
        <time>2019-07-04T11:19:20.000Z</time>
      </trkpt>
      <trkpt lat="47.3025" lon="-2.38229">
        <ele>40.400001525879</ele>
        <time>2019-07-04T11:19:21.000Z</time>
      </trkpt>
      <trkpt lat="47.30249" lon="-2.38223">
        <ele>40.799999237061</ele>
        <time>2019-07-04T11:19:22.000Z</time>
      </trkpt>
      <trkpt lat="47.30245" lon="-2.38199">
        <ele>40.799999237061</ele>
        <time>2019-07-04T11:19:26.000Z</time>
      </trkpt>
      <trkpt lat="47.3024" lon="-2.38149">
        <ele>40.799999237061</ele>
        <time>2019-07-04T11:19:33.000Z</time>
      </trkpt>
      <trkpt lat="47.30239" lon="-2.38142">
        <ele>40.799999237061</ele>
        <time>2019-07-04T11:19:34.000Z</time>
      </trkpt>
      <trkpt lat="47.3023" lon="-2.38115">
        <ele>40.799999237061</ele>
        <time>2019-07-04T11:19:38.000Z</time>
      </trkpt>
      <trkpt lat="47.30227" lon="-2.3811">
        <ele>40.799999237061</ele>
        <time>2019-07-04T11:19:39.000Z</time>
      </trkpt>
      <trkpt lat="47.30216" lon="-2.38102">
        <ele>40.799999237061</ele>
        <time>2019-07-04T11:19:42.000Z</time>
      </trkpt>
      <trkpt lat="47.30189" lon="-2.38091">
        <ele>40.400001525879</ele>
        <time>2019-07-04T11:19:47.000Z</time>
      </trkpt>
      <trkpt lat="47.30184" lon="-2.38089">
        <ele>40</ele>
        <time>2019-07-04T11:19:48.000Z</time>
      </trkpt>
      <trkpt lat="47.30178" lon="-2.38086">
        <ele>39.599998474121</ele>
        <time>2019-07-04T11:19:49.000Z</time>
      </trkpt>
      <trkpt lat="47.30172" lon="-2.38083">
        <ele>39.200000762939</ele>
        <time>2019-07-04T11:19:50.000Z</time>
      </trkpt>
      <trkpt lat="47.30166" lon="-2.3808">
        <ele>38.799999237061</ele>
        <time>2019-07-04T11:19:51.000Z</time>
      </trkpt>
      <trkpt lat="47.30143" lon="-2.38069">
        <ele>38.799999237061</ele>
        <time>2019-07-04T11:19:55.000Z</time>
      </trkpt>
      <trkpt lat="47.30112" lon="-2.38055">
        <ele>38.200000762939</ele>
        <time>2019-07-04T11:20:00.000Z</time>
      </trkpt>
      <trkpt lat="47.30106" lon="-2.38052">
        <ele>37.799999237061</ele>
        <time>2019-07-04T11:20:01.000Z</time>
      </trkpt>
      <trkpt lat="47.30099" lon="-2.38048">
        <ele>37.400001525879</ele>
        <time>2019-07-04T11:20:02.000Z</time>
      </trkpt>
      <trkpt lat="47.30092" lon="-2.38045">
        <ele>37</ele>
        <time>2019-07-04T11:20:03.000Z</time>
      </trkpt>
      <trkpt lat="47.30085" lon="-2.38041">
        <ele>36.599998474121</ele>
        <time>2019-07-04T11:20:04.000Z</time>
      </trkpt>
      <trkpt lat="47.30056" lon="-2.38021">
        <ele>36.200000762939</ele>
        <time>2019-07-04T11:20:08.000Z</time>
      </trkpt>
      <trkpt lat="47.30048" lon="-2.38014">
        <ele>35.799999237061</ele>
        <time>2019-07-04T11:20:09.000Z</time>
      </trkpt>
      <trkpt lat="47.30041" lon="-2.38007">
        <ele>35.400001525879</ele>
        <time>2019-07-04T11:20:10.000Z</time>
      </trkpt>
      <trkpt lat="47.30034" lon="-2.38">
        <ele>34.799999237061</ele>
        <time>2019-07-04T11:20:11.000Z</time>
      </trkpt>
      <trkpt lat="47.30028" lon="-2.37994">
        <ele>34.400001525879</ele>
        <time>2019-07-04T11:20:12.000Z</time>
      </trkpt>
      <trkpt lat="47.30022" lon="-2.37987">
        <ele>34</ele>
        <time>2019-07-04T11:20:13.000Z</time>
      </trkpt>
      <trkpt lat="47.30016" lon="-2.37981">
        <ele>33.599998474121</ele>
        <time>2019-07-04T11:20:14.000Z</time>
      </trkpt>
      <trkpt lat="47.30009" lon="-2.37975">
        <ele>33</ele>
        <time>2019-07-04T11:20:15.000Z</time>
      </trkpt>
      <trkpt lat="47.30002" lon="-2.3797">
        <ele>32.400001525879</ele>
        <time>2019-07-04T11:20:16.000Z</time>
      </trkpt>
      <trkpt lat="47.29994" lon="-2.37966">
        <ele>31.200000762939</ele>
        <time>2019-07-04T11:20:17.000Z</time>
      </trkpt>
      <trkpt lat="47.29987" lon="-2.37963">
        <ele>30.60000038147</ele>
        <time>2019-07-04T11:20:18.000Z</time>
      </trkpt>
      <trkpt lat="47.2998" lon="-2.37958">
        <ele>30</ele>
        <time>2019-07-04T11:20:19.000Z</time>
      </trkpt>
      <trkpt lat="47.29969" lon="-2.37942">
        <ele>29.60000038147</ele>
        <time>2019-07-04T11:20:21.000Z</time>
      </trkpt>
      <trkpt lat="47.29965" lon="-2.37934">
        <ele>29</ele>
        <time>2019-07-04T11:20:22.000Z</time>
      </trkpt>
      <trkpt lat="47.2996" lon="-2.37927">
        <ele>28.60000038147</ele>
        <time>2019-07-04T11:20:23.000Z</time>
      </trkpt>
      <trkpt lat="47.29955" lon="-2.3792">
        <ele>28.200000762939</ele>
        <time>2019-07-04T11:20:24.000Z</time>
      </trkpt>
      <trkpt lat="47.29951" lon="-2.37913">
        <ele>27.60000038147</ele>
        <time>2019-07-04T11:20:25.000Z</time>
      </trkpt>
      <trkpt lat="47.29941" lon="-2.379">
        <ele>27.60000038147</ele>
        <time>2019-07-04T11:20:27.000Z</time>
      </trkpt>
      <trkpt lat="47.29906" lon="-2.37857">
        <ele>27.60000038147</ele>
        <time>2019-07-04T11:20:35.000Z</time>
      </trkpt>
      <trkpt lat="47.29888" lon="-2.37834">
        <ele>27.60000038147</ele>
        <time>2019-07-04T11:20:41.000Z</time>
      </trkpt>
      <trkpt lat="47.29882" lon="-2.37826">
        <ele>28.200000762939</ele>
        <time>2019-07-04T11:20:43.000Z</time>
      </trkpt>
      <trkpt lat="47.29879" lon="-2.37823">
        <ele>28.60000038147</ele>
        <time>2019-07-04T11:20:44.000Z</time>
      </trkpt>
      <trkpt lat="47.29877" lon="-2.37819">
        <ele>29</ele>
        <time>2019-07-04T11:20:45.000Z</time>
      </trkpt>
      <trkpt lat="47.29875" lon="-2.37816">
        <ele>29.39999961853</ele>
        <time>2019-07-04T11:20:46.000Z</time>
      </trkpt>
      <trkpt lat="47.29872" lon="-2.37812">
        <ele>29.799999237061</ele>
        <time>2019-07-04T11:20:47.000Z</time>
      </trkpt>
      <trkpt lat="47.2987" lon="-2.37809">
        <ele>30.39999961853</ele>
        <time>2019-07-04T11:20:48.000Z</time>
      </trkpt>
      <trkpt lat="47.29868" lon="-2.37805">
        <ele>31</ele>
        <time>2019-07-04T11:20:49.000Z</time>
      </trkpt>
      <trkpt lat="47.29865" lon="-2.37801">
        <ele>31.39999961853</ele>
        <time>2019-07-04T11:20:50.000Z</time>
      </trkpt>
      <trkpt lat="47.29863" lon="-2.37797">
        <ele>32</ele>
        <time>2019-07-04T11:20:51.000Z</time>
      </trkpt>
      <trkpt lat="47.29859" lon="-2.37792">
        <ele>32</ele>
        <time>2019-07-04T11:20:52.000Z</time>
      </trkpt>
      <trkpt lat="47.29853" lon="-2.37784">
        <ele>32</ele>
        <time>2019-07-04T11:20:54.000Z</time>
      </trkpt>
      <trkpt lat="47.2985" lon="-2.37779">
        <ele>32.400001525879</ele>
        <time>2019-07-04T11:20:55.000Z</time>
      </trkpt>
      <trkpt lat="47.29847" lon="-2.37774">
        <ele>32.799999237061</ele>
        <time>2019-07-04T11:20:56.000Z</time>
      </trkpt>
      <trkpt lat="47.29844" lon="-2.37769">
        <ele>33.200000762939</ele>
        <time>2019-07-04T11:20:57.000Z</time>
      </trkpt>
      <trkpt lat="47.29841" lon="-2.37764">
        <ele>33.599998474121</ele>
        <time>2019-07-04T11:20:58.000Z</time>
      </trkpt>
      <trkpt lat="47.29838" lon="-2.37759">
        <ele>34</ele>
        <time>2019-07-04T11:20:59.000Z</time>
      </trkpt>
      <trkpt lat="47.29836" lon="-2.37754">
        <ele>34</ele>
        <time>2019-07-04T11:21:00.000Z</time>
      </trkpt>
      <trkpt lat="47.2983" lon="-2.37744">
        <ele>34</ele>
        <time>2019-07-04T11:21:02.000Z</time>
      </trkpt>
      <trkpt lat="47.29822" lon="-2.3773">
        <ele>34.400001525879</ele>
        <time>2019-07-04T11:21:05.000Z</time>
      </trkpt>
      <trkpt lat="47.29819" lon="-2.37725">
        <ele>35.400001525879</ele>
        <time>2019-07-04T11:21:06.000Z</time>
      </trkpt>
      <trkpt lat="47.29816" lon="-2.3772">
        <ele>35.799999237061</ele>
        <time>2019-07-04T11:21:07.000Z</time>
      </trkpt>
      <trkpt lat="47.29813" lon="-2.37715">
        <ele>36.200000762939</ele>
        <time>2019-07-04T11:21:08.000Z</time>
      </trkpt>
      <trkpt lat="47.29807" lon="-2.37706">
        <ele>36.200000762939</ele>
        <time>2019-07-04T11:21:10.000Z</time>
      </trkpt>
      <trkpt lat="47.29784" lon="-2.37673">
        <ele>36.200000762939</ele>
        <time>2019-07-04T11:21:17.000Z</time>
      </trkpt>
      <trkpt lat="47.29756" lon="-2.37633">
        <ele>36.200000762939</ele>
        <time>2019-07-04T11:21:25.000Z</time>
      </trkpt>
      <trkpt lat="47.29716" lon="-2.37579">
        <ele>36.200000762939</ele>
        <time>2019-07-04T11:21:34.000Z</time>
      </trkpt>
      <trkpt lat="47.29711" lon="-2.37573">
        <ele>36.200000762939</ele>
        <time>2019-07-04T11:21:35.000Z</time>
      </trkpt>
      <trkpt lat="47.29695" lon="-2.37553">
        <ele>35.799999237061</ele>
        <time>2019-07-04T11:21:38.000Z</time>
      </trkpt>
      <trkpt lat="47.29688" lon="-2.37546">
        <ele>35.400001525879</ele>
        <time>2019-07-04T11:21:39.000Z</time>
      </trkpt>
      <trkpt lat="47.29681" lon="-2.3754">
        <ele>35</ele>
        <time>2019-07-04T11:21:40.000Z</time>
      </trkpt>
      <trkpt lat="47.29674" lon="-2.37533">
        <ele>34.599998474121</ele>
        <time>2019-07-04T11:21:41.000Z</time>
      </trkpt>
      <trkpt lat="47.29667" lon="-2.37527">
        <ele>34.200000762939</ele>
        <time>2019-07-04T11:21:42.000Z</time>
      </trkpt>
      <trkpt lat="47.29644" lon="-2.37513">
        <ele>34.200000762939</ele>
        <time>2019-07-04T11:21:45.000Z</time>
      </trkpt>
      <trkpt lat="47.2962" lon="-2.37497">
        <ele>34.200000762939</ele>
        <time>2019-07-04T11:21:49.000Z</time>
      </trkpt>
      <trkpt lat="47.29615" lon="-2.37493">
        <ele>34.200000762939</ele>
        <time>2019-07-04T11:21:50.000Z</time>
      </trkpt>
      <trkpt lat="47.29594" lon="-2.37466">
        <ele>34.200000762939</ele>
        <time>2019-07-04T11:21:55.000Z</time>
      </trkpt>
      <trkpt lat="47.29575" lon="-2.37432">
        <ele>34.200000762939</ele>
        <time>2019-07-04T11:22:00.000Z</time>
      </trkpt>
      <trkpt lat="47.29568" lon="-2.37418">
        <ele>34.599998474121</ele>
        <time>2019-07-04T11:22:02.000Z</time>
      </trkpt>
      <trkpt lat="47.29564" lon="-2.37412">
        <ele>35</ele>
        <time>2019-07-04T11:22:03.000Z</time>
      </trkpt>
      <trkpt lat="47.2956" lon="-2.37405">
        <ele>35.400001525879</ele>
        <time>2019-07-04T11:22:04.000Z</time>
      </trkpt>
      <trkpt lat="47.29556" lon="-2.37399">
        <ele>35.799999237061</ele>
        <time>2019-07-04T11:22:05.000Z</time>
      </trkpt>
      <trkpt lat="47.29552" lon="-2.37393">
        <ele>36.200000762939</ele>
        <time>2019-07-04T11:22:06.000Z</time>
      </trkpt>
      <trkpt lat="47.29548" lon="-2.37387">
        <ele>36.200000762939</ele>
        <time>2019-07-04T11:22:07.000Z</time>
      </trkpt>
      <trkpt lat="47.29531" lon="-2.37362">
        <ele>36.200000762939</ele>
        <time>2019-07-04T11:22:11.000Z</time>
      </trkpt>
      <trkpt lat="47.2952" lon="-2.37352">
        <ele>36.200000762939</ele>
        <time>2019-07-04T11:22:13.000Z</time>
      </trkpt>
      <trkpt lat="47.29486" lon="-2.37312">
        <ele>35.799999237061</ele>
        <time>2019-07-04T11:22:20.000Z</time>
      </trkpt>
      <trkpt lat="47.29481" lon="-2.37306">
        <ele>35.400001525879</ele>
        <time>2019-07-04T11:22:21.000Z</time>
      </trkpt>
      <trkpt lat="47.29475" lon="-2.373">
        <ele>35</ele>
        <time>2019-07-04T11:22:22.000Z</time>
      </trkpt>
      <trkpt lat="47.2947" lon="-2.37295">
        <ele>34.599998474121</ele>
        <time>2019-07-04T11:22:23.000Z</time>
      </trkpt>
      <trkpt lat="47.29465" lon="-2.3729">
        <ele>34.200000762939</ele>
        <time>2019-07-04T11:22:24.000Z</time>
      </trkpt>
      <trkpt lat="47.29439" lon="-2.37262">
        <ele>34.200000762939</ele>
        <time>2019-07-04T11:22:29.000Z</time>
      </trkpt>
      <trkpt lat="47.29422" lon="-2.37246">
        <ele>33.799999237061</ele>
        <time>2019-07-04T11:22:32.000Z</time>
      </trkpt>
      <trkpt lat="47.29416" lon="-2.37242">
        <ele>33.400001525879</ele>
        <time>2019-07-04T11:22:33.000Z</time>
      </trkpt>
      <trkpt lat="47.29409" lon="-2.37238">
        <ele>33</ele>
        <time>2019-07-04T11:22:34.000Z</time>
      </trkpt>
      <trkpt lat="47.29403" lon="-2.37234">
        <ele>32.599998474121</ele>
        <time>2019-07-04T11:22:35.000Z</time>
      </trkpt>
      <trkpt lat="47.29397" lon="-2.37229">
        <ele>32</ele>
        <time>2019-07-04T11:22:36.000Z</time>
      </trkpt>
      <trkpt lat="47.29391" lon="-2.37226">
        <ele>32</ele>
        <time>2019-07-04T11:22:37.000Z</time>
      </trkpt>
      <trkpt lat="47.29372" lon="-2.37216">
        <ele>32</ele>
        <time>2019-07-04T11:22:40.000Z</time>
      </trkpt>
      <trkpt lat="47.29335" lon="-2.37196">
        <ele>32</ele>
        <time>2019-07-04T11:22:47.000Z</time>
      </trkpt>
      <trkpt lat="47.29302" lon="-2.37167">
        <ele>32</ele>
        <time>2019-07-04T11:22:54.000Z</time>
      </trkpt>
      <trkpt lat="47.29269" lon="-2.37129">
        <ele>32</ele>
        <time>2019-07-04T11:23:01.000Z</time>
      </trkpt>
      <trkpt lat="47.29231" lon="-2.37088">
        <ele>32</ele>
        <time>2019-07-04T11:23:09.000Z</time>
      </trkpt>
      <trkpt lat="47.29226" lon="-2.37084">
        <ele>32</ele>
        <time>2019-07-04T11:23:10.000Z</time>
      </trkpt>
      <trkpt lat="47.2921" lon="-2.37065">
        <ele>32</ele>
        <time>2019-07-04T11:23:14.000Z</time>
      </trkpt>
      <trkpt lat="47.29203" lon="-2.37055">
        <ele>32</ele>
        <time>2019-07-04T11:23:16.000Z</time>
      </trkpt>
      <trkpt lat="47.29185" lon="-2.37034">
        <ele>32</ele>
        <time>2019-07-04T11:23:20.000Z</time>
      </trkpt>
      <trkpt lat="47.29181" lon="-2.37029">
        <ele>32</ele>
        <time>2019-07-04T11:23:21.000Z</time>
      </trkpt>
      <trkpt lat="47.2915" lon="-2.3699">
        <ele>32</ele>
        <time>2019-07-04T11:23:28.000Z</time>
      </trkpt>
      <trkpt lat="47.2913" lon="-2.3696">
        <ele>32</ele>
        <time>2019-07-04T11:23:33.000Z</time>
      </trkpt>
      <trkpt lat="47.29128" lon="-2.36953">
        <ele>32</ele>
        <time>2019-07-04T11:23:34.000Z</time>
      </trkpt>
      <trkpt lat="47.29112" lon="-2.36893">
        <ele>32</ele>
        <time>2019-07-04T11:23:42.000Z</time>
      </trkpt>
      <trkpt lat="47.29108" lon="-2.36879">
        <ele>32.599998474121</ele>
        <time>2019-07-04T11:23:44.000Z</time>
      </trkpt>
      <trkpt lat="47.29105" lon="-2.36872">
        <ele>33</ele>
        <time>2019-07-04T11:23:45.000Z</time>
      </trkpt>
      <trkpt lat="47.29103" lon="-2.36864">
        <ele>33.400001525879</ele>
        <time>2019-07-04T11:23:46.000Z</time>
      </trkpt>
      <trkpt lat="47.29101" lon="-2.36857">
        <ele>34</ele>
        <time>2019-07-04T11:23:47.000Z</time>
      </trkpt>
      <trkpt lat="47.29099" lon="-2.36849">
        <ele>34.400001525879</ele>
        <time>2019-07-04T11:23:48.000Z</time>
      </trkpt>
      <trkpt lat="47.29096" lon="-2.36833">
        <ele>34.400001525879</ele>
        <time>2019-07-04T11:23:50.000Z</time>
      </trkpt>
      <trkpt lat="47.29081" lon="-2.36785">
        <ele>34.400001525879</ele>
        <time>2019-07-04T11:23:57.000Z</time>
      </trkpt>
      <trkpt lat="47.29076" lon="-2.36769">
        <ele>33.599998474121</ele>
        <time>2019-07-04T11:23:59.000Z</time>
      </trkpt>
      <trkpt lat="47.29074" lon="-2.36761">
        <ele>33.200000762939</ele>
        <time>2019-07-04T11:24:00.000Z</time>
      </trkpt>
      <trkpt lat="47.29072" lon="-2.36752">
        <ele>32.799999237061</ele>
        <time>2019-07-04T11:24:01.000Z</time>
      </trkpt>
      <trkpt lat="47.29069" lon="-2.36745">
        <ele>32.400001525879</ele>
        <time>2019-07-04T11:24:02.000Z</time>
      </trkpt>
      <trkpt lat="47.29067" lon="-2.36737">
        <ele>32.400001525879</ele>
        <time>2019-07-04T11:24:03.000Z</time>
      </trkpt>
      <trkpt lat="47.29056" lon="-2.36669">
        <ele>32.400001525879</ele>
        <time>2019-07-04T11:24:10.000Z</time>
      </trkpt>
      <trkpt lat="47.29043" lon="-2.36603">
        <ele>32.400001525879</ele>
        <time>2019-07-04T11:24:17.000Z</time>
      </trkpt>
      <trkpt lat="47.29041" lon="-2.36594">
        <ele>31.799999237061</ele>
        <time>2019-07-04T11:24:18.000Z</time>
      </trkpt>
      <trkpt lat="47.29039" lon="-2.36585">
        <ele>31.39999961853</ele>
        <time>2019-07-04T11:24:19.000Z</time>
      </trkpt>
      <trkpt lat="47.29037" lon="-2.36575">
        <ele>31</ele>
        <time>2019-07-04T11:24:20.000Z</time>
      </trkpt>
      <trkpt lat="47.29035" lon="-2.36565">
        <ele>30.39999961853</ele>
        <time>2019-07-04T11:24:21.000Z</time>
      </trkpt>
      <trkpt lat="47.29033" lon="-2.36555">
        <ele>30</ele>
        <time>2019-07-04T11:24:22.000Z</time>
      </trkpt>
      <trkpt lat="47.29031" lon="-2.36545">
        <ele>29.60000038147</ele>
        <time>2019-07-04T11:24:23.000Z</time>
      </trkpt>
      <trkpt lat="47.29029" lon="-2.36535">
        <ele>28.799999237061</ele>
        <time>2019-07-04T11:24:24.000Z</time>
      </trkpt>
      <trkpt lat="47.29027" lon="-2.36527">
        <ele>28.39999961853</ele>
        <time>2019-07-04T11:24:25.000Z</time>
      </trkpt>
      <trkpt lat="47.29026" lon="-2.3652">
        <ele>27.799999237061</ele>
        <time>2019-07-04T11:24:26.000Z</time>
      </trkpt>
      <trkpt lat="47.29025" lon="-2.36515">
        <ele>27</ele>
        <time>2019-07-04T11:24:27.000Z</time>
      </trkpt>
      <trkpt lat="47.29024" lon="-2.36512">
        <ele>26.39999961853</ele>
        <time>2019-07-04T11:24:28.000Z</time>
      </trkpt>
      <trkpt lat="47.29024" lon="-2.36509">
        <ele>25.799999237061</ele>
        <time>2019-07-04T11:24:29.000Z</time>
      </trkpt>
      <trkpt lat="47.29023" lon="-2.36507">
        <ele>25.200000762939</ele>
        <time>2019-07-04T11:24:30.000Z</time>
      </trkpt>
      <trkpt lat="47.29024" lon="-2.36505">
        <ele>24.60000038147</ele>
        <time>2019-07-04T11:24:31.000Z</time>
      </trkpt>
      <trkpt lat="47.29024" lon="-2.36502">
        <ele>24</ele>
        <time>2019-07-04T11:24:32.000Z</time>
      </trkpt>
      <trkpt lat="47.29026" lon="-2.36498">
        <ele>23.60000038147</ele>
        <time>2019-07-04T11:24:33.000Z</time>
      </trkpt>
      <trkpt lat="47.29029" lon="-2.36495">
        <ele>23</ele>
        <time>2019-07-04T11:24:34.000Z</time>
      </trkpt>
      <trkpt lat="47.29032" lon="-2.36492">
        <ele>23</ele>
        <time>2019-07-04T11:24:35.000Z</time>
      </trkpt>
      <trkpt lat="47.2904" lon="-2.36485">
        <ele>23</ele>
        <time>2019-07-04T11:24:37.000Z</time>
      </trkpt>
      <trkpt lat="47.29053" lon="-2.36473">
        <ele>23</ele>
        <time>2019-07-04T11:24:40.000Z</time>
      </trkpt>
      <trkpt lat="47.29099" lon="-2.3644">
        <ele>23</ele>
        <time>2019-07-04T11:24:49.000Z</time>
      </trkpt>
      <trkpt lat="47.29127" lon="-2.36415">
        <ele>23</ele>
        <time>2019-07-04T11:24:55.000Z</time>
      </trkpt>
      <trkpt lat="47.29157" lon="-2.36393">
        <ele>23</ele>
        <time>2019-07-04T11:25:01.000Z</time>
      </trkpt>
      <trkpt lat="47.29163" lon="-2.3639">
        <ele>23</ele>
        <time>2019-07-04T11:25:02.000Z</time>
      </trkpt>
      <trkpt lat="47.29196" lon="-2.36382">
        <ele>23</ele>
        <time>2019-07-04T11:25:08.000Z</time>
      </trkpt>
      <trkpt lat="47.29202" lon="-2.36382">
        <ele>23</ele>
        <time>2019-07-04T11:25:09.000Z</time>
      </trkpt>
      <trkpt lat="47.29241" lon="-2.36379">
        <ele>23</ele>
        <time>2019-07-04T11:25:16.000Z</time>
      </trkpt>
      <trkpt lat="47.29246" lon="-2.36377">
        <ele>23</ele>
        <time>2019-07-04T11:25:17.000Z</time>
      </trkpt>
      <trkpt lat="47.29266" lon="-2.36367">
        <ele>23</ele>
        <time>2019-07-04T11:25:21.000Z</time>
      </trkpt>
      <trkpt lat="47.29271" lon="-2.36365">
        <ele>23.39999961853</ele>
        <time>2019-07-04T11:25:22.000Z</time>
      </trkpt>
      <trkpt lat="47.29275" lon="-2.36362">
        <ele>23.799999237061</ele>
        <time>2019-07-04T11:25:23.000Z</time>
      </trkpt>
      <trkpt lat="47.29279" lon="-2.3636">
        <ele>24.200000762939</ele>
        <time>2019-07-04T11:25:24.000Z</time>
      </trkpt>
      <trkpt lat="47.29283" lon="-2.36358">
        <ele>24.60000038147</ele>
        <time>2019-07-04T11:25:25.000Z</time>
      </trkpt>
      <trkpt lat="47.29287" lon="-2.36354">
        <ele>25</ele>
        <time>2019-07-04T11:25:26.000Z</time>
      </trkpt>
      <trkpt lat="47.29291" lon="-2.3635">
        <ele>25</ele>
        <time>2019-07-04T11:25:27.000Z</time>
      </trkpt>
      <trkpt lat="47.29302" lon="-2.36341">
        <ele>25.39999961853</ele>
        <time>2019-07-04T11:25:30.000Z</time>
      </trkpt>
      <trkpt lat="47.29306" lon="-2.36338">
        <ele>25.799999237061</ele>
        <time>2019-07-04T11:25:31.000Z</time>
      </trkpt>
      <trkpt lat="47.2931" lon="-2.36335">
        <ele>26.200000762939</ele>
        <time>2019-07-04T11:25:32.000Z</time>
      </trkpt>
      <trkpt lat="47.29314" lon="-2.36332">
        <ele>26.60000038147</ele>
        <time>2019-07-04T11:25:33.000Z</time>
      </trkpt>
      <trkpt lat="47.29318" lon="-2.3633">
        <ele>27</ele>
        <time>2019-07-04T11:25:34.000Z</time>
      </trkpt>
      <trkpt lat="47.29322" lon="-2.36326">
        <ele>27</ele>
        <time>2019-07-04T11:25:35.000Z</time>
      </trkpt>
      <trkpt lat="47.29333" lon="-2.36316">
        <ele>27.39999961853</ele>
        <time>2019-07-04T11:25:38.000Z</time>
      </trkpt>
      <trkpt lat="47.29336" lon="-2.36314">
        <ele>28</ele>
        <time>2019-07-04T11:25:39.000Z</time>
      </trkpt>
      <trkpt lat="47.2934" lon="-2.36311">
        <ele>28.39999961853</ele>
        <time>2019-07-04T11:25:40.000Z</time>
      </trkpt>
      <trkpt lat="47.29344" lon="-2.36308">
        <ele>28.799999237061</ele>
        <time>2019-07-04T11:25:41.000Z</time>
      </trkpt>
      <trkpt lat="47.29348" lon="-2.36306">
        <ele>29.200000762939</ele>
        <time>2019-07-04T11:25:42.000Z</time>
      </trkpt>
      <trkpt lat="47.29367" lon="-2.36292">
        <ele>29.200000762939</ele>
        <time>2019-07-04T11:25:47.000Z</time>
      </trkpt>
      <trkpt lat="47.29386" lon="-2.36278">
        <ele>29.799999237061</ele>
        <time>2019-07-04T11:25:52.000Z</time>
      </trkpt>
      <trkpt lat="47.29389" lon="-2.36275">
        <ele>30.200000762939</ele>
        <time>2019-07-04T11:25:53.000Z</time>
      </trkpt>
      <trkpt lat="47.29393" lon="-2.36273">
        <ele>30.799999237061</ele>
        <time>2019-07-04T11:25:54.000Z</time>
      </trkpt>
      <trkpt lat="47.29397" lon="-2.3627">
        <ele>31.200000762939</ele>
        <time>2019-07-04T11:25:55.000Z</time>
      </trkpt>
      <trkpt lat="47.29401" lon="-2.36268">
        <ele>31.799999237061</ele>
        <time>2019-07-04T11:25:56.000Z</time>
      </trkpt>
      <trkpt lat="47.29424" lon="-2.3625">
        <ele>31.799999237061</ele>
        <time>2019-07-04T11:26:02.000Z</time>
      </trkpt>
      <trkpt lat="47.29447" lon="-2.36233">
        <ele>31.799999237061</ele>
        <time>2019-07-04T11:26:08.000Z</time>
      </trkpt>
      <trkpt lat="47.29467" lon="-2.36216">
        <ele>31.799999237061</ele>
        <time>2019-07-04T11:26:14.000Z</time>
      </trkpt>
      <trkpt lat="47.29496" lon="-2.36196">
        <ele>32.200000762939</ele>
        <time>2019-07-04T11:26:22.000Z</time>
      </trkpt>
      <trkpt lat="47.29499" lon="-2.36193">
        <ele>32.599998474121</ele>
        <time>2019-07-04T11:26:23.000Z</time>
      </trkpt>
      <trkpt lat="47.29503" lon="-2.36191">
        <ele>33</ele>
        <time>2019-07-04T11:26:24.000Z</time>
      </trkpt>
      <trkpt lat="47.29507" lon="-2.36188">
        <ele>33.400001525879</ele>
        <time>2019-07-04T11:26:25.000Z</time>
      </trkpt>
      <trkpt lat="47.2951" lon="-2.36184">
        <ele>34</ele>
        <time>2019-07-04T11:26:26.000Z</time>
      </trkpt>
      <trkpt lat="47.29522" lon="-2.36174">
        <ele>34</ele>
        <time>2019-07-04T11:26:29.000Z</time>
      </trkpt>
      <trkpt lat="47.29525" lon="-2.36157">
        <ele>34</ele>
        <time>2019-07-04T11:26:32.000Z</time>
      </trkpt>
      <trkpt lat="47.2952" lon="-2.36139">
        <ele>34</ele>
        <time>2019-07-04T11:26:35.000Z</time>
      </trkpt>
      <trkpt lat="47.29517" lon="-2.36133">
        <ele>34</ele>
        <time>2019-07-04T11:26:36.000Z</time>
      </trkpt>
      <trkpt lat="47.29497" lon="-2.36082">
        <ele>34</ele>
        <time>2019-07-04T11:26:45.000Z</time>
      </trkpt>
      <trkpt lat="47.29495" lon="-2.36076">
        <ele>34</ele>
        <time>2019-07-04T11:26:46.000Z</time>
      </trkpt>
      <trkpt lat="47.29491" lon="-2.36065">
        <ele>34</ele>
        <time>2019-07-04T11:26:48.000Z</time>
      </trkpt>
      <trkpt lat="47.29486" lon="-2.36047">
        <ele>34</ele>
        <time>2019-07-04T11:26:51.000Z</time>
      </trkpt>
      <trkpt lat="47.29467" lon="-2.35999">
        <ele>34</ele>
        <time>2019-07-04T11:26:59.000Z</time>
      </trkpt>
      <trkpt lat="47.29454" lon="-2.35969">
        <ele>34</ele>
        <time>2019-07-04T11:27:04.000Z</time>
      </trkpt>
      <trkpt lat="47.29436" lon="-2.35918">
        <ele>34</ele>
        <time>2019-07-04T11:27:12.000Z</time>
      </trkpt>
      <trkpt lat="47.29424" lon="-2.35895">
        <ele>34</ele>
        <time>2019-07-04T11:27:16.000Z</time>
      </trkpt>
      <trkpt lat="47.29417" lon="-2.35885">
        <ele>34</ele>
        <time>2019-07-04T11:27:18.000Z</time>
      </trkpt>
      <trkpt lat="47.29391" lon="-2.35852">
        <ele>34</ele>
        <time>2019-07-04T11:27:25.000Z</time>
      </trkpt>
      <trkpt lat="47.29359" lon="-2.35821">
        <ele>34</ele>
        <time>2019-07-04T11:27:32.000Z</time>
      </trkpt>
      <trkpt lat="47.2933" lon="-2.35797">
        <ele>34</ele>
        <time>2019-07-04T11:27:38.000Z</time>
      </trkpt>
      <trkpt lat="47.29287" lon="-2.35758">
        <ele>34</ele>
        <time>2019-07-04T11:27:47.000Z</time>
      </trkpt>
      <trkpt lat="47.29258" lon="-2.35731">
        <ele>34</ele>
        <time>2019-07-04T11:27:53.000Z</time>
      </trkpt>
      <trkpt lat="47.29226" lon="-2.35703">
        <ele>34</ele>
        <time>2019-07-04T11:28:00.000Z</time>
      </trkpt>
      <trkpt lat="47.29199" lon="-2.35676">
        <ele>34</ele>
        <time>2019-07-04T11:28:06.000Z</time>
      </trkpt>
      <trkpt lat="47.2917" lon="-2.35651">
        <ele>34</ele>
        <time>2019-07-04T11:28:12.000Z</time>
      </trkpt>
      <trkpt lat="47.29164" lon="-2.35649">
        <ele>34</ele>
        <time>2019-07-04T11:28:13.000Z</time>
      </trkpt>
      <trkpt lat="47.2914" lon="-2.35647">
        <ele>34</ele>
        <time>2019-07-04T11:28:18.000Z</time>
      </trkpt>
      <trkpt lat="47.29121" lon="-2.35649">
        <ele>34</ele>
        <time>2019-07-04T11:28:22.000Z</time>
      </trkpt>
      <trkpt lat="47.29116" lon="-2.35646">
        <ele>34</ele>
        <time>2019-07-04T11:28:23.000Z</time>
      </trkpt>
      <trkpt lat="47.29111" lon="-2.35624">
        <ele>34</ele>
        <time>2019-07-04T11:28:26.000Z</time>
      </trkpt>
      <trkpt lat="47.29118" lon="-2.35602">
        <ele>34.400001525879</ele>
        <time>2019-07-04T11:28:29.000Z</time>
      </trkpt>
      <trkpt lat="47.29121" lon="-2.35595">
        <ele>34.799999237061</ele>
        <time>2019-07-04T11:28:30.000Z</time>
      </trkpt>
      <trkpt lat="47.29123" lon="-2.35588">
        <ele>35.599998474121</ele>
        <time>2019-07-04T11:28:31.000Z</time>
      </trkpt>
      <trkpt lat="47.29124" lon="-2.3558">
        <ele>36</ele>
        <time>2019-07-04T11:28:32.000Z</time>
      </trkpt>
      <trkpt lat="47.29124" lon="-2.35563">
        <ele>36</ele>
        <time>2019-07-04T11:28:34.000Z</time>
      </trkpt>
      <trkpt lat="47.29119" lon="-2.3553">
        <ele>36</ele>
        <time>2019-07-04T11:28:38.000Z</time>
      </trkpt>
      <trkpt lat="47.29104" lon="-2.35465">
        <ele>36</ele>
        <time>2019-07-04T11:28:46.000Z</time>
      </trkpt>
      <trkpt lat="47.29102" lon="-2.35456">
        <ele>35.599998474121</ele>
        <time>2019-07-04T11:28:47.000Z</time>
      </trkpt>
      <trkpt lat="47.291" lon="-2.35448">
        <ele>35</ele>
        <time>2019-07-04T11:28:48.000Z</time>
      </trkpt>
      <trkpt lat="47.29097" lon="-2.3544">
        <ele>34.599998474121</ele>
        <time>2019-07-04T11:28:49.000Z</time>
      </trkpt>
      <trkpt lat="47.29095" lon="-2.35432">
        <ele>34.200000762939</ele>
        <time>2019-07-04T11:28:50.000Z</time>
      </trkpt>
      <trkpt lat="47.29093" lon="-2.35423">
        <ele>33.799999237061</ele>
        <time>2019-07-04T11:28:51.000Z</time>
      </trkpt>
      <trkpt lat="47.29089" lon="-2.35405">
        <ele>33.799999237061</ele>
        <time>2019-07-04T11:28:53.000Z</time>
      </trkpt>
      <trkpt lat="47.29073" lon="-2.35325">
        <ele>33.799999237061</ele>
        <time>2019-07-04T11:29:02.000Z</time>
      </trkpt>
      <trkpt lat="47.29071" lon="-2.35316">
        <ele>33.799999237061</ele>
        <time>2019-07-04T11:29:03.000Z</time>
      </trkpt>
      <trkpt lat="47.29056" lon="-2.35233">
        <ele>33.799999237061</ele>
        <time>2019-07-04T11:29:12.000Z</time>
      </trkpt>
      <trkpt lat="47.29054" lon="-2.35223">
        <ele>33.799999237061</ele>
        <time>2019-07-04T11:29:13.000Z</time>
      </trkpt>
      <trkpt lat="47.29049" lon="-2.35193">
        <ele>33.200000762939</ele>
        <time>2019-07-04T11:29:16.000Z</time>
      </trkpt>
      <trkpt lat="47.29047" lon="-2.35184">
        <ele>32.799999237061</ele>
        <time>2019-07-04T11:29:17.000Z</time>
      </trkpt>
      <trkpt lat="47.29046" lon="-2.35173">
        <ele>32.400001525879</ele>
        <time>2019-07-04T11:29:18.000Z</time>
      </trkpt>
      <trkpt lat="47.29044" lon="-2.35164">
        <ele>32</ele>
        <time>2019-07-04T11:29:19.000Z</time>
      </trkpt>
      <trkpt lat="47.29042" lon="-2.35155">
        <ele>31.60000038147</ele>
        <time>2019-07-04T11:29:20.000Z</time>
      </trkpt>
      <trkpt lat="47.29028" lon="-2.35073">
        <ele>31.60000038147</ele>
        <time>2019-07-04T11:29:29.000Z</time>
      </trkpt>
      <trkpt lat="47.29027" lon="-2.35064">
        <ele>31.60000038147</ele>
        <time>2019-07-04T11:29:30.000Z</time>
      </trkpt>
      <trkpt lat="47.29012" lon="-2.34985">
        <ele>31.60000038147</ele>
        <time>2019-07-04T11:29:39.000Z</time>
      </trkpt>
      <trkpt lat="47.28996" lon="-2.349">
        <ele>31.60000038147</ele>
        <time>2019-07-04T11:29:48.000Z</time>
      </trkpt>
      <trkpt lat="47.2898" lon="-2.34816">
        <ele>31.60000038147</ele>
        <time>2019-07-04T11:29:57.000Z</time>
      </trkpt>
      <trkpt lat="47.28963" lon="-2.34737">
        <ele>31.60000038147</ele>
        <time>2019-07-04T11:30:06.000Z</time>
      </trkpt>
      <trkpt lat="47.28958" lon="-2.34711">
        <ele>31.200000762939</ele>
        <time>2019-07-04T11:30:09.000Z</time>
      </trkpt>
      <trkpt lat="47.28957" lon="-2.34702">
        <ele>30.200000762939</ele>
        <time>2019-07-04T11:30:10.000Z</time>
      </trkpt>
      <trkpt lat="47.28955" lon="-2.34693">
        <ele>29.799999237061</ele>
        <time>2019-07-04T11:30:11.000Z</time>
      </trkpt>
      <trkpt lat="47.28953" lon="-2.34685">
        <ele>29.200000762939</ele>
        <time>2019-07-04T11:30:12.000Z</time>
      </trkpt>
      <trkpt lat="47.28952" lon="-2.34676">
        <ele>29.200000762939</ele>
        <time>2019-07-04T11:30:13.000Z</time>
      </trkpt>
      <trkpt lat="47.28939" lon="-2.346">
        <ele>29.200000762939</ele>
        <time>2019-07-04T11:30:22.000Z</time>
      </trkpt>
      <trkpt lat="47.28927" lon="-2.34535">
        <ele>29.200000762939</ele>
        <time>2019-07-04T11:30:30.000Z</time>
      </trkpt>
      <trkpt lat="47.28915" lon="-2.34471">
        <ele>29.200000762939</ele>
        <time>2019-07-04T11:30:38.000Z</time>
      </trkpt>
      <trkpt lat="47.28909" lon="-2.34439">
        <ele>29.60000038147</ele>
        <time>2019-07-04T11:30:42.000Z</time>
      </trkpt>
      <trkpt lat="47.28907" lon="-2.34431">
        <ele>30.200000762939</ele>
        <time>2019-07-04T11:30:43.000Z</time>
      </trkpt>
      <trkpt lat="47.28906" lon="-2.34424">
        <ele>30.60000038147</ele>
        <time>2019-07-04T11:30:44.000Z</time>
      </trkpt>
      <trkpt lat="47.28904" lon="-2.34416">
        <ele>31</ele>
        <time>2019-07-04T11:30:45.000Z</time>
      </trkpt>
      <trkpt lat="47.28903" lon="-2.34408">
        <ele>31.39999961853</ele>
        <time>2019-07-04T11:30:46.000Z</time>
      </trkpt>
      <trkpt lat="47.28893" lon="-2.34354">
        <ele>31.39999961853</ele>
        <time>2019-07-04T11:30:53.000Z</time>
      </trkpt>
      <trkpt lat="47.28882" lon="-2.34292">
        <ele>31.39999961853</ele>
        <time>2019-07-04T11:31:01.000Z</time>
      </trkpt>
      <trkpt lat="47.2887" lon="-2.34222">
        <ele>31.39999961853</ele>
        <time>2019-07-04T11:31:10.000Z</time>
      </trkpt>
      <trkpt lat="47.28863" lon="-2.34158">
        <ele>31.39999961853</ele>
        <time>2019-07-04T11:31:18.000Z</time>
      </trkpt>
      <trkpt lat="47.28856" lon="-2.34101">
        <ele>31.39999961853</ele>
        <time>2019-07-04T11:31:25.000Z</time>
      </trkpt>
      <trkpt lat="47.28842" lon="-2.34028">
        <ele>31.39999961853</ele>
        <time>2019-07-04T11:31:34.000Z</time>
      </trkpt>
      <trkpt lat="47.2882" lon="-2.33953">
        <ele>31.39999961853</ele>
        <time>2019-07-04T11:31:43.000Z</time>
      </trkpt>
      <trkpt lat="47.28802" lon="-2.33903">
        <ele>31</ele>
        <time>2019-07-04T11:31:49.000Z</time>
      </trkpt>
      <trkpt lat="47.28799" lon="-2.33894">
        <ele>30.39999961853</ele>
        <time>2019-07-04T11:31:50.000Z</time>
      </trkpt>
      <trkpt lat="47.28796" lon="-2.33885">
        <ele>30</ele>
        <time>2019-07-04T11:31:51.000Z</time>
      </trkpt>
      <trkpt lat="47.28794" lon="-2.33877">
        <ele>29.39999961853</ele>
        <time>2019-07-04T11:31:52.000Z</time>
      </trkpt>
      <trkpt lat="47.28791" lon="-2.33869">
        <ele>29</ele>
        <time>2019-07-04T11:31:53.000Z</time>
      </trkpt>
      <trkpt lat="47.28774" lon="-2.33819">
        <ele>29</ele>
        <time>2019-07-04T11:31:59.000Z</time>
      </trkpt>
      <trkpt lat="47.28765" lon="-2.33769">
        <ele>29</ele>
        <time>2019-07-04T11:32:05.000Z</time>
      </trkpt>
      <trkpt lat="47.2876" lon="-2.33702">
        <ele>29</ele>
        <time>2019-07-04T11:32:13.000Z</time>
      </trkpt>
      <trkpt lat="47.28752" lon="-2.33617">
        <ele>28.60000038147</ele>
        <time>2019-07-04T11:32:23.000Z</time>
      </trkpt>
      <trkpt lat="47.2875" lon="-2.33609">
        <ele>28</ele>
        <time>2019-07-04T11:32:24.000Z</time>
      </trkpt>
      <trkpt lat="47.28749" lon="-2.336">
        <ele>27.60000038147</ele>
        <time>2019-07-04T11:32:25.000Z</time>
      </trkpt>
      <trkpt lat="47.28747" lon="-2.33592">
        <ele>27.200000762939</ele>
        <time>2019-07-04T11:32:26.000Z</time>
      </trkpt>
      <trkpt lat="47.28745" lon="-2.33584">
        <ele>26.799999237061</ele>
        <time>2019-07-04T11:32:27.000Z</time>
      </trkpt>
      <trkpt lat="47.28736" lon="-2.33553">
        <ele>26.799999237061</ele>
        <time>2019-07-04T11:32:31.000Z</time>
      </trkpt>
      <trkpt lat="47.28726" lon="-2.33531">
        <ele>26.200000762939</ele>
        <time>2019-07-04T11:32:34.000Z</time>
      </trkpt>
      <trkpt lat="47.28723" lon="-2.33524">
        <ele>25.799999237061</ele>
        <time>2019-07-04T11:32:35.000Z</time>
      </trkpt>
      <trkpt lat="47.28719" lon="-2.33516">
        <ele>25.200000762939</ele>
        <time>2019-07-04T11:32:36.000Z</time>
      </trkpt>
      <trkpt lat="47.28715" lon="-2.33509">
        <ele>24.799999237061</ele>
        <time>2019-07-04T11:32:37.000Z</time>
      </trkpt>
      <trkpt lat="47.28711" lon="-2.33503">
        <ele>24.39999961853</ele>
        <time>2019-07-04T11:32:38.000Z</time>
      </trkpt>
      <trkpt lat="47.28693" lon="-2.3348">
        <ele>24.39999961853</ele>
        <time>2019-07-04T11:32:42.000Z</time>
      </trkpt>
      <trkpt lat="47.28662" lon="-2.33438">
        <ele>24.39999961853</ele>
        <time>2019-07-04T11:32:49.000Z</time>
      </trkpt>
      <trkpt lat="47.2863" lon="-2.33386">
        <ele>24.39999961853</ele>
        <time>2019-07-04T11:32:57.000Z</time>
      </trkpt>
      <trkpt lat="47.2861" lon="-2.33333">
        <ele>24.39999961853</ele>
        <time>2019-07-04T11:33:04.000Z</time>
      </trkpt>
      <trkpt lat="47.28602" lon="-2.33309">
        <ele>24.39999961853</ele>
        <time>2019-07-04T11:33:07.000Z</time>
      </trkpt>
      <trkpt lat="47.28595" lon="-2.33283">
        <ele>23.799999237061</ele>
        <time>2019-07-04T11:33:10.000Z</time>
      </trkpt>
      <trkpt lat="47.28592" lon="-2.33274">
        <ele>23.39999961853</ele>
        <time>2019-07-04T11:33:11.000Z</time>
      </trkpt>
      <trkpt lat="47.28588" lon="-2.33265">
        <ele>23</ele>
        <time>2019-07-04T11:33:12.000Z</time>
      </trkpt>
      <trkpt lat="47.28585" lon="-2.33256">
        <ele>22.60000038147</ele>
        <time>2019-07-04T11:33:13.000Z</time>
      </trkpt>
      <trkpt lat="47.28582" lon="-2.33246">
        <ele>22.200000762939</ele>
        <time>2019-07-04T11:33:14.000Z</time>
      </trkpt>
      <trkpt lat="47.28576" lon="-2.33227">
        <ele>22.200000762939</ele>
        <time>2019-07-04T11:33:16.000Z</time>
      </trkpt>
      <trkpt lat="47.28551" lon="-2.33146">
        <ele>22.200000762939</ele>
        <time>2019-07-04T11:33:24.000Z</time>
      </trkpt>
      <trkpt lat="47.28548" lon="-2.33135">
        <ele>21.799999237061</ele>
        <time>2019-07-04T11:33:25.000Z</time>
      </trkpt>
      <trkpt lat="47.28545" lon="-2.33125">
        <ele>21.39999961853</ele>
        <time>2019-07-04T11:33:26.000Z</time>
      </trkpt>
      <trkpt lat="47.28542" lon="-2.33114">
        <ele>20.60000038147</ele>
        <time>2019-07-04T11:33:27.000Z</time>
      </trkpt>
      <trkpt lat="47.28539" lon="-2.33104">
        <ele>20</ele>
        <time>2019-07-04T11:33:28.000Z</time>
      </trkpt>
      <trkpt lat="47.28529" lon="-2.33059">
        <ele>20</ele>
        <time>2019-07-04T11:33:32.000Z</time>
      </trkpt>
      <trkpt lat="47.28511" lon="-2.32981">
        <ele>20</ele>
        <time>2019-07-04T11:33:39.000Z</time>
      </trkpt>
      <trkpt lat="47.28507" lon="-2.3296">
        <ele>19.60000038147</ele>
        <time>2019-07-04T11:33:41.000Z</time>
      </trkpt>
      <trkpt lat="47.28504" lon="-2.32949">
        <ele>19.200000762939</ele>
        <time>2019-07-04T11:33:42.000Z</time>
      </trkpt>
      <trkpt lat="47.28502" lon="-2.32939">
        <ele>18.799999237061</ele>
        <time>2019-07-04T11:33:43.000Z</time>
      </trkpt>
      <trkpt lat="47.28499" lon="-2.32928">
        <ele>18.39999961853</ele>
        <time>2019-07-04T11:33:44.000Z</time>
      </trkpt>
      <trkpt lat="47.28497" lon="-2.32917">
        <ele>18</ele>
        <time>2019-07-04T11:33:45.000Z</time>
      </trkpt>
      <trkpt lat="47.28492" lon="-2.32896">
        <ele>18</ele>
        <time>2019-07-04T11:33:47.000Z</time>
      </trkpt>
      <trkpt lat="47.28472" lon="-2.32818">
        <ele>17.60000038147</ele>
        <time>2019-07-04T11:33:55.000Z</time>
      </trkpt>
      <trkpt lat="47.28469" lon="-2.32809">
        <ele>17</ele>
        <time>2019-07-04T11:33:56.000Z</time>
      </trkpt>
      <trkpt lat="47.28467" lon="-2.328">
        <ele>16.60000038147</ele>
        <time>2019-07-04T11:33:57.000Z</time>
      </trkpt>
      <trkpt lat="47.28464" lon="-2.32792">
        <ele>16.200000762939</ele>
        <time>2019-07-04T11:33:58.000Z</time>
      </trkpt>
      <trkpt lat="47.28462" lon="-2.32783">
        <ele>15.60000038147</ele>
        <time>2019-07-04T11:33:59.000Z</time>
      </trkpt>
      <trkpt lat="47.2845" lon="-2.32739">
        <ele>15.60000038147</ele>
        <time>2019-07-04T11:34:04.000Z</time>
      </trkpt>
      <trkpt lat="47.2843" lon="-2.32669">
        <ele>15.60000038147</ele>
        <time>2019-07-04T11:34:12.000Z</time>
      </trkpt>
      <trkpt lat="47.28409" lon="-2.326">
        <ele>15.60000038147</ele>
        <time>2019-07-04T11:34:20.000Z</time>
      </trkpt>
      <trkpt lat="47.284" lon="-2.32567">
        <ele>15.60000038147</ele>
        <time>2019-07-04T11:34:24.000Z</time>
      </trkpt>
      <trkpt lat="47.28395" lon="-2.32552">
        <ele>15.60000038147</ele>
        <time>2019-07-04T11:34:26.000Z</time>
      </trkpt>
      <trkpt lat="47.28377" lon="-2.32477">
        <ele>15.60000038147</ele>
        <time>2019-07-04T11:34:35.000Z</time>
      </trkpt>
      <trkpt lat="47.28365" lon="-2.32427">
        <ele>15.60000038147</ele>
        <time>2019-07-04T11:34:41.000Z</time>
      </trkpt>
      <trkpt lat="47.2836" lon="-2.32403">
        <ele>15.60000038147</ele>
        <time>2019-07-04T11:34:44.000Z</time>
      </trkpt>
      <trkpt lat="47.28357" lon="-2.32387">
        <ele>16.200000762939</ele>
        <time>2019-07-04T11:34:46.000Z</time>
      </trkpt>
      <trkpt lat="47.28355" lon="-2.3238">
        <ele>16.60000038147</ele>
        <time>2019-07-04T11:34:47.000Z</time>
      </trkpt>
      <trkpt lat="47.28354" lon="-2.32373">
        <ele>17</ele>
        <time>2019-07-04T11:34:48.000Z</time>
      </trkpt>
      <trkpt lat="47.28352" lon="-2.32366">
        <ele>17.39999961853</ele>
        <time>2019-07-04T11:34:49.000Z</time>
      </trkpt>
      <trkpt lat="47.28351" lon="-2.32359">
        <ele>17.799999237061</ele>
        <time>2019-07-04T11:34:50.000Z</time>
      </trkpt>
      <trkpt lat="47.28349" lon="-2.32352">
        <ele>17.799999237061</ele>
        <time>2019-07-04T11:34:51.000Z</time>
      </trkpt>
      <trkpt lat="47.28336" lon="-2.32287">
        <ele>17.799999237061</ele>
        <time>2019-07-04T11:35:00.000Z</time>
      </trkpt>
      <trkpt lat="47.28328" lon="-2.32248">
        <ele>18.200000762939</ele>
        <time>2019-07-04T11:35:06.000Z</time>
      </trkpt>
      <trkpt lat="47.28327" lon="-2.32242">
        <ele>18.60000038147</ele>
        <time>2019-07-04T11:35:07.000Z</time>
      </trkpt>
      <trkpt lat="47.28326" lon="-2.32235">
        <ele>19.200000762939</ele>
        <time>2019-07-04T11:35:08.000Z</time>
      </trkpt>
      <trkpt lat="47.28324" lon="-2.32229">
        <ele>19.60000038147</ele>
        <time>2019-07-04T11:35:09.000Z</time>
      </trkpt>
      <trkpt lat="47.28323" lon="-2.32222">
        <ele>20</ele>
        <time>2019-07-04T11:35:10.000Z</time>
      </trkpt>
      <trkpt lat="47.28318" lon="-2.3219">
        <ele>20</ele>
        <time>2019-07-04T11:35:15.000Z</time>
      </trkpt>
      <trkpt lat="47.28314" lon="-2.32164">
        <ele>20.39999961853</ele>
        <time>2019-07-04T11:35:19.000Z</time>
      </trkpt>
      <trkpt lat="47.28314" lon="-2.32158">
        <ele>20.799999237061</ele>
        <time>2019-07-04T11:35:20.000Z</time>
      </trkpt>
      <trkpt lat="47.28313" lon="-2.32152">
        <ele>21.39999961853</ele>
        <time>2019-07-04T11:35:21.000Z</time>
      </trkpt>
      <trkpt lat="47.28312" lon="-2.32146">
        <ele>21.799999237061</ele>
        <time>2019-07-04T11:35:22.000Z</time>
      </trkpt>
      <trkpt lat="47.28311" lon="-2.3214">
        <ele>22.200000762939</ele>
        <time>2019-07-04T11:35:23.000Z</time>
      </trkpt>
      <trkpt lat="47.28307" lon="-2.32106">
        <ele>22.200000762939</ele>
        <time>2019-07-04T11:35:29.000Z</time>
      </trkpt>
      <trkpt lat="47.28304" lon="-2.32083">
        <ele>22.60000038147</ele>
        <time>2019-07-04T11:35:33.000Z</time>
      </trkpt>
      <trkpt lat="47.28304" lon="-2.32077">
        <ele>23</ele>
        <time>2019-07-04T11:35:34.000Z</time>
      </trkpt>
      <trkpt lat="47.28303" lon="-2.32072">
        <ele>23.39999961853</ele>
        <time>2019-07-04T11:35:35.000Z</time>
      </trkpt>
      <trkpt lat="47.28303" lon="-2.32065">
        <ele>23.799999237061</ele>
        <time>2019-07-04T11:35:36.000Z</time>
      </trkpt>
      <trkpt lat="47.28301" lon="-2.3206">
        <ele>24.200000762939</ele>
        <time>2019-07-04T11:35:37.000Z</time>
      </trkpt>
      <trkpt lat="47.28298" lon="-2.32057">
        <ele>24.200000762939</ele>
        <time>2019-07-04T11:35:38.000Z</time>
      </trkpt>
      <trkpt lat="47.28294" lon="-2.32055">
        <ele>24.200000762939</ele>
        <time>2019-07-04T11:35:39.000Z</time>
      </trkpt>
      <trkpt lat="47.2828" lon="-2.32056">
        <ele>24.200000762939</ele>
        <time>2019-07-04T11:35:42.000Z</time>
      </trkpt>
      <trkpt lat="47.28245" lon="-2.32062">
        <ele>24.200000762939</ele>
        <time>2019-07-04T11:35:49.000Z</time>
      </trkpt>
      <trkpt lat="47.28208" lon="-2.32067">
        <ele>24.200000762939</ele>
        <time>2019-07-04T11:35:56.000Z</time>
      </trkpt>
      <trkpt lat="47.28169" lon="-2.32072">
        <ele>24.200000762939</ele>
        <time>2019-07-04T11:36:03.000Z</time>
      </trkpt>
      <trkpt lat="47.28128" lon="-2.3209">
        <ele>24.200000762939</ele>
        <time>2019-07-04T11:36:10.000Z</time>
      </trkpt>
      <trkpt lat="47.28111" lon="-2.32103">
        <ele>23.799999237061</ele>
        <time>2019-07-04T11:36:13.000Z</time>
      </trkpt>
      <trkpt lat="47.28106" lon="-2.32108">
        <ele>23.200000762939</ele>
        <time>2019-07-04T11:36:14.000Z</time>
      </trkpt>
      <trkpt lat="47.28102" lon="-2.32115">
        <ele>22.799999237061</ele>
        <time>2019-07-04T11:36:15.000Z</time>
      </trkpt>
      <trkpt lat="47.28096" lon="-2.3212">
        <ele>22.200000762939</ele>
        <time>2019-07-04T11:36:16.000Z</time>
      </trkpt>
      <trkpt lat="47.2809" lon="-2.32123">
        <ele>21.799999237061</ele>
        <time>2019-07-04T11:36:17.000Z</time>
      </trkpt>
      <trkpt lat="47.28082" lon="-2.32124">
        <ele>21.799999237061</ele>
        <time>2019-07-04T11:36:18.000Z</time>
      </trkpt>
      <trkpt lat="47.28067" lon="-2.32109">
        <ele>21.799999237061</ele>
        <time>2019-07-04T11:36:21.000Z</time>
      </trkpt>
      <trkpt lat="47.28054" lon="-2.3208">
        <ele>21.799999237061</ele>
        <time>2019-07-04T11:36:25.000Z</time>
      </trkpt>
      <trkpt lat="47.28037" lon="-2.32043">
        <ele>21.799999237061</ele>
        <time>2019-07-04T11:36:31.000Z</time>
      </trkpt>
      <trkpt lat="47.2802" lon="-2.32007">
        <ele>21.799999237061</ele>
        <time>2019-07-04T11:36:37.000Z</time>
      </trkpt>
      <trkpt lat="47.27989" lon="-2.31966">
        <ele>21.799999237061</ele>
        <time>2019-07-04T11:36:45.000Z</time>
      </trkpt>
      <trkpt lat="47.27964" lon="-2.31941">
        <ele>21.799999237061</ele>
        <time>2019-07-04T11:36:51.000Z</time>
      </trkpt>
      <trkpt lat="47.27938" lon="-2.31917">
        <ele>21.799999237061</ele>
        <time>2019-07-04T11:36:57.000Z</time>
      </trkpt>
      <trkpt lat="47.27918" lon="-2.31904">
        <ele>22.200000762939</ele>
        <time>2019-07-04T11:37:01.000Z</time>
      </trkpt>
      <trkpt lat="47.27913" lon="-2.319">
        <ele>22.60000038147</ele>
        <time>2019-07-04T11:37:02.000Z</time>
      </trkpt>
      <trkpt lat="47.27908" lon="-2.31897">
        <ele>23</ele>
        <time>2019-07-04T11:37:03.000Z</time>
      </trkpt>
      <trkpt lat="47.27903" lon="-2.31894">
        <ele>23.39999961853</ele>
        <time>2019-07-04T11:37:04.000Z</time>
      </trkpt>
      <trkpt lat="47.27899" lon="-2.3189">
        <ele>23.799999237061</ele>
        <time>2019-07-04T11:37:05.000Z</time>
      </trkpt>
      <trkpt lat="47.27884" lon="-2.31888">
        <ele>23.799999237061</ele>
        <time>2019-07-04T11:37:08.000Z</time>
      </trkpt>
      <trkpt lat="47.27879" lon="-2.31902">
        <ele>23.799999237061</ele>
        <time>2019-07-04T11:37:10.000Z</time>
      </trkpt>
      <trkpt lat="47.27876" lon="-2.31916">
        <ele>23.799999237061</ele>
        <time>2019-07-04T11:37:12.000Z</time>
      </trkpt>
      <trkpt lat="47.27869" lon="-2.31937">
        <ele>23.799999237061</ele>
        <time>2019-07-04T11:37:15.000Z</time>
      </trkpt>
      <trkpt lat="47.27863" lon="-2.31951">
        <ele>23.799999237061</ele>
        <time>2019-07-04T11:37:17.000Z</time>
      </trkpt>
      <trkpt lat="47.2785" lon="-2.31962">
        <ele>23.799999237061</ele>
        <time>2019-07-04T11:37:20.000Z</time>
      </trkpt>
      <trkpt lat="47.27834" lon="-2.31969">
        <ele>23.799999237061</ele>
        <time>2019-07-04T11:37:23.000Z</time>
      </trkpt>
      <trkpt lat="47.27825" lon="-2.31979">
        <ele>23.799999237061</ele>
        <time>2019-07-04T11:37:25.000Z</time>
      </trkpt>
      <trkpt lat="47.27809" lon="-2.32009">
        <ele>23.799999237061</ele>
        <time>2019-07-04T11:37:29.000Z</time>
      </trkpt>
      <trkpt lat="47.27806" lon="-2.32018">
        <ele>23.799999237061</ele>
        <time>2019-07-04T11:37:30.000Z</time>
      </trkpt>
      <trkpt lat="47.27798" lon="-2.32034">
        <ele>23.39999961853</ele>
        <time>2019-07-04T11:37:32.000Z</time>
      </trkpt>
      <trkpt lat="47.27794" lon="-2.32043">
        <ele>22.799999237061</ele>
        <time>2019-07-04T11:37:33.000Z</time>
      </trkpt>
      <trkpt lat="47.2779" lon="-2.32052">
        <ele>22</ele>
        <time>2019-07-04T11:37:34.000Z</time>
      </trkpt>
      <trkpt lat="47.27785" lon="-2.32061">
        <ele>21.60000038147</ele>
        <time>2019-07-04T11:37:35.000Z</time>
      </trkpt>
      <trkpt lat="47.27763" lon="-2.32077">
        <ele>21.60000038147</ele>
        <time>2019-07-04T11:37:38.000Z</time>
      </trkpt>
      <trkpt lat="47.2774" lon="-2.32078">
        <ele>21.60000038147</ele>
        <time>2019-07-04T11:37:41.000Z</time>
      </trkpt>
      <trkpt lat="47.27724" lon="-2.32076">
        <ele>21</ele>
        <time>2019-07-04T11:37:43.000Z</time>
      </trkpt>
      <trkpt lat="47.27716" lon="-2.32075">
        <ele>20.60000038147</ele>
        <time>2019-07-04T11:37:44.000Z</time>
      </trkpt>
      <trkpt lat="47.27709" lon="-2.32074">
        <ele>20</ele>
        <time>2019-07-04T11:37:45.000Z</time>
      </trkpt>
      <trkpt lat="47.27701" lon="-2.32074">
        <ele>19.60000038147</ele>
        <time>2019-07-04T11:37:46.000Z</time>
      </trkpt>
      <trkpt lat="47.27693" lon="-2.32077">
        <ele>19</ele>
        <time>2019-07-04T11:37:47.000Z</time>
      </trkpt>
      <trkpt lat="47.27676" lon="-2.32098">
        <ele>18.60000038147</ele>
        <time>2019-07-04T11:37:50.000Z</time>
      </trkpt>
      <trkpt lat="47.27672" lon="-2.32107">
        <ele>18</ele>
        <time>2019-07-04T11:37:51.000Z</time>
      </trkpt>
      <trkpt lat="47.2767" lon="-2.32116">
        <ele>17.60000038147</ele>
        <time>2019-07-04T11:37:52.000Z</time>
      </trkpt>
      <trkpt lat="47.27667" lon="-2.32125">
        <ele>17.200000762939</ele>
        <time>2019-07-04T11:37:53.000Z</time>
      </trkpt>
      <trkpt lat="47.27664" lon="-2.32133">
        <ele>16.60000038147</ele>
        <time>2019-07-04T11:37:54.000Z</time>
      </trkpt>
      <trkpt lat="47.27649" lon="-2.32181">
        <ele>16.60000038147</ele>
        <time>2019-07-04T11:38:00.000Z</time>
      </trkpt>
      <trkpt lat="47.27647" lon="-2.32188">
        <ele>17.200000762939</ele>
        <time>2019-07-04T11:38:01.000Z</time>
      </trkpt>
      <trkpt lat="47.27646" lon="-2.32196">
        <ele>17.60000038147</ele>
        <time>2019-07-04T11:38:02.000Z</time>
      </trkpt>
      <trkpt lat="47.27644" lon="-2.32203">
        <ele>18</ele>
        <time>2019-07-04T11:38:03.000Z</time>
      </trkpt>
      <trkpt lat="47.27642" lon="-2.32211">
        <ele>18.39999961853</ele>
        <time>2019-07-04T11:38:04.000Z</time>
      </trkpt>
      <trkpt lat="47.2764" lon="-2.32218">
        <ele>18.799999237061</ele>
        <time>2019-07-04T11:38:05.000Z</time>
      </trkpt>
      <trkpt lat="47.27636" lon="-2.32231">
        <ele>18.799999237061</ele>
        <time>2019-07-04T11:38:07.000Z</time>
      </trkpt>
      <trkpt lat="47.27618" lon="-2.3228">
        <ele>18.799999237061</ele>
        <time>2019-07-04T11:38:14.000Z</time>
      </trkpt>
      <trkpt lat="47.2761" lon="-2.32292">
        <ele>18.799999237061</ele>
        <time>2019-07-04T11:38:17.000Z</time>
      </trkpt>
      <trkpt lat="47.27605" lon="-2.32292">
        <ele>18.799999237061</ele>
        <time>2019-07-04T11:38:18.000Z</time>
      </trkpt>
      <trkpt lat="47.27593" lon="-2.3228">
        <ele>18.799999237061</ele>
        <time>2019-07-04T11:38:21.000Z</time>
      </trkpt>
      <trkpt lat="47.27563" lon="-2.32253">
        <ele>18.799999237061</ele>
        <time>2019-07-04T11:38:26.000Z</time>
      </trkpt>
      <trkpt lat="47.27528" lon="-2.32219">
        <ele>18.39999961853</ele>
        <time>2019-07-04T11:38:32.000Z</time>
      </trkpt>
      <trkpt lat="47.27523" lon="-2.32213">
        <ele>18</ele>
        <time>2019-07-04T11:38:33.000Z</time>
      </trkpt>
      <trkpt lat="47.27518" lon="-2.32207">
        <ele>17.39999961853</ele>
        <time>2019-07-04T11:38:34.000Z</time>
      </trkpt>
      <trkpt lat="47.27513" lon="-2.32201">
        <ele>17</ele>
        <time>2019-07-04T11:38:35.000Z</time>
      </trkpt>
      <trkpt lat="47.27508" lon="-2.32195">
        <ele>16.39999961853</ele>
        <time>2019-07-04T11:38:36.000Z</time>
      </trkpt>
      <trkpt lat="47.27502" lon="-2.32188">
        <ele>15.800000190735</ele>
        <time>2019-07-04T11:38:37.000Z</time>
      </trkpt>
      <trkpt lat="47.27497" lon="-2.3218">
        <ele>15.39999961853</ele>
        <time>2019-07-04T11:38:38.000Z</time>
      </trkpt>
      <trkpt lat="47.27491" lon="-2.32173">
        <ele>14.800000190735</ele>
        <time>2019-07-04T11:38:39.000Z</time>
      </trkpt>
      <trkpt lat="47.27486" lon="-2.32165">
        <ele>14.199999809265</ele>
        <time>2019-07-04T11:38:40.000Z</time>
      </trkpt>
      <trkpt lat="47.27454" lon="-2.32123">
        <ele>14.199999809265</ele>
        <time>2019-07-04T11:38:46.000Z</time>
      </trkpt>
      <trkpt lat="47.2742" lon="-2.32079">
        <ele>14.199999809265</ele>
        <time>2019-07-04T11:38:53.000Z</time>
      </trkpt>
      <trkpt lat="47.27403" lon="-2.3206">
        <ele>13.800000190735</ele>
        <time>2019-07-04T11:38:56.000Z</time>
      </trkpt>
      <trkpt lat="47.27397" lon="-2.32054">
        <ele>13.39999961853</ele>
        <time>2019-07-04T11:38:57.000Z</time>
      </trkpt>
      <trkpt lat="47.27391" lon="-2.32048">
        <ele>13</ele>
        <time>2019-07-04T11:38:58.000Z</time>
      </trkpt>
      <trkpt lat="47.27385" lon="-2.32041">
        <ele>12.60000038147</ele>
        <time>2019-07-04T11:38:59.000Z</time>
      </trkpt>
      <trkpt lat="47.27379" lon="-2.32034">
        <ele>12.199999809265</ele>
        <time>2019-07-04T11:39:00.000Z</time>
      </trkpt>
      <trkpt lat="47.27366" lon="-2.32021">
        <ele>11.800000190735</ele>
        <time>2019-07-04T11:39:02.000Z</time>
      </trkpt>
      <trkpt lat="47.27359" lon="-2.32014">
        <ele>11.199999809265</ele>
        <time>2019-07-04T11:39:03.000Z</time>
      </trkpt>
      <trkpt lat="47.27353" lon="-2.32007">
        <ele>10.800000190735</ele>
        <time>2019-07-04T11:39:04.000Z</time>
      </trkpt>
      <trkpt lat="47.27346" lon="-2.32">
        <ele>10.39999961853</ele>
        <time>2019-07-04T11:39:05.000Z</time>
      </trkpt>
      <trkpt lat="47.2734" lon="-2.31994">
        <ele>10</ele>
        <time>2019-07-04T11:39:06.000Z</time>
      </trkpt>
      <trkpt lat="47.27328" lon="-2.31981">
        <ele>10</ele>
        <time>2019-07-04T11:39:08.000Z</time>
      </trkpt>
      <trkpt lat="47.27322" lon="-2.31975">
        <ele>9.6000003814697</ele>
        <time>2019-07-04T11:39:09.000Z</time>
      </trkpt>
      <trkpt lat="47.27317" lon="-2.31969">
        <ele>9.1999998092651</ele>
        <time>2019-07-04T11:39:10.000Z</time>
      </trkpt>
      <trkpt lat="47.27312" lon="-2.31962">
        <ele>8.8000001907349</ele>
        <time>2019-07-04T11:39:11.000Z</time>
      </trkpt>
      <trkpt lat="47.27306" lon="-2.31957">
        <ele>8.3999996185303</ele>
        <time>2019-07-04T11:39:12.000Z</time>
      </trkpt>
      <trkpt lat="47.27301" lon="-2.31953">
        <ele>8</ele>
        <time>2019-07-04T11:39:13.000Z</time>
      </trkpt>
      <trkpt lat="47.2729" lon="-2.31945">
        <ele>8</ele>
        <time>2019-07-04T11:39:15.000Z</time>
      </trkpt>
      <trkpt lat="47.2728" lon="-2.3194">
        <ele>8</ele>
        <time>2019-07-04T11:39:17.000Z</time>
      </trkpt>
      <trkpt lat="47.27275" lon="-2.31938">
        <ele>8</ele>
        <time>2019-07-04T11:39:18.000Z</time>
      </trkpt>
      <trkpt lat="47.27259" lon="-2.31934">
        <ele>8.3999996185303</ele>
        <time>2019-07-04T11:39:21.000Z</time>
      </trkpt>
      <trkpt lat="47.27254" lon="-2.31933">
        <ele>8.8000001907349</ele>
        <time>2019-07-04T11:39:22.000Z</time>
      </trkpt>
      <trkpt lat="47.27248" lon="-2.31932">
        <ele>9.1999998092651</ele>
        <time>2019-07-04T11:39:23.000Z</time>
      </trkpt>
      <trkpt lat="47.27243" lon="-2.3193">
        <ele>9.6000003814697</ele>
        <time>2019-07-04T11:39:24.000Z</time>
      </trkpt>
      <trkpt lat="47.27238" lon="-2.31929">
        <ele>10</ele>
        <time>2019-07-04T11:39:25.000Z</time>
      </trkpt>
      <trkpt lat="47.27233" lon="-2.31926">
        <ele>10</ele>
        <time>2019-07-04T11:39:26.000Z</time>
      </trkpt>
      <trkpt lat="47.27224" lon="-2.31921">
        <ele>10</ele>
        <time>2019-07-04T11:39:28.000Z</time>
      </trkpt>
      <trkpt lat="47.27213" lon="-2.31924">
        <ele>9.6000003814697</ele>
        <time>2019-07-04T11:39:31.000Z</time>
      </trkpt>
      <trkpt lat="47.27212" lon="-2.31926">
        <ele>9</ele>
        <time>2019-07-04T11:39:32.000Z</time>
      </trkpt>
      <trkpt lat="47.27211" lon="-2.31929">
        <ele>8.6000003814697</ele>
        <time>2019-07-04T11:39:33.000Z</time>
      </trkpt>
      <trkpt lat="47.2721" lon="-2.31933">
        <ele>8.1999998092651</ele>
        <time>2019-07-04T11:39:34.000Z</time>
      </trkpt>
      <trkpt lat="47.27208" lon="-2.31936">
        <ele>7.5999999046326</ele>
        <time>2019-07-04T11:39:35.000Z</time>
      </trkpt>
      <trkpt lat="47.27207" lon="-2.3194">
        <ele>7.5999999046326</ele>
        <time>2019-07-04T11:39:36.000Z</time>
      </trkpt>
      <trkpt lat="47.27196" lon="-2.31959">
        <ele>7.5999999046326</ele>
        <time>2019-07-04T11:39:41.000Z</time>
      </trkpt>
      <trkpt lat="47.27184" lon="-2.31978">
        <ele>7.5999999046326</ele>
        <time>2019-07-04T11:39:44.000Z</time>
      </trkpt>
      <trkpt lat="47.27172" lon="-2.31981">
        <ele>7.5999999046326</ele>
        <time>2019-07-04T11:39:46.000Z</time>
      </trkpt>
      <trkpt lat="47.27149" lon="-2.31976">
        <ele>7.5999999046326</ele>
        <time>2019-07-04T11:39:50.000Z</time>
      </trkpt>
      <trkpt lat="47.27139" lon="-2.31971">
        <ele>7.5999999046326</ele>
        <time>2019-07-04T11:39:52.000Z</time>
      </trkpt>
      <trkpt lat="47.27129" lon="-2.31966">
        <ele>7.5999999046326</ele>
        <time>2019-07-04T11:39:54.000Z</time>
      </trkpt>
      <trkpt lat="47.27119" lon="-2.31963">
        <ele>7.5999999046326</ele>
        <time>2019-07-04T11:39:56.000Z</time>
      </trkpt>
      <trkpt lat="47.2711" lon="-2.31959">
        <ele>7.5999999046326</ele>
        <time>2019-07-04T11:39:58.000Z</time>
      </trkpt>
      <trkpt lat="47.27097" lon="-2.31956">
        <ele>7.5999999046326</ele>
        <time>2019-07-04T11:40:01.000Z</time>
      </trkpt>
      <trkpt lat="47.27079" lon="-2.31958">
        <ele>7.5999999046326</ele>
        <time>2019-07-04T11:40:05.000Z</time>
      </trkpt>
      <trkpt lat="47.27053" lon="-2.31961">
        <ele>7.5999999046326</ele>
        <time>2019-07-04T11:40:11.000Z</time>
      </trkpt>
      <trkpt lat="47.27037" lon="-2.31968">
        <ele>7.5999999046326</ele>
        <time>2019-07-04T11:40:15.000Z</time>
      </trkpt>
      <trkpt lat="47.2701" lon="-2.31985">
        <ele>7.5999999046326</ele>
        <time>2019-07-04T11:40:21.000Z</time>
      </trkpt>
      <trkpt lat="47.27" lon="-2.31991">
        <ele>7.5999999046326</ele>
        <time>2019-07-04T11:40:23.000Z</time>
      </trkpt>
      <trkpt lat="47.26994" lon="-2.31995">
        <ele>7.5999999046326</ele>
        <time>2019-07-04T11:40:25.000Z</time>
      </trkpt>
      <trkpt lat="47.26982" lon="-2.31998">
        <ele>7.5999999046326</ele>
        <time>2019-07-04T11:40:28.000Z</time>
      </trkpt>
      <trkpt lat="47.26973" lon="-2.32001">
        <ele>8</ele>
        <time>2019-07-04T11:40:30.000Z</time>
      </trkpt>
      <trkpt lat="47.2697" lon="-2.32002">
        <ele>8.3999996185303</ele>
        <time>2019-07-04T11:40:31.000Z</time>
      </trkpt>
      <trkpt lat="47.26966" lon="-2.32002">
        <ele>9</ele>
        <time>2019-07-04T11:40:32.000Z</time>
      </trkpt>
      <trkpt lat="47.26962" lon="-2.32003">
        <ele>9.3999996185303</ele>
        <time>2019-07-04T11:40:33.000Z</time>
      </trkpt>
      <trkpt lat="47.26959" lon="-2.32001">
        <ele>9.8000001907349</ele>
        <time>2019-07-04T11:40:34.000Z</time>
      </trkpt>
      <trkpt lat="47.26956" lon="-2.31998">
        <ele>9.8000001907349</ele>
        <time>2019-07-04T11:40:35.000Z</time>
      </trkpt>
      <trkpt lat="47.26944" lon="-2.31982">
        <ele>9.8000001907349</ele>
        <time>2019-07-04T11:40:39.000Z</time>
      </trkpt>
      <trkpt lat="47.26942" lon="-2.31979">
        <ele>9.8000001907349</ele>
        <time>2019-07-04T11:40:40.000Z</time>
      </trkpt>
      <trkpt lat="47.26922" lon="-2.31954">
        <ele>10.199999809265</ele>
        <time>2019-07-04T11:40:47.000Z</time>
      </trkpt>
      <trkpt lat="47.2692" lon="-2.31953">
        <ele>10.60000038147</ele>
        <time>2019-07-04T11:40:48.000Z</time>
      </trkpt>
      <trkpt lat="47.26916" lon="-2.3195">
        <ele>11</ele>
        <time>2019-07-04T11:40:49.000Z</time>
      </trkpt>
      <trkpt lat="47.26913" lon="-2.31946">
        <ele>11.39999961853</ele>
        <time>2019-07-04T11:40:50.000Z</time>
      </trkpt>
      <trkpt lat="47.26909" lon="-2.31942">
        <ele>11.800000190735</ele>
        <time>2019-07-04T11:40:51.000Z</time>
      </trkpt>
      <trkpt lat="47.26906" lon="-2.31939">
        <ele>11.800000190735</ele>
        <time>2019-07-04T11:40:52.000Z</time>
      </trkpt>
      <trkpt lat="47.26896" lon="-2.31923">
        <ele>12.199999809265</ele>
        <time>2019-07-04T11:40:56.000Z</time>
      </trkpt>
      <trkpt lat="47.26893" lon="-2.31918">
        <ele>12.60000038147</ele>
        <time>2019-07-04T11:40:57.000Z</time>
      </trkpt>
      <trkpt lat="47.26891" lon="-2.31915">
        <ele>13</ele>
        <time>2019-07-04T11:40:58.000Z</time>
      </trkpt>
      <trkpt lat="47.26889" lon="-2.31913">
        <ele>13.39999961853</ele>
        <time>2019-07-04T11:40:59.000Z</time>
      </trkpt>
      <trkpt lat="47.26886" lon="-2.31909">
        <ele>13.800000190735</ele>
        <time>2019-07-04T11:41:00.000Z</time>
      </trkpt>
      <trkpt lat="47.26878" lon="-2.31899">
        <ele>13.800000190735</ele>
        <time>2019-07-04T11:41:03.000Z</time>
      </trkpt>
      <trkpt lat="47.26864" lon="-2.31894">
        <ele>14.199999809265</ele>
        <time>2019-07-04T11:41:07.000Z</time>
      </trkpt>
      <trkpt lat="47.26861" lon="-2.31893">
        <ele>14.60000038147</ele>
        <time>2019-07-04T11:41:08.000Z</time>
      </trkpt>
      <trkpt lat="47.26857" lon="-2.31893">
        <ele>15</ele>
        <time>2019-07-04T11:41:09.000Z</time>
      </trkpt>
      <trkpt lat="47.26854" lon="-2.31892">
        <ele>15.39999961853</ele>
        <time>2019-07-04T11:41:10.000Z</time>
      </trkpt>
      <trkpt lat="47.2685" lon="-2.3189">
        <ele>15.800000190735</ele>
        <time>2019-07-04T11:41:11.000Z</time>
      </trkpt>
      <trkpt lat="47.26843" lon="-2.31882">
        <ele>15.800000190735</ele>
        <time>2019-07-04T11:41:14.000Z</time>
      </trkpt>
      <trkpt lat="47.26833" lon="-2.31864">
        <ele>16.200000762939</ele>
        <time>2019-07-04T11:41:19.000Z</time>
      </trkpt>
      <trkpt lat="47.26832" lon="-2.3186">
        <ele>16.799999237061</ele>
        <time>2019-07-04T11:41:20.000Z</time>
      </trkpt>
      <trkpt lat="47.2683" lon="-2.31856">
        <ele>17.200000762939</ele>
        <time>2019-07-04T11:41:21.000Z</time>
      </trkpt>
      <trkpt lat="47.26829" lon="-2.31852">
        <ele>17.60000038147</ele>
        <time>2019-07-04T11:41:22.000Z</time>
      </trkpt>
      <trkpt lat="47.26827" lon="-2.31848">
        <ele>18</ele>
        <time>2019-07-04T11:41:23.000Z</time>
      </trkpt>
      <trkpt lat="47.26822" lon="-2.31835">
        <ele>18</ele>
        <time>2019-07-04T11:41:26.000Z</time>
      </trkpt>
      <trkpt lat="47.26816" lon="-2.31812">
        <ele>18</ele>
        <time>2019-07-04T11:41:32.000Z</time>
      </trkpt>
      <trkpt lat="47.26815" lon="-2.3181">
        <ele>18</ele>
        <time>2019-07-04T11:41:33.000Z</time>
      </trkpt>
      <trkpt lat="47.26809" lon="-2.3181">
        <ele>18</ele>
        <time>2019-07-04T11:41:35.000Z</time>
      </trkpt>
      <trkpt lat="47.26799" lon="-2.31816">
        <ele>18</ele>
        <time>2019-07-04T11:41:38.000Z</time>
      </trkpt>
      <trkpt lat="47.26791" lon="-2.3182">
        <ele>18</ele>
        <time>2019-07-04T11:41:40.000Z</time>
      </trkpt>
      <trkpt lat="47.26784" lon="-2.31824">
        <ele>18.39999961853</ele>
        <time>2019-07-04T11:41:42.000Z</time>
      </trkpt>
      <trkpt lat="47.2678" lon="-2.31826">
        <ele>18.799999237061</ele>
        <time>2019-07-04T11:41:43.000Z</time>
      </trkpt>
      <trkpt lat="47.26777" lon="-2.31829">
        <ele>19.200000762939</ele>
        <time>2019-07-04T11:41:44.000Z</time>
      </trkpt>
      <trkpt lat="47.26773" lon="-2.31831">
        <ele>19.60000038147</ele>
        <time>2019-07-04T11:41:45.000Z</time>
      </trkpt>
      <trkpt lat="47.2677" lon="-2.31834">
        <ele>20</ele>
        <time>2019-07-04T11:41:46.000Z</time>
      </trkpt>
      <trkpt lat="47.26766" lon="-2.31837">
        <ele>20</ele>
        <time>2019-07-04T11:41:47.000Z</time>
      </trkpt>
      <trkpt lat="47.26741" lon="-2.31857">
        <ele>20</ele>
        <time>2019-07-04T11:41:54.000Z</time>
      </trkpt>
      <trkpt lat="47.26731" lon="-2.31855">
        <ele>20</ele>
        <time>2019-07-04T11:41:57.000Z</time>
      </trkpt>
      <trkpt lat="47.26729" lon="-2.3185">
        <ele>20</ele>
        <time>2019-07-04T11:41:58.000Z</time>
      </trkpt>
      <trkpt lat="47.26723" lon="-2.31833">
        <ele>20</ele>
        <time>2019-07-04T11:42:01.000Z</time>
      </trkpt>
      <trkpt lat="47.2672" lon="-2.31821">
        <ele>20.60000038147</ele>
        <time>2019-07-04T11:42:03.000Z</time>
      </trkpt>
      <trkpt lat="47.26719" lon="-2.31815">
        <ele>21</ele>
        <time>2019-07-04T11:42:04.000Z</time>
      </trkpt>
      <trkpt lat="47.26717" lon="-2.31809">
        <ele>21.39999961853</ele>
        <time>2019-07-04T11:42:05.000Z</time>
      </trkpt>
      <trkpt lat="47.26716" lon="-2.31803">
        <ele>22.200000762939</ele>
        <time>2019-07-04T11:42:06.000Z</time>
      </trkpt>
      <trkpt lat="47.26706" lon="-2.31766">
        <ele>22.200000762939</ele>
        <time>2019-07-04T11:42:12.000Z</time>
      </trkpt>
      <trkpt lat="47.26702" lon="-2.31747">
        <ele>22.200000762939</ele>
        <time>2019-07-04T11:42:15.000Z</time>
      </trkpt>
      <trkpt lat="47.26695" lon="-2.31723">
        <ele>22.200000762939</ele>
        <time>2019-07-04T11:42:19.000Z</time>
      </trkpt>
      <trkpt lat="47.26678" lon="-2.31665">
        <ele>22.200000762939</ele>
        <time>2019-07-04T11:42:27.000Z</time>
      </trkpt>
      <trkpt lat="47.2666" lon="-2.31622">
        <ele>22.200000762939</ele>
        <time>2019-07-04T11:42:33.000Z</time>
      </trkpt>
      <trkpt lat="47.26641" lon="-2.31575">
        <ele>22.200000762939</ele>
        <time>2019-07-04T11:42:40.000Z</time>
      </trkpt>
      <trkpt lat="47.26635" lon="-2.31563">
        <ele>22.200000762939</ele>
        <time>2019-07-04T11:42:42.000Z</time>
      </trkpt>
      <trkpt lat="47.26624" lon="-2.31563">
        <ele>22.200000762939</ele>
        <time>2019-07-04T11:42:44.000Z</time>
      </trkpt>
      <trkpt lat="47.26608" lon="-2.31576">
        <ele>22.200000762939</ele>
        <time>2019-07-04T11:42:47.000Z</time>
      </trkpt>
      <trkpt lat="47.2658" lon="-2.31597">
        <ele>22.200000762939</ele>
        <time>2019-07-04T11:42:51.000Z</time>
      </trkpt>
      <trkpt lat="47.26572" lon="-2.31602">
        <ele>21.799999237061</ele>
        <time>2019-07-04T11:42:52.000Z</time>
      </trkpt>
      <trkpt lat="47.26565" lon="-2.31609">
        <ele>21.39999961853</ele>
        <time>2019-07-04T11:42:53.000Z</time>
      </trkpt>
      <trkpt lat="47.26557" lon="-2.31614">
        <ele>20.799999237061</ele>
        <time>2019-07-04T11:42:54.000Z</time>
      </trkpt>
      <trkpt lat="47.26548" lon="-2.31619">
        <ele>20</ele>
        <time>2019-07-04T11:42:55.000Z</time>
      </trkpt>
      <trkpt lat="47.26539" lon="-2.31625">
        <ele>19.39999961853</ele>
        <time>2019-07-04T11:42:56.000Z</time>
      </trkpt>
      <trkpt lat="47.26531" lon="-2.3163">
        <ele>19</ele>
        <time>2019-07-04T11:42:57.000Z</time>
      </trkpt>
      <trkpt lat="47.26522" lon="-2.31636">
        <ele>18.39999961853</ele>
        <time>2019-07-04T11:42:58.000Z</time>
      </trkpt>
      <trkpt lat="47.26513" lon="-2.31641">
        <ele>18</ele>
        <time>2019-07-04T11:42:59.000Z</time>
      </trkpt>
      <trkpt lat="47.26504" lon="-2.31645">
        <ele>17.39999961853</ele>
        <time>2019-07-04T11:43:00.000Z</time>
      </trkpt>
      <trkpt lat="47.26486" lon="-2.31651">
        <ele>17</ele>
        <time>2019-07-04T11:43:02.000Z</time>
      </trkpt>
      <trkpt lat="47.26476" lon="-2.31654">
        <ele>16.60000038147</ele>
        <time>2019-07-04T11:43:03.000Z</time>
      </trkpt>
      <trkpt lat="47.26466" lon="-2.31656">
        <ele>16</ele>
        <time>2019-07-04T11:43:04.000Z</time>
      </trkpt>
      <trkpt lat="47.26455" lon="-2.31658">
        <ele>15.60000038147</ele>
        <time>2019-07-04T11:43:05.000Z</time>
      </trkpt>
      <trkpt lat="47.26445" lon="-2.31659">
        <ele>15</ele>
        <time>2019-07-04T11:43:06.000Z</time>
      </trkpt>
      <trkpt lat="47.26436" lon="-2.31661">
        <ele>14.60000038147</ele>
        <time>2019-07-04T11:43:07.000Z</time>
      </trkpt>
      <trkpt lat="47.26427" lon="-2.31663">
        <ele>14.199999809265</ele>
        <time>2019-07-04T11:43:08.000Z</time>
      </trkpt>
      <trkpt lat="47.26419" lon="-2.31665">
        <ele>13.800000190735</ele>
        <time>2019-07-04T11:43:09.000Z</time>
      </trkpt>
      <trkpt lat="47.26412" lon="-2.31664">
        <ele>13.39999961853</ele>
        <time>2019-07-04T11:43:10.000Z</time>
      </trkpt>
      <trkpt lat="47.26406" lon="-2.31662">
        <ele>13</ele>
        <time>2019-07-04T11:43:11.000Z</time>
      </trkpt>
      <trkpt lat="47.26403" lon="-2.31655">
        <ele>12.39999961853</ele>
        <time>2019-07-04T11:43:12.000Z</time>
      </trkpt>
      <trkpt lat="47.26403" lon="-2.31643">
        <ele>12</ele>
        <time>2019-07-04T11:43:13.000Z</time>
      </trkpt>
      <trkpt lat="47.26403" lon="-2.31635">
        <ele>11.39999961853</ele>
        <time>2019-07-04T11:43:14.000Z</time>
      </trkpt>
      <trkpt lat="47.26403" lon="-2.31628">
        <ele>11</ele>
        <time>2019-07-04T11:43:15.000Z</time>
      </trkpt>
      <trkpt lat="47.26404" lon="-2.31613">
        <ele>10.60000038147</ele>
        <time>2019-07-04T11:43:17.000Z</time>
      </trkpt>
      <trkpt lat="47.26404" lon="-2.31605">
        <ele>10</ele>
        <time>2019-07-04T11:43:18.000Z</time>
      </trkpt>
      <trkpt lat="47.26404" lon="-2.31597">
        <ele>9.6000003814697</ele>
        <time>2019-07-04T11:43:19.000Z</time>
      </trkpt>
      <trkpt lat="47.26405" lon="-2.3159">
        <ele>8.8000001907349</ele>
        <time>2019-07-04T11:43:20.000Z</time>
      </trkpt>
      <trkpt lat="47.26408" lon="-2.3156">
        <ele>8.8000001907349</ele>
        <time>2019-07-04T11:43:25.000Z</time>
      </trkpt>
      <trkpt lat="47.26417" lon="-2.31556">
        <ele>8.8000001907349</ele>
        <time>2019-07-04T11:43:30.000Z</time>
      </trkpt>
    </trkseg>
  </trk>
</gpx>